<?xml version="1.0" encoding="UTF-8" standalone="no" ?>
<gpx xmlns="http://www.topografix.com/GPX/1/1" xmlns:xsi="http://www.w3.org/2001/XMLSchema-instance" xsi:schemaLocation="http://www.topografix.com/GPX/1/1 http://www.topografix.com/GPX/1/1/gpx.xsd" version="1.1" creator="VisuGPX - https://www.visugpx.com">
  <metadata>
    <name>La Peyre (Vallée de Lespone au départ de La Vialette, 9 février 2013)</name>
    <desc><![CDATA[Très belle journée, temps gris mais sans presque de neige et très bonne visibilité sur la vallée de Campan, Bagnères, Lourdes et Tarbes. 

Montée dans les arbres croulants sous la neige et descente dans une poudreuse de rêve (presque). Attention à l'énorme corniche le long de la dernière crête. Pluie dans la vallée. 

Moralité "Qui trop regarde la météo reste au bistrot" (vieux proverbe breton).]]></desc>
  </metadata>
  <trk>
    <name><![CDATA[La Peyre (Vallée de Lespone au départ de La Vialette, 9 février 2013)_1]]></name>
    <trkseg>
      <trkpt lat="43.01334" lon="0.1286">
        <ele>875</ele>
        <time>2013-02-09T08:48:14Z</time>
      </trkpt>
      <trkpt lat="43.01354" lon="0.12836">
        <ele>873</ele>
        <time>2013-02-09T08:49:58Z</time>
      </trkpt>
      <trkpt lat="43.01355" lon="0.12833">
        <ele>871</ele>
        <time>2013-02-09T08:50:00Z</time>
      </trkpt>
      <trkpt lat="43.01356" lon="0.12831">
        <ele>871</ele>
        <time>2013-02-09T08:50:01Z</time>
      </trkpt>
      <trkpt lat="43.01356" lon="0.12828">
        <ele>871</ele>
        <time>2013-02-09T08:50:02Z</time>
      </trkpt>
      <trkpt lat="43.01357" lon="0.12826">
        <ele>871</ele>
        <time>2013-02-09T08:50:03Z</time>
      </trkpt>
      <trkpt lat="43.01358" lon="0.12824">
        <ele>871</ele>
        <time>2013-02-09T08:50:04Z</time>
      </trkpt>
      <trkpt lat="43.01358" lon="0.12822">
        <ele>871</ele>
        <time>2013-02-09T08:50:05Z</time>
      </trkpt>
      <trkpt lat="43.01358" lon="0.1282">
        <ele>871</ele>
        <time>2013-02-09T08:50:06Z</time>
      </trkpt>
      <trkpt lat="43.01358" lon="0.12818">
        <ele>871</ele>
        <time>2013-02-09T08:50:07Z</time>
      </trkpt>
      <trkpt lat="43.01358" lon="0.12816">
        <ele>871</ele>
        <time>2013-02-09T08:50:08Z</time>
      </trkpt>
      <trkpt lat="43.01359" lon="0.12814">
        <ele>871</ele>
        <time>2013-02-09T08:50:09Z</time>
      </trkpt>
      <trkpt lat="43.01359" lon="0.12812">
        <ele>872</ele>
        <time>2013-02-09T08:50:10Z</time>
      </trkpt>
      <trkpt lat="43.0136" lon="0.1281">
        <ele>873</ele>
        <time>2013-02-09T08:50:11Z</time>
      </trkpt>
      <trkpt lat="43.0136" lon="0.12809">
        <ele>873</ele>
        <time>2013-02-09T08:50:12Z</time>
      </trkpt>
      <trkpt lat="43.0136" lon="0.12807">
        <ele>874</ele>
        <time>2013-02-09T08:50:13Z</time>
      </trkpt>
      <trkpt lat="43.01361" lon="0.12803">
        <ele>875</ele>
        <time>2013-02-09T08:50:15Z</time>
      </trkpt>
      <trkpt lat="43.01361" lon="0.12801">
        <ele>875</ele>
        <time>2013-02-09T08:50:17Z</time>
      </trkpt>
      <trkpt lat="43.01361" lon="0.12799">
        <ele>875</ele>
        <time>2013-02-09T08:50:19Z</time>
      </trkpt>
      <trkpt lat="43.01362" lon="0.12797">
        <ele>875</ele>
        <time>2013-02-09T08:50:20Z</time>
      </trkpt>
      <trkpt lat="43.01363" lon="0.12794">
        <ele>876</ele>
        <time>2013-02-09T08:50:22Z</time>
      </trkpt>
      <trkpt lat="43.01364" lon="0.12792">
        <ele>877</ele>
        <time>2013-02-09T08:50:24Z</time>
      </trkpt>
      <trkpt lat="43.01364" lon="0.12789">
        <ele>878</ele>
        <time>2013-02-09T08:50:26Z</time>
      </trkpt>
      <trkpt lat="43.01364" lon="0.12787">
        <ele>878</ele>
        <time>2013-02-09T08:50:27Z</time>
      </trkpt>
      <trkpt lat="43.01364" lon="0.12786">
        <ele>878</ele>
        <time>2013-02-09T08:50:28Z</time>
      </trkpt>
      <trkpt lat="43.01365" lon="0.12784">
        <ele>879</ele>
        <time>2013-02-09T08:50:30Z</time>
      </trkpt>
      <trkpt lat="43.01364" lon="0.12782">
        <ele>879</ele>
        <time>2013-02-09T08:50:33Z</time>
      </trkpt>
      <trkpt lat="43.01364" lon="0.1278">
        <ele>879</ele>
        <time>2013-02-09T08:50:35Z</time>
      </trkpt>
      <trkpt lat="43.01364" lon="0.12779">
        <ele>879</ele>
        <time>2013-02-09T08:50:37Z</time>
      </trkpt>
      <trkpt lat="43.01365" lon="0.12777">
        <ele>879</ele>
        <time>2013-02-09T08:50:39Z</time>
      </trkpt>
      <trkpt lat="43.01366" lon="0.12775">
        <ele>879</ele>
        <time>2013-02-09T08:50:41Z</time>
      </trkpt>
      <trkpt lat="43.01367" lon="0.12773">
        <ele>879</ele>
        <time>2013-02-09T08:50:43Z</time>
      </trkpt>
      <trkpt lat="43.01368" lon="0.12772">
        <ele>879</ele>
        <time>2013-02-09T08:50:45Z</time>
      </trkpt>
      <trkpt lat="43.01369" lon="0.12769">
        <ele>879</ele>
        <time>2013-02-09T08:50:47Z</time>
      </trkpt>
      <trkpt lat="43.01369" lon="0.12767">
        <ele>879</ele>
        <time>2013-02-09T08:50:49Z</time>
      </trkpt>
      <trkpt lat="43.01371" lon="0.12766">
        <ele>879</ele>
        <time>2013-02-09T08:50:51Z</time>
      </trkpt>
      <trkpt lat="43.01371" lon="0.12764">
        <ele>879</ele>
        <time>2013-02-09T08:50:53Z</time>
      </trkpt>
      <trkpt lat="43.01372" lon="0.12762">
        <ele>879</ele>
        <time>2013-02-09T08:50:56Z</time>
      </trkpt>
      <trkpt lat="43.01372" lon="0.1276">
        <ele>879</ele>
        <time>2013-02-09T08:50:58Z</time>
      </trkpt>
      <trkpt lat="43.01373" lon="0.12759">
        <ele>879</ele>
        <time>2013-02-09T08:51:00Z</time>
      </trkpt>
      <trkpt lat="43.01374" lon="0.12757">
        <ele>879</ele>
        <time>2013-02-09T08:51:01Z</time>
      </trkpt>
      <trkpt lat="43.01376" lon="0.12754">
        <ele>879</ele>
        <time>2013-02-09T08:51:03Z</time>
      </trkpt>
      <trkpt lat="43.01377" lon="0.12753">
        <ele>880</ele>
        <time>2013-02-09T08:51:04Z</time>
      </trkpt>
      <trkpt lat="43.01379" lon="0.12752">
        <ele>881</ele>
        <time>2013-02-09T08:51:06Z</time>
      </trkpt>
      <trkpt lat="43.0138" lon="0.12749">
        <ele>882</ele>
        <time>2013-02-09T08:51:08Z</time>
      </trkpt>
      <trkpt lat="43.01379" lon="0.12748">
        <ele>883</ele>
        <time>2013-02-09T08:51:10Z</time>
      </trkpt>
      <trkpt lat="43.01379" lon="0.12746">
        <ele>883</ele>
        <time>2013-02-09T08:51:12Z</time>
      </trkpt>
      <trkpt lat="43.01381" lon="0.12745">
        <ele>883</ele>
        <time>2013-02-09T08:51:13Z</time>
      </trkpt>
      <trkpt lat="43.01382" lon="0.12744">
        <ele>883</ele>
        <time>2013-02-09T08:51:14Z</time>
      </trkpt>
      <trkpt lat="43.01384" lon="0.12743">
        <ele>884</ele>
        <time>2013-02-09T08:51:17Z</time>
      </trkpt>
      <trkpt lat="43.01387" lon="0.12743">
        <ele>885</ele>
        <time>2013-02-09T08:51:19Z</time>
      </trkpt>
      <trkpt lat="43.01388" lon="0.12742">
        <ele>885</ele>
        <time>2013-02-09T08:51:21Z</time>
      </trkpt>
      <trkpt lat="43.01389" lon="0.1274">
        <ele>885</ele>
        <time>2013-02-09T08:51:23Z</time>
      </trkpt>
      <trkpt lat="43.01389" lon="0.12738">
        <ele>885</ele>
        <time>2013-02-09T08:51:25Z</time>
      </trkpt>
      <trkpt lat="43.01392" lon="0.12737">
        <ele>885</ele>
        <time>2013-02-09T08:51:27Z</time>
      </trkpt>
      <trkpt lat="43.01393" lon="0.12738">
        <ele>885</ele>
        <time>2013-02-09T08:51:32Z</time>
      </trkpt>
      <trkpt lat="43.01394" lon="0.12736">
        <ele>885</ele>
        <time>2013-02-09T08:51:40Z</time>
      </trkpt>
      <trkpt lat="43.01394" lon="0.12734">
        <ele>885</ele>
        <time>2013-02-09T08:51:43Z</time>
      </trkpt>
      <trkpt lat="43.01395" lon="0.12736">
        <ele>885</ele>
        <time>2013-02-09T08:51:52Z</time>
      </trkpt>
      <trkpt lat="43.01396" lon="0.12734">
        <ele>885</ele>
        <time>2013-02-09T08:51:55Z</time>
      </trkpt>
      <trkpt lat="43.01396" lon="0.12736">
        <ele>885</ele>
        <time>2013-02-09T08:52:03Z</time>
      </trkpt>
      <trkpt lat="43.01394" lon="0.12736">
        <ele>885</ele>
        <time>2013-02-09T08:52:06Z</time>
      </trkpt>
      <trkpt lat="43.01394" lon="0.12738">
        <ele>885</ele>
        <time>2013-02-09T08:52:10Z</time>
      </trkpt>
      <trkpt lat="43.01395" lon="0.12737">
        <ele>885</ele>
        <time>2013-02-09T08:52:11Z</time>
      </trkpt>
      <trkpt lat="43.01396" lon="0.12737">
        <ele>884</ele>
        <time>2013-02-09T08:52:14Z</time>
      </trkpt>
      <trkpt lat="43.01395" lon="0.12735">
        <ele>884</ele>
        <time>2013-02-09T08:52:16Z</time>
      </trkpt>
      <trkpt lat="43.01394" lon="0.12737">
        <ele>884</ele>
        <time>2013-02-09T08:52:19Z</time>
      </trkpt>
      <trkpt lat="43.01393" lon="0.12736">
        <ele>884</ele>
        <time>2013-02-09T08:52:22Z</time>
      </trkpt>
      <trkpt lat="43.01394" lon="0.12737">
        <ele>884</ele>
        <time>2013-02-09T08:52:26Z</time>
      </trkpt>
      <trkpt lat="43.01393" lon="0.12735">
        <ele>884</ele>
        <time>2013-02-09T08:52:41Z</time>
      </trkpt>
      <trkpt lat="43.01393" lon="0.12734">
        <ele>884</ele>
        <time>2013-02-09T08:52:43Z</time>
      </trkpt>
      <trkpt lat="43.01394" lon="0.12734">
        <ele>884</ele>
        <time>2013-02-09T08:52:46Z</time>
      </trkpt>
      <trkpt lat="43.01395" lon="0.12734">
        <ele>884</ele>
        <time>2013-02-09T08:52:53Z</time>
      </trkpt>
      <trkpt lat="43.01396" lon="0.12732">
        <ele>885</ele>
        <time>2013-02-09T08:53:13Z</time>
      </trkpt>
      <trkpt lat="43.01396" lon="0.12731">
        <ele>886</ele>
        <time>2013-02-09T08:53:20Z</time>
      </trkpt>
      <trkpt lat="43.01395" lon="0.12733">
        <ele>888</ele>
        <time>2013-02-09T08:53:27Z</time>
      </trkpt>
      <trkpt lat="43.01395" lon="0.12734">
        <ele>889</ele>
        <time>2013-02-09T08:53:28Z</time>
      </trkpt>
      <trkpt lat="43.01394" lon="0.12736">
        <ele>890</ele>
        <time>2013-02-09T08:53:29Z</time>
      </trkpt>
      <trkpt lat="43.01393" lon="0.12735">
        <ele>892</ele>
        <time>2013-02-09T08:53:31Z</time>
      </trkpt>
      <trkpt lat="43.01392" lon="0.12735">
        <ele>893</ele>
        <time>2013-02-09T08:53:32Z</time>
      </trkpt>
      <trkpt lat="43.0139" lon="0.12735">
        <ele>895</ele>
        <time>2013-02-09T08:53:34Z</time>
      </trkpt>
      <trkpt lat="43.01391" lon="0.12734">
        <ele>897</ele>
        <time>2013-02-09T08:53:38Z</time>
      </trkpt>
      <trkpt lat="43.01392" lon="0.12733">
        <ele>897</ele>
        <time>2013-02-09T08:53:40Z</time>
      </trkpt>
      <trkpt lat="43.01394" lon="0.12734">
        <ele>897</ele>
        <time>2013-02-09T08:53:42Z</time>
      </trkpt>
      <trkpt lat="43.01395" lon="0.12734">
        <ele>897</ele>
        <time>2013-02-09T08:53:43Z</time>
      </trkpt>
      <trkpt lat="43.01397" lon="0.12735">
        <ele>896</ele>
        <time>2013-02-09T08:53:45Z</time>
      </trkpt>
      <trkpt lat="43.01397" lon="0.12737">
        <ele>894</ele>
        <time>2013-02-09T08:53:50Z</time>
      </trkpt>
      <trkpt lat="43.01396" lon="0.12739">
        <ele>892</ele>
        <time>2013-02-09T08:53:54Z</time>
      </trkpt>
      <trkpt lat="43.01395" lon="0.1274">
        <ele>890</ele>
        <time>2013-02-09T08:53:57Z</time>
      </trkpt>
      <trkpt lat="43.01395" lon="0.12742">
        <ele>886</ele>
        <time>2013-02-09T08:54:03Z</time>
      </trkpt>
      <trkpt lat="43.01395" lon="0.12743">
        <ele>884</ele>
        <time>2013-02-09T08:54:16Z</time>
      </trkpt>
      <trkpt lat="43.01395" lon="0.12742">
        <ele>884</ele>
        <time>2013-02-09T08:54:26Z</time>
      </trkpt>
      <trkpt lat="43.01394" lon="0.12741">
        <ele>884</ele>
        <time>2013-02-09T08:54:51Z</time>
      </trkpt>
      <trkpt lat="43.01394" lon="0.12739">
        <ele>884</ele>
        <time>2013-02-09T08:54:54Z</time>
      </trkpt>
      <trkpt lat="43.01395" lon="0.12738">
        <ele>884</ele>
        <time>2013-02-09T08:55:06Z</time>
      </trkpt>
      <trkpt lat="43.01395" lon="0.1274">
        <ele>885</ele>
        <time>2013-02-09T08:55:14Z</time>
      </trkpt>
      <trkpt lat="43.01396" lon="0.12738">
        <ele>885</ele>
        <time>2013-02-09T08:55:23Z</time>
      </trkpt>
      <trkpt lat="43.01395" lon="0.12737">
        <ele>885</ele>
        <time>2013-02-09T08:55:43Z</time>
      </trkpt>
      <trkpt lat="43.01396" lon="0.12735">
        <ele>885</ele>
        <time>2013-02-09T08:55:51Z</time>
      </trkpt>
      <trkpt lat="43.01397" lon="0.12733">
        <ele>885</ele>
        <time>2013-02-09T08:55:55Z</time>
      </trkpt>
      <trkpt lat="43.01399" lon="0.12732">
        <ele>885</ele>
        <time>2013-02-09T08:55:57Z</time>
      </trkpt>
      <trkpt lat="43.014" lon="0.12731">
        <ele>885</ele>
        <time>2013-02-09T08:55:59Z</time>
      </trkpt>
      <trkpt lat="43.014" lon="0.12729">
        <ele>885</ele>
        <time>2013-02-09T08:56:01Z</time>
      </trkpt>
      <trkpt lat="43.01402" lon="0.12728">
        <ele>885</ele>
        <time>2013-02-09T08:56:04Z</time>
      </trkpt>
      <trkpt lat="43.01403" lon="0.12726">
        <ele>885</ele>
        <time>2013-02-09T08:56:07Z</time>
      </trkpt>
      <trkpt lat="43.01404" lon="0.12725">
        <ele>885</ele>
        <time>2013-02-09T08:56:09Z</time>
      </trkpt>
      <trkpt lat="43.01405" lon="0.12724">
        <ele>885</ele>
        <time>2013-02-09T08:56:11Z</time>
      </trkpt>
      <trkpt lat="43.01405" lon="0.12722">
        <ele>885</ele>
        <time>2013-02-09T08:56:15Z</time>
      </trkpt>
      <trkpt lat="43.01406" lon="0.12721">
        <ele>885</ele>
        <time>2013-02-09T08:56:18Z</time>
      </trkpt>
      <trkpt lat="43.01407" lon="0.1272">
        <ele>885</ele>
        <time>2013-02-09T08:56:20Z</time>
      </trkpt>
      <trkpt lat="43.01407" lon="0.12719">
        <ele>885</ele>
        <time>2013-02-09T08:56:22Z</time>
      </trkpt>
      <trkpt lat="43.01407" lon="0.12716">
        <ele>887</ele>
        <time>2013-02-09T08:56:24Z</time>
      </trkpt>
      <trkpt lat="43.01408" lon="0.12715">
        <ele>887</ele>
        <time>2013-02-09T08:56:25Z</time>
      </trkpt>
      <trkpt lat="43.01409" lon="0.12712">
        <ele>888</ele>
        <time>2013-02-09T08:56:27Z</time>
      </trkpt>
      <trkpt lat="43.01409" lon="0.12711">
        <ele>888</ele>
        <time>2013-02-09T08:56:29Z</time>
      </trkpt>
      <trkpt lat="43.0141" lon="0.12709">
        <ele>889</ele>
        <time>2013-02-09T08:56:31Z</time>
      </trkpt>
      <trkpt lat="43.0141" lon="0.12707">
        <ele>890</ele>
        <time>2013-02-09T08:56:33Z</time>
      </trkpt>
      <trkpt lat="43.01411" lon="0.12705">
        <ele>891</ele>
        <time>2013-02-09T08:56:35Z</time>
      </trkpt>
      <trkpt lat="43.01412" lon="0.12703">
        <ele>891</ele>
        <time>2013-02-09T08:56:36Z</time>
      </trkpt>
      <trkpt lat="43.01413" lon="0.12701">
        <ele>892</ele>
        <time>2013-02-09T08:56:37Z</time>
      </trkpt>
      <trkpt lat="43.01413" lon="0.12699">
        <ele>892</ele>
        <time>2013-02-09T08:56:38Z</time>
      </trkpt>
      <trkpt lat="43.01413" lon="0.12697">
        <ele>893</ele>
        <time>2013-02-09T08:56:40Z</time>
      </trkpt>
      <trkpt lat="43.01414" lon="0.12695">
        <ele>893</ele>
        <time>2013-02-09T08:56:42Z</time>
      </trkpt>
      <trkpt lat="43.01414" lon="0.12693">
        <ele>893</ele>
        <time>2013-02-09T08:56:44Z</time>
      </trkpt>
      <trkpt lat="43.01416" lon="0.12691">
        <ele>893</ele>
        <time>2013-02-09T08:56:46Z</time>
      </trkpt>
      <trkpt lat="43.01417" lon="0.12689">
        <ele>893</ele>
        <time>2013-02-09T08:56:48Z</time>
      </trkpt>
      <trkpt lat="43.01418" lon="0.12687">
        <ele>893</ele>
        <time>2013-02-09T08:56:50Z</time>
      </trkpt>
      <trkpt lat="43.01418" lon="0.12685">
        <ele>893</ele>
        <time>2013-02-09T08:56:52Z</time>
      </trkpt>
      <trkpt lat="43.01419" lon="0.12683">
        <ele>893</ele>
        <time>2013-02-09T08:56:54Z</time>
      </trkpt>
      <trkpt lat="43.0142" lon="0.12681">
        <ele>893</ele>
        <time>2013-02-09T08:56:56Z</time>
      </trkpt>
      <trkpt lat="43.01421" lon="0.12678">
        <ele>893</ele>
        <time>2013-02-09T08:56:58Z</time>
      </trkpt>
      <trkpt lat="43.01421" lon="0.12676">
        <ele>893</ele>
        <time>2013-02-09T08:57:00Z</time>
      </trkpt>
      <trkpt lat="43.01422" lon="0.12674">
        <ele>893</ele>
        <time>2013-02-09T08:57:02Z</time>
      </trkpt>
      <trkpt lat="43.01423" lon="0.12672">
        <ele>894</ele>
        <time>2013-02-09T08:57:04Z</time>
      </trkpt>
      <trkpt lat="43.01423" lon="0.1267">
        <ele>894</ele>
        <time>2013-02-09T08:57:06Z</time>
      </trkpt>
      <trkpt lat="43.01424" lon="0.12667">
        <ele>894</ele>
        <time>2013-02-09T08:57:08Z</time>
      </trkpt>
      <trkpt lat="43.01424" lon="0.12665">
        <ele>894</ele>
        <time>2013-02-09T08:57:10Z</time>
      </trkpt>
      <trkpt lat="43.01425" lon="0.12663">
        <ele>894</ele>
        <time>2013-02-09T08:57:12Z</time>
      </trkpt>
      <trkpt lat="43.01425" lon="0.12661">
        <ele>894</ele>
        <time>2013-02-09T08:57:14Z</time>
      </trkpt>
      <trkpt lat="43.01425" lon="0.12659">
        <ele>894</ele>
        <time>2013-02-09T08:57:16Z</time>
      </trkpt>
      <trkpt lat="43.01425" lon="0.12657">
        <ele>894</ele>
        <time>2013-02-09T08:57:18Z</time>
      </trkpt>
      <trkpt lat="43.01426" lon="0.12655">
        <ele>894</ele>
        <time>2013-02-09T08:57:20Z</time>
      </trkpt>
      <trkpt lat="43.01427" lon="0.12652">
        <ele>894</ele>
        <time>2013-02-09T08:57:22Z</time>
      </trkpt>
      <trkpt lat="43.01427" lon="0.12651">
        <ele>894</ele>
        <time>2013-02-09T08:57:24Z</time>
      </trkpt>
      <trkpt lat="43.01427" lon="0.12649">
        <ele>894</ele>
        <time>2013-02-09T08:57:26Z</time>
      </trkpt>
      <trkpt lat="43.01427" lon="0.12647">
        <ele>894</ele>
        <time>2013-02-09T08:57:28Z</time>
      </trkpt>
      <trkpt lat="43.01427" lon="0.12645">
        <ele>894</ele>
        <time>2013-02-09T08:57:30Z</time>
      </trkpt>
      <trkpt lat="43.01427" lon="0.12643">
        <ele>894</ele>
        <time>2013-02-09T08:57:32Z</time>
      </trkpt>
      <trkpt lat="43.01429" lon="0.1264">
        <ele>894</ele>
        <time>2013-02-09T08:57:34Z</time>
      </trkpt>
      <trkpt lat="43.01429" lon="0.12638">
        <ele>894</ele>
        <time>2013-02-09T08:57:36Z</time>
      </trkpt>
      <trkpt lat="43.01429" lon="0.12636">
        <ele>894</ele>
        <time>2013-02-09T08:57:38Z</time>
      </trkpt>
      <trkpt lat="43.01429" lon="0.12634">
        <ele>894</ele>
        <time>2013-02-09T08:57:40Z</time>
      </trkpt>
      <trkpt lat="43.01429" lon="0.12632">
        <ele>894</ele>
        <time>2013-02-09T08:57:42Z</time>
      </trkpt>
      <trkpt lat="43.01429" lon="0.1263">
        <ele>894</ele>
        <time>2013-02-09T08:57:44Z</time>
      </trkpt>
      <trkpt lat="43.01429" lon="0.12628">
        <ele>894</ele>
        <time>2013-02-09T08:57:46Z</time>
      </trkpt>
      <trkpt lat="43.0143" lon="0.12627">
        <ele>894</ele>
        <time>2013-02-09T08:57:47Z</time>
      </trkpt>
      <trkpt lat="43.01431" lon="0.12625">
        <ele>894</ele>
        <time>2013-02-09T08:57:48Z</time>
      </trkpt>
      <trkpt lat="43.01431" lon="0.12624">
        <ele>895</ele>
        <time>2013-02-09T08:57:49Z</time>
      </trkpt>
      <trkpt lat="43.01432" lon="0.12622">
        <ele>895</ele>
        <time>2013-02-09T08:57:50Z</time>
      </trkpt>
      <trkpt lat="43.01432" lon="0.1262">
        <ele>896</ele>
        <time>2013-02-09T08:57:52Z</time>
      </trkpt>
      <trkpt lat="43.01432" lon="0.12619">
        <ele>896</ele>
        <time>2013-02-09T08:57:53Z</time>
      </trkpt>
      <trkpt lat="43.01433" lon="0.12617">
        <ele>897</ele>
        <time>2013-02-09T08:57:55Z</time>
      </trkpt>
      <trkpt lat="43.01433" lon="0.12615">
        <ele>897</ele>
        <time>2013-02-09T08:57:57Z</time>
      </trkpt>
      <trkpt lat="43.01433" lon="0.12613">
        <ele>897</ele>
        <time>2013-02-09T08:57:59Z</time>
      </trkpt>
      <trkpt lat="43.01433" lon="0.12611">
        <ele>897</ele>
        <time>2013-02-09T08:58:01Z</time>
      </trkpt>
      <trkpt lat="43.01434" lon="0.12609">
        <ele>897</ele>
        <time>2013-02-09T08:58:03Z</time>
      </trkpt>
      <trkpt lat="43.01434" lon="0.12607">
        <ele>897</ele>
        <time>2013-02-09T08:58:05Z</time>
      </trkpt>
      <trkpt lat="43.01435" lon="0.12605">
        <ele>897</ele>
        <time>2013-02-09T08:58:07Z</time>
      </trkpt>
      <trkpt lat="43.01436" lon="0.12603">
        <ele>897</ele>
        <time>2013-02-09T08:58:09Z</time>
      </trkpt>
      <trkpt lat="43.01436" lon="0.12601">
        <ele>897</ele>
        <time>2013-02-09T08:58:11Z</time>
      </trkpt>
      <trkpt lat="43.01437" lon="0.12599">
        <ele>897</ele>
        <time>2013-02-09T08:58:13Z</time>
      </trkpt>
      <trkpt lat="43.01436" lon="0.12597">
        <ele>897</ele>
        <time>2013-02-09T08:58:15Z</time>
      </trkpt>
      <trkpt lat="43.01437" lon="0.12596">
        <ele>897</ele>
        <time>2013-02-09T08:58:17Z</time>
      </trkpt>
      <trkpt lat="43.01438" lon="0.12594">
        <ele>898</ele>
        <time>2013-02-09T08:58:19Z</time>
      </trkpt>
      <trkpt lat="43.01439" lon="0.12592">
        <ele>898</ele>
        <time>2013-02-09T08:58:21Z</time>
      </trkpt>
      <trkpt lat="43.0144" lon="0.1259">
        <ele>898</ele>
        <time>2013-02-09T08:58:23Z</time>
      </trkpt>
      <trkpt lat="43.0144" lon="0.12588">
        <ele>898</ele>
        <time>2013-02-09T08:58:25Z</time>
      </trkpt>
      <trkpt lat="43.01441" lon="0.12586">
        <ele>898</ele>
        <time>2013-02-09T08:58:27Z</time>
      </trkpt>
      <trkpt lat="43.01441" lon="0.12584">
        <ele>898</ele>
        <time>2013-02-09T08:58:29Z</time>
      </trkpt>
      <trkpt lat="43.01442" lon="0.12582">
        <ele>898</ele>
        <time>2013-02-09T08:58:31Z</time>
      </trkpt>
      <trkpt lat="43.01442" lon="0.1258">
        <ele>898</ele>
        <time>2013-02-09T08:58:33Z</time>
      </trkpt>
      <trkpt lat="43.01442" lon="0.12577">
        <ele>898</ele>
        <time>2013-02-09T08:58:35Z</time>
      </trkpt>
      <trkpt lat="43.01443" lon="0.12575">
        <ele>899</ele>
        <time>2013-02-09T08:58:37Z</time>
      </trkpt>
      <trkpt lat="43.01443" lon="0.12573">
        <ele>899</ele>
        <time>2013-02-09T08:58:39Z</time>
      </trkpt>
      <trkpt lat="43.01444" lon="0.12572">
        <ele>899</ele>
        <time>2013-02-09T08:58:41Z</time>
      </trkpt>
      <trkpt lat="43.01443" lon="0.1257">
        <ele>899</ele>
        <time>2013-02-09T08:58:43Z</time>
      </trkpt>
      <trkpt lat="43.01443" lon="0.12569">
        <ele>900</ele>
        <time>2013-02-09T08:58:45Z</time>
      </trkpt>
      <trkpt lat="43.01445" lon="0.12566">
        <ele>901</ele>
        <time>2013-02-09T08:58:47Z</time>
      </trkpt>
      <trkpt lat="43.01445" lon="0.12564">
        <ele>901</ele>
        <time>2013-02-09T08:58:49Z</time>
      </trkpt>
      <trkpt lat="43.01446" lon="0.12562">
        <ele>901</ele>
        <time>2013-02-09T08:58:51Z</time>
      </trkpt>
      <trkpt lat="43.01447" lon="0.1256">
        <ele>901</ele>
        <time>2013-02-09T08:58:53Z</time>
      </trkpt>
      <trkpt lat="43.01447" lon="0.12558">
        <ele>901</ele>
        <time>2013-02-09T08:58:55Z</time>
      </trkpt>
      <trkpt lat="43.01448" lon="0.12556">
        <ele>901</ele>
        <time>2013-02-09T08:58:57Z</time>
      </trkpt>
      <trkpt lat="43.01448" lon="0.12554">
        <ele>901</ele>
        <time>2013-02-09T08:58:59Z</time>
      </trkpt>
      <trkpt lat="43.0145" lon="0.12552">
        <ele>901</ele>
        <time>2013-02-09T08:59:01Z</time>
      </trkpt>
      <trkpt lat="43.0145" lon="0.1255">
        <ele>901</ele>
        <time>2013-02-09T08:59:03Z</time>
      </trkpt>
      <trkpt lat="43.01451" lon="0.12548">
        <ele>901</ele>
        <time>2013-02-09T08:59:05Z</time>
      </trkpt>
      <trkpt lat="43.01452" lon="0.12546">
        <ele>902</ele>
        <time>2013-02-09T08:59:07Z</time>
      </trkpt>
      <trkpt lat="43.01453" lon="0.12543">
        <ele>902</ele>
        <time>2013-02-09T08:59:09Z</time>
      </trkpt>
      <trkpt lat="43.01453" lon="0.12542">
        <ele>903</ele>
        <time>2013-02-09T08:59:11Z</time>
      </trkpt>
      <trkpt lat="43.01452" lon="0.12539">
        <ele>903</ele>
        <time>2013-02-09T08:59:13Z</time>
      </trkpt>
      <trkpt lat="43.01452" lon="0.12537">
        <ele>904</ele>
        <time>2013-02-09T08:59:15Z</time>
      </trkpt>
      <trkpt lat="43.01453" lon="0.12535">
        <ele>905</ele>
        <time>2013-02-09T08:59:17Z</time>
      </trkpt>
      <trkpt lat="43.01453" lon="0.12533">
        <ele>906</ele>
        <time>2013-02-09T08:59:19Z</time>
      </trkpt>
      <trkpt lat="43.01453" lon="0.12531">
        <ele>907</ele>
        <time>2013-02-09T08:59:20Z</time>
      </trkpt>
      <trkpt lat="43.01453" lon="0.1253">
        <ele>909</ele>
        <time>2013-02-09T08:59:22Z</time>
      </trkpt>
      <trkpt lat="43.01453" lon="0.12527">
        <ele>911</ele>
        <time>2013-02-09T08:59:24Z</time>
      </trkpt>
      <trkpt lat="43.01454" lon="0.12525">
        <ele>911</ele>
        <time>2013-02-09T08:59:25Z</time>
      </trkpt>
      <trkpt lat="43.01453" lon="0.12524">
        <ele>914</ele>
        <time>2013-02-09T08:59:28Z</time>
      </trkpt>
      <trkpt lat="43.01452" lon="0.12523">
        <ele>916</ele>
        <time>2013-02-09T08:59:30Z</time>
      </trkpt>
      <trkpt lat="43.01454" lon="0.1252">
        <ele>919</ele>
        <time>2013-02-09T08:59:33Z</time>
      </trkpt>
      <trkpt lat="43.01455" lon="0.12518">
        <ele>920</ele>
        <time>2013-02-09T08:59:35Z</time>
      </trkpt>
      <trkpt lat="43.01454" lon="0.12517">
        <ele>922</ele>
        <time>2013-02-09T08:59:38Z</time>
      </trkpt>
      <trkpt lat="43.01452" lon="0.12516">
        <ele>923</ele>
        <time>2013-02-09T08:59:39Z</time>
      </trkpt>
      <trkpt lat="43.01451" lon="0.12514">
        <ele>925</ele>
        <time>2013-02-09T08:59:41Z</time>
      </trkpt>
      <trkpt lat="43.01452" lon="0.12512">
        <ele>927</ele>
        <time>2013-02-09T08:59:43Z</time>
      </trkpt>
      <trkpt lat="43.01451" lon="0.1251">
        <ele>929</ele>
        <time>2013-02-09T08:59:45Z</time>
      </trkpt>
      <trkpt lat="43.0145" lon="0.12509">
        <ele>932</ele>
        <time>2013-02-09T08:59:48Z</time>
      </trkpt>
      <trkpt lat="43.0145" lon="0.12507">
        <ele>934</ele>
        <time>2013-02-09T08:59:50Z</time>
      </trkpt>
      <trkpt lat="43.0145" lon="0.12505">
        <ele>935</ele>
        <time>2013-02-09T08:59:51Z</time>
      </trkpt>
      <trkpt lat="43.01451" lon="0.12503">
        <ele>937</ele>
        <time>2013-02-09T08:59:53Z</time>
      </trkpt>
      <trkpt lat="43.01453" lon="0.125">
        <ele>939</ele>
        <time>2013-02-09T08:59:55Z</time>
      </trkpt>
      <trkpt lat="43.01454" lon="0.12499">
        <ele>940</ele>
        <time>2013-02-09T08:59:56Z</time>
      </trkpt>
      <trkpt lat="43.01455" lon="0.12497">
        <ele>940</ele>
        <time>2013-02-09T08:59:57Z</time>
      </trkpt>
      <trkpt lat="43.01457" lon="0.12494">
        <ele>940</ele>
        <time>2013-02-09T08:59:59Z</time>
      </trkpt>
      <trkpt lat="43.01458" lon="0.12493">
        <ele>940</ele>
        <time>2013-02-09T09:00:00Z</time>
      </trkpt>
      <trkpt lat="43.0146" lon="0.12492">
        <ele>940</ele>
        <time>2013-02-09T09:00:01Z</time>
      </trkpt>
      <trkpt lat="43.01461" lon="0.1249">
        <ele>940</ele>
        <time>2013-02-09T09:00:02Z</time>
      </trkpt>
      <trkpt lat="43.01462" lon="0.12489">
        <ele>940</ele>
        <time>2013-02-09T09:00:03Z</time>
      </trkpt>
      <trkpt lat="43.01463" lon="0.12489">
        <ele>939</ele>
        <time>2013-02-09T09:00:06Z</time>
      </trkpt>
      <trkpt lat="43.01465" lon="0.12488">
        <ele>938</ele>
        <time>2013-02-09T09:00:09Z</time>
      </trkpt>
      <trkpt lat="43.01467" lon="0.12486">
        <ele>938</ele>
        <time>2013-02-09T09:00:11Z</time>
      </trkpt>
      <trkpt lat="43.01468" lon="0.12485">
        <ele>938</ele>
        <time>2013-02-09T09:00:13Z</time>
      </trkpt>
      <trkpt lat="43.01469" lon="0.12484">
        <ele>938</ele>
        <time>2013-02-09T09:00:14Z</time>
      </trkpt>
      <trkpt lat="43.0147" lon="0.12483">
        <ele>938</ele>
        <time>2013-02-09T09:00:15Z</time>
      </trkpt>
      <trkpt lat="43.01473" lon="0.12483">
        <ele>937</ele>
        <time>2013-02-09T09:00:17Z</time>
      </trkpt>
      <trkpt lat="43.01475" lon="0.12484">
        <ele>935</ele>
        <time>2013-02-09T09:00:19Z</time>
      </trkpt>
      <trkpt lat="43.01477" lon="0.12483">
        <ele>934</ele>
        <time>2013-02-09T09:00:21Z</time>
      </trkpt>
      <trkpt lat="43.01479" lon="0.12482">
        <ele>932</ele>
        <time>2013-02-09T09:00:23Z</time>
      </trkpt>
      <trkpt lat="43.0148" lon="0.12482">
        <ele>931</ele>
        <time>2013-02-09T09:00:24Z</time>
      </trkpt>
      <trkpt lat="43.01481" lon="0.1248">
        <ele>929</ele>
        <time>2013-02-09T09:00:26Z</time>
      </trkpt>
      <trkpt lat="43.01483" lon="0.12478">
        <ele>928</ele>
        <time>2013-02-09T09:00:29Z</time>
      </trkpt>
      <trkpt lat="43.01485" lon="0.12476">
        <ele>928</ele>
        <time>2013-02-09T09:00:31Z</time>
      </trkpt>
      <trkpt lat="43.01486" lon="0.12474">
        <ele>928</ele>
        <time>2013-02-09T09:00:34Z</time>
      </trkpt>
      <trkpt lat="43.01488" lon="0.12474">
        <ele>928</ele>
        <time>2013-02-09T09:00:36Z</time>
      </trkpt>
      <trkpt lat="43.0149" lon="0.12473">
        <ele>928</ele>
        <time>2013-02-09T09:00:37Z</time>
      </trkpt>
      <trkpt lat="43.01491" lon="0.12472">
        <ele>928</ele>
        <time>2013-02-09T09:00:38Z</time>
      </trkpt>
      <trkpt lat="43.01493" lon="0.1247">
        <ele>927</ele>
        <time>2013-02-09T09:00:42Z</time>
      </trkpt>
      <trkpt lat="43.01494" lon="0.12468">
        <ele>927</ele>
        <time>2013-02-09T09:00:46Z</time>
      </trkpt>
      <trkpt lat="43.01495" lon="0.12466">
        <ele>927</ele>
        <time>2013-02-09T09:00:48Z</time>
      </trkpt>
      <trkpt lat="43.01496" lon="0.12465">
        <ele>927</ele>
        <time>2013-02-09T09:00:50Z</time>
      </trkpt>
      <trkpt lat="43.01499" lon="0.12464">
        <ele>927</ele>
        <time>2013-02-09T09:00:52Z</time>
      </trkpt>
      <trkpt lat="43.015" lon="0.12464">
        <ele>927</ele>
        <time>2013-02-09T09:00:54Z</time>
      </trkpt>
      <trkpt lat="43.01501" lon="0.12461">
        <ele>927</ele>
        <time>2013-02-09T09:00:56Z</time>
      </trkpt>
      <trkpt lat="43.01503" lon="0.1246">
        <ele>927</ele>
        <time>2013-02-09T09:00:58Z</time>
      </trkpt>
      <trkpt lat="43.01505" lon="0.12458">
        <ele>926</ele>
        <time>2013-02-09T09:01:00Z</time>
      </trkpt>
      <trkpt lat="43.01506" lon="0.12458">
        <ele>926</ele>
        <time>2013-02-09T09:01:01Z</time>
      </trkpt>
      <trkpt lat="43.01508" lon="0.12457">
        <ele>925</ele>
        <time>2013-02-09T09:01:02Z</time>
      </trkpt>
      <trkpt lat="43.01509" lon="0.12457">
        <ele>924</ele>
        <time>2013-02-09T09:01:03Z</time>
      </trkpt>
      <trkpt lat="43.0151" lon="0.12456">
        <ele>922</ele>
        <time>2013-02-09T09:01:05Z</time>
      </trkpt>
      <trkpt lat="43.01511" lon="0.12455">
        <ele>920</ele>
        <time>2013-02-09T09:01:07Z</time>
      </trkpt>
      <trkpt lat="43.01513" lon="0.12453">
        <ele>920</ele>
        <time>2013-02-09T09:01:09Z</time>
      </trkpt>
      <trkpt lat="43.01514" lon="0.12452">
        <ele>920</ele>
        <time>2013-02-09T09:01:11Z</time>
      </trkpt>
      <trkpt lat="43.01515" lon="0.1245">
        <ele>920</ele>
        <time>2013-02-09T09:01:13Z</time>
      </trkpt>
      <trkpt lat="43.01517" lon="0.12448">
        <ele>920</ele>
        <time>2013-02-09T09:01:15Z</time>
      </trkpt>
      <trkpt lat="43.01518" lon="0.12447">
        <ele>920</ele>
        <time>2013-02-09T09:01:17Z</time>
      </trkpt>
      <trkpt lat="43.0152" lon="0.12445">
        <ele>920</ele>
        <time>2013-02-09T09:01:19Z</time>
      </trkpt>
      <trkpt lat="43.01522" lon="0.12445">
        <ele>920</ele>
        <time>2013-02-09T09:01:21Z</time>
      </trkpt>
      <trkpt lat="43.01523" lon="0.12444">
        <ele>920</ele>
        <time>2013-02-09T09:01:23Z</time>
      </trkpt>
      <trkpt lat="43.01524" lon="0.12441">
        <ele>920</ele>
        <time>2013-02-09T09:01:27Z</time>
      </trkpt>
      <trkpt lat="43.01525" lon="0.12439">
        <ele>920</ele>
        <time>2013-02-09T09:01:29Z</time>
      </trkpt>
      <trkpt lat="43.01526" lon="0.12438">
        <ele>920</ele>
        <time>2013-02-09T09:01:31Z</time>
      </trkpt>
      <trkpt lat="43.01527" lon="0.12436">
        <ele>920</ele>
        <time>2013-02-09T09:01:34Z</time>
      </trkpt>
      <trkpt lat="43.01529" lon="0.12434">
        <ele>920</ele>
        <time>2013-02-09T09:01:36Z</time>
      </trkpt>
      <trkpt lat="43.0153" lon="0.12433">
        <ele>920</ele>
        <time>2013-02-09T09:01:39Z</time>
      </trkpt>
      <trkpt lat="43.01531" lon="0.12432">
        <ele>921</ele>
        <time>2013-02-09T09:01:41Z</time>
      </trkpt>
      <trkpt lat="43.01532" lon="0.1243">
        <ele>922</ele>
        <time>2013-02-09T09:01:44Z</time>
      </trkpt>
      <trkpt lat="43.01533" lon="0.12428">
        <ele>923</ele>
        <time>2013-02-09T09:01:46Z</time>
      </trkpt>
      <trkpt lat="43.01534" lon="0.12427">
        <ele>923</ele>
        <time>2013-02-09T09:01:48Z</time>
      </trkpt>
      <trkpt lat="43.01535" lon="0.12425">
        <ele>924</ele>
        <time>2013-02-09T09:01:50Z</time>
      </trkpt>
      <trkpt lat="43.01536" lon="0.12423">
        <ele>925</ele>
        <time>2013-02-09T09:01:53Z</time>
      </trkpt>
      <trkpt lat="43.01537" lon="0.12421">
        <ele>926</ele>
        <time>2013-02-09T09:01:56Z</time>
      </trkpt>
      <trkpt lat="43.01537" lon="0.12419">
        <ele>927</ele>
        <time>2013-02-09T09:01:58Z</time>
      </trkpt>
      <trkpt lat="43.01539" lon="0.12417">
        <ele>928</ele>
        <time>2013-02-09T09:02:01Z</time>
      </trkpt>
      <trkpt lat="43.0154" lon="0.12417">
        <ele>928</ele>
        <time>2013-02-09T09:02:03Z</time>
      </trkpt>
      <trkpt lat="43.01541" lon="0.12415">
        <ele>928</ele>
        <time>2013-02-09T09:02:06Z</time>
      </trkpt>
      <trkpt lat="43.01543" lon="0.12413">
        <ele>929</ele>
        <time>2013-02-09T09:02:09Z</time>
      </trkpt>
      <trkpt lat="43.01544" lon="0.12412">
        <ele>929</ele>
        <time>2013-02-09T09:02:12Z</time>
      </trkpt>
      <trkpt lat="43.01545" lon="0.1241">
        <ele>929</ele>
        <time>2013-02-09T09:02:14Z</time>
      </trkpt>
      <trkpt lat="43.01548" lon="0.12409">
        <ele>929</ele>
        <time>2013-02-09T09:02:16Z</time>
      </trkpt>
      <trkpt lat="43.0155" lon="0.12409">
        <ele>930</ele>
        <time>2013-02-09T09:02:18Z</time>
      </trkpt>
      <trkpt lat="43.01552" lon="0.12408">
        <ele>930</ele>
        <time>2013-02-09T09:02:21Z</time>
      </trkpt>
      <trkpt lat="43.01553" lon="0.12406">
        <ele>930</ele>
        <time>2013-02-09T09:02:23Z</time>
      </trkpt>
      <trkpt lat="43.01554" lon="0.12404">
        <ele>931</ele>
        <time>2013-02-09T09:02:25Z</time>
      </trkpt>
      <trkpt lat="43.01555" lon="0.12403">
        <ele>932</ele>
        <time>2013-02-09T09:02:29Z</time>
      </trkpt>
      <trkpt lat="43.01556" lon="0.12401">
        <ele>932</ele>
        <time>2013-02-09T09:02:31Z</time>
      </trkpt>
      <trkpt lat="43.01558" lon="0.12399">
        <ele>932</ele>
        <time>2013-02-09T09:02:33Z</time>
      </trkpt>
      <trkpt lat="43.01559" lon="0.12398">
        <ele>933</ele>
        <time>2013-02-09T09:02:35Z</time>
      </trkpt>
      <trkpt lat="43.0156" lon="0.12397">
        <ele>933</ele>
        <time>2013-02-09T09:02:36Z</time>
      </trkpt>
      <trkpt lat="43.01562" lon="0.12395">
        <ele>934</ele>
        <time>2013-02-09T09:02:38Z</time>
      </trkpt>
      <trkpt lat="43.01564" lon="0.12394">
        <ele>934</ele>
        <time>2013-02-09T09:02:41Z</time>
      </trkpt>
      <trkpt lat="43.01565" lon="0.12393">
        <ele>934</ele>
        <time>2013-02-09T09:02:43Z</time>
      </trkpt>
      <trkpt lat="43.01567" lon="0.12392">
        <ele>934</ele>
        <time>2013-02-09T09:02:45Z</time>
      </trkpt>
      <trkpt lat="43.01568" lon="0.12392">
        <ele>934</ele>
        <time>2013-02-09T09:02:46Z</time>
      </trkpt>
      <trkpt lat="43.01571" lon="0.12393">
        <ele>934</ele>
        <time>2013-02-09T09:02:48Z</time>
      </trkpt>
      <trkpt lat="43.01573" lon="0.12392">
        <ele>934</ele>
        <time>2013-02-09T09:02:50Z</time>
      </trkpt>
      <trkpt lat="43.01573" lon="0.1239">
        <ele>934</ele>
        <time>2013-02-09T09:02:52Z</time>
      </trkpt>
      <trkpt lat="43.01574" lon="0.12388">
        <ele>934</ele>
        <time>2013-02-09T09:02:54Z</time>
      </trkpt>
      <trkpt lat="43.01574" lon="0.12386">
        <ele>934</ele>
        <time>2013-02-09T09:02:56Z</time>
      </trkpt>
      <trkpt lat="43.01575" lon="0.12385">
        <ele>934</ele>
        <time>2013-02-09T09:02:58Z</time>
      </trkpt>
      <trkpt lat="43.01577" lon="0.12383">
        <ele>934</ele>
        <time>2013-02-09T09:03:00Z</time>
      </trkpt>
      <trkpt lat="43.01578" lon="0.12383">
        <ele>934</ele>
        <time>2013-02-09T09:03:01Z</time>
      </trkpt>
      <trkpt lat="43.0158" lon="0.12382">
        <ele>934</ele>
        <time>2013-02-09T09:03:03Z</time>
      </trkpt>
      <trkpt lat="43.01582" lon="0.12381">
        <ele>934</ele>
        <time>2013-02-09T09:03:05Z</time>
      </trkpt>
      <trkpt lat="43.01583" lon="0.1238">
        <ele>934</ele>
        <time>2013-02-09T09:03:07Z</time>
      </trkpt>
      <trkpt lat="43.01585" lon="0.12379">
        <ele>934</ele>
        <time>2013-02-09T09:03:09Z</time>
      </trkpt>
      <trkpt lat="43.01585" lon="0.12377">
        <ele>934</ele>
        <time>2013-02-09T09:03:11Z</time>
      </trkpt>
      <trkpt lat="43.01587" lon="0.12375">
        <ele>934</ele>
        <time>2013-02-09T09:03:14Z</time>
      </trkpt>
      <trkpt lat="43.01588" lon="0.12373">
        <ele>935</ele>
        <time>2013-02-09T09:03:16Z</time>
      </trkpt>
      <trkpt lat="43.01589" lon="0.12372">
        <ele>935</ele>
        <time>2013-02-09T09:03:19Z</time>
      </trkpt>
      <trkpt lat="43.0159" lon="0.1237">
        <ele>936</ele>
        <time>2013-02-09T09:03:22Z</time>
      </trkpt>
      <trkpt lat="43.01592" lon="0.12369">
        <ele>936</ele>
        <time>2013-02-09T09:03:24Z</time>
      </trkpt>
      <trkpt lat="43.01593" lon="0.12367">
        <ele>936</ele>
        <time>2013-02-09T09:03:26Z</time>
      </trkpt>
      <trkpt lat="43.01594" lon="0.12366">
        <ele>937</ele>
        <time>2013-02-09T09:03:28Z</time>
      </trkpt>
      <trkpt lat="43.01594" lon="0.12364">
        <ele>938</ele>
        <time>2013-02-09T09:03:30Z</time>
      </trkpt>
      <trkpt lat="43.01595" lon="0.12362">
        <ele>939</ele>
        <time>2013-02-09T09:03:32Z</time>
      </trkpt>
      <trkpt lat="43.01596" lon="0.1236">
        <ele>940</ele>
        <time>2013-02-09T09:03:34Z</time>
      </trkpt>
      <trkpt lat="43.01597" lon="0.12358">
        <ele>941</ele>
        <time>2013-02-09T09:03:36Z</time>
      </trkpt>
      <trkpt lat="43.01598" lon="0.12356">
        <ele>942</ele>
        <time>2013-02-09T09:03:38Z</time>
      </trkpt>
      <trkpt lat="43.01599" lon="0.12354">
        <ele>943</ele>
        <time>2013-02-09T09:03:40Z</time>
      </trkpt>
      <trkpt lat="43.016" lon="0.12353">
        <ele>944</ele>
        <time>2013-02-09T09:03:42Z</time>
      </trkpt>
      <trkpt lat="43.01601" lon="0.12351">
        <ele>945</ele>
        <time>2013-02-09T09:03:44Z</time>
      </trkpt>
      <trkpt lat="43.01602" lon="0.12349">
        <ele>946</ele>
        <time>2013-02-09T09:03:46Z</time>
      </trkpt>
      <trkpt lat="43.01603" lon="0.12347">
        <ele>947</ele>
        <time>2013-02-09T09:03:48Z</time>
      </trkpt>
      <trkpt lat="43.01603" lon="0.12345">
        <ele>949</ele>
        <time>2013-02-09T09:03:50Z</time>
      </trkpt>
      <trkpt lat="43.01603" lon="0.12343">
        <ele>950</ele>
        <time>2013-02-09T09:03:53Z</time>
      </trkpt>
      <trkpt lat="43.01605" lon="0.12341">
        <ele>950</ele>
        <time>2013-02-09T09:03:56Z</time>
      </trkpt>
      <trkpt lat="43.01605" lon="0.12339">
        <ele>950</ele>
        <time>2013-02-09T09:03:58Z</time>
      </trkpt>
      <trkpt lat="43.01606" lon="0.12338">
        <ele>951</ele>
        <time>2013-02-09T09:04:00Z</time>
      </trkpt>
      <trkpt lat="43.01607" lon="0.12336">
        <ele>951</ele>
        <time>2013-02-09T09:04:02Z</time>
      </trkpt>
      <trkpt lat="43.01608" lon="0.12334">
        <ele>952</ele>
        <time>2013-02-09T09:04:04Z</time>
      </trkpt>
      <trkpt lat="43.01609" lon="0.12332">
        <ele>952</ele>
        <time>2013-02-09T09:04:06Z</time>
      </trkpt>
      <trkpt lat="43.0161" lon="0.1233">
        <ele>952</ele>
        <time>2013-02-09T09:04:08Z</time>
      </trkpt>
      <trkpt lat="43.01611" lon="0.12328">
        <ele>952</ele>
        <time>2013-02-09T09:04:11Z</time>
      </trkpt>
      <trkpt lat="43.01611" lon="0.12326">
        <ele>952</ele>
        <time>2013-02-09T09:04:13Z</time>
      </trkpt>
      <trkpt lat="43.01612" lon="0.12325">
        <ele>953</ele>
        <time>2013-02-09T09:04:15Z</time>
      </trkpt>
      <trkpt lat="43.01614" lon="0.12323">
        <ele>953</ele>
        <time>2013-02-09T09:04:17Z</time>
      </trkpt>
      <trkpt lat="43.01615" lon="0.12321">
        <ele>953</ele>
        <time>2013-02-09T09:04:19Z</time>
      </trkpt>
      <trkpt lat="43.01616" lon="0.12319">
        <ele>953</ele>
        <time>2013-02-09T09:04:21Z</time>
      </trkpt>
      <trkpt lat="43.01617" lon="0.12318">
        <ele>953</ele>
        <time>2013-02-09T09:04:23Z</time>
      </trkpt>
      <trkpt lat="43.01617" lon="0.12316">
        <ele>953</ele>
        <time>2013-02-09T09:04:25Z</time>
      </trkpt>
      <trkpt lat="43.01619" lon="0.12314">
        <ele>953</ele>
        <time>2013-02-09T09:04:27Z</time>
      </trkpt>
      <trkpt lat="43.0162" lon="0.12312">
        <ele>953</ele>
        <time>2013-02-09T09:04:29Z</time>
      </trkpt>
      <trkpt lat="43.01621" lon="0.1231">
        <ele>953</ele>
        <time>2013-02-09T09:04:31Z</time>
      </trkpt>
      <trkpt lat="43.01622" lon="0.12308">
        <ele>953</ele>
        <time>2013-02-09T09:04:33Z</time>
      </trkpt>
      <trkpt lat="43.01623" lon="0.12306">
        <ele>953</ele>
        <time>2013-02-09T09:04:35Z</time>
      </trkpt>
      <trkpt lat="43.01624" lon="0.12304">
        <ele>953</ele>
        <time>2013-02-09T09:04:37Z</time>
      </trkpt>
      <trkpt lat="43.01625" lon="0.12302">
        <ele>953</ele>
        <time>2013-02-09T09:04:39Z</time>
      </trkpt>
      <trkpt lat="43.01627" lon="0.123">
        <ele>953</ele>
        <time>2013-02-09T09:04:41Z</time>
      </trkpt>
      <trkpt lat="43.01627" lon="0.12298">
        <ele>953</ele>
        <time>2013-02-09T09:04:43Z</time>
      </trkpt>
      <trkpt lat="43.01628" lon="0.12296">
        <ele>953</ele>
        <time>2013-02-09T09:04:45Z</time>
      </trkpt>
      <trkpt lat="43.01629" lon="0.12295">
        <ele>953</ele>
        <time>2013-02-09T09:04:47Z</time>
      </trkpt>
      <trkpt lat="43.0163" lon="0.12293">
        <ele>953</ele>
        <time>2013-02-09T09:04:50Z</time>
      </trkpt>
      <trkpt lat="43.01632" lon="0.12292">
        <ele>953</ele>
        <time>2013-02-09T09:04:52Z</time>
      </trkpt>
      <trkpt lat="43.01634" lon="0.12291">
        <ele>953</ele>
        <time>2013-02-09T09:04:54Z</time>
      </trkpt>
      <trkpt lat="43.01635" lon="0.1229">
        <ele>953</ele>
        <time>2013-02-09T09:04:56Z</time>
      </trkpt>
      <trkpt lat="43.01637" lon="0.12289">
        <ele>953</ele>
        <time>2013-02-09T09:04:59Z</time>
      </trkpt>
      <trkpt lat="43.01638" lon="0.12287">
        <ele>953</ele>
        <time>2013-02-09T09:05:01Z</time>
      </trkpt>
      <trkpt lat="43.01638" lon="0.12285">
        <ele>953</ele>
        <time>2013-02-09T09:05:03Z</time>
      </trkpt>
      <trkpt lat="43.01639" lon="0.12282">
        <ele>953</ele>
        <time>2013-02-09T09:05:05Z</time>
      </trkpt>
      <trkpt lat="43.0164" lon="0.1228">
        <ele>953</ele>
        <time>2013-02-09T09:05:07Z</time>
      </trkpt>
      <trkpt lat="43.01641" lon="0.12279">
        <ele>953</ele>
        <time>2013-02-09T09:05:08Z</time>
      </trkpt>
      <trkpt lat="43.01643" lon="0.12276">
        <ele>953</ele>
        <time>2013-02-09T09:05:09Z</time>
      </trkpt>
      <trkpt lat="43.01644" lon="0.12274">
        <ele>953</ele>
        <time>2013-02-09T09:05:11Z</time>
      </trkpt>
      <trkpt lat="43.01645" lon="0.12272">
        <ele>953</ele>
        <time>2013-02-09T09:05:13Z</time>
      </trkpt>
      <trkpt lat="43.01646" lon="0.1227">
        <ele>953</ele>
        <time>2013-02-09T09:05:15Z</time>
      </trkpt>
      <trkpt lat="43.01647" lon="0.12268">
        <ele>954</ele>
        <time>2013-02-09T09:05:17Z</time>
      </trkpt>
      <trkpt lat="43.01647" lon="0.12266">
        <ele>954</ele>
        <time>2013-02-09T09:05:20Z</time>
      </trkpt>
      <trkpt lat="43.01647" lon="0.12265">
        <ele>954</ele>
        <time>2013-02-09T09:05:22Z</time>
      </trkpt>
      <trkpt lat="43.01648" lon="0.12263">
        <ele>954</ele>
        <time>2013-02-09T09:05:24Z</time>
      </trkpt>
      <trkpt lat="43.01648" lon="0.12261">
        <ele>954</ele>
        <time>2013-02-09T09:05:25Z</time>
      </trkpt>
      <trkpt lat="43.01649" lon="0.12259">
        <ele>954</ele>
        <time>2013-02-09T09:05:28Z</time>
      </trkpt>
      <trkpt lat="43.0165" lon="0.12257">
        <ele>954</ele>
        <time>2013-02-09T09:05:30Z</time>
      </trkpt>
      <trkpt lat="43.0165" lon="0.12255">
        <ele>954</ele>
        <time>2013-02-09T09:05:31Z</time>
      </trkpt>
      <trkpt lat="43.01651" lon="0.12253">
        <ele>954</ele>
        <time>2013-02-09T09:05:34Z</time>
      </trkpt>
      <trkpt lat="43.01651" lon="0.12251">
        <ele>954</ele>
        <time>2013-02-09T09:05:35Z</time>
      </trkpt>
      <trkpt lat="43.0165" lon="0.12248">
        <ele>954</ele>
        <time>2013-02-09T09:05:38Z</time>
      </trkpt>
      <trkpt lat="43.01651" lon="0.12246">
        <ele>954</ele>
        <time>2013-02-09T09:05:40Z</time>
      </trkpt>
      <trkpt lat="43.01651" lon="0.12244">
        <ele>954</ele>
        <time>2013-02-09T09:05:42Z</time>
      </trkpt>
      <trkpt lat="43.01652" lon="0.12242">
        <ele>954</ele>
        <time>2013-02-09T09:05:43Z</time>
      </trkpt>
      <trkpt lat="43.01652" lon="0.1224">
        <ele>954</ele>
        <time>2013-02-09T09:05:45Z</time>
      </trkpt>
      <trkpt lat="43.01653" lon="0.12238">
        <ele>954</ele>
        <time>2013-02-09T09:05:47Z</time>
      </trkpt>
      <trkpt lat="43.01653" lon="0.12236">
        <ele>954</ele>
        <time>2013-02-09T09:05:49Z</time>
      </trkpt>
      <trkpt lat="43.01653" lon="0.12234">
        <ele>954</ele>
        <time>2013-02-09T09:05:51Z</time>
      </trkpt>
      <trkpt lat="43.01654" lon="0.12231">
        <ele>954</ele>
        <time>2013-02-09T09:05:53Z</time>
      </trkpt>
      <trkpt lat="43.01655" lon="0.1223">
        <ele>954</ele>
        <time>2013-02-09T09:05:53Z</time>
      </trkpt>
      <trkpt lat="43.01655" lon="0.12228">
        <ele>954</ele>
        <time>2013-02-09T09:05:56Z</time>
      </trkpt>
      <trkpt lat="43.01655" lon="0.12225">
        <ele>955</ele>
        <time>2013-02-09T09:05:58Z</time>
      </trkpt>
      <trkpt lat="43.01656" lon="0.12223">
        <ele>955</ele>
        <time>2013-02-09T09:05:59Z</time>
      </trkpt>
      <trkpt lat="43.01656" lon="0.12221">
        <ele>956</ele>
        <time>2013-02-09T09:06:02Z</time>
      </trkpt>
      <trkpt lat="43.01656" lon="0.12219">
        <ele>956</ele>
        <time>2013-02-09T09:06:04Z</time>
      </trkpt>
      <trkpt lat="43.01656" lon="0.12217">
        <ele>956</ele>
        <time>2013-02-09T09:06:05Z</time>
      </trkpt>
      <trkpt lat="43.01656" lon="0.12215">
        <ele>956</ele>
        <time>2013-02-09T09:06:08Z</time>
      </trkpt>
      <trkpt lat="43.01657" lon="0.12213">
        <ele>956</ele>
        <time>2013-02-09T09:06:09Z</time>
      </trkpt>
      <trkpt lat="43.01658" lon="0.12211">
        <ele>956</ele>
        <time>2013-02-09T09:06:12Z</time>
      </trkpt>
      <trkpt lat="43.01659" lon="0.12208">
        <ele>956</ele>
        <time>2013-02-09T09:06:14Z</time>
      </trkpt>
      <trkpt lat="43.01659" lon="0.12206">
        <ele>956</ele>
        <time>2013-02-09T09:06:16Z</time>
      </trkpt>
      <trkpt lat="43.01659" lon="0.12204">
        <ele>957</ele>
        <time>2013-02-09T09:06:18Z</time>
      </trkpt>
      <trkpt lat="43.0166" lon="0.12202">
        <ele>957</ele>
        <time>2013-02-09T09:06:22Z</time>
      </trkpt>
      <trkpt lat="43.01661" lon="0.122">
        <ele>957</ele>
        <time>2013-02-09T09:06:24Z</time>
      </trkpt>
      <trkpt lat="43.01661" lon="0.12197">
        <ele>957</ele>
        <time>2013-02-09T09:06:26Z</time>
      </trkpt>
      <trkpt lat="43.01662" lon="0.12195">
        <ele>957</ele>
        <time>2013-02-09T09:06:28Z</time>
      </trkpt>
      <trkpt lat="43.01663" lon="0.12193">
        <ele>958</ele>
        <time>2013-02-09T09:06:30Z</time>
      </trkpt>
      <trkpt lat="43.01663" lon="0.12191">
        <ele>958</ele>
        <time>2013-02-09T09:06:31Z</time>
      </trkpt>
      <trkpt lat="43.01664" lon="0.12189">
        <ele>958</ele>
        <time>2013-02-09T09:06:34Z</time>
      </trkpt>
      <trkpt lat="43.01664" lon="0.12188">
        <ele>958</ele>
        <time>2013-02-09T09:06:35Z</time>
      </trkpt>
      <trkpt lat="43.01665" lon="0.12186">
        <ele>958</ele>
        <time>2013-02-09T09:06:39Z</time>
      </trkpt>
      <trkpt lat="43.01665" lon="0.12184">
        <ele>958</ele>
        <time>2013-02-09T09:06:48Z</time>
      </trkpt>
      <trkpt lat="43.01667" lon="0.12182">
        <ele>958</ele>
        <time>2013-02-09T09:06:50Z</time>
      </trkpt>
      <trkpt lat="43.01667" lon="0.12179">
        <ele>958</ele>
        <time>2013-02-09T09:06:52Z</time>
      </trkpt>
      <trkpt lat="43.01668" lon="0.12177">
        <ele>958</ele>
        <time>2013-02-09T09:06:54Z</time>
      </trkpt>
      <trkpt lat="43.01669" lon="0.12175">
        <ele>959</ele>
        <time>2013-02-09T09:06:56Z</time>
      </trkpt>
      <trkpt lat="43.01671" lon="0.12172">
        <ele>959</ele>
        <time>2013-02-09T09:06:58Z</time>
      </trkpt>
      <trkpt lat="43.01672" lon="0.1217">
        <ele>959</ele>
        <time>2013-02-09T09:07:00Z</time>
      </trkpt>
      <trkpt lat="43.01672" lon="0.12169">
        <ele>959</ele>
        <time>2013-02-09T09:07:02Z</time>
      </trkpt>
      <trkpt lat="43.01673" lon="0.12167">
        <ele>959</ele>
        <time>2013-02-09T09:07:03Z</time>
      </trkpt>
      <trkpt lat="43.01673" lon="0.12165">
        <ele>959</ele>
        <time>2013-02-09T09:07:06Z</time>
      </trkpt>
      <trkpt lat="43.01673" lon="0.12164">
        <ele>959</ele>
        <time>2013-02-09T09:07:08Z</time>
      </trkpt>
      <trkpt lat="43.01674" lon="0.12161">
        <ele>959</ele>
        <time>2013-02-09T09:07:09Z</time>
      </trkpt>
      <trkpt lat="43.01675" lon="0.12159">
        <ele>959</ele>
        <time>2013-02-09T09:07:12Z</time>
      </trkpt>
      <trkpt lat="43.01675" lon="0.12156">
        <ele>959</ele>
        <time>2013-02-09T09:07:14Z</time>
      </trkpt>
      <trkpt lat="43.01676" lon="0.12154">
        <ele>960</ele>
        <time>2013-02-09T09:07:16Z</time>
      </trkpt>
      <trkpt lat="43.01677" lon="0.12151">
        <ele>960</ele>
        <time>2013-02-09T09:07:18Z</time>
      </trkpt>
      <trkpt lat="43.01679" lon="0.1215">
        <ele>961</ele>
        <time>2013-02-09T09:07:19Z</time>
      </trkpt>
      <trkpt lat="43.0168" lon="0.12148">
        <ele>962</ele>
        <time>2013-02-09T09:07:21Z</time>
      </trkpt>
      <trkpt lat="43.0168" lon="0.12146">
        <ele>962</ele>
        <time>2013-02-09T09:07:23Z</time>
      </trkpt>
      <trkpt lat="43.01681" lon="0.12144">
        <ele>963</ele>
        <time>2013-02-09T09:07:25Z</time>
      </trkpt>
      <trkpt lat="43.01683" lon="0.12141">
        <ele>963</ele>
        <time>2013-02-09T09:07:27Z</time>
      </trkpt>
      <trkpt lat="43.01683" lon="0.12139">
        <ele>963</ele>
        <time>2013-02-09T09:07:30Z</time>
      </trkpt>
      <trkpt lat="43.01683" lon="0.12137">
        <ele>963</ele>
        <time>2013-02-09T09:07:32Z</time>
      </trkpt>
      <trkpt lat="43.01683" lon="0.12136">
        <ele>963</ele>
        <time>2013-02-09T09:07:33Z</time>
      </trkpt>
      <trkpt lat="43.01684" lon="0.12133">
        <ele>963</ele>
        <time>2013-02-09T09:07:35Z</time>
      </trkpt>
      <trkpt lat="43.01685" lon="0.12132">
        <ele>963</ele>
        <time>2013-02-09T09:07:36Z</time>
      </trkpt>
      <trkpt lat="43.01685" lon="0.1213">
        <ele>964</ele>
        <time>2013-02-09T09:07:41Z</time>
      </trkpt>
      <trkpt lat="43.01686" lon="0.12127">
        <ele>964</ele>
        <time>2013-02-09T09:07:43Z</time>
      </trkpt>
      <trkpt lat="43.01686" lon="0.12125">
        <ele>965</ele>
        <time>2013-02-09T09:07:45Z</time>
      </trkpt>
      <trkpt lat="43.01687" lon="0.12123">
        <ele>965</ele>
        <time>2013-02-09T09:07:47Z</time>
      </trkpt>
      <trkpt lat="43.01688" lon="0.12122">
        <ele>966</ele>
        <time>2013-02-09T09:07:49Z</time>
      </trkpt>
      <trkpt lat="43.01688" lon="0.12119">
        <ele>966</ele>
        <time>2013-02-09T09:07:51Z</time>
      </trkpt>
      <trkpt lat="43.01689" lon="0.12117">
        <ele>966</ele>
        <time>2013-02-09T09:07:53Z</time>
      </trkpt>
      <trkpt lat="43.01689" lon="0.12115">
        <ele>966</ele>
        <time>2013-02-09T09:07:55Z</time>
      </trkpt>
      <trkpt lat="43.01689" lon="0.12113">
        <ele>967</ele>
        <time>2013-02-09T09:07:57Z</time>
      </trkpt>
      <trkpt lat="43.0169" lon="0.12111">
        <ele>967</ele>
        <time>2013-02-09T09:07:59Z</time>
      </trkpt>
      <trkpt lat="43.0169" lon="0.12109">
        <ele>967</ele>
        <time>2013-02-09T09:08:01Z</time>
      </trkpt>
      <trkpt lat="43.01691" lon="0.12106">
        <ele>967</ele>
        <time>2013-02-09T09:08:03Z</time>
      </trkpt>
      <trkpt lat="43.01691" lon="0.12105">
        <ele>967</ele>
        <time>2013-02-09T09:08:05Z</time>
      </trkpt>
      <trkpt lat="43.01692" lon="0.12103">
        <ele>968</ele>
        <time>2013-02-09T09:08:07Z</time>
      </trkpt>
      <trkpt lat="43.01692" lon="0.12101">
        <ele>968</ele>
        <time>2013-02-09T09:08:09Z</time>
      </trkpt>
      <trkpt lat="43.01693" lon="0.12099">
        <ele>968</ele>
        <time>2013-02-09T09:08:11Z</time>
      </trkpt>
      <trkpt lat="43.01693" lon="0.12097">
        <ele>968</ele>
        <time>2013-02-09T09:08:13Z</time>
      </trkpt>
      <trkpt lat="43.01693" lon="0.12096">
        <ele>968</ele>
        <time>2013-02-09T09:08:14Z</time>
      </trkpt>
      <trkpt lat="43.01693" lon="0.12094">
        <ele>968</ele>
        <time>2013-02-09T09:08:15Z</time>
      </trkpt>
      <trkpt lat="43.01694" lon="0.12093">
        <ele>968</ele>
        <time>2013-02-09T09:08:21Z</time>
      </trkpt>
      <trkpt lat="43.01695" lon="0.1209">
        <ele>968</ele>
        <time>2013-02-09T09:08:23Z</time>
      </trkpt>
      <trkpt lat="43.01696" lon="0.12088">
        <ele>968</ele>
        <time>2013-02-09T09:08:24Z</time>
      </trkpt>
      <trkpt lat="43.01696" lon="0.12086">
        <ele>968</ele>
        <time>2013-02-09T09:08:27Z</time>
      </trkpt>
      <trkpt lat="43.01697" lon="0.12085">
        <ele>968</ele>
        <time>2013-02-09T09:08:39Z</time>
      </trkpt>
      <trkpt lat="43.01698" lon="0.12083">
        <ele>968</ele>
        <time>2013-02-09T09:08:40Z</time>
      </trkpt>
      <trkpt lat="43.01698" lon="0.1208">
        <ele>969</ele>
        <time>2013-02-09T09:08:43Z</time>
      </trkpt>
      <trkpt lat="43.01699" lon="0.12078">
        <ele>969</ele>
        <time>2013-02-09T09:08:45Z</time>
      </trkpt>
      <trkpt lat="43.017" lon="0.12076">
        <ele>970</ele>
        <time>2013-02-09T09:08:47Z</time>
      </trkpt>
      <trkpt lat="43.017" lon="0.12074">
        <ele>970</ele>
        <time>2013-02-09T09:08:49Z</time>
      </trkpt>
      <trkpt lat="43.01701" lon="0.12071">
        <ele>970</ele>
        <time>2013-02-09T09:08:51Z</time>
      </trkpt>
      <trkpt lat="43.01702" lon="0.1207">
        <ele>970</ele>
        <time>2013-02-09T09:08:52Z</time>
      </trkpt>
      <trkpt lat="43.01703" lon="0.12068">
        <ele>971</ele>
        <time>2013-02-09T09:08:55Z</time>
      </trkpt>
      <trkpt lat="43.01704" lon="0.12066">
        <ele>971</ele>
        <time>2013-02-09T09:08:57Z</time>
      </trkpt>
      <trkpt lat="43.01704" lon="0.12064">
        <ele>971</ele>
        <time>2013-02-09T09:08:58Z</time>
      </trkpt>
      <trkpt lat="43.01706" lon="0.12061">
        <ele>972</ele>
        <time>2013-02-09T09:09:01Z</time>
      </trkpt>
      <trkpt lat="43.01706" lon="0.12059">
        <ele>973</ele>
        <time>2013-02-09T09:09:03Z</time>
      </trkpt>
      <trkpt lat="43.01707" lon="0.12057">
        <ele>973</ele>
        <time>2013-02-09T09:09:04Z</time>
      </trkpt>
      <trkpt lat="43.01708" lon="0.12055">
        <ele>973</ele>
        <time>2013-02-09T09:09:07Z</time>
      </trkpt>
      <trkpt lat="43.01709" lon="0.12053">
        <ele>973</ele>
        <time>2013-02-09T09:09:09Z</time>
      </trkpt>
      <trkpt lat="43.01709" lon="0.12051">
        <ele>973</ele>
        <time>2013-02-09T09:09:10Z</time>
      </trkpt>
      <trkpt lat="43.0171" lon="0.12049">
        <ele>974</ele>
        <time>2013-02-09T09:09:12Z</time>
      </trkpt>
      <trkpt lat="43.01711" lon="0.12047">
        <ele>974</ele>
        <time>2013-02-09T09:09:15Z</time>
      </trkpt>
      <trkpt lat="43.01711" lon="0.12045">
        <ele>974</ele>
        <time>2013-02-09T09:09:16Z</time>
      </trkpt>
      <trkpt lat="43.01712" lon="0.12043">
        <ele>974</ele>
        <time>2013-02-09T09:09:19Z</time>
      </trkpt>
      <trkpt lat="43.01713" lon="0.12041">
        <ele>974</ele>
        <time>2013-02-09T09:09:21Z</time>
      </trkpt>
      <trkpt lat="43.01714" lon="0.12039">
        <ele>974</ele>
        <time>2013-02-09T09:09:22Z</time>
      </trkpt>
      <trkpt lat="43.01714" lon="0.12037">
        <ele>974</ele>
        <time>2013-02-09T09:09:25Z</time>
      </trkpt>
      <trkpt lat="43.01714" lon="0.12035">
        <ele>975</ele>
        <time>2013-02-09T09:09:27Z</time>
      </trkpt>
      <trkpt lat="43.01714" lon="0.12033">
        <ele>976</ele>
        <time>2013-02-09T09:09:28Z</time>
      </trkpt>
      <trkpt lat="43.01714" lon="0.12032">
        <ele>978</ele>
        <time>2013-02-09T09:09:31Z</time>
      </trkpt>
      <trkpt lat="43.01715" lon="0.12029">
        <ele>979</ele>
        <time>2013-02-09T09:09:33Z</time>
      </trkpt>
      <trkpt lat="43.01714" lon="0.12028">
        <ele>980</ele>
        <time>2013-02-09T09:09:34Z</time>
      </trkpt>
      <trkpt lat="43.01714" lon="0.12026">
        <ele>982</ele>
        <time>2013-02-09T09:09:36Z</time>
      </trkpt>
      <trkpt lat="43.01715" lon="0.12024">
        <ele>982</ele>
        <time>2013-02-09T09:09:38Z</time>
      </trkpt>
      <trkpt lat="43.01715" lon="0.12023">
        <ele>982</ele>
        <time>2013-02-09T09:09:40Z</time>
      </trkpt>
      <trkpt lat="43.01715" lon="0.12021">
        <ele>983</ele>
        <time>2013-02-09T09:09:41Z</time>
      </trkpt>
      <trkpt lat="43.01716" lon="0.1202">
        <ele>984</ele>
        <time>2013-02-09T09:09:44Z</time>
      </trkpt>
      <trkpt lat="43.01716" lon="0.12018">
        <ele>984</ele>
        <time>2013-02-09T09:09:45Z</time>
      </trkpt>
      <trkpt lat="43.01717" lon="0.12016">
        <ele>984</ele>
        <time>2013-02-09T09:09:48Z</time>
      </trkpt>
      <trkpt lat="43.01718" lon="0.12014">
        <ele>984</ele>
        <time>2013-02-09T09:09:50Z</time>
      </trkpt>
      <trkpt lat="43.01719" lon="0.12012">
        <ele>984</ele>
        <time>2013-02-09T09:09:51Z</time>
      </trkpt>
      <trkpt lat="43.01719" lon="0.1201">
        <ele>984</ele>
        <time>2013-02-09T09:09:52Z</time>
      </trkpt>
      <trkpt lat="43.0172" lon="0.12008">
        <ele>984</ele>
        <time>2013-02-09T09:09:55Z</time>
      </trkpt>
      <trkpt lat="43.0172" lon="0.12006">
        <ele>984</ele>
        <time>2013-02-09T09:09:56Z</time>
      </trkpt>
      <trkpt lat="43.01722" lon="0.12004">
        <ele>984</ele>
        <time>2013-02-09T09:09:57Z</time>
      </trkpt>
      <trkpt lat="43.01724" lon="0.12003">
        <ele>984</ele>
        <time>2013-02-09T09:09:59Z</time>
      </trkpt>
      <trkpt lat="43.01725" lon="0.12">
        <ele>984</ele>
        <time>2013-02-09T09:10:02Z</time>
      </trkpt>
      <trkpt lat="43.01726" lon="0.11999">
        <ele>984</ele>
        <time>2013-02-09T09:10:03Z</time>
      </trkpt>
      <trkpt lat="43.01726" lon="0.11997">
        <ele>984</ele>
        <time>2013-02-09T09:10:05Z</time>
      </trkpt>
      <trkpt lat="43.01728" lon="0.11994">
        <ele>984</ele>
        <time>2013-02-09T09:10:08Z</time>
      </trkpt>
      <trkpt lat="43.01729" lon="0.11992">
        <ele>984</ele>
        <time>2013-02-09T09:10:09Z</time>
      </trkpt>
      <trkpt lat="43.01729" lon="0.11991">
        <ele>984</ele>
        <time>2013-02-09T09:10:11Z</time>
      </trkpt>
      <trkpt lat="43.0173" lon="0.11988">
        <ele>984</ele>
        <time>2013-02-09T09:10:14Z</time>
      </trkpt>
      <trkpt lat="43.0173" lon="0.11986">
        <ele>985</ele>
        <time>2013-02-09T09:10:15Z</time>
      </trkpt>
      <trkpt lat="43.01731" lon="0.11984">
        <ele>986</ele>
        <time>2013-02-09T09:10:17Z</time>
      </trkpt>
      <trkpt lat="43.01731" lon="0.11983">
        <ele>988</ele>
        <time>2013-02-09T09:10:20Z</time>
      </trkpt>
      <trkpt lat="43.01731" lon="0.11981">
        <ele>989</ele>
        <time>2013-02-09T09:10:21Z</time>
      </trkpt>
      <trkpt lat="43.01732" lon="0.11979">
        <ele>991</ele>
        <time>2013-02-09T09:10:24Z</time>
      </trkpt>
      <trkpt lat="43.01731" lon="0.11977">
        <ele>992</ele>
        <time>2013-02-09T09:10:26Z</time>
      </trkpt>
      <trkpt lat="43.01732" lon="0.11975">
        <ele>993</ele>
        <time>2013-02-09T09:10:27Z</time>
      </trkpt>
      <trkpt lat="43.01732" lon="0.11974">
        <ele>993</ele>
        <time>2013-02-09T09:10:28Z</time>
      </trkpt>
      <trkpt lat="43.01733" lon="0.11972">
        <ele>994</ele>
        <time>2013-02-09T09:10:31Z</time>
      </trkpt>
      <trkpt lat="43.01735" lon="0.1197">
        <ele>994</ele>
        <time>2013-02-09T09:10:33Z</time>
      </trkpt>
      <trkpt lat="43.01736" lon="0.11968">
        <ele>994</ele>
        <time>2013-02-09T09:10:34Z</time>
      </trkpt>
      <trkpt lat="43.01737" lon="0.11966">
        <ele>994</ele>
        <time>2013-02-09T09:10:37Z</time>
      </trkpt>
      <trkpt lat="43.01737" lon="0.11964">
        <ele>994</ele>
        <time>2013-02-09T09:10:38Z</time>
      </trkpt>
      <trkpt lat="43.01736" lon="0.11962">
        <ele>994</ele>
        <time>2013-02-09T09:10:38Z</time>
      </trkpt>
      <trkpt lat="43.01736" lon="0.11961">
        <ele>994</ele>
        <time>2013-02-09T09:10:39Z</time>
      </trkpt>
      <trkpt lat="43.01736" lon="0.11958">
        <ele>994</ele>
        <time>2013-02-09T09:10:42Z</time>
      </trkpt>
      <trkpt lat="43.01737" lon="0.11957">
        <ele>994</ele>
        <time>2013-02-09T09:10:42Z</time>
      </trkpt>
      <trkpt lat="43.01738" lon="0.11954">
        <ele>995</ele>
        <time>2013-02-09T09:10:44Z</time>
      </trkpt>
      <trkpt lat="43.0174" lon="0.11951">
        <ele>996</ele>
        <time>2013-02-09T09:10:47Z</time>
      </trkpt>
      <trkpt lat="43.0174" lon="0.1195">
        <ele>996</ele>
        <time>2013-02-09T09:10:48Z</time>
      </trkpt>
      <trkpt lat="43.01739" lon="0.11947">
        <ele>997</ele>
        <time>2013-02-09T09:10:50Z</time>
      </trkpt>
      <trkpt lat="43.01739" lon="0.11946">
        <ele>997</ele>
        <time>2013-02-09T09:10:50Z</time>
      </trkpt>
      <trkpt lat="43.01741" lon="0.11943">
        <ele>999</ele>
        <time>2013-02-09T09:10:53Z</time>
      </trkpt>
      <trkpt lat="43.01742" lon="0.11942">
        <ele>999</ele>
        <time>2013-02-09T09:10:53Z</time>
      </trkpt>
      <trkpt lat="43.01743" lon="0.11941">
        <ele>1000</ele>
        <time>2013-02-09T09:10:54Z</time>
      </trkpt>
      <trkpt lat="43.01742" lon="0.11939">
        <ele>1001</ele>
        <time>2013-02-09T09:10:56Z</time>
      </trkpt>
      <trkpt lat="43.01743" lon="0.11937">
        <ele>1001</ele>
        <time>2013-02-09T09:10:59Z</time>
      </trkpt>
      <trkpt lat="43.01743" lon="0.11935">
        <ele>1001</ele>
        <time>2013-02-09T09:11:01Z</time>
      </trkpt>
      <trkpt lat="43.01744" lon="0.11934">
        <ele>1001</ele>
        <time>2013-02-09T09:11:02Z</time>
      </trkpt>
      <trkpt lat="43.01745" lon="0.11931">
        <ele>999</ele>
        <time>2013-02-09T09:11:06Z</time>
      </trkpt>
      <trkpt lat="43.01746" lon="0.1193">
        <ele>999</ele>
        <time>2013-02-09T09:11:07Z</time>
      </trkpt>
      <trkpt lat="43.01748" lon="0.11928">
        <ele>998</ele>
        <time>2013-02-09T09:11:09Z</time>
      </trkpt>
      <trkpt lat="43.01749" lon="0.11926">
        <ele>997</ele>
        <time>2013-02-09T09:11:12Z</time>
      </trkpt>
      <trkpt lat="43.01751" lon="0.11924">
        <ele>996</ele>
        <time>2013-02-09T09:11:13Z</time>
      </trkpt>
      <trkpt lat="43.01751" lon="0.11923">
        <ele>995</ele>
        <time>2013-02-09T09:11:15Z</time>
      </trkpt>
      <trkpt lat="43.01752" lon="0.1192">
        <ele>995</ele>
        <time>2013-02-09T09:11:18Z</time>
      </trkpt>
      <trkpt lat="43.01752" lon="0.11919">
        <ele>995</ele>
        <time>2013-02-09T09:11:19Z</time>
      </trkpt>
      <trkpt lat="43.01754" lon="0.11917">
        <ele>995</ele>
        <time>2013-02-09T09:11:21Z</time>
      </trkpt>
      <trkpt lat="43.01754" lon="0.11915">
        <ele>995</ele>
        <time>2013-02-09T09:11:24Z</time>
      </trkpt>
      <trkpt lat="43.01754" lon="0.11913">
        <ele>995</ele>
        <time>2013-02-09T09:11:25Z</time>
      </trkpt>
      <trkpt lat="43.01754" lon="0.11912">
        <ele>995</ele>
        <time>2013-02-09T09:11:27Z</time>
      </trkpt>
      <trkpt lat="43.01755" lon="0.11909">
        <ele>995</ele>
        <time>2013-02-09T09:11:30Z</time>
      </trkpt>
      <trkpt lat="43.01756" lon="0.11907">
        <ele>995</ele>
        <time>2013-02-09T09:11:31Z</time>
      </trkpt>
      <trkpt lat="43.01757" lon="0.11905">
        <ele>995</ele>
        <time>2013-02-09T09:11:33Z</time>
      </trkpt>
      <trkpt lat="43.01757" lon="0.11903">
        <ele>995</ele>
        <time>2013-02-09T09:11:36Z</time>
      </trkpt>
      <trkpt lat="43.01759" lon="0.11901">
        <ele>995</ele>
        <time>2013-02-09T09:11:37Z</time>
      </trkpt>
      <trkpt lat="43.0176" lon="0.11899">
        <ele>995</ele>
        <time>2013-02-09T09:11:39Z</time>
      </trkpt>
      <trkpt lat="43.01762" lon="0.11896">
        <ele>995</ele>
        <time>2013-02-09T09:11:42Z</time>
      </trkpt>
      <trkpt lat="43.01762" lon="0.11894">
        <ele>995</ele>
        <time>2013-02-09T09:11:43Z</time>
      </trkpt>
      <trkpt lat="43.01762" lon="0.11892">
        <ele>995</ele>
        <time>2013-02-09T09:11:45Z</time>
      </trkpt>
      <trkpt lat="43.01764" lon="0.1189">
        <ele>995</ele>
        <time>2013-02-09T09:11:47Z</time>
      </trkpt>
      <trkpt lat="43.01765" lon="0.11889">
        <ele>997</ele>
        <time>2013-02-09T09:11:49Z</time>
      </trkpt>
      <trkpt lat="43.01766" lon="0.11886">
        <ele>997</ele>
        <time>2013-02-09T09:11:51Z</time>
      </trkpt>
      <trkpt lat="43.01768" lon="0.11885">
        <ele>997</ele>
        <time>2013-02-09T09:11:54Z</time>
      </trkpt>
      <trkpt lat="43.01769" lon="0.11884">
        <ele>997</ele>
        <time>2013-02-09T09:12:03Z</time>
      </trkpt>
      <trkpt lat="43.0177" lon="0.11884">
        <ele>997</ele>
        <time>2013-02-09T09:12:05Z</time>
      </trkpt>
      <trkpt lat="43.01771" lon="0.11886">
        <ele>998</ele>
        <time>2013-02-09T09:12:19Z</time>
      </trkpt>
      <trkpt lat="43.01769" lon="0.11886">
        <ele>998</ele>
        <time>2013-02-09T09:12:22Z</time>
      </trkpt>
      <trkpt lat="43.01768" lon="0.11886">
        <ele>998</ele>
        <time>2013-02-09T09:12:26Z</time>
      </trkpt>
      <trkpt lat="43.01767" lon="0.11886">
        <ele>998</ele>
        <time>2013-02-09T09:12:31Z</time>
      </trkpt>
      <trkpt lat="43.01768" lon="0.11887">
        <ele>994</ele>
        <time>2013-02-09T09:12:38Z</time>
      </trkpt>
      <trkpt lat="43.01769" lon="0.11887">
        <ele>992</ele>
        <time>2013-02-09T09:12:40Z</time>
      </trkpt>
      <trkpt lat="43.0177" lon="0.11885">
        <ele>991</ele>
        <time>2013-02-09T09:12:49Z</time>
      </trkpt>
      <trkpt lat="43.0177" lon="0.11883">
        <ele>991</ele>
        <time>2013-02-09T09:12:50Z</time>
      </trkpt>
      <trkpt lat="43.01772" lon="0.11882">
        <ele>991</ele>
        <time>2013-02-09T09:12:52Z</time>
      </trkpt>
      <trkpt lat="43.01773" lon="0.1188">
        <ele>991</ele>
        <time>2013-02-09T09:12:55Z</time>
      </trkpt>
      <trkpt lat="43.01773" lon="0.11877">
        <ele>991</ele>
        <time>2013-02-09T09:12:56Z</time>
      </trkpt>
      <trkpt lat="43.01774" lon="0.11875">
        <ele>991</ele>
        <time>2013-02-09T09:12:58Z</time>
      </trkpt>
      <trkpt lat="43.01775" lon="0.11873">
        <ele>991</ele>
        <time>2013-02-09T09:13:01Z</time>
      </trkpt>
      <trkpt lat="43.01777" lon="0.11872">
        <ele>992</ele>
        <time>2013-02-09T09:13:01Z</time>
      </trkpt>
      <trkpt lat="43.01778" lon="0.11871">
        <ele>992</ele>
        <time>2013-02-09T09:13:02Z</time>
      </trkpt>
      <trkpt lat="43.01779" lon="0.11869">
        <ele>993</ele>
        <time>2013-02-09T09:13:04Z</time>
      </trkpt>
      <trkpt lat="43.0178" lon="0.11868">
        <ele>993</ele>
        <time>2013-02-09T09:13:06Z</time>
      </trkpt>
      <trkpt lat="43.01781" lon="0.11866">
        <ele>994</ele>
        <time>2013-02-09T09:13:06Z</time>
      </trkpt>
      <trkpt lat="43.01783" lon="0.11864">
        <ele>994</ele>
        <time>2013-02-09T09:13:08Z</time>
      </trkpt>
      <trkpt lat="43.01785" lon="0.11863">
        <ele>994</ele>
        <time>2013-02-09T09:13:10Z</time>
      </trkpt>
      <trkpt lat="43.01786" lon="0.1186">
        <ele>994</ele>
        <time>2013-02-09T09:13:12Z</time>
      </trkpt>
      <trkpt lat="43.01787" lon="0.11857">
        <ele>994</ele>
        <time>2013-02-09T09:13:16Z</time>
      </trkpt>
      <trkpt lat="43.01788" lon="0.11855">
        <ele>994</ele>
        <time>2013-02-09T09:13:17Z</time>
      </trkpt>
      <trkpt lat="43.01789" lon="0.11853">
        <ele>994</ele>
        <time>2013-02-09T09:13:19Z</time>
      </trkpt>
      <trkpt lat="43.0179" lon="0.11851">
        <ele>994</ele>
        <time>2013-02-09T09:13:22Z</time>
      </trkpt>
      <trkpt lat="43.01792" lon="0.11849">
        <ele>994</ele>
        <time>2013-02-09T09:13:23Z</time>
      </trkpt>
      <trkpt lat="43.01793" lon="0.11847">
        <ele>994</ele>
        <time>2013-02-09T09:13:25Z</time>
      </trkpt>
      <trkpt lat="43.01795" lon="0.11846">
        <ele>994</ele>
        <time>2013-02-09T09:13:27Z</time>
      </trkpt>
      <trkpt lat="43.01795" lon="0.11844">
        <ele>994</ele>
        <time>2013-02-09T09:13:29Z</time>
      </trkpt>
      <trkpt lat="43.01795" lon="0.11842">
        <ele>994</ele>
        <time>2013-02-09T09:13:30Z</time>
      </trkpt>
      <trkpt lat="43.01797" lon="0.1184">
        <ele>994</ele>
        <time>2013-02-09T09:13:33Z</time>
      </trkpt>
      <trkpt lat="43.01798" lon="0.11839">
        <ele>994</ele>
        <time>2013-02-09T09:13:34Z</time>
      </trkpt>
      <trkpt lat="43.01799" lon="0.11838">
        <ele>994</ele>
        <time>2013-02-09T09:13:36Z</time>
      </trkpt>
      <trkpt lat="43.01799" lon="0.11836">
        <ele>995</ele>
        <time>2013-02-09T09:13:39Z</time>
      </trkpt>
      <trkpt lat="43.01801" lon="0.11834">
        <ele>996</ele>
        <time>2013-02-09T09:13:40Z</time>
      </trkpt>
      <trkpt lat="43.01803" lon="0.11832">
        <ele>996</ele>
        <time>2013-02-09T09:13:42Z</time>
      </trkpt>
      <trkpt lat="43.01803" lon="0.1183">
        <ele>996</ele>
        <time>2013-02-09T09:13:44Z</time>
      </trkpt>
      <trkpt lat="43.01804" lon="0.11828">
        <ele>997</ele>
        <time>2013-02-09T09:13:45Z</time>
      </trkpt>
      <trkpt lat="43.01805" lon="0.11826">
        <ele>997</ele>
        <time>2013-02-09T09:13:47Z</time>
      </trkpt>
      <trkpt lat="43.01805" lon="0.11824">
        <ele>997</ele>
        <time>2013-02-09T09:13:49Z</time>
      </trkpt>
      <trkpt lat="43.01807" lon="0.11822">
        <ele>997</ele>
        <time>2013-02-09T09:13:52Z</time>
      </trkpt>
      <trkpt lat="43.01809" lon="0.11821">
        <ele>997</ele>
        <time>2013-02-09T09:13:55Z</time>
      </trkpt>
      <trkpt lat="43.01811" lon="0.11818">
        <ele>997</ele>
        <time>2013-02-09T09:13:57Z</time>
      </trkpt>
      <trkpt lat="43.01812" lon="0.11816">
        <ele>998</ele>
        <time>2013-02-09T09:13:59Z</time>
      </trkpt>
      <trkpt lat="43.01813" lon="0.11814">
        <ele>998</ele>
        <time>2013-02-09T09:14:01Z</time>
      </trkpt>
      <trkpt lat="43.01814" lon="0.11812">
        <ele>998</ele>
        <time>2013-02-09T09:14:03Z</time>
      </trkpt>
      <trkpt lat="43.01814" lon="0.1181">
        <ele>998</ele>
        <time>2013-02-09T09:14:05Z</time>
      </trkpt>
      <trkpt lat="43.01815" lon="0.11807">
        <ele>998</ele>
        <time>2013-02-09T09:14:06Z</time>
      </trkpt>
      <trkpt lat="43.01816" lon="0.11805">
        <ele>999</ele>
        <time>2013-02-09T09:14:08Z</time>
      </trkpt>
      <trkpt lat="43.01818" lon="0.11803">
        <ele>1000</ele>
        <time>2013-02-09T09:14:11Z</time>
      </trkpt>
      <trkpt lat="43.01819" lon="0.11802">
        <ele>1000</ele>
        <time>2013-02-09T09:14:12Z</time>
      </trkpt>
      <trkpt lat="43.01819" lon="0.118">
        <ele>1000</ele>
        <time>2013-02-09T09:14:14Z</time>
      </trkpt>
      <trkpt lat="43.0182" lon="0.11798">
        <ele>1001</ele>
        <time>2013-02-09T09:14:17Z</time>
      </trkpt>
      <trkpt lat="43.01821" lon="0.11795">
        <ele>1002</ele>
        <time>2013-02-09T09:14:18Z</time>
      </trkpt>
      <trkpt lat="43.01821" lon="0.11794">
        <ele>1003</ele>
        <time>2013-02-09T09:14:20Z</time>
      </trkpt>
      <trkpt lat="43.01822" lon="0.11792">
        <ele>1003</ele>
        <time>2013-02-09T09:14:23Z</time>
      </trkpt>
      <trkpt lat="43.01822" lon="0.1179">
        <ele>1003</ele>
        <time>2013-02-09T09:14:24Z</time>
      </trkpt>
      <trkpt lat="43.01823" lon="0.11788">
        <ele>1004</ele>
        <time>2013-02-09T09:14:28Z</time>
      </trkpt>
      <trkpt lat="43.01824" lon="0.11786">
        <ele>1005</ele>
        <time>2013-02-09T09:14:29Z</time>
      </trkpt>
      <trkpt lat="43.01825" lon="0.11784">
        <ele>1006</ele>
        <time>2013-02-09T09:14:31Z</time>
      </trkpt>
      <trkpt lat="43.01824" lon="0.11783">
        <ele>1008</ele>
        <time>2013-02-09T09:14:34Z</time>
      </trkpt>
      <trkpt lat="43.01825" lon="0.11781">
        <ele>1009</ele>
        <time>2013-02-09T09:14:34Z</time>
      </trkpt>
      <trkpt lat="43.01825" lon="0.11779">
        <ele>1010</ele>
        <time>2013-02-09T09:14:35Z</time>
      </trkpt>
      <trkpt lat="43.01825" lon="0.11778">
        <ele>1011</ele>
        <time>2013-02-09T09:14:36Z</time>
      </trkpt>
      <trkpt lat="43.01826" lon="0.11776">
        <ele>1012</ele>
        <time>2013-02-09T09:14:37Z</time>
      </trkpt>
      <trkpt lat="43.01826" lon="0.11774">
        <ele>1013</ele>
        <time>2013-02-09T09:14:39Z</time>
      </trkpt>
      <trkpt lat="43.01826" lon="0.11772">
        <ele>1013</ele>
        <time>2013-02-09T09:14:40Z</time>
      </trkpt>
      <trkpt lat="43.01826" lon="0.11769">
        <ele>1013</ele>
        <time>2013-02-09T09:14:42Z</time>
      </trkpt>
      <trkpt lat="43.01827" lon="0.11767">
        <ele>1014</ele>
        <time>2013-02-09T09:14:44Z</time>
      </trkpt>
      <trkpt lat="43.01827" lon="0.11764">
        <ele>1014</ele>
        <time>2013-02-09T09:14:45Z</time>
      </trkpt>
      <trkpt lat="43.01828" lon="0.11762">
        <ele>1014</ele>
        <time>2013-02-09T09:14:47Z</time>
      </trkpt>
      <trkpt lat="43.01829" lon="0.1176">
        <ele>1015</ele>
        <time>2013-02-09T09:14:50Z</time>
      </trkpt>
      <trkpt lat="43.01829" lon="0.11757">
        <ele>1015</ele>
        <time>2013-02-09T09:14:51Z</time>
      </trkpt>
      <trkpt lat="43.0183" lon="0.11755">
        <ele>1015</ele>
        <time>2013-02-09T09:14:53Z</time>
      </trkpt>
      <trkpt lat="43.01831" lon="0.11756">
        <ele>1015</ele>
        <time>2013-02-09T09:14:56Z</time>
      </trkpt>
      <trkpt lat="43.0183" lon="0.11754">
        <ele>1015</ele>
        <time>2013-02-09T09:14:59Z</time>
      </trkpt>
      <trkpt lat="43.0183" lon="0.11753">
        <ele>1015</ele>
        <time>2013-02-09T09:15:00Z</time>
      </trkpt>
      <trkpt lat="43.01829" lon="0.1175">
        <ele>1015</ele>
        <time>2013-02-09T09:15:03Z</time>
      </trkpt>
      <trkpt lat="43.0183" lon="0.11748">
        <ele>1015</ele>
        <time>2013-02-09T09:15:03Z</time>
      </trkpt>
      <trkpt lat="43.0183" lon="0.11746">
        <ele>1015</ele>
        <time>2013-02-09T09:15:05Z</time>
      </trkpt>
      <trkpt lat="43.01829" lon="0.11744">
        <ele>1015</ele>
        <time>2013-02-09T09:15:08Z</time>
      </trkpt>
      <trkpt lat="43.01829" lon="0.11742">
        <ele>1015</ele>
        <time>2013-02-09T09:15:09Z</time>
      </trkpt>
      <trkpt lat="43.01828" lon="0.11739">
        <ele>1015</ele>
        <time>2013-02-09T09:15:11Z</time>
      </trkpt>
      <trkpt lat="43.01829" lon="0.11738">
        <ele>1016</ele>
        <time>2013-02-09T09:15:13Z</time>
      </trkpt>
      <trkpt lat="43.01829" lon="0.11735">
        <ele>1017</ele>
        <time>2013-02-09T09:15:14Z</time>
      </trkpt>
      <trkpt lat="43.01831" lon="0.11733">
        <ele>1017</ele>
        <time>2013-02-09T09:15:16Z</time>
      </trkpt>
      <trkpt lat="43.01831" lon="0.11732">
        <ele>1017</ele>
        <time>2013-02-09T09:15:18Z</time>
      </trkpt>
      <trkpt lat="43.01832" lon="0.1173">
        <ele>1017</ele>
        <time>2013-02-09T09:15:18Z</time>
      </trkpt>
      <trkpt lat="43.01832" lon="0.11727">
        <ele>1017</ele>
        <time>2013-02-09T09:15:20Z</time>
      </trkpt>
      <trkpt lat="43.01832" lon="0.11725">
        <ele>1019</ele>
        <time>2013-02-09T09:15:23Z</time>
      </trkpt>
      <trkpt lat="43.01833" lon="0.11723">
        <ele>1019</ele>
        <time>2013-02-09T09:15:23Z</time>
      </trkpt>
      <trkpt lat="43.01832" lon="0.11721">
        <ele>1021</ele>
        <time>2013-02-09T09:15:25Z</time>
      </trkpt>
      <trkpt lat="43.01832" lon="0.11719">
        <ele>1021</ele>
        <time>2013-02-09T09:15:26Z</time>
      </trkpt>
      <trkpt lat="43.01832" lon="0.11717">
        <ele>1021</ele>
        <time>2013-02-09T09:15:29Z</time>
      </trkpt>
      <trkpt lat="43.01832" lon="0.11715">
        <ele>1021</ele>
        <time>2013-02-09T09:15:30Z</time>
      </trkpt>
      <trkpt lat="43.01833" lon="0.11712">
        <ele>1021</ele>
        <time>2013-02-09T09:15:32Z</time>
      </trkpt>
      <trkpt lat="43.01833" lon="0.11711">
        <ele>1021</ele>
        <time>2013-02-09T09:15:33Z</time>
      </trkpt>
      <trkpt lat="43.01833" lon="0.11708">
        <ele>1021</ele>
        <time>2013-02-09T09:15:35Z</time>
      </trkpt>
      <trkpt lat="43.01834" lon="0.11706">
        <ele>1021</ele>
        <time>2013-02-09T09:15:37Z</time>
      </trkpt>
      <trkpt lat="43.01834" lon="0.11703">
        <ele>1021</ele>
        <time>2013-02-09T09:15:40Z</time>
      </trkpt>
      <trkpt lat="43.01835" lon="0.11702">
        <ele>1021</ele>
        <time>2013-02-09T09:15:40Z</time>
      </trkpt>
      <trkpt lat="43.01835" lon="0.117">
        <ele>1021</ele>
        <time>2013-02-09T09:15:41Z</time>
      </trkpt>
      <trkpt lat="43.01835" lon="0.11698">
        <ele>1021</ele>
        <time>2013-02-09T09:15:43Z</time>
      </trkpt>
      <trkpt lat="43.01835" lon="0.11696">
        <ele>1021</ele>
        <time>2013-02-09T09:15:45Z</time>
      </trkpt>
      <trkpt lat="43.01835" lon="0.11694">
        <ele>1023</ele>
        <time>2013-02-09T09:15:47Z</time>
      </trkpt>
      <trkpt lat="43.01835" lon="0.11691">
        <ele>1024</ele>
        <time>2013-02-09T09:15:49Z</time>
      </trkpt>
      <trkpt lat="43.01835" lon="0.11689">
        <ele>1024</ele>
        <time>2013-02-09T09:15:52Z</time>
      </trkpt>
      <trkpt lat="43.01835" lon="0.11687">
        <ele>1024</ele>
        <time>2013-02-09T09:15:53Z</time>
      </trkpt>
      <trkpt lat="43.01835" lon="0.11685">
        <ele>1024</ele>
        <time>2013-02-09T09:15:55Z</time>
      </trkpt>
      <trkpt lat="43.01835" lon="0.11683">
        <ele>1025</ele>
        <time>2013-02-09T09:15:56Z</time>
      </trkpt>
      <trkpt lat="43.01835" lon="0.11681">
        <ele>1026</ele>
        <time>2013-02-09T09:15:58Z</time>
      </trkpt>
      <trkpt lat="43.01835" lon="0.1168">
        <ele>1027</ele>
        <time>2013-02-09T09:15:59Z</time>
      </trkpt>
      <trkpt lat="43.01836" lon="0.11678">
        <ele>1029</ele>
        <time>2013-02-09T09:16:01Z</time>
      </trkpt>
      <trkpt lat="43.01835" lon="0.11676">
        <ele>1031</ele>
        <time>2013-02-09T09:16:03Z</time>
      </trkpt>
      <trkpt lat="43.01837" lon="0.11675">
        <ele>1036</ele>
        <time>2013-02-09T09:16:08Z</time>
      </trkpt>
      <trkpt lat="43.01839" lon="0.11674">
        <ele>1038</ele>
        <time>2013-02-09T09:16:10Z</time>
      </trkpt>
      <trkpt lat="43.0184" lon="0.11673">
        <ele>1038</ele>
        <time>2013-02-09T09:16:11Z</time>
      </trkpt>
      <trkpt lat="43.01842" lon="0.11673">
        <ele>1038</ele>
        <time>2013-02-09T09:16:13Z</time>
      </trkpt>
      <trkpt lat="43.01843" lon="0.11672">
        <ele>1038</ele>
        <time>2013-02-09T09:16:14Z</time>
      </trkpt>
      <trkpt lat="43.01845" lon="0.11672">
        <ele>1038</ele>
        <time>2013-02-09T09:16:15Z</time>
      </trkpt>
      <trkpt lat="43.01846" lon="0.11674">
        <ele>1038</ele>
        <time>2013-02-09T09:16:17Z</time>
      </trkpt>
      <trkpt lat="43.01846" lon="0.11676">
        <ele>1038</ele>
        <time>2013-02-09T09:16:19Z</time>
      </trkpt>
      <trkpt lat="43.01848" lon="0.11677">
        <ele>1038</ele>
        <time>2013-02-09T09:16:19Z</time>
      </trkpt>
      <trkpt lat="43.01849" lon="0.11679">
        <ele>1037</ele>
        <time>2013-02-09T09:16:20Z</time>
      </trkpt>
      <trkpt lat="43.01849" lon="0.11681">
        <ele>1036</ele>
        <time>2013-02-09T09:16:21Z</time>
      </trkpt>
      <trkpt lat="43.01849" lon="0.11682">
        <ele>1036</ele>
        <time>2013-02-09T09:16:22Z</time>
      </trkpt>
      <trkpt lat="43.01848" lon="0.11684">
        <ele>1036</ele>
        <time>2013-02-09T09:16:24Z</time>
      </trkpt>
      <trkpt lat="43.01848" lon="0.11687">
        <ele>1036</ele>
        <time>2013-02-09T09:16:26Z</time>
      </trkpt>
      <trkpt lat="43.01848" lon="0.11689">
        <ele>1036</ele>
        <time>2013-02-09T09:16:27Z</time>
      </trkpt>
      <trkpt lat="43.01847" lon="0.11691">
        <ele>1036</ele>
        <time>2013-02-09T09:16:29Z</time>
      </trkpt>
      <trkpt lat="43.01847" lon="0.11693">
        <ele>1036</ele>
        <time>2013-02-09T09:16:31Z</time>
      </trkpt>
      <trkpt lat="43.01847" lon="0.11695">
        <ele>1035</ele>
        <time>2013-02-09T09:16:33Z</time>
      </trkpt>
      <trkpt lat="43.01847" lon="0.11697">
        <ele>1034</ele>
        <time>2013-02-09T09:16:35Z</time>
      </trkpt>
      <trkpt lat="43.01847" lon="0.11699">
        <ele>1034</ele>
        <time>2013-02-09T09:16:36Z</time>
      </trkpt>
      <trkpt lat="43.01847" lon="0.11701">
        <ele>1034</ele>
        <time>2013-02-09T09:16:38Z</time>
      </trkpt>
      <trkpt lat="43.01847" lon="0.11703">
        <ele>1033</ele>
        <time>2013-02-09T09:16:40Z</time>
      </trkpt>
      <trkpt lat="43.01847" lon="0.11705">
        <ele>1032</ele>
        <time>2013-02-09T09:16:42Z</time>
      </trkpt>
      <trkpt lat="43.01847" lon="0.11707">
        <ele>1030</ele>
        <time>2013-02-09T09:16:44Z</time>
      </trkpt>
      <trkpt lat="43.01847" lon="0.11709">
        <ele>1029</ele>
        <time>2013-02-09T09:16:46Z</time>
      </trkpt>
      <trkpt lat="43.01847" lon="0.11711">
        <ele>1028</ele>
        <time>2013-02-09T09:16:48Z</time>
      </trkpt>
      <trkpt lat="43.01847" lon="0.11713">
        <ele>1027</ele>
        <time>2013-02-09T09:16:50Z</time>
      </trkpt>
      <trkpt lat="43.01847" lon="0.11715">
        <ele>1026</ele>
        <time>2013-02-09T09:16:52Z</time>
      </trkpt>
      <trkpt lat="43.01847" lon="0.11717">
        <ele>1025</ele>
        <time>2013-02-09T09:16:54Z</time>
      </trkpt>
      <trkpt lat="43.01847" lon="0.11719">
        <ele>1025</ele>
        <time>2013-02-09T09:16:56Z</time>
      </trkpt>
      <trkpt lat="43.01847" lon="0.11721">
        <ele>1024</ele>
        <time>2013-02-09T09:16:58Z</time>
      </trkpt>
      <trkpt lat="43.01847" lon="0.11723">
        <ele>1023</ele>
        <time>2013-02-09T09:17:00Z</time>
      </trkpt>
      <trkpt lat="43.01847" lon="0.11726">
        <ele>1023</ele>
        <time>2013-02-09T09:17:02Z</time>
      </trkpt>
      <trkpt lat="43.01847" lon="0.11728">
        <ele>1023</ele>
        <time>2013-02-09T09:17:04Z</time>
      </trkpt>
      <trkpt lat="43.01847" lon="0.1173">
        <ele>1023</ele>
        <time>2013-02-09T09:17:06Z</time>
      </trkpt>
      <trkpt lat="43.01847" lon="0.11733">
        <ele>1022</ele>
        <time>2013-02-09T09:17:08Z</time>
      </trkpt>
      <trkpt lat="43.01847" lon="0.11735">
        <ele>1021</ele>
        <time>2013-02-09T09:17:10Z</time>
      </trkpt>
      <trkpt lat="43.01847" lon="0.11737">
        <ele>1021</ele>
        <time>2013-02-09T09:17:12Z</time>
      </trkpt>
      <trkpt lat="43.01847" lon="0.1174">
        <ele>1021</ele>
        <time>2013-02-09T09:17:14Z</time>
      </trkpt>
      <trkpt lat="43.01847" lon="0.11742">
        <ele>1021</ele>
        <time>2013-02-09T09:17:16Z</time>
      </trkpt>
      <trkpt lat="43.01847" lon="0.11745">
        <ele>1021</ele>
        <time>2013-02-09T09:17:18Z</time>
      </trkpt>
      <trkpt lat="43.01848" lon="0.11746">
        <ele>1020</ele>
        <time>2013-02-09T09:17:19Z</time>
      </trkpt>
      <trkpt lat="43.01849" lon="0.11749">
        <ele>1020</ele>
        <time>2013-02-09T09:17:21Z</time>
      </trkpt>
      <trkpt lat="43.0185" lon="0.11751">
        <ele>1019</ele>
        <time>2013-02-09T09:17:23Z</time>
      </trkpt>
      <trkpt lat="43.0185" lon="0.11754">
        <ele>1018</ele>
        <time>2013-02-09T09:17:25Z</time>
      </trkpt>
      <trkpt lat="43.0185" lon="0.11756">
        <ele>1018</ele>
        <time>2013-02-09T09:17:28Z</time>
      </trkpt>
      <trkpt lat="43.0185" lon="0.11757">
        <ele>1017</ele>
        <time>2013-02-09T09:17:28Z</time>
      </trkpt>
      <trkpt lat="43.01851" lon="0.1176">
        <ele>1017</ele>
        <time>2013-02-09T09:17:30Z</time>
      </trkpt>
      <trkpt lat="43.01852" lon="0.11762">
        <ele>1016</ele>
        <time>2013-02-09T09:17:33Z</time>
      </trkpt>
      <trkpt lat="43.01852" lon="0.11764">
        <ele>1015</ele>
        <time>2013-02-09T09:17:33Z</time>
      </trkpt>
      <trkpt lat="43.01852" lon="0.11766">
        <ele>1014</ele>
        <time>2013-02-09T09:17:35Z</time>
      </trkpt>
      <trkpt lat="43.01852" lon="0.11767">
        <ele>1014</ele>
        <time>2013-02-09T09:17:36Z</time>
      </trkpt>
      <trkpt lat="43.01852" lon="0.11769">
        <ele>1014</ele>
        <time>2013-02-09T09:17:39Z</time>
      </trkpt>
      <trkpt lat="43.01852" lon="0.11771">
        <ele>1014</ele>
        <time>2013-02-09T09:17:39Z</time>
      </trkpt>
      <trkpt lat="43.01853" lon="0.11773">
        <ele>1013</ele>
        <time>2013-02-09T09:17:41Z</time>
      </trkpt>
      <trkpt lat="43.01853" lon="0.11776">
        <ele>1013</ele>
        <time>2013-02-09T09:17:44Z</time>
      </trkpt>
      <trkpt lat="43.01852" lon="0.11778">
        <ele>1013</ele>
        <time>2013-02-09T09:17:45Z</time>
      </trkpt>
      <trkpt lat="43.01852" lon="0.11781">
        <ele>1013</ele>
        <time>2013-02-09T09:17:47Z</time>
      </trkpt>
      <trkpt lat="43.01852" lon="0.11783">
        <ele>1013</ele>
        <time>2013-02-09T09:17:50Z</time>
      </trkpt>
      <trkpt lat="43.01852" lon="0.11785">
        <ele>1013</ele>
        <time>2013-02-09T09:17:51Z</time>
      </trkpt>
      <trkpt lat="43.01852" lon="0.11788">
        <ele>1013</ele>
        <time>2013-02-09T09:17:53Z</time>
      </trkpt>
      <trkpt lat="43.01851" lon="0.1179">
        <ele>1013</ele>
        <time>2013-02-09T09:17:56Z</time>
      </trkpt>
      <trkpt lat="43.01851" lon="0.11792">
        <ele>1013</ele>
        <time>2013-02-09T09:17:57Z</time>
      </trkpt>
      <trkpt lat="43.01851" lon="0.11794">
        <ele>1013</ele>
        <time>2013-02-09T09:17:59Z</time>
      </trkpt>
      <trkpt lat="43.01851" lon="0.11796">
        <ele>1013</ele>
        <time>2013-02-09T09:18:01Z</time>
      </trkpt>
      <trkpt lat="43.0185" lon="0.11799">
        <ele>1013</ele>
        <time>2013-02-09T09:18:03Z</time>
      </trkpt>
      <trkpt lat="43.0185" lon="0.11801">
        <ele>1013</ele>
        <time>2013-02-09T09:18:05Z</time>
      </trkpt>
      <trkpt lat="43.01849" lon="0.11803">
        <ele>1013</ele>
        <time>2013-02-09T09:18:08Z</time>
      </trkpt>
      <trkpt lat="43.01848" lon="0.11805">
        <ele>1013</ele>
        <time>2013-02-09T09:18:09Z</time>
      </trkpt>
      <trkpt lat="43.01847" lon="0.11807">
        <ele>1013</ele>
        <time>2013-02-09T09:18:11Z</time>
      </trkpt>
      <trkpt lat="43.01847" lon="0.11809">
        <ele>1013</ele>
        <time>2013-02-09T09:18:14Z</time>
      </trkpt>
      <trkpt lat="43.01846" lon="0.11811">
        <ele>1013</ele>
        <time>2013-02-09T09:18:15Z</time>
      </trkpt>
      <trkpt lat="43.01846" lon="0.11813">
        <ele>1013</ele>
        <time>2013-02-09T09:18:17Z</time>
      </trkpt>
      <trkpt lat="43.01845" lon="0.11815">
        <ele>1013</ele>
        <time>2013-02-09T09:18:20Z</time>
      </trkpt>
      <trkpt lat="43.01844" lon="0.11817">
        <ele>1013</ele>
        <time>2013-02-09T09:18:21Z</time>
      </trkpt>
      <trkpt lat="43.01844" lon="0.1182">
        <ele>1013</ele>
        <time>2013-02-09T09:18:23Z</time>
      </trkpt>
      <trkpt lat="43.01844" lon="0.11822">
        <ele>1013</ele>
        <time>2013-02-09T09:18:25Z</time>
      </trkpt>
      <trkpt lat="43.01843" lon="0.11823">
        <ele>1013</ele>
        <time>2013-02-09T09:18:27Z</time>
      </trkpt>
      <trkpt lat="43.01842" lon="0.11825">
        <ele>1013</ele>
        <time>2013-02-09T09:18:29Z</time>
      </trkpt>
      <trkpt lat="43.01842" lon="0.11827">
        <ele>1013</ele>
        <time>2013-02-09T09:18:31Z</time>
      </trkpt>
      <trkpt lat="43.01841" lon="0.11829">
        <ele>1013</ele>
        <time>2013-02-09T09:18:33Z</time>
      </trkpt>
      <trkpt lat="43.01841" lon="0.11831">
        <ele>1013</ele>
        <time>2013-02-09T09:18:35Z</time>
      </trkpt>
      <trkpt lat="43.01841" lon="0.11834">
        <ele>1013</ele>
        <time>2013-02-09T09:18:37Z</time>
      </trkpt>
      <trkpt lat="43.0184" lon="0.11835">
        <ele>1013</ele>
        <time>2013-02-09T09:18:39Z</time>
      </trkpt>
      <trkpt lat="43.0184" lon="0.11838">
        <ele>1013</ele>
        <time>2013-02-09T09:18:41Z</time>
      </trkpt>
      <trkpt lat="43.01839" lon="0.1184">
        <ele>1013</ele>
        <time>2013-02-09T09:18:43Z</time>
      </trkpt>
      <trkpt lat="43.01839" lon="0.11842">
        <ele>1013</ele>
        <time>2013-02-09T09:18:45Z</time>
      </trkpt>
      <trkpt lat="43.01839" lon="0.11843">
        <ele>1013</ele>
        <time>2013-02-09T09:18:46Z</time>
      </trkpt>
      <trkpt lat="43.01838" lon="0.11845">
        <ele>1013</ele>
        <time>2013-02-09T09:18:49Z</time>
      </trkpt>
      <trkpt lat="43.01837" lon="0.11847">
        <ele>1013</ele>
        <time>2013-02-09T09:18:50Z</time>
      </trkpt>
      <trkpt lat="43.01837" lon="0.1185">
        <ele>1013</ele>
        <time>2013-02-09T09:18:52Z</time>
      </trkpt>
      <trkpt lat="43.01836" lon="0.11851">
        <ele>1013</ele>
        <time>2013-02-09T09:18:55Z</time>
      </trkpt>
      <trkpt lat="43.01836" lon="0.11854">
        <ele>1013</ele>
        <time>2013-02-09T09:18:56Z</time>
      </trkpt>
      <trkpt lat="43.01835" lon="0.11856">
        <ele>1013</ele>
        <time>2013-02-09T09:18:58Z</time>
      </trkpt>
      <trkpt lat="43.01835" lon="0.11858">
        <ele>1013</ele>
        <time>2013-02-09T09:19:00Z</time>
      </trkpt>
      <trkpt lat="43.01834" lon="0.1186">
        <ele>1013</ele>
        <time>2013-02-09T09:19:02Z</time>
      </trkpt>
      <trkpt lat="43.01833" lon="0.11862">
        <ele>1013</ele>
        <time>2013-02-09T09:19:04Z</time>
      </trkpt>
      <trkpt lat="43.01833" lon="0.11864">
        <ele>1013</ele>
        <time>2013-02-09T09:19:06Z</time>
      </trkpt>
      <trkpt lat="43.01832" lon="0.11867">
        <ele>1013</ele>
        <time>2013-02-09T09:19:08Z</time>
      </trkpt>
      <trkpt lat="43.01831" lon="0.11868">
        <ele>1013</ele>
        <time>2013-02-09T09:19:10Z</time>
      </trkpt>
      <trkpt lat="43.01831" lon="0.1187">
        <ele>1013</ele>
        <time>2013-02-09T09:19:13Z</time>
      </trkpt>
      <trkpt lat="43.01831" lon="0.11873">
        <ele>1013</ele>
        <time>2013-02-09T09:19:14Z</time>
      </trkpt>
      <trkpt lat="43.0183" lon="0.11875">
        <ele>1013</ele>
        <time>2013-02-09T09:19:16Z</time>
      </trkpt>
      <trkpt lat="43.01829" lon="0.11877">
        <ele>1013</ele>
        <time>2013-02-09T09:19:18Z</time>
      </trkpt>
      <trkpt lat="43.01828" lon="0.11878">
        <ele>1013</ele>
        <time>2013-02-09T09:19:19Z</time>
      </trkpt>
      <trkpt lat="43.01828" lon="0.1188">
        <ele>1014</ele>
        <time>2013-02-09T09:19:21Z</time>
      </trkpt>
      <trkpt lat="43.01827" lon="0.11883">
        <ele>1014</ele>
        <time>2013-02-09T09:19:23Z</time>
      </trkpt>
      <trkpt lat="43.01826" lon="0.11885">
        <ele>1015</ele>
        <time>2013-02-09T09:19:25Z</time>
      </trkpt>
      <trkpt lat="43.01825" lon="0.11886">
        <ele>1015</ele>
        <time>2013-02-09T09:19:27Z</time>
      </trkpt>
      <trkpt lat="43.01823" lon="0.11889">
        <ele>1015</ele>
        <time>2013-02-09T09:19:29Z</time>
      </trkpt>
      <trkpt lat="43.01821" lon="0.11889">
        <ele>1016</ele>
        <time>2013-02-09T09:19:30Z</time>
      </trkpt>
      <trkpt lat="43.01819" lon="0.1189">
        <ele>1017</ele>
        <time>2013-02-09T09:19:31Z</time>
      </trkpt>
      <trkpt lat="43.01818" lon="0.11891">
        <ele>1019</ele>
        <time>2013-02-09T09:19:33Z</time>
      </trkpt>
      <trkpt lat="43.01818" lon="0.11894">
        <ele>1021</ele>
        <time>2013-02-09T09:19:35Z</time>
      </trkpt>
      <trkpt lat="43.01817" lon="0.11896">
        <ele>1022</ele>
        <time>2013-02-09T09:19:37Z</time>
      </trkpt>
      <trkpt lat="43.01816" lon="0.11898">
        <ele>1022</ele>
        <time>2013-02-09T09:19:39Z</time>
      </trkpt>
      <trkpt lat="43.01815" lon="0.119">
        <ele>1022</ele>
        <time>2013-02-09T09:19:42Z</time>
      </trkpt>
      <trkpt lat="43.01814" lon="0.11901">
        <ele>1022</ele>
        <time>2013-02-09T09:19:43Z</time>
      </trkpt>
      <trkpt lat="43.01812" lon="0.11903">
        <ele>1022</ele>
        <time>2013-02-09T09:19:45Z</time>
      </trkpt>
      <trkpt lat="43.01811" lon="0.11904">
        <ele>1023</ele>
        <time>2013-02-09T09:19:47Z</time>
      </trkpt>
      <trkpt lat="43.0181" lon="0.11906">
        <ele>1023</ele>
        <time>2013-02-09T09:19:49Z</time>
      </trkpt>
      <trkpt lat="43.01809" lon="0.11908">
        <ele>1023</ele>
        <time>2013-02-09T09:19:51Z</time>
      </trkpt>
      <trkpt lat="43.01809" lon="0.1191">
        <ele>1023</ele>
        <time>2013-02-09T09:19:53Z</time>
      </trkpt>
      <trkpt lat="43.01808" lon="0.11913">
        <ele>1023</ele>
        <time>2013-02-09T09:19:55Z</time>
      </trkpt>
      <trkpt lat="43.01808" lon="0.11914">
        <ele>1023</ele>
        <time>2013-02-09T09:19:57Z</time>
      </trkpt>
      <trkpt lat="43.01807" lon="0.11916">
        <ele>1023</ele>
        <time>2013-02-09T09:20:10Z</time>
      </trkpt>
      <trkpt lat="43.01807" lon="0.11919">
        <ele>1023</ele>
        <time>2013-02-09T09:20:12Z</time>
      </trkpt>
      <trkpt lat="43.01807" lon="0.11921">
        <ele>1023</ele>
        <time>2013-02-09T09:20:14Z</time>
      </trkpt>
      <trkpt lat="43.01807" lon="0.11923">
        <ele>1023</ele>
        <time>2013-02-09T09:20:15Z</time>
      </trkpt>
      <trkpt lat="43.01807" lon="0.11925">
        <ele>1023</ele>
        <time>2013-02-09T09:20:17Z</time>
      </trkpt>
      <trkpt lat="43.01807" lon="0.11928">
        <ele>1023</ele>
        <time>2013-02-09T09:20:19Z</time>
      </trkpt>
      <trkpt lat="43.01806" lon="0.11931">
        <ele>1023</ele>
        <time>2013-02-09T09:20:21Z</time>
      </trkpt>
      <trkpt lat="43.01806" lon="0.11933">
        <ele>1023</ele>
        <time>2013-02-09T09:20:23Z</time>
      </trkpt>
      <trkpt lat="43.01806" lon="0.11935">
        <ele>1023</ele>
        <time>2013-02-09T09:20:25Z</time>
      </trkpt>
      <trkpt lat="43.01806" lon="0.11937">
        <ele>1023</ele>
        <time>2013-02-09T09:20:26Z</time>
      </trkpt>
      <trkpt lat="43.01806" lon="0.11939">
        <ele>1023</ele>
        <time>2013-02-09T09:20:28Z</time>
      </trkpt>
      <trkpt lat="43.01806" lon="0.11942">
        <ele>1023</ele>
        <time>2013-02-09T09:20:30Z</time>
      </trkpt>
      <trkpt lat="43.01806" lon="0.11944">
        <ele>1023</ele>
        <time>2013-02-09T09:20:32Z</time>
      </trkpt>
      <trkpt lat="43.01806" lon="0.11947">
        <ele>1023</ele>
        <time>2013-02-09T09:20:34Z</time>
      </trkpt>
      <trkpt lat="43.01806" lon="0.11949">
        <ele>1023</ele>
        <time>2013-02-09T09:20:36Z</time>
      </trkpt>
      <trkpt lat="43.01806" lon="0.11952">
        <ele>1023</ele>
        <time>2013-02-09T09:20:38Z</time>
      </trkpt>
      <trkpt lat="43.01806" lon="0.11954">
        <ele>1023</ele>
        <time>2013-02-09T09:20:40Z</time>
      </trkpt>
      <trkpt lat="43.01806" lon="0.11956">
        <ele>1023</ele>
        <time>2013-02-09T09:20:42Z</time>
      </trkpt>
      <trkpt lat="43.01807" lon="0.11959">
        <ele>1023</ele>
        <time>2013-02-09T09:20:44Z</time>
      </trkpt>
      <trkpt lat="43.01807" lon="0.1196">
        <ele>1023</ele>
        <time>2013-02-09T09:20:46Z</time>
      </trkpt>
      <trkpt lat="43.01809" lon="0.11962">
        <ele>1023</ele>
        <time>2013-02-09T09:20:48Z</time>
      </trkpt>
      <trkpt lat="43.0181" lon="0.11963">
        <ele>1023</ele>
        <time>2013-02-09T09:20:50Z</time>
      </trkpt>
      <trkpt lat="43.01812" lon="0.11964">
        <ele>1023</ele>
        <time>2013-02-09T09:20:52Z</time>
      </trkpt>
      <trkpt lat="43.01813" lon="0.11965">
        <ele>1023</ele>
        <time>2013-02-09T09:20:54Z</time>
      </trkpt>
      <trkpt lat="43.01815" lon="0.11965">
        <ele>1024</ele>
        <time>2013-02-09T09:20:56Z</time>
      </trkpt>
      <trkpt lat="43.01817" lon="0.11964">
        <ele>1024</ele>
        <time>2013-02-09T09:20:58Z</time>
      </trkpt>
      <trkpt lat="43.01818" lon="0.11963">
        <ele>1025</ele>
        <time>2013-02-09T09:21:00Z</time>
      </trkpt>
      <trkpt lat="43.0182" lon="0.11962">
        <ele>1025</ele>
        <time>2013-02-09T09:21:02Z</time>
      </trkpt>
      <trkpt lat="43.01821" lon="0.11959">
        <ele>1026</ele>
        <time>2013-02-09T09:21:04Z</time>
      </trkpt>
      <trkpt lat="43.01822" lon="0.11957">
        <ele>1027</ele>
        <time>2013-02-09T09:21:06Z</time>
      </trkpt>
      <trkpt lat="43.01822" lon="0.11954">
        <ele>1028</ele>
        <time>2013-02-09T09:21:08Z</time>
      </trkpt>
      <trkpt lat="43.01822" lon="0.11953">
        <ele>1028</ele>
        <time>2013-02-09T09:21:09Z</time>
      </trkpt>
      <trkpt lat="43.01823" lon="0.11951">
        <ele>1029</ele>
        <time>2013-02-09T09:21:11Z</time>
      </trkpt>
      <trkpt lat="43.01823" lon="0.11948">
        <ele>1030</ele>
        <time>2013-02-09T09:21:13Z</time>
      </trkpt>
      <trkpt lat="43.01823" lon="0.11946">
        <ele>1031</ele>
        <time>2013-02-09T09:21:15Z</time>
      </trkpt>
      <trkpt lat="43.01823" lon="0.11944">
        <ele>1031</ele>
        <time>2013-02-09T09:21:16Z</time>
      </trkpt>
      <trkpt lat="43.01822" lon="0.11942">
        <ele>1031</ele>
        <time>2013-02-09T09:21:18Z</time>
      </trkpt>
      <trkpt lat="43.01822" lon="0.11939">
        <ele>1032</ele>
        <time>2013-02-09T09:21:20Z</time>
      </trkpt>
      <trkpt lat="43.01822" lon="0.11937">
        <ele>1032</ele>
        <time>2013-02-09T09:21:22Z</time>
      </trkpt>
      <trkpt lat="43.01822" lon="0.11935">
        <ele>1033</ele>
        <time>2013-02-09T09:21:24Z</time>
      </trkpt>
      <trkpt lat="43.01822" lon="0.11933">
        <ele>1033</ele>
        <time>2013-02-09T09:21:25Z</time>
      </trkpt>
      <trkpt lat="43.01822" lon="0.1193">
        <ele>1033</ele>
        <time>2013-02-09T09:21:27Z</time>
      </trkpt>
      <trkpt lat="43.01823" lon="0.11928">
        <ele>1033</ele>
        <time>2013-02-09T09:21:29Z</time>
      </trkpt>
      <trkpt lat="43.01823" lon="0.11926">
        <ele>1033</ele>
        <time>2013-02-09T09:21:31Z</time>
      </trkpt>
      <trkpt lat="43.01824" lon="0.11923">
        <ele>1033</ele>
        <time>2013-02-09T09:21:33Z</time>
      </trkpt>
      <trkpt lat="43.01824" lon="0.11921">
        <ele>1033</ele>
        <time>2013-02-09T09:21:35Z</time>
      </trkpt>
      <trkpt lat="43.01825" lon="0.11919">
        <ele>1033</ele>
        <time>2013-02-09T09:21:37Z</time>
      </trkpt>
      <trkpt lat="43.01825" lon="0.11917">
        <ele>1033</ele>
        <time>2013-02-09T09:21:39Z</time>
      </trkpt>
      <trkpt lat="43.01827" lon="0.11915">
        <ele>1033</ele>
        <time>2013-02-09T09:21:41Z</time>
      </trkpt>
      <trkpt lat="43.01828" lon="0.11913">
        <ele>1033</ele>
        <time>2013-02-09T09:21:43Z</time>
      </trkpt>
      <trkpt lat="43.01829" lon="0.11911">
        <ele>1033</ele>
        <time>2013-02-09T09:21:45Z</time>
      </trkpt>
      <trkpt lat="43.0183" lon="0.11909">
        <ele>1033</ele>
        <time>2013-02-09T09:21:47Z</time>
      </trkpt>
      <trkpt lat="43.01832" lon="0.11907">
        <ele>1033</ele>
        <time>2013-02-09T09:21:49Z</time>
      </trkpt>
      <trkpt lat="43.01834" lon="0.11905">
        <ele>1033</ele>
        <time>2013-02-09T09:21:51Z</time>
      </trkpt>
      <trkpt lat="43.01835" lon="0.11903">
        <ele>1033</ele>
        <time>2013-02-09T09:21:53Z</time>
      </trkpt>
      <trkpt lat="43.01836" lon="0.11901">
        <ele>1033</ele>
        <time>2013-02-09T09:21:55Z</time>
      </trkpt>
      <trkpt lat="43.01838" lon="0.11899">
        <ele>1033</ele>
        <time>2013-02-09T09:21:57Z</time>
      </trkpt>
      <trkpt lat="43.01839" lon="0.11897">
        <ele>1033</ele>
        <time>2013-02-09T09:21:59Z</time>
      </trkpt>
      <trkpt lat="43.0184" lon="0.11895">
        <ele>1033</ele>
        <time>2013-02-09T09:22:01Z</time>
      </trkpt>
      <trkpt lat="43.01841" lon="0.11893">
        <ele>1033</ele>
        <time>2013-02-09T09:22:03Z</time>
      </trkpt>
      <trkpt lat="43.01842" lon="0.11891">
        <ele>1033</ele>
        <time>2013-02-09T09:22:05Z</time>
      </trkpt>
      <trkpt lat="43.01844" lon="0.11889">
        <ele>1033</ele>
        <time>2013-02-09T09:22:07Z</time>
      </trkpt>
      <trkpt lat="43.01844" lon="0.11887">
        <ele>1033</ele>
        <time>2013-02-09T09:22:09Z</time>
      </trkpt>
      <trkpt lat="43.01846" lon="0.11885">
        <ele>1033</ele>
        <time>2013-02-09T09:22:11Z</time>
      </trkpt>
      <trkpt lat="43.01847" lon="0.11884">
        <ele>1033</ele>
        <time>2013-02-09T09:22:13Z</time>
      </trkpt>
      <trkpt lat="43.01848" lon="0.11882">
        <ele>1033</ele>
        <time>2013-02-09T09:22:15Z</time>
      </trkpt>
      <trkpt lat="43.01849" lon="0.1188">
        <ele>1033</ele>
        <time>2013-02-09T09:22:17Z</time>
      </trkpt>
      <trkpt lat="43.0185" lon="0.11877">
        <ele>1033</ele>
        <time>2013-02-09T09:22:19Z</time>
      </trkpt>
      <trkpt lat="43.01851" lon="0.11875">
        <ele>1033</ele>
        <time>2013-02-09T09:22:21Z</time>
      </trkpt>
      <trkpt lat="43.01852" lon="0.11873">
        <ele>1033</ele>
        <time>2013-02-09T09:22:23Z</time>
      </trkpt>
      <trkpt lat="43.01853" lon="0.11872">
        <ele>1033</ele>
        <time>2013-02-09T09:22:25Z</time>
      </trkpt>
      <trkpt lat="43.01855" lon="0.1187">
        <ele>1033</ele>
        <time>2013-02-09T09:22:27Z</time>
      </trkpt>
      <trkpt lat="43.01856" lon="0.11868">
        <ele>1033</ele>
        <time>2013-02-09T09:22:29Z</time>
      </trkpt>
      <trkpt lat="43.01856" lon="0.11866">
        <ele>1033</ele>
        <time>2013-02-09T09:22:31Z</time>
      </trkpt>
      <trkpt lat="43.01857" lon="0.11864">
        <ele>1033</ele>
        <time>2013-02-09T09:22:33Z</time>
      </trkpt>
      <trkpt lat="43.01858" lon="0.11862">
        <ele>1033</ele>
        <time>2013-02-09T09:22:35Z</time>
      </trkpt>
      <trkpt lat="43.01859" lon="0.11861">
        <ele>1034</ele>
        <time>2013-02-09T09:22:37Z</time>
      </trkpt>
      <trkpt lat="43.01861" lon="0.11858">
        <ele>1035</ele>
        <time>2013-02-09T09:22:39Z</time>
      </trkpt>
      <trkpt lat="43.01862" lon="0.11857">
        <ele>1036</ele>
        <time>2013-02-09T09:22:41Z</time>
      </trkpt>
      <trkpt lat="43.01863" lon="0.11855">
        <ele>1037</ele>
        <time>2013-02-09T09:22:43Z</time>
      </trkpt>
      <trkpt lat="43.01865" lon="0.11852">
        <ele>1037</ele>
        <time>2013-02-09T09:22:45Z</time>
      </trkpt>
      <trkpt lat="43.01865" lon="0.11851">
        <ele>1038</ele>
        <time>2013-02-09T09:22:48Z</time>
      </trkpt>
      <trkpt lat="43.01866" lon="0.11849">
        <ele>1038</ele>
        <time>2013-02-09T09:22:49Z</time>
      </trkpt>
      <trkpt lat="43.01867" lon="0.11846">
        <ele>1039</ele>
        <time>2013-02-09T09:22:51Z</time>
      </trkpt>
      <trkpt lat="43.01868" lon="0.11844">
        <ele>1039</ele>
        <time>2013-02-09T09:22:53Z</time>
      </trkpt>
      <trkpt lat="43.01868" lon="0.11842">
        <ele>1039</ele>
        <time>2013-02-09T09:22:55Z</time>
      </trkpt>
      <trkpt lat="43.0187" lon="0.1184">
        <ele>1039</ele>
        <time>2013-02-09T09:22:57Z</time>
      </trkpt>
      <trkpt lat="43.01871" lon="0.11839">
        <ele>1039</ele>
        <time>2013-02-09T09:22:58Z</time>
      </trkpt>
      <trkpt lat="43.01872" lon="0.11839">
        <ele>1039</ele>
        <time>2013-02-09T09:22:59Z</time>
      </trkpt>
      <trkpt lat="43.01873" lon="0.11837">
        <ele>1039</ele>
        <time>2013-02-09T09:23:01Z</time>
      </trkpt>
      <trkpt lat="43.01874" lon="0.11835">
        <ele>1039</ele>
        <time>2013-02-09T09:23:03Z</time>
      </trkpt>
      <trkpt lat="43.01875" lon="0.11833">
        <ele>1039</ele>
        <time>2013-02-09T09:23:05Z</time>
      </trkpt>
      <trkpt lat="43.01876" lon="0.11831">
        <ele>1039</ele>
        <time>2013-02-09T09:23:07Z</time>
      </trkpt>
      <trkpt lat="43.01877" lon="0.11829">
        <ele>1039</ele>
        <time>2013-02-09T09:23:09Z</time>
      </trkpt>
      <trkpt lat="43.01878" lon="0.11828">
        <ele>1039</ele>
        <time>2013-02-09T09:23:11Z</time>
      </trkpt>
      <trkpt lat="43.01879" lon="0.11826">
        <ele>1039</ele>
        <time>2013-02-09T09:23:13Z</time>
      </trkpt>
      <trkpt lat="43.0188" lon="0.11824">
        <ele>1039</ele>
        <time>2013-02-09T09:23:15Z</time>
      </trkpt>
      <trkpt lat="43.01881" lon="0.11823">
        <ele>1039</ele>
        <time>2013-02-09T09:23:17Z</time>
      </trkpt>
      <trkpt lat="43.01881" lon="0.1182">
        <ele>1039</ele>
        <time>2013-02-09T09:23:19Z</time>
      </trkpt>
      <trkpt lat="43.01882" lon="0.11818">
        <ele>1039</ele>
        <time>2013-02-09T09:23:21Z</time>
      </trkpt>
      <trkpt lat="43.01883" lon="0.11817">
        <ele>1039</ele>
        <time>2013-02-09T09:23:23Z</time>
      </trkpt>
      <trkpt lat="43.01884" lon="0.11814">
        <ele>1039</ele>
        <time>2013-02-09T09:23:25Z</time>
      </trkpt>
      <trkpt lat="43.01885" lon="0.11812">
        <ele>1039</ele>
        <time>2013-02-09T09:23:27Z</time>
      </trkpt>
      <trkpt lat="43.01886" lon="0.11811">
        <ele>1039</ele>
        <time>2013-02-09T09:23:29Z</time>
      </trkpt>
      <trkpt lat="43.01887" lon="0.11809">
        <ele>1039</ele>
        <time>2013-02-09T09:23:31Z</time>
      </trkpt>
      <trkpt lat="43.01888" lon="0.11807">
        <ele>1039</ele>
        <time>2013-02-09T09:23:33Z</time>
      </trkpt>
      <trkpt lat="43.01889" lon="0.11805">
        <ele>1039</ele>
        <time>2013-02-09T09:23:35Z</time>
      </trkpt>
      <trkpt lat="43.0189" lon="0.11803">
        <ele>1039</ele>
        <time>2013-02-09T09:23:37Z</time>
      </trkpt>
      <trkpt lat="43.01891" lon="0.118">
        <ele>1039</ele>
        <time>2013-02-09T09:23:39Z</time>
      </trkpt>
      <trkpt lat="43.01892" lon="0.11798">
        <ele>1040</ele>
        <time>2013-02-09T09:23:41Z</time>
      </trkpt>
      <trkpt lat="43.01892" lon="0.11797">
        <ele>1041</ele>
        <time>2013-02-09T09:23:43Z</time>
      </trkpt>
      <trkpt lat="43.01894" lon="0.11795">
        <ele>1041</ele>
        <time>2013-02-09T09:23:45Z</time>
      </trkpt>
      <trkpt lat="43.01896" lon="0.11793">
        <ele>1042</ele>
        <time>2013-02-09T09:23:47Z</time>
      </trkpt>
      <trkpt lat="43.01896" lon="0.11791">
        <ele>1043</ele>
        <time>2013-02-09T09:23:49Z</time>
      </trkpt>
      <trkpt lat="43.01897" lon="0.1179">
        <ele>1044</ele>
        <time>2013-02-09T09:23:50Z</time>
      </trkpt>
      <trkpt lat="43.01898" lon="0.11789">
        <ele>1045</ele>
        <time>2013-02-09T09:23:51Z</time>
      </trkpt>
      <trkpt lat="43.01899" lon="0.11788">
        <ele>1047</ele>
        <time>2013-02-09T09:23:53Z</time>
      </trkpt>
      <trkpt lat="43.019" lon="0.11786">
        <ele>1048</ele>
        <time>2013-02-09T09:23:55Z</time>
      </trkpt>
      <trkpt lat="43.01902" lon="0.11784">
        <ele>1049</ele>
        <time>2013-02-09T09:23:57Z</time>
      </trkpt>
      <trkpt lat="43.01903" lon="0.11782">
        <ele>1050</ele>
        <time>2013-02-09T09:23:59Z</time>
      </trkpt>
      <trkpt lat="43.01904" lon="0.1178">
        <ele>1050</ele>
        <time>2013-02-09T09:24:01Z</time>
      </trkpt>
      <trkpt lat="43.01905" lon="0.11779">
        <ele>1050</ele>
        <time>2013-02-09T09:24:07Z</time>
      </trkpt>
      <trkpt lat="43.01906" lon="0.11779">
        <ele>1050</ele>
        <time>2013-02-09T09:24:09Z</time>
      </trkpt>
      <trkpt lat="43.01907" lon="0.11778">
        <ele>1050</ele>
        <time>2013-02-09T09:24:11Z</time>
      </trkpt>
      <trkpt lat="43.01907" lon="0.11776">
        <ele>1050</ele>
        <time>2013-02-09T09:24:13Z</time>
      </trkpt>
      <trkpt lat="43.01908" lon="0.11775">
        <ele>1050</ele>
        <time>2013-02-09T09:24:14Z</time>
      </trkpt>
      <trkpt lat="43.0191" lon="0.11773">
        <ele>1050</ele>
        <time>2013-02-09T09:24:16Z</time>
      </trkpt>
      <trkpt lat="43.0191" lon="0.11772">
        <ele>1050</ele>
        <time>2013-02-09T09:24:18Z</time>
      </trkpt>
      <trkpt lat="43.01911" lon="0.1177">
        <ele>1050</ele>
        <time>2013-02-09T09:24:20Z</time>
      </trkpt>
      <trkpt lat="43.01912" lon="0.11768">
        <ele>1050</ele>
        <time>2013-02-09T09:24:22Z</time>
      </trkpt>
      <trkpt lat="43.01913" lon="0.11767">
        <ele>1050</ele>
        <time>2013-02-09T09:24:24Z</time>
      </trkpt>
      <trkpt lat="43.01915" lon="0.11765">
        <ele>1051</ele>
        <time>2013-02-09T09:24:26Z</time>
      </trkpt>
      <trkpt lat="43.01915" lon="0.11763">
        <ele>1051</ele>
        <time>2013-02-09T09:24:28Z</time>
      </trkpt>
      <trkpt lat="43.01916" lon="0.11761">
        <ele>1051</ele>
        <time>2013-02-09T09:24:30Z</time>
      </trkpt>
      <trkpt lat="43.01917" lon="0.11759">
        <ele>1051</ele>
        <time>2013-02-09T09:24:32Z</time>
      </trkpt>
      <trkpt lat="43.01918" lon="0.11757">
        <ele>1052</ele>
        <time>2013-02-09T09:24:34Z</time>
      </trkpt>
      <trkpt lat="43.01917" lon="0.11755">
        <ele>1052</ele>
        <time>2013-02-09T09:24:36Z</time>
      </trkpt>
      <trkpt lat="43.01918" lon="0.11753">
        <ele>1052</ele>
        <time>2013-02-09T09:24:38Z</time>
      </trkpt>
      <trkpt lat="43.01919" lon="0.11751">
        <ele>1053</ele>
        <time>2013-02-09T09:24:40Z</time>
      </trkpt>
      <trkpt lat="43.01919" lon="0.11749">
        <ele>1053</ele>
        <time>2013-02-09T09:24:42Z</time>
      </trkpt>
      <trkpt lat="43.0192" lon="0.11747">
        <ele>1054</ele>
        <time>2013-02-09T09:24:44Z</time>
      </trkpt>
      <trkpt lat="43.0192" lon="0.11745">
        <ele>1054</ele>
        <time>2013-02-09T09:24:45Z</time>
      </trkpt>
      <trkpt lat="43.0192" lon="0.11744">
        <ele>1055</ele>
        <time>2013-02-09T09:24:47Z</time>
      </trkpt>
      <trkpt lat="43.01921" lon="0.11741">
        <ele>1056</ele>
        <time>2013-02-09T09:24:50Z</time>
      </trkpt>
      <trkpt lat="43.01922" lon="0.11739">
        <ele>1057</ele>
        <time>2013-02-09T09:24:52Z</time>
      </trkpt>
      <trkpt lat="43.01923" lon="0.11737">
        <ele>1057</ele>
        <time>2013-02-09T09:24:54Z</time>
      </trkpt>
      <trkpt lat="43.01924" lon="0.11735">
        <ele>1057</ele>
        <time>2013-02-09T09:24:56Z</time>
      </trkpt>
      <trkpt lat="43.01926" lon="0.11734">
        <ele>1057</ele>
        <time>2013-02-09T09:24:58Z</time>
      </trkpt>
      <trkpt lat="43.01926" lon="0.11732">
        <ele>1057</ele>
        <time>2013-02-09T09:25:01Z</time>
      </trkpt>
      <trkpt lat="43.01928" lon="0.1173">
        <ele>1057</ele>
        <time>2013-02-09T09:25:03Z</time>
      </trkpt>
      <trkpt lat="43.01929" lon="0.11727">
        <ele>1057</ele>
        <time>2013-02-09T09:25:05Z</time>
      </trkpt>
      <trkpt lat="43.0193" lon="0.11725">
        <ele>1057</ele>
        <time>2013-02-09T09:25:07Z</time>
      </trkpt>
      <trkpt lat="43.0193" lon="0.11723">
        <ele>1057</ele>
        <time>2013-02-09T09:25:09Z</time>
      </trkpt>
      <trkpt lat="43.01931" lon="0.11721">
        <ele>1057</ele>
        <time>2013-02-09T09:25:11Z</time>
      </trkpt>
      <trkpt lat="43.01932" lon="0.1172">
        <ele>1057</ele>
        <time>2013-02-09T09:25:12Z</time>
      </trkpt>
      <trkpt lat="43.01933" lon="0.11717">
        <ele>1057</ele>
        <time>2013-02-09T09:25:14Z</time>
      </trkpt>
      <trkpt lat="43.01933" lon="0.11716">
        <ele>1057</ele>
        <time>2013-02-09T09:25:16Z</time>
      </trkpt>
      <trkpt lat="43.01934" lon="0.11713">
        <ele>1057</ele>
        <time>2013-02-09T09:25:18Z</time>
      </trkpt>
      <trkpt lat="43.01934" lon="0.11711">
        <ele>1058</ele>
        <time>2013-02-09T09:25:20Z</time>
      </trkpt>
      <trkpt lat="43.01936" lon="0.11709">
        <ele>1058</ele>
        <time>2013-02-09T09:25:22Z</time>
      </trkpt>
      <trkpt lat="43.01938" lon="0.11707">
        <ele>1058</ele>
        <time>2013-02-09T09:25:24Z</time>
      </trkpt>
      <trkpt lat="43.01939" lon="0.11705">
        <ele>1058</ele>
        <time>2013-02-09T09:25:26Z</time>
      </trkpt>
      <trkpt lat="43.0194" lon="0.11704">
        <ele>1058</ele>
        <time>2013-02-09T09:25:27Z</time>
      </trkpt>
      <trkpt lat="43.01941" lon="0.11704">
        <ele>1058</ele>
        <time>2013-02-09T09:25:28Z</time>
      </trkpt>
      <trkpt lat="43.01943" lon="0.11702">
        <ele>1058</ele>
        <time>2013-02-09T09:25:30Z</time>
      </trkpt>
      <trkpt lat="43.01943" lon="0.11699">
        <ele>1058</ele>
        <time>2013-02-09T09:25:32Z</time>
      </trkpt>
      <trkpt lat="43.01942" lon="0.11697">
        <ele>1058</ele>
        <time>2013-02-09T09:25:34Z</time>
      </trkpt>
      <trkpt lat="43.01942" lon="0.11695">
        <ele>1058</ele>
        <time>2013-02-09T09:25:36Z</time>
      </trkpt>
      <trkpt lat="43.01942" lon="0.11694">
        <ele>1058</ele>
        <time>2013-02-09T09:25:37Z</time>
      </trkpt>
      <trkpt lat="43.01942" lon="0.11692">
        <ele>1058</ele>
        <time>2013-02-09T09:25:39Z</time>
      </trkpt>
      <trkpt lat="43.01942" lon="0.11689">
        <ele>1058</ele>
        <time>2013-02-09T09:25:41Z</time>
      </trkpt>
      <trkpt lat="43.01944" lon="0.11688">
        <ele>1058</ele>
        <time>2013-02-09T09:25:43Z</time>
      </trkpt>
      <trkpt lat="43.01945" lon="0.11687">
        <ele>1058</ele>
        <time>2013-02-09T09:25:44Z</time>
      </trkpt>
      <trkpt lat="43.01946" lon="0.11684">
        <ele>1058</ele>
        <time>2013-02-09T09:25:46Z</time>
      </trkpt>
      <trkpt lat="43.01945" lon="0.11682">
        <ele>1058</ele>
        <time>2013-02-09T09:25:48Z</time>
      </trkpt>
      <trkpt lat="43.01945" lon="0.1168">
        <ele>1059</ele>
        <time>2013-02-09T09:25:50Z</time>
      </trkpt>
      <trkpt lat="43.01945" lon="0.11677">
        <ele>1059</ele>
        <time>2013-02-09T09:25:52Z</time>
      </trkpt>
      <trkpt lat="43.01946" lon="0.11676">
        <ele>1060</ele>
        <time>2013-02-09T09:25:53Z</time>
      </trkpt>
      <trkpt lat="43.01946" lon="0.11673">
        <ele>1060</ele>
        <time>2013-02-09T09:25:55Z</time>
      </trkpt>
      <trkpt lat="43.01946" lon="0.11671">
        <ele>1061</ele>
        <time>2013-02-09T09:25:57Z</time>
      </trkpt>
      <trkpt lat="43.01947" lon="0.11669">
        <ele>1061</ele>
        <time>2013-02-09T09:25:59Z</time>
      </trkpt>
      <trkpt lat="43.01948" lon="0.11667">
        <ele>1062</ele>
        <time>2013-02-09T09:26:01Z</time>
      </trkpt>
      <trkpt lat="43.01949" lon="0.11666">
        <ele>1062</ele>
        <time>2013-02-09T09:26:02Z</time>
      </trkpt>
      <trkpt lat="43.0195" lon="0.11664">
        <ele>1062</ele>
        <time>2013-02-09T09:26:04Z</time>
      </trkpt>
      <trkpt lat="43.01952" lon="0.11663">
        <ele>1062</ele>
        <time>2013-02-09T09:26:06Z</time>
      </trkpt>
      <trkpt lat="43.01953" lon="0.11661">
        <ele>1062</ele>
        <time>2013-02-09T09:26:08Z</time>
      </trkpt>
      <trkpt lat="43.01952" lon="0.11658">
        <ele>1063</ele>
        <time>2013-02-09T09:26:10Z</time>
      </trkpt>
      <trkpt lat="43.01952" lon="0.11657">
        <ele>1063</ele>
        <time>2013-02-09T09:26:11Z</time>
      </trkpt>
      <trkpt lat="43.01951" lon="0.11654">
        <ele>1064</ele>
        <time>2013-02-09T09:26:13Z</time>
      </trkpt>
      <trkpt lat="43.01952" lon="0.11652">
        <ele>1065</ele>
        <time>2013-02-09T09:26:15Z</time>
      </trkpt>
      <trkpt lat="43.01951" lon="0.1165">
        <ele>1065</ele>
        <time>2013-02-09T09:26:17Z</time>
      </trkpt>
      <trkpt lat="43.01951" lon="0.11648">
        <ele>1066</ele>
        <time>2013-02-09T09:26:19Z</time>
      </trkpt>
      <trkpt lat="43.01952" lon="0.11645">
        <ele>1066</ele>
        <time>2013-02-09T09:26:21Z</time>
      </trkpt>
      <trkpt lat="43.01952" lon="0.11643">
        <ele>1066</ele>
        <time>2013-02-09T09:26:23Z</time>
      </trkpt>
      <trkpt lat="43.01952" lon="0.11641">
        <ele>1067</ele>
        <time>2013-02-09T09:26:25Z</time>
      </trkpt>
      <trkpt lat="43.01952" lon="0.11639">
        <ele>1067</ele>
        <time>2013-02-09T09:26:27Z</time>
      </trkpt>
      <trkpt lat="43.01953" lon="0.11637">
        <ele>1068</ele>
        <time>2013-02-09T09:26:29Z</time>
      </trkpt>
      <trkpt lat="43.01952" lon="0.11635">
        <ele>1068</ele>
        <time>2013-02-09T09:26:31Z</time>
      </trkpt>
      <trkpt lat="43.01952" lon="0.11632">
        <ele>1070</ele>
        <time>2013-02-09T09:26:33Z</time>
      </trkpt>
      <trkpt lat="43.01952" lon="0.1163">
        <ele>1071</ele>
        <time>2013-02-09T09:26:35Z</time>
      </trkpt>
      <trkpt lat="43.01953" lon="0.11628">
        <ele>1072</ele>
        <time>2013-02-09T09:26:37Z</time>
      </trkpt>
      <trkpt lat="43.01953" lon="0.11626">
        <ele>1072</ele>
        <time>2013-02-09T09:26:39Z</time>
      </trkpt>
      <trkpt lat="43.01954" lon="0.11624">
        <ele>1073</ele>
        <time>2013-02-09T09:26:41Z</time>
      </trkpt>
      <trkpt lat="43.01954" lon="0.11621">
        <ele>1073</ele>
        <time>2013-02-09T09:26:43Z</time>
      </trkpt>
      <trkpt lat="43.01953" lon="0.11619">
        <ele>1074</ele>
        <time>2013-02-09T09:26:45Z</time>
      </trkpt>
      <trkpt lat="43.01953" lon="0.11617">
        <ele>1074</ele>
        <time>2013-02-09T09:26:47Z</time>
      </trkpt>
      <trkpt lat="43.01954" lon="0.11615">
        <ele>1074</ele>
        <time>2013-02-09T09:26:49Z</time>
      </trkpt>
      <trkpt lat="43.01955" lon="0.11613">
        <ele>1074</ele>
        <time>2013-02-09T09:26:51Z</time>
      </trkpt>
      <trkpt lat="43.01956" lon="0.11611">
        <ele>1075</ele>
        <time>2013-02-09T09:26:53Z</time>
      </trkpt>
      <trkpt lat="43.01956" lon="0.11609">
        <ele>1075</ele>
        <time>2013-02-09T09:26:55Z</time>
      </trkpt>
      <trkpt lat="43.01955" lon="0.11606">
        <ele>1075</ele>
        <time>2013-02-09T09:26:57Z</time>
      </trkpt>
      <trkpt lat="43.01955" lon="0.11604">
        <ele>1076</ele>
        <time>2013-02-09T09:26:59Z</time>
      </trkpt>
      <trkpt lat="43.01956" lon="0.11602">
        <ele>1078</ele>
        <time>2013-02-09T09:27:01Z</time>
      </trkpt>
      <trkpt lat="43.01956" lon="0.11599">
        <ele>1078</ele>
        <time>2013-02-09T09:27:03Z</time>
      </trkpt>
      <trkpt lat="43.01956" lon="0.11598">
        <ele>1079</ele>
        <time>2013-02-09T09:27:05Z</time>
      </trkpt>
      <trkpt lat="43.01956" lon="0.11596">
        <ele>1079</ele>
        <time>2013-02-09T09:27:07Z</time>
      </trkpt>
      <trkpt lat="43.01957" lon="0.11593">
        <ele>1079</ele>
        <time>2013-02-09T09:27:09Z</time>
      </trkpt>
      <trkpt lat="43.01957" lon="0.11592">
        <ele>1079</ele>
        <time>2013-02-09T09:27:10Z</time>
      </trkpt>
      <trkpt lat="43.01958" lon="0.1159">
        <ele>1079</ele>
        <time>2013-02-09T09:27:12Z</time>
      </trkpt>
      <trkpt lat="43.01959" lon="0.11587">
        <ele>1079</ele>
        <time>2013-02-09T09:27:14Z</time>
      </trkpt>
      <trkpt lat="43.01959" lon="0.11585">
        <ele>1079</ele>
        <time>2013-02-09T09:27:16Z</time>
      </trkpt>
      <trkpt lat="43.01959" lon="0.11583">
        <ele>1079</ele>
        <time>2013-02-09T09:27:18Z</time>
      </trkpt>
      <trkpt lat="43.0196" lon="0.11581">
        <ele>1079</ele>
        <time>2013-02-09T09:27:20Z</time>
      </trkpt>
      <trkpt lat="43.01961" lon="0.1158">
        <ele>1079</ele>
        <time>2013-02-09T09:27:21Z</time>
      </trkpt>
      <trkpt lat="43.01963" lon="0.11578">
        <ele>1079</ele>
        <time>2013-02-09T09:27:23Z</time>
      </trkpt>
      <trkpt lat="43.01965" lon="0.11576">
        <ele>1079</ele>
        <time>2013-02-09T09:27:25Z</time>
      </trkpt>
      <trkpt lat="43.01965" lon="0.11574">
        <ele>1079</ele>
        <time>2013-02-09T09:27:27Z</time>
      </trkpt>
      <trkpt lat="43.01965" lon="0.11573">
        <ele>1079</ele>
        <time>2013-02-09T09:27:28Z</time>
      </trkpt>
      <trkpt lat="43.01965" lon="0.1157">
        <ele>1079</ele>
        <time>2013-02-09T09:27:30Z</time>
      </trkpt>
      <trkpt lat="43.01965" lon="0.11568">
        <ele>1079</ele>
        <time>2013-02-09T09:27:32Z</time>
      </trkpt>
      <trkpt lat="43.01964" lon="0.11566">
        <ele>1079</ele>
        <time>2013-02-09T09:27:34Z</time>
      </trkpt>
      <trkpt lat="43.01964" lon="0.11564">
        <ele>1079</ele>
        <time>2013-02-09T09:27:36Z</time>
      </trkpt>
      <trkpt lat="43.01964" lon="0.11561">
        <ele>1079</ele>
        <time>2013-02-09T09:27:38Z</time>
      </trkpt>
      <trkpt lat="43.01964" lon="0.11559">
        <ele>1079</ele>
        <time>2013-02-09T09:27:40Z</time>
      </trkpt>
      <trkpt lat="43.01964" lon="0.11557">
        <ele>1079</ele>
        <time>2013-02-09T09:27:42Z</time>
      </trkpt>
      <trkpt lat="43.01964" lon="0.11555">
        <ele>1079</ele>
        <time>2013-02-09T09:27:44Z</time>
      </trkpt>
      <trkpt lat="43.01964" lon="0.11553">
        <ele>1079</ele>
        <time>2013-02-09T09:27:46Z</time>
      </trkpt>
      <trkpt lat="43.01964" lon="0.1155">
        <ele>1079</ele>
        <time>2013-02-09T09:27:48Z</time>
      </trkpt>
      <trkpt lat="43.01963" lon="0.11548">
        <ele>1079</ele>
        <time>2013-02-09T09:27:50Z</time>
      </trkpt>
      <trkpt lat="43.01963" lon="0.11546">
        <ele>1079</ele>
        <time>2013-02-09T09:27:52Z</time>
      </trkpt>
      <trkpt lat="43.01962" lon="0.11544">
        <ele>1079</ele>
        <time>2013-02-09T09:27:54Z</time>
      </trkpt>
      <trkpt lat="43.01961" lon="0.11542">
        <ele>1079</ele>
        <time>2013-02-09T09:27:56Z</time>
      </trkpt>
      <trkpt lat="43.01961" lon="0.1154">
        <ele>1079</ele>
        <time>2013-02-09T09:27:58Z</time>
      </trkpt>
      <trkpt lat="43.01961" lon="0.11538">
        <ele>1079</ele>
        <time>2013-02-09T09:27:59Z</time>
      </trkpt>
      <trkpt lat="43.0196" lon="0.11536">
        <ele>1079</ele>
        <time>2013-02-09T09:28:01Z</time>
      </trkpt>
      <trkpt lat="43.0196" lon="0.11534">
        <ele>1079</ele>
        <time>2013-02-09T09:28:03Z</time>
      </trkpt>
      <trkpt lat="43.01962" lon="0.11532">
        <ele>1079</ele>
        <time>2013-02-09T09:28:05Z</time>
      </trkpt>
      <trkpt lat="43.01962" lon="0.1153">
        <ele>1079</ele>
        <time>2013-02-09T09:28:07Z</time>
      </trkpt>
      <trkpt lat="43.01961" lon="0.11528">
        <ele>1079</ele>
        <time>2013-02-09T09:28:09Z</time>
      </trkpt>
      <trkpt lat="43.01961" lon="0.11525">
        <ele>1079</ele>
        <time>2013-02-09T09:28:11Z</time>
      </trkpt>
      <trkpt lat="43.0196" lon="0.11523">
        <ele>1079</ele>
        <time>2013-02-09T09:28:13Z</time>
      </trkpt>
      <trkpt lat="43.01959" lon="0.11522">
        <ele>1079</ele>
        <time>2013-02-09T09:28:14Z</time>
      </trkpt>
      <trkpt lat="43.01959" lon="0.11519">
        <ele>1079</ele>
        <time>2013-02-09T09:28:16Z</time>
      </trkpt>
      <trkpt lat="43.01958" lon="0.11518">
        <ele>1079</ele>
        <time>2013-02-09T09:28:17Z</time>
      </trkpt>
      <trkpt lat="43.01957" lon="0.11515">
        <ele>1079</ele>
        <time>2013-02-09T09:28:19Z</time>
      </trkpt>
      <trkpt lat="43.01957" lon="0.11513">
        <ele>1080</ele>
        <time>2013-02-09T09:28:21Z</time>
      </trkpt>
      <trkpt lat="43.01957" lon="0.11511">
        <ele>1080</ele>
        <time>2013-02-09T09:28:23Z</time>
      </trkpt>
      <trkpt lat="43.01958" lon="0.11509">
        <ele>1080</ele>
        <time>2013-02-09T09:28:25Z</time>
      </trkpt>
      <trkpt lat="43.01957" lon="0.11507">
        <ele>1080</ele>
        <time>2013-02-09T09:28:27Z</time>
      </trkpt>
      <trkpt lat="43.01958" lon="0.11505">
        <ele>1080</ele>
        <time>2013-02-09T09:28:29Z</time>
      </trkpt>
      <trkpt lat="43.01958" lon="0.11503">
        <ele>1080</ele>
        <time>2013-02-09T09:28:31Z</time>
      </trkpt>
      <trkpt lat="43.01958" lon="0.11501">
        <ele>1081</ele>
        <time>2013-02-09T09:28:33Z</time>
      </trkpt>
      <trkpt lat="43.01959" lon="0.11499">
        <ele>1081</ele>
        <time>2013-02-09T09:28:36Z</time>
      </trkpt>
      <trkpt lat="43.0196" lon="0.11497">
        <ele>1081</ele>
        <time>2013-02-09T09:28:38Z</time>
      </trkpt>
      <trkpt lat="43.01959" lon="0.11495">
        <ele>1081</ele>
        <time>2013-02-09T09:28:40Z</time>
      </trkpt>
      <trkpt lat="43.0196" lon="0.11493">
        <ele>1081</ele>
        <time>2013-02-09T09:28:42Z</time>
      </trkpt>
      <trkpt lat="43.0196" lon="0.11491">
        <ele>1081</ele>
        <time>2013-02-09T09:28:44Z</time>
      </trkpt>
      <trkpt lat="43.01961" lon="0.11489">
        <ele>1081</ele>
        <time>2013-02-09T09:28:46Z</time>
      </trkpt>
      <trkpt lat="43.01961" lon="0.11488">
        <ele>1081</ele>
        <time>2013-02-09T09:28:48Z</time>
      </trkpt>
      <trkpt lat="43.01961" lon="0.11486">
        <ele>1081</ele>
        <time>2013-02-09T09:28:50Z</time>
      </trkpt>
      <trkpt lat="43.0196" lon="0.11484">
        <ele>1081</ele>
        <time>2013-02-09T09:28:51Z</time>
      </trkpt>
      <trkpt lat="43.0196" lon="0.11483">
        <ele>1081</ele>
        <time>2013-02-09T09:28:52Z</time>
      </trkpt>
      <trkpt lat="43.01959" lon="0.1148">
        <ele>1081</ele>
        <time>2013-02-09T09:28:54Z</time>
      </trkpt>
      <trkpt lat="43.01959" lon="0.11479">
        <ele>1082</ele>
        <time>2013-02-09T09:28:56Z</time>
      </trkpt>
      <trkpt lat="43.01959" lon="0.11477">
        <ele>1083</ele>
        <time>2013-02-09T09:28:57Z</time>
      </trkpt>
      <trkpt lat="43.01958" lon="0.11475">
        <ele>1084</ele>
        <time>2013-02-09T09:28:59Z</time>
      </trkpt>
      <trkpt lat="43.01958" lon="0.11473">
        <ele>1086</ele>
        <time>2013-02-09T09:29:01Z</time>
      </trkpt>
      <trkpt lat="43.01958" lon="0.11471">
        <ele>1087</ele>
        <time>2013-02-09T09:29:03Z</time>
      </trkpt>
      <trkpt lat="43.01957" lon="0.11469">
        <ele>1089</ele>
        <time>2013-02-09T09:29:05Z</time>
      </trkpt>
      <trkpt lat="43.01957" lon="0.11467">
        <ele>1090</ele>
        <time>2013-02-09T09:29:07Z</time>
      </trkpt>
      <trkpt lat="43.01957" lon="0.11465">
        <ele>1090</ele>
        <time>2013-02-09T09:29:09Z</time>
      </trkpt>
      <trkpt lat="43.01958" lon="0.11464">
        <ele>1091</ele>
        <time>2013-02-09T09:29:14Z</time>
      </trkpt>
      <trkpt lat="43.01956" lon="0.11462">
        <ele>1094</ele>
        <time>2013-02-09T09:29:22Z</time>
      </trkpt>
      <trkpt lat="43.01955" lon="0.1146">
        <ele>1096</ele>
        <time>2013-02-09T09:29:24Z</time>
      </trkpt>
      <trkpt lat="43.01955" lon="0.11457">
        <ele>1098</ele>
        <time>2013-02-09T09:29:26Z</time>
      </trkpt>
      <trkpt lat="43.01955" lon="0.11455">
        <ele>1099</ele>
        <time>2013-02-09T09:29:28Z</time>
      </trkpt>
      <trkpt lat="43.01953" lon="0.11453">
        <ele>1101</ele>
        <time>2013-02-09T09:29:30Z</time>
      </trkpt>
      <trkpt lat="43.01953" lon="0.11451">
        <ele>1103</ele>
        <time>2013-02-09T09:29:32Z</time>
      </trkpt>
      <trkpt lat="43.01953" lon="0.11449">
        <ele>1104</ele>
        <time>2013-02-09T09:29:34Z</time>
      </trkpt>
      <trkpt lat="43.01952" lon="0.11447">
        <ele>1104</ele>
        <time>2013-02-09T09:29:35Z</time>
      </trkpt>
      <trkpt lat="43.01953" lon="0.11446">
        <ele>1104</ele>
        <time>2013-02-09T09:29:38Z</time>
      </trkpt>
      <trkpt lat="43.01954" lon="0.11444">
        <ele>1104</ele>
        <time>2013-02-09T09:29:39Z</time>
      </trkpt>
      <trkpt lat="43.01954" lon="0.11443">
        <ele>1104</ele>
        <time>2013-02-09T09:29:41Z</time>
      </trkpt>
      <trkpt lat="43.01954" lon="0.1144">
        <ele>1104</ele>
        <time>2013-02-09T09:29:43Z</time>
      </trkpt>
      <trkpt lat="43.01954" lon="0.11438">
        <ele>1104</ele>
        <time>2013-02-09T09:29:44Z</time>
      </trkpt>
      <trkpt lat="43.01954" lon="0.11437">
        <ele>1104</ele>
        <time>2013-02-09T09:29:45Z</time>
      </trkpt>
      <trkpt lat="43.01953" lon="0.11435">
        <ele>1104</ele>
        <time>2013-02-09T09:29:46Z</time>
      </trkpt>
      <trkpt lat="43.01954" lon="0.11434">
        <ele>1104</ele>
        <time>2013-02-09T09:29:47Z</time>
      </trkpt>
      <trkpt lat="43.01952" lon="0.11432">
        <ele>1104</ele>
        <time>2013-02-09T09:29:49Z</time>
      </trkpt>
      <trkpt lat="43.01952" lon="0.11429">
        <ele>1104</ele>
        <time>2013-02-09T09:29:51Z</time>
      </trkpt>
      <trkpt lat="43.01952" lon="0.11427">
        <ele>1107</ele>
        <time>2013-02-09T09:29:54Z</time>
      </trkpt>
      <trkpt lat="43.01952" lon="0.11425">
        <ele>1108</ele>
        <time>2013-02-09T09:29:55Z</time>
      </trkpt>
      <trkpt lat="43.01952" lon="0.11424">
        <ele>1109</ele>
        <time>2013-02-09T09:29:56Z</time>
      </trkpt>
      <trkpt lat="43.01952" lon="0.11421">
        <ele>1110</ele>
        <time>2013-02-09T09:29:58Z</time>
      </trkpt>
      <trkpt lat="43.01952" lon="0.11419">
        <ele>1111</ele>
        <time>2013-02-09T09:30:00Z</time>
      </trkpt>
      <trkpt lat="43.01953" lon="0.11417">
        <ele>1112</ele>
        <time>2013-02-09T09:30:02Z</time>
      </trkpt>
      <trkpt lat="43.01953" lon="0.11414">
        <ele>1113</ele>
        <time>2013-02-09T09:30:04Z</time>
      </trkpt>
      <trkpt lat="43.01953" lon="0.11412">
        <ele>1115</ele>
        <time>2013-02-09T09:30:06Z</time>
      </trkpt>
      <trkpt lat="43.01952" lon="0.11409">
        <ele>1116</ele>
        <time>2013-02-09T09:30:08Z</time>
      </trkpt>
      <trkpt lat="43.01952" lon="0.11407">
        <ele>1118</ele>
        <time>2013-02-09T09:30:10Z</time>
      </trkpt>
      <trkpt lat="43.01953" lon="0.11405">
        <ele>1118</ele>
        <time>2013-02-09T09:30:11Z</time>
      </trkpt>
      <trkpt lat="43.01953" lon="0.11403">
        <ele>1119</ele>
        <time>2013-02-09T09:30:13Z</time>
      </trkpt>
      <trkpt lat="43.01954" lon="0.11401">
        <ele>1119</ele>
        <time>2013-02-09T09:30:15Z</time>
      </trkpt>
      <trkpt lat="43.01956" lon="0.11399">
        <ele>1119</ele>
        <time>2013-02-09T09:30:16Z</time>
      </trkpt>
      <trkpt lat="43.01956" lon="0.11398">
        <ele>1119</ele>
        <time>2013-02-09T09:30:17Z</time>
      </trkpt>
      <trkpt lat="43.01957" lon="0.11396">
        <ele>1119</ele>
        <time>2013-02-09T09:30:19Z</time>
      </trkpt>
      <trkpt lat="43.01956" lon="0.11394">
        <ele>1119</ele>
        <time>2013-02-09T09:30:20Z</time>
      </trkpt>
      <trkpt lat="43.01958" lon="0.11393">
        <ele>1119</ele>
        <time>2013-02-09T09:30:22Z</time>
      </trkpt>
      <trkpt lat="43.01959" lon="0.11391">
        <ele>1119</ele>
        <time>2013-02-09T09:30:24Z</time>
      </trkpt>
      <trkpt lat="43.0196" lon="0.11388">
        <ele>1119</ele>
        <time>2013-02-09T09:30:26Z</time>
      </trkpt>
      <trkpt lat="43.0196" lon="0.11386">
        <ele>1117</ele>
        <time>2013-02-09T09:30:28Z</time>
      </trkpt>
      <trkpt lat="43.01962" lon="0.11385">
        <ele>1116</ele>
        <time>2013-02-09T09:30:29Z</time>
      </trkpt>
      <trkpt lat="43.01963" lon="0.11383">
        <ele>1114</ele>
        <time>2013-02-09T09:30:31Z</time>
      </trkpt>
      <trkpt lat="43.01963" lon="0.11381">
        <ele>1112</ele>
        <time>2013-02-09T09:30:33Z</time>
      </trkpt>
      <trkpt lat="43.01965" lon="0.11381">
        <ele>1111</ele>
        <time>2013-02-09T09:30:34Z</time>
      </trkpt>
      <trkpt lat="43.01966" lon="0.11379">
        <ele>1109</ele>
        <time>2013-02-09T09:30:36Z</time>
      </trkpt>
      <trkpt lat="43.01967" lon="0.11377">
        <ele>1107</ele>
        <time>2013-02-09T09:30:38Z</time>
      </trkpt>
      <trkpt lat="43.01968" lon="0.11374">
        <ele>1105</ele>
        <time>2013-02-09T09:30:40Z</time>
      </trkpt>
      <trkpt lat="43.01969" lon="0.11372">
        <ele>1105</ele>
        <time>2013-02-09T09:30:42Z</time>
      </trkpt>
      <trkpt lat="43.01969" lon="0.11371">
        <ele>1104</ele>
        <time>2013-02-09T09:30:45Z</time>
      </trkpt>
      <trkpt lat="43.0197" lon="0.11368">
        <ele>1103</ele>
        <time>2013-02-09T09:30:47Z</time>
      </trkpt>
      <trkpt lat="43.01971" lon="0.11365">
        <ele>1102</ele>
        <time>2013-02-09T09:30:49Z</time>
      </trkpt>
      <trkpt lat="43.01971" lon="0.11362">
        <ele>1102</ele>
        <time>2013-02-09T09:30:51Z</time>
      </trkpt>
      <trkpt lat="43.01971" lon="0.11361">
        <ele>1102</ele>
        <time>2013-02-09T09:30:52Z</time>
      </trkpt>
      <trkpt lat="43.01971" lon="0.11359">
        <ele>1102</ele>
        <time>2013-02-09T09:30:53Z</time>
      </trkpt>
      <trkpt lat="43.01971" lon="0.11356">
        <ele>1102</ele>
        <time>2013-02-09T09:30:55Z</time>
      </trkpt>
      <trkpt lat="43.0197" lon="0.11354">
        <ele>1102</ele>
        <time>2013-02-09T09:30:57Z</time>
      </trkpt>
      <trkpt lat="43.01971" lon="0.11351">
        <ele>1102</ele>
        <time>2013-02-09T09:30:59Z</time>
      </trkpt>
      <trkpt lat="43.01971" lon="0.1135">
        <ele>1102</ele>
        <time>2013-02-09T09:31:00Z</time>
      </trkpt>
      <trkpt lat="43.01971" lon="0.11348">
        <ele>1102</ele>
        <time>2013-02-09T09:31:02Z</time>
      </trkpt>
      <trkpt lat="43.01971" lon="0.11346">
        <ele>1102</ele>
        <time>2013-02-09T09:31:03Z</time>
      </trkpt>
      <trkpt lat="43.01972" lon="0.11344">
        <ele>1102</ele>
        <time>2013-02-09T09:31:05Z</time>
      </trkpt>
      <trkpt lat="43.01971" lon="0.11342">
        <ele>1102</ele>
        <time>2013-02-09T09:31:06Z</time>
      </trkpt>
      <trkpt lat="43.01971" lon="0.1134">
        <ele>1102</ele>
        <time>2013-02-09T09:31:07Z</time>
      </trkpt>
      <trkpt lat="43.01971" lon="0.11338">
        <ele>1102</ele>
        <time>2013-02-09T09:31:08Z</time>
      </trkpt>
      <trkpt lat="43.01971" lon="0.11337">
        <ele>1102</ele>
        <time>2013-02-09T09:31:10Z</time>
      </trkpt>
      <trkpt lat="43.01972" lon="0.11335">
        <ele>1103</ele>
        <time>2013-02-09T09:31:12Z</time>
      </trkpt>
      <trkpt lat="43.01971" lon="0.11332">
        <ele>1104</ele>
        <time>2013-02-09T09:31:14Z</time>
      </trkpt>
      <trkpt lat="43.0197" lon="0.11331">
        <ele>1104</ele>
        <time>2013-02-09T09:31:15Z</time>
      </trkpt>
      <trkpt lat="43.01969" lon="0.11328">
        <ele>1106</ele>
        <time>2013-02-09T09:31:17Z</time>
      </trkpt>
      <trkpt lat="43.0197" lon="0.11326">
        <ele>1107</ele>
        <time>2013-02-09T09:31:19Z</time>
      </trkpt>
      <trkpt lat="43.0197" lon="0.11325">
        <ele>1107</ele>
        <time>2013-02-09T09:31:20Z</time>
      </trkpt>
      <trkpt lat="43.0197" lon="0.11323">
        <ele>1107</ele>
        <time>2013-02-09T09:31:21Z</time>
      </trkpt>
      <trkpt lat="43.01971" lon="0.11321">
        <ele>1107</ele>
        <time>2013-02-09T09:31:22Z</time>
      </trkpt>
      <trkpt lat="43.0197" lon="0.11319">
        <ele>1107</ele>
        <time>2013-02-09T09:31:24Z</time>
      </trkpt>
      <trkpt lat="43.0197" lon="0.11317">
        <ele>1107</ele>
        <time>2013-02-09T09:31:26Z</time>
      </trkpt>
      <trkpt lat="43.0197" lon="0.11315">
        <ele>1107</ele>
        <time>2013-02-09T09:31:28Z</time>
      </trkpt>
      <trkpt lat="43.01971" lon="0.11313">
        <ele>1106</ele>
        <time>2013-02-09T09:31:30Z</time>
      </trkpt>
      <trkpt lat="43.01971" lon="0.11312">
        <ele>1105</ele>
        <time>2013-02-09T09:31:32Z</time>
      </trkpt>
      <trkpt lat="43.01971" lon="0.1131">
        <ele>1102</ele>
        <time>2013-02-09T09:31:35Z</time>
      </trkpt>
      <trkpt lat="43.0197" lon="0.11308">
        <ele>1102</ele>
        <time>2013-02-09T09:31:36Z</time>
      </trkpt>
      <trkpt lat="43.01969" lon="0.11306">
        <ele>1102</ele>
        <time>2013-02-09T09:31:38Z</time>
      </trkpt>
      <trkpt lat="43.01968" lon="0.11305">
        <ele>1102</ele>
        <time>2013-02-09T09:31:39Z</time>
      </trkpt>
      <trkpt lat="43.01968" lon="0.11303">
        <ele>1102</ele>
        <time>2013-02-09T09:31:40Z</time>
      </trkpt>
      <trkpt lat="43.01967" lon="0.11301">
        <ele>1102</ele>
        <time>2013-02-09T09:31:42Z</time>
      </trkpt>
      <trkpt lat="43.01965" lon="0.113">
        <ele>1102</ele>
        <time>2013-02-09T09:31:44Z</time>
      </trkpt>
      <trkpt lat="43.01965" lon="0.11298">
        <ele>1102</ele>
        <time>2013-02-09T09:31:45Z</time>
      </trkpt>
      <trkpt lat="43.01965" lon="0.11295">
        <ele>1102</ele>
        <time>2013-02-09T09:31:47Z</time>
      </trkpt>
      <trkpt lat="43.01964" lon="0.11293">
        <ele>1102</ele>
        <time>2013-02-09T09:31:49Z</time>
      </trkpt>
      <trkpt lat="43.01965" lon="0.11291">
        <ele>1102</ele>
        <time>2013-02-09T09:31:50Z</time>
      </trkpt>
      <trkpt lat="43.01965" lon="0.11289">
        <ele>1102</ele>
        <time>2013-02-09T09:31:51Z</time>
      </trkpt>
      <trkpt lat="43.01966" lon="0.11287">
        <ele>1101</ele>
        <time>2013-02-09T09:31:52Z</time>
      </trkpt>
      <trkpt lat="43.01966" lon="0.11285">
        <ele>1099</ele>
        <time>2013-02-09T09:31:54Z</time>
      </trkpt>
      <trkpt lat="43.01965" lon="0.11284">
        <ele>1097</ele>
        <time>2013-02-09T09:31:56Z</time>
      </trkpt>
      <trkpt lat="43.01964" lon="0.11282">
        <ele>1097</ele>
        <time>2013-02-09T09:31:58Z</time>
      </trkpt>
      <trkpt lat="43.01963" lon="0.11281">
        <ele>1097</ele>
        <time>2013-02-09T09:32:00Z</time>
      </trkpt>
      <trkpt lat="43.01962" lon="0.11279">
        <ele>1097</ele>
        <time>2013-02-09T09:32:02Z</time>
      </trkpt>
      <trkpt lat="43.01961" lon="0.11278">
        <ele>1097</ele>
        <time>2013-02-09T09:32:04Z</time>
      </trkpt>
      <trkpt lat="43.0196" lon="0.11275">
        <ele>1097</ele>
        <time>2013-02-09T09:32:06Z</time>
      </trkpt>
      <trkpt lat="43.01959" lon="0.11274">
        <ele>1097</ele>
        <time>2013-02-09T09:32:08Z</time>
      </trkpt>
      <trkpt lat="43.01958" lon="0.11273">
        <ele>1097</ele>
        <time>2013-02-09T09:32:10Z</time>
      </trkpt>
      <trkpt lat="43.01956" lon="0.11272">
        <ele>1097</ele>
        <time>2013-02-09T09:32:12Z</time>
      </trkpt>
      <trkpt lat="43.01955" lon="0.11271">
        <ele>1097</ele>
        <time>2013-02-09T09:32:14Z</time>
      </trkpt>
      <trkpt lat="43.01954" lon="0.11269">
        <ele>1097</ele>
        <time>2013-02-09T09:32:16Z</time>
      </trkpt>
      <trkpt lat="43.01953" lon="0.11267">
        <ele>1097</ele>
        <time>2013-02-09T09:32:18Z</time>
      </trkpt>
      <trkpt lat="43.01952" lon="0.11265">
        <ele>1097</ele>
        <time>2013-02-09T09:32:20Z</time>
      </trkpt>
      <trkpt lat="43.01951" lon="0.11263">
        <ele>1097</ele>
        <time>2013-02-09T09:32:22Z</time>
      </trkpt>
      <trkpt lat="43.01951" lon="0.11261">
        <ele>1097</ele>
        <time>2013-02-09T09:32:24Z</time>
      </trkpt>
      <trkpt lat="43.01951" lon="0.11259">
        <ele>1097</ele>
        <time>2013-02-09T09:32:26Z</time>
      </trkpt>
      <trkpt lat="43.0195" lon="0.11257">
        <ele>1097</ele>
        <time>2013-02-09T09:32:28Z</time>
      </trkpt>
      <trkpt lat="43.01949" lon="0.11255">
        <ele>1097</ele>
        <time>2013-02-09T09:32:30Z</time>
      </trkpt>
      <trkpt lat="43.01949" lon="0.11253">
        <ele>1098</ele>
        <time>2013-02-09T09:32:32Z</time>
      </trkpt>
      <trkpt lat="43.01949" lon="0.11251">
        <ele>1099</ele>
        <time>2013-02-09T09:32:34Z</time>
      </trkpt>
      <trkpt lat="43.01949" lon="0.11249">
        <ele>1099</ele>
        <time>2013-02-09T09:32:36Z</time>
      </trkpt>
      <trkpt lat="43.0195" lon="0.11247">
        <ele>1100</ele>
        <time>2013-02-09T09:32:38Z</time>
      </trkpt>
      <trkpt lat="43.01949" lon="0.11244">
        <ele>1101</ele>
        <time>2013-02-09T09:32:40Z</time>
      </trkpt>
      <trkpt lat="43.01949" lon="0.11242">
        <ele>1102</ele>
        <time>2013-02-09T09:32:42Z</time>
      </trkpt>
      <trkpt lat="43.01948" lon="0.1124">
        <ele>1104</ele>
        <time>2013-02-09T09:32:44Z</time>
      </trkpt>
      <trkpt lat="43.01948" lon="0.11238">
        <ele>1104</ele>
        <time>2013-02-09T09:32:45Z</time>
      </trkpt>
      <trkpt lat="43.01947" lon="0.11236">
        <ele>1106</ele>
        <time>2013-02-09T09:32:47Z</time>
      </trkpt>
      <trkpt lat="43.01946" lon="0.11234">
        <ele>1107</ele>
        <time>2013-02-09T09:32:49Z</time>
      </trkpt>
      <trkpt lat="43.01946" lon="0.11232">
        <ele>1107</ele>
        <time>2013-02-09T09:32:50Z</time>
      </trkpt>
      <trkpt lat="43.01945" lon="0.1123">
        <ele>1108</ele>
        <time>2013-02-09T09:32:52Z</time>
      </trkpt>
      <trkpt lat="43.01944" lon="0.11228">
        <ele>1110</ele>
        <time>2013-02-09T09:32:54Z</time>
      </trkpt>
      <trkpt lat="43.01944" lon="0.11226">
        <ele>1110</ele>
        <time>2013-02-09T09:32:55Z</time>
      </trkpt>
      <trkpt lat="43.01943" lon="0.11224">
        <ele>1111</ele>
        <time>2013-02-09T09:32:57Z</time>
      </trkpt>
      <trkpt lat="43.01943" lon="0.11223">
        <ele>1111</ele>
        <time>2013-02-09T09:32:58Z</time>
      </trkpt>
      <trkpt lat="43.01943" lon="0.11221">
        <ele>1111</ele>
        <time>2013-02-09T09:33:00Z</time>
      </trkpt>
      <trkpt lat="43.01942" lon="0.11219">
        <ele>1111</ele>
        <time>2013-02-09T09:33:02Z</time>
      </trkpt>
      <trkpt lat="43.01942" lon="0.11217">
        <ele>1113</ele>
        <time>2013-02-09T09:33:04Z</time>
      </trkpt>
      <trkpt lat="43.01942" lon="0.11215">
        <ele>1115</ele>
        <time>2013-02-09T09:33:06Z</time>
      </trkpt>
      <trkpt lat="43.01941" lon="0.11213">
        <ele>1116</ele>
        <time>2013-02-09T09:33:08Z</time>
      </trkpt>
      <trkpt lat="43.0194" lon="0.11211">
        <ele>1116</ele>
        <time>2013-02-09T09:33:09Z</time>
      </trkpt>
      <trkpt lat="43.0194" lon="0.11209">
        <ele>1116</ele>
        <time>2013-02-09T09:33:11Z</time>
      </trkpt>
      <trkpt lat="43.01939" lon="0.11207">
        <ele>1118</ele>
        <time>2013-02-09T09:33:13Z</time>
      </trkpt>
      <trkpt lat="43.01939" lon="0.11205">
        <ele>1119</ele>
        <time>2013-02-09T09:33:15Z</time>
      </trkpt>
      <trkpt lat="43.01938" lon="0.11203">
        <ele>1120</ele>
        <time>2013-02-09T09:33:17Z</time>
      </trkpt>
      <trkpt lat="43.01939" lon="0.11202">
        <ele>1121</ele>
        <time>2013-02-09T09:33:18Z</time>
      </trkpt>
      <trkpt lat="43.01938" lon="0.11199">
        <ele>1122</ele>
        <time>2013-02-09T09:33:20Z</time>
      </trkpt>
      <trkpt lat="43.01937" lon="0.11197">
        <ele>1123</ele>
        <time>2013-02-09T09:33:22Z</time>
      </trkpt>
      <trkpt lat="43.01937" lon="0.11195">
        <ele>1123</ele>
        <time>2013-02-09T09:33:24Z</time>
      </trkpt>
      <trkpt lat="43.01937" lon="0.11194">
        <ele>1124</ele>
        <time>2013-02-09T09:33:26Z</time>
      </trkpt>
      <trkpt lat="43.01937" lon="0.11191">
        <ele>1125</ele>
        <time>2013-02-09T09:33:28Z</time>
      </trkpt>
      <trkpt lat="43.01937" lon="0.1119">
        <ele>1125</ele>
        <time>2013-02-09T09:33:30Z</time>
      </trkpt>
      <trkpt lat="43.01937" lon="0.11188">
        <ele>1126</ele>
        <time>2013-02-09T09:33:32Z</time>
      </trkpt>
      <trkpt lat="43.01937" lon="0.11186">
        <ele>1127</ele>
        <time>2013-02-09T09:33:34Z</time>
      </trkpt>
      <trkpt lat="43.01939" lon="0.11184">
        <ele>1130</ele>
        <time>2013-02-09T09:33:49Z</time>
      </trkpt>
      <trkpt lat="43.01937" lon="0.11183">
        <ele>1130</ele>
        <time>2013-02-09T09:33:54Z</time>
      </trkpt>
      <trkpt lat="43.01938" lon="0.11181">
        <ele>1130</ele>
        <time>2013-02-09T09:33:56Z</time>
      </trkpt>
      <trkpt lat="43.01938" lon="0.11179">
        <ele>1130</ele>
        <time>2013-02-09T09:33:58Z</time>
      </trkpt>
      <trkpt lat="43.01938" lon="0.11177">
        <ele>1130</ele>
        <time>2013-02-09T09:34:00Z</time>
      </trkpt>
      <trkpt lat="43.01938" lon="0.11175">
        <ele>1131</ele>
        <time>2013-02-09T09:34:02Z</time>
      </trkpt>
      <trkpt lat="43.01937" lon="0.11173">
        <ele>1132</ele>
        <time>2013-02-09T09:34:03Z</time>
      </trkpt>
      <trkpt lat="43.01937" lon="0.11171">
        <ele>1134</ele>
        <time>2013-02-09T09:34:05Z</time>
      </trkpt>
      <trkpt lat="43.01935" lon="0.11169">
        <ele>1136</ele>
        <time>2013-02-09T09:34:07Z</time>
      </trkpt>
      <trkpt lat="43.01934" lon="0.11167">
        <ele>1137</ele>
        <time>2013-02-09T09:34:08Z</time>
      </trkpt>
      <trkpt lat="43.01933" lon="0.11165">
        <ele>1139</ele>
        <time>2013-02-09T09:34:10Z</time>
      </trkpt>
      <trkpt lat="43.01933" lon="0.11163">
        <ele>1141</ele>
        <time>2013-02-09T09:34:12Z</time>
      </trkpt>
      <trkpt lat="43.01934" lon="0.11161">
        <ele>1143</ele>
        <time>2013-02-09T09:34:14Z</time>
      </trkpt>
      <trkpt lat="43.01933" lon="0.11158">
        <ele>1145</ele>
        <time>2013-02-09T09:34:16Z</time>
      </trkpt>
      <trkpt lat="43.01933" lon="0.11157">
        <ele>1146</ele>
        <time>2013-02-09T09:34:17Z</time>
      </trkpt>
      <trkpt lat="43.01932" lon="0.11154">
        <ele>1148</ele>
        <time>2013-02-09T09:34:19Z</time>
      </trkpt>
      <trkpt lat="43.01932" lon="0.11153">
        <ele>1149</ele>
        <time>2013-02-09T09:34:20Z</time>
      </trkpt>
      <trkpt lat="43.01931" lon="0.11151">
        <ele>1151</ele>
        <time>2013-02-09T09:34:22Z</time>
      </trkpt>
      <trkpt lat="43.01931" lon="0.11148">
        <ele>1153</ele>
        <time>2013-02-09T09:34:24Z</time>
      </trkpt>
      <trkpt lat="43.01933" lon="0.11146">
        <ele>1153</ele>
        <time>2013-02-09T09:34:25Z</time>
      </trkpt>
      <trkpt lat="43.01934" lon="0.11145">
        <ele>1153</ele>
        <time>2013-02-09T09:34:26Z</time>
      </trkpt>
      <trkpt lat="43.01936" lon="0.11144">
        <ele>1153</ele>
        <time>2013-02-09T09:34:27Z</time>
      </trkpt>
      <trkpt lat="43.01936" lon="0.11142">
        <ele>1153</ele>
        <time>2013-02-09T09:34:28Z</time>
      </trkpt>
      <trkpt lat="43.01937" lon="0.11139">
        <ele>1151</ele>
        <time>2013-02-09T09:34:30Z</time>
      </trkpt>
      <trkpt lat="43.01937" lon="0.11138">
        <ele>1150</ele>
        <time>2013-02-09T09:34:31Z</time>
      </trkpt>
      <trkpt lat="43.01936" lon="0.11136">
        <ele>1148</ele>
        <time>2013-02-09T09:34:33Z</time>
      </trkpt>
      <trkpt lat="43.01936" lon="0.11134">
        <ele>1146</ele>
        <time>2013-02-09T09:34:35Z</time>
      </trkpt>
      <trkpt lat="43.01935" lon="0.11132">
        <ele>1146</ele>
        <time>2013-02-09T09:34:37Z</time>
      </trkpt>
      <trkpt lat="43.01934" lon="0.1113">
        <ele>1146</ele>
        <time>2013-02-09T09:34:39Z</time>
      </trkpt>
      <trkpt lat="43.01934" lon="0.11128">
        <ele>1146</ele>
        <time>2013-02-09T09:34:41Z</time>
      </trkpt>
      <trkpt lat="43.01934" lon="0.11125">
        <ele>1146</ele>
        <time>2013-02-09T09:34:43Z</time>
      </trkpt>
      <trkpt lat="43.01934" lon="0.11123">
        <ele>1146</ele>
        <time>2013-02-09T09:34:45Z</time>
      </trkpt>
      <trkpt lat="43.01935" lon="0.11121">
        <ele>1146</ele>
        <time>2013-02-09T09:34:47Z</time>
      </trkpt>
      <trkpt lat="43.01936" lon="0.11119">
        <ele>1147</ele>
        <time>2013-02-09T09:34:49Z</time>
      </trkpt>
      <trkpt lat="43.01936" lon="0.11116">
        <ele>1147</ele>
        <time>2013-02-09T09:34:51Z</time>
      </trkpt>
      <trkpt lat="43.01936" lon="0.11114">
        <ele>1148</ele>
        <time>2013-02-09T09:34:53Z</time>
      </trkpt>
      <trkpt lat="43.01937" lon="0.11112">
        <ele>1148</ele>
        <time>2013-02-09T09:34:55Z</time>
      </trkpt>
      <trkpt lat="43.01936" lon="0.11109">
        <ele>1148</ele>
        <time>2013-02-09T09:34:57Z</time>
      </trkpt>
      <trkpt lat="43.01935" lon="0.11108">
        <ele>1148</ele>
        <time>2013-02-09T09:34:58Z</time>
      </trkpt>
      <trkpt lat="43.01936" lon="0.11106">
        <ele>1151</ele>
        <time>2013-02-09T09:35:01Z</time>
      </trkpt>
      <trkpt lat="43.01937" lon="0.11104">
        <ele>1153</ele>
        <time>2013-02-09T09:35:03Z</time>
      </trkpt>
      <trkpt lat="43.01938" lon="0.11103">
        <ele>1154</ele>
        <time>2013-02-09T09:35:04Z</time>
      </trkpt>
      <trkpt lat="43.01939" lon="0.111">
        <ele>1155</ele>
        <time>2013-02-09T09:35:06Z</time>
      </trkpt>
      <trkpt lat="43.01939" lon="0.11098">
        <ele>1155</ele>
        <time>2013-02-09T09:35:08Z</time>
      </trkpt>
      <trkpt lat="43.0194" lon="0.11096">
        <ele>1155</ele>
        <time>2013-02-09T09:35:09Z</time>
      </trkpt>
      <trkpt lat="43.01941" lon="0.11095">
        <ele>1154</ele>
        <time>2013-02-09T09:35:10Z</time>
      </trkpt>
      <trkpt lat="43.01941" lon="0.11092">
        <ele>1152</ele>
        <time>2013-02-09T09:35:12Z</time>
      </trkpt>
      <trkpt lat="43.0194" lon="0.1109">
        <ele>1150</ele>
        <time>2013-02-09T09:35:14Z</time>
      </trkpt>
      <trkpt lat="43.0194" lon="0.11088">
        <ele>1148</ele>
        <time>2013-02-09T09:35:16Z</time>
      </trkpt>
      <trkpt lat="43.01939" lon="0.11085">
        <ele>1146</ele>
        <time>2013-02-09T09:35:18Z</time>
      </trkpt>
      <trkpt lat="43.01939" lon="0.11083">
        <ele>1146</ele>
        <time>2013-02-09T09:35:20Z</time>
      </trkpt>
      <trkpt lat="43.01939" lon="0.1108">
        <ele>1146</ele>
        <time>2013-02-09T09:35:22Z</time>
      </trkpt>
      <trkpt lat="43.01941" lon="0.11078">
        <ele>1144</ele>
        <time>2013-02-09T09:35:24Z</time>
      </trkpt>
      <trkpt lat="43.01942" lon="0.11075">
        <ele>1142</ele>
        <time>2013-02-09T09:35:26Z</time>
      </trkpt>
      <trkpt lat="43.01943" lon="0.11073">
        <ele>1141</ele>
        <time>2013-02-09T09:35:28Z</time>
      </trkpt>
      <trkpt lat="43.01943" lon="0.11072">
        <ele>1141</ele>
        <time>2013-02-09T09:35:30Z</time>
      </trkpt>
      <trkpt lat="43.01943" lon="0.11069">
        <ele>1141</ele>
        <time>2013-02-09T09:35:32Z</time>
      </trkpt>
      <trkpt lat="43.01944" lon="0.11067">
        <ele>1140</ele>
        <time>2013-02-09T09:35:34Z</time>
      </trkpt>
      <trkpt lat="43.01943" lon="0.11065">
        <ele>1139</ele>
        <time>2013-02-09T09:35:36Z</time>
      </trkpt>
      <trkpt lat="43.01944" lon="0.11063">
        <ele>1138</ele>
        <time>2013-02-09T09:35:37Z</time>
      </trkpt>
      <trkpt lat="43.01944" lon="0.11062">
        <ele>1138</ele>
        <time>2013-02-09T09:35:39Z</time>
      </trkpt>
      <trkpt lat="43.01944" lon="0.11059">
        <ele>1137</ele>
        <time>2013-02-09T09:35:41Z</time>
      </trkpt>
      <trkpt lat="43.01943" lon="0.11057">
        <ele>1136</ele>
        <time>2013-02-09T09:35:43Z</time>
      </trkpt>
      <trkpt lat="43.01941" lon="0.11056">
        <ele>1136</ele>
        <time>2013-02-09T09:35:45Z</time>
      </trkpt>
      <trkpt lat="43.01941" lon="0.11054">
        <ele>1136</ele>
        <time>2013-02-09T09:35:46Z</time>
      </trkpt>
      <trkpt lat="43.01942" lon="0.11051">
        <ele>1136</ele>
        <time>2013-02-09T09:35:48Z</time>
      </trkpt>
      <trkpt lat="43.01943" lon="0.11049">
        <ele>1136</ele>
        <time>2013-02-09T09:35:50Z</time>
      </trkpt>
      <trkpt lat="43.01944" lon="0.11048">
        <ele>1136</ele>
        <time>2013-02-09T09:35:51Z</time>
      </trkpt>
      <trkpt lat="43.01944" lon="0.11045">
        <ele>1135</ele>
        <time>2013-02-09T09:35:53Z</time>
      </trkpt>
      <trkpt lat="43.01944" lon="0.11044">
        <ele>1135</ele>
        <time>2013-02-09T09:35:54Z</time>
      </trkpt>
      <trkpt lat="43.01944" lon="0.11041">
        <ele>1134</ele>
        <time>2013-02-09T09:35:56Z</time>
      </trkpt>
      <trkpt lat="43.01944" lon="0.11039">
        <ele>1134</ele>
        <time>2013-02-09T09:35:58Z</time>
      </trkpt>
      <trkpt lat="43.01944" lon="0.11038">
        <ele>1134</ele>
        <time>2013-02-09T09:35:59Z</time>
      </trkpt>
      <trkpt lat="43.01944" lon="0.11035">
        <ele>1134</ele>
        <time>2013-02-09T09:36:01Z</time>
      </trkpt>
      <trkpt lat="43.01944" lon="0.11033">
        <ele>1134</ele>
        <time>2013-02-09T09:36:03Z</time>
      </trkpt>
      <trkpt lat="43.01944" lon="0.11031">
        <ele>1134</ele>
        <time>2013-02-09T09:36:05Z</time>
      </trkpt>
      <trkpt lat="43.01945" lon="0.11029">
        <ele>1134</ele>
        <time>2013-02-09T09:36:07Z</time>
      </trkpt>
      <trkpt lat="43.01944" lon="0.11027">
        <ele>1133</ele>
        <time>2013-02-09T09:36:09Z</time>
      </trkpt>
      <trkpt lat="43.01943" lon="0.11025">
        <ele>1133</ele>
        <time>2013-02-09T09:36:11Z</time>
      </trkpt>
      <trkpt lat="43.01942" lon="0.11023">
        <ele>1133</ele>
        <time>2013-02-09T09:36:13Z</time>
      </trkpt>
      <trkpt lat="43.01943" lon="0.11021">
        <ele>1133</ele>
        <time>2013-02-09T09:36:15Z</time>
      </trkpt>
      <trkpt lat="43.01944" lon="0.1102">
        <ele>1133</ele>
        <time>2013-02-09T09:36:17Z</time>
      </trkpt>
      <trkpt lat="43.01944" lon="0.11018">
        <ele>1133</ele>
        <time>2013-02-09T09:36:19Z</time>
      </trkpt>
      <trkpt lat="43.01944" lon="0.11016">
        <ele>1135</ele>
        <time>2013-02-09T09:36:21Z</time>
      </trkpt>
      <trkpt lat="43.01944" lon="0.11013">
        <ele>1135</ele>
        <time>2013-02-09T09:36:23Z</time>
      </trkpt>
      <trkpt lat="43.01943" lon="0.11011">
        <ele>1135</ele>
        <time>2013-02-09T09:36:25Z</time>
      </trkpt>
      <trkpt lat="43.01942" lon="0.11009">
        <ele>1135</ele>
        <time>2013-02-09T09:36:27Z</time>
      </trkpt>
      <trkpt lat="43.01941" lon="0.11007">
        <ele>1135</ele>
        <time>2013-02-09T09:36:29Z</time>
      </trkpt>
      <trkpt lat="43.01942" lon="0.11004">
        <ele>1135</ele>
        <time>2013-02-09T09:36:31Z</time>
      </trkpt>
      <trkpt lat="43.01942" lon="0.11001">
        <ele>1135</ele>
        <time>2013-02-09T09:36:33Z</time>
      </trkpt>
      <trkpt lat="43.01942" lon="0.11">
        <ele>1135</ele>
        <time>2013-02-09T09:36:34Z</time>
      </trkpt>
      <trkpt lat="43.01942" lon="0.10998">
        <ele>1135</ele>
        <time>2013-02-09T09:36:36Z</time>
      </trkpt>
      <trkpt lat="43.01942" lon="0.10995">
        <ele>1135</ele>
        <time>2013-02-09T09:36:38Z</time>
      </trkpt>
      <trkpt lat="43.01943" lon="0.10993">
        <ele>1135</ele>
        <time>2013-02-09T09:36:40Z</time>
      </trkpt>
      <trkpt lat="43.01943" lon="0.10991">
        <ele>1135</ele>
        <time>2013-02-09T09:36:42Z</time>
      </trkpt>
      <trkpt lat="43.01944" lon="0.10989">
        <ele>1135</ele>
        <time>2013-02-09T09:36:44Z</time>
      </trkpt>
      <trkpt lat="43.01944" lon="0.10987">
        <ele>1135</ele>
        <time>2013-02-09T09:36:46Z</time>
      </trkpt>
      <trkpt lat="43.01943" lon="0.10985">
        <ele>1135</ele>
        <time>2013-02-09T09:36:48Z</time>
      </trkpt>
      <trkpt lat="43.01942" lon="0.10982">
        <ele>1135</ele>
        <time>2013-02-09T09:36:50Z</time>
      </trkpt>
      <trkpt lat="43.01942" lon="0.1098">
        <ele>1135</ele>
        <time>2013-02-09T09:36:52Z</time>
      </trkpt>
      <trkpt lat="43.01942" lon="0.10978">
        <ele>1135</ele>
        <time>2013-02-09T09:36:54Z</time>
      </trkpt>
      <trkpt lat="43.01943" lon="0.10977">
        <ele>1135</ele>
        <time>2013-02-09T09:36:56Z</time>
      </trkpt>
      <trkpt lat="43.01942" lon="0.10975">
        <ele>1135</ele>
        <time>2013-02-09T09:36:58Z</time>
      </trkpt>
      <trkpt lat="43.01942" lon="0.10972">
        <ele>1136</ele>
        <time>2013-02-09T09:37:00Z</time>
      </trkpt>
      <trkpt lat="43.01941" lon="0.1097">
        <ele>1137</ele>
        <time>2013-02-09T09:37:02Z</time>
      </trkpt>
      <trkpt lat="43.0194" lon="0.10968">
        <ele>1139</ele>
        <time>2013-02-09T09:37:04Z</time>
      </trkpt>
      <trkpt lat="43.01939" lon="0.10967">
        <ele>1139</ele>
        <time>2013-02-09T09:37:05Z</time>
      </trkpt>
      <trkpt lat="43.01939" lon="0.10965">
        <ele>1140</ele>
        <time>2013-02-09T09:37:07Z</time>
      </trkpt>
      <trkpt lat="43.01939" lon="0.10963">
        <ele>1140</ele>
        <time>2013-02-09T09:37:08Z</time>
      </trkpt>
      <trkpt lat="43.01939" lon="0.10961">
        <ele>1140</ele>
        <time>2013-02-09T09:37:10Z</time>
      </trkpt>
      <trkpt lat="43.01939" lon="0.10959">
        <ele>1140</ele>
        <time>2013-02-09T09:37:11Z</time>
      </trkpt>
      <trkpt lat="43.01939" lon="0.10957">
        <ele>1140</ele>
        <time>2013-02-09T09:37:13Z</time>
      </trkpt>
      <trkpt lat="43.01939" lon="0.10955">
        <ele>1140</ele>
        <time>2013-02-09T09:37:15Z</time>
      </trkpt>
      <trkpt lat="43.01939" lon="0.10952">
        <ele>1140</ele>
        <time>2013-02-09T09:37:17Z</time>
      </trkpt>
      <trkpt lat="43.01938" lon="0.10949">
        <ele>1140</ele>
        <time>2013-02-09T09:37:19Z</time>
      </trkpt>
      <trkpt lat="43.01938" lon="0.10948">
        <ele>1140</ele>
        <time>2013-02-09T09:37:21Z</time>
      </trkpt>
      <trkpt lat="43.01937" lon="0.10945">
        <ele>1140</ele>
        <time>2013-02-09T09:37:23Z</time>
      </trkpt>
      <trkpt lat="43.01938" lon="0.10943">
        <ele>1140</ele>
        <time>2013-02-09T09:37:25Z</time>
      </trkpt>
      <trkpt lat="43.01937" lon="0.10941">
        <ele>1140</ele>
        <time>2013-02-09T09:37:27Z</time>
      </trkpt>
      <trkpt lat="43.01937" lon="0.10939">
        <ele>1140</ele>
        <time>2013-02-09T09:37:28Z</time>
      </trkpt>
      <trkpt lat="43.01937" lon="0.10937">
        <ele>1140</ele>
        <time>2013-02-09T09:37:30Z</time>
      </trkpt>
      <trkpt lat="43.01937" lon="0.10935">
        <ele>1140</ele>
        <time>2013-02-09T09:37:32Z</time>
      </trkpt>
      <trkpt lat="43.01936" lon="0.10933">
        <ele>1140</ele>
        <time>2013-02-09T09:37:34Z</time>
      </trkpt>
      <trkpt lat="43.01936" lon="0.10931">
        <ele>1140</ele>
        <time>2013-02-09T09:37:36Z</time>
      </trkpt>
      <trkpt lat="43.01935" lon="0.10929">
        <ele>1140</ele>
        <time>2013-02-09T09:37:38Z</time>
      </trkpt>
      <trkpt lat="43.01934" lon="0.10926">
        <ele>1140</ele>
        <time>2013-02-09T09:37:40Z</time>
      </trkpt>
      <trkpt lat="43.01934" lon="0.10924">
        <ele>1140</ele>
        <time>2013-02-09T09:37:42Z</time>
      </trkpt>
      <trkpt lat="43.01933" lon="0.10922">
        <ele>1140</ele>
        <time>2013-02-09T09:37:44Z</time>
      </trkpt>
      <trkpt lat="43.01933" lon="0.10921">
        <ele>1140</ele>
        <time>2013-02-09T09:37:45Z</time>
      </trkpt>
      <trkpt lat="43.01933" lon="0.10919">
        <ele>1140</ele>
        <time>2013-02-09T09:37:47Z</time>
      </trkpt>
      <trkpt lat="43.01933" lon="0.10916">
        <ele>1140</ele>
        <time>2013-02-09T09:37:49Z</time>
      </trkpt>
      <trkpt lat="43.01932" lon="0.10915">
        <ele>1140</ele>
        <time>2013-02-09T09:37:51Z</time>
      </trkpt>
      <trkpt lat="43.01932" lon="0.10913">
        <ele>1140</ele>
        <time>2013-02-09T09:37:52Z</time>
      </trkpt>
      <trkpt lat="43.01932" lon="0.1091">
        <ele>1140</ele>
        <time>2013-02-09T09:37:54Z</time>
      </trkpt>
      <trkpt lat="43.01931" lon="0.10908">
        <ele>1140</ele>
        <time>2013-02-09T09:37:56Z</time>
      </trkpt>
      <trkpt lat="43.0193" lon="0.10906">
        <ele>1140</ele>
        <time>2013-02-09T09:37:58Z</time>
      </trkpt>
      <trkpt lat="43.01929" lon="0.10904">
        <ele>1140</ele>
        <time>2013-02-09T09:38:00Z</time>
      </trkpt>
      <trkpt lat="43.01928" lon="0.10902">
        <ele>1140</ele>
        <time>2013-02-09T09:38:02Z</time>
      </trkpt>
      <trkpt lat="43.01928" lon="0.109">
        <ele>1140</ele>
        <time>2013-02-09T09:38:04Z</time>
      </trkpt>
      <trkpt lat="43.01927" lon="0.10898">
        <ele>1140</ele>
        <time>2013-02-09T09:38:06Z</time>
      </trkpt>
      <trkpt lat="43.01926" lon="0.10896">
        <ele>1140</ele>
        <time>2013-02-09T09:38:08Z</time>
      </trkpt>
      <trkpt lat="43.01926" lon="0.10893">
        <ele>1140</ele>
        <time>2013-02-09T09:38:10Z</time>
      </trkpt>
      <trkpt lat="43.01926" lon="0.10892">
        <ele>1140</ele>
        <time>2013-02-09T09:38:12Z</time>
      </trkpt>
      <trkpt lat="43.01926" lon="0.10889">
        <ele>1140</ele>
        <time>2013-02-09T09:38:14Z</time>
      </trkpt>
      <trkpt lat="43.01926" lon="0.10887">
        <ele>1140</ele>
        <time>2013-02-09T09:38:16Z</time>
      </trkpt>
      <trkpt lat="43.01926" lon="0.10885">
        <ele>1140</ele>
        <time>2013-02-09T09:38:18Z</time>
      </trkpt>
      <trkpt lat="43.01926" lon="0.10884">
        <ele>1140</ele>
        <time>2013-02-09T09:38:20Z</time>
      </trkpt>
      <trkpt lat="43.01926" lon="0.10882">
        <ele>1140</ele>
        <time>2013-02-09T09:38:22Z</time>
      </trkpt>
      <trkpt lat="43.01927" lon="0.1088">
        <ele>1140</ele>
        <time>2013-02-09T09:38:25Z</time>
      </trkpt>
      <trkpt lat="43.01927" lon="0.10878">
        <ele>1140</ele>
        <time>2013-02-09T09:38:27Z</time>
      </trkpt>
      <trkpt lat="43.01927" lon="0.10876">
        <ele>1140</ele>
        <time>2013-02-09T09:38:29Z</time>
      </trkpt>
      <trkpt lat="43.01926" lon="0.10875">
        <ele>1140</ele>
        <time>2013-02-09T09:38:31Z</time>
      </trkpt>
      <trkpt lat="43.01927" lon="0.10873">
        <ele>1140</ele>
        <time>2013-02-09T09:38:34Z</time>
      </trkpt>
      <trkpt lat="43.01928" lon="0.10871">
        <ele>1140</ele>
        <time>2013-02-09T09:38:37Z</time>
      </trkpt>
      <trkpt lat="43.01928" lon="0.10869">
        <ele>1140</ele>
        <time>2013-02-09T09:38:40Z</time>
      </trkpt>
      <trkpt lat="43.01929" lon="0.10867">
        <ele>1140</ele>
        <time>2013-02-09T09:38:43Z</time>
      </trkpt>
      <trkpt lat="43.01929" lon="0.10865">
        <ele>1140</ele>
        <time>2013-02-09T09:38:46Z</time>
      </trkpt>
      <trkpt lat="43.0193" lon="0.10863">
        <ele>1140</ele>
        <time>2013-02-09T09:38:49Z</time>
      </trkpt>
      <trkpt lat="43.01931" lon="0.10862">
        <ele>1141</ele>
        <time>2013-02-09T09:38:51Z</time>
      </trkpt>
      <trkpt lat="43.01932" lon="0.10861">
        <ele>1141</ele>
        <time>2013-02-09T09:38:53Z</time>
      </trkpt>
      <trkpt lat="43.01931" lon="0.10859">
        <ele>1142</ele>
        <time>2013-02-09T09:38:55Z</time>
      </trkpt>
      <trkpt lat="43.01932" lon="0.10857">
        <ele>1142</ele>
        <time>2013-02-09T09:38:57Z</time>
      </trkpt>
      <trkpt lat="43.01931" lon="0.10855">
        <ele>1142</ele>
        <time>2013-02-09T09:38:59Z</time>
      </trkpt>
      <trkpt lat="43.01931" lon="0.10853">
        <ele>1142</ele>
        <time>2013-02-09T09:39:01Z</time>
      </trkpt>
      <trkpt lat="43.01931" lon="0.10851">
        <ele>1142</ele>
        <time>2013-02-09T09:39:03Z</time>
      </trkpt>
      <trkpt lat="43.01931" lon="0.10849">
        <ele>1142</ele>
        <time>2013-02-09T09:39:05Z</time>
      </trkpt>
      <trkpt lat="43.0193" lon="0.10848">
        <ele>1142</ele>
        <time>2013-02-09T09:39:07Z</time>
      </trkpt>
      <trkpt lat="43.0193" lon="0.10846">
        <ele>1142</ele>
        <time>2013-02-09T09:39:10Z</time>
      </trkpt>
      <trkpt lat="43.01928" lon="0.10845">
        <ele>1142</ele>
        <time>2013-02-09T09:39:40Z</time>
      </trkpt>
      <trkpt lat="43.01929" lon="0.10845">
        <ele>1142</ele>
        <time>2013-02-09T09:39:43Z</time>
      </trkpt>
      <trkpt lat="43.01928" lon="0.10844">
        <ele>1142</ele>
        <time>2013-02-09T09:39:46Z</time>
      </trkpt>
      <trkpt lat="43.01928" lon="0.10843">
        <ele>1142</ele>
        <time>2013-02-09T09:39:48Z</time>
      </trkpt>
      <trkpt lat="43.01928" lon="0.10841">
        <ele>1142</ele>
        <time>2013-02-09T09:39:50Z</time>
      </trkpt>
      <trkpt lat="43.01929" lon="0.10837">
        <ele>1145</ele>
        <time>2013-02-09T09:39:54Z</time>
      </trkpt>
      <trkpt lat="43.01928" lon="0.10837">
        <ele>1150</ele>
        <time>2013-02-09T09:39:59Z</time>
      </trkpt>
      <trkpt lat="43.01928" lon="0.10838">
        <ele>1151</ele>
        <time>2013-02-09T09:40:02Z</time>
      </trkpt>
      <trkpt lat="43.01927" lon="0.1084">
        <ele>1151</ele>
        <time>2013-02-09T09:40:05Z</time>
      </trkpt>
      <trkpt lat="43.01928" lon="0.10841">
        <ele>1151</ele>
        <time>2013-02-09T09:40:10Z</time>
      </trkpt>
      <trkpt lat="43.0193" lon="0.10842">
        <ele>1150</ele>
        <time>2013-02-09T09:40:15Z</time>
      </trkpt>
      <trkpt lat="43.01932" lon="0.10843">
        <ele>1150</ele>
        <time>2013-02-09T09:40:17Z</time>
      </trkpt>
      <trkpt lat="43.01931" lon="0.10842">
        <ele>1149</ele>
        <time>2013-02-09T09:40:27Z</time>
      </trkpt>
      <trkpt lat="43.01929" lon="0.10839">
        <ele>1149</ele>
        <time>2013-02-09T09:40:29Z</time>
      </trkpt>
      <trkpt lat="43.01928" lon="0.10837">
        <ele>1149</ele>
        <time>2013-02-09T09:40:30Z</time>
      </trkpt>
      <trkpt lat="43.01926" lon="0.10835">
        <ele>1149</ele>
        <time>2013-02-09T09:40:31Z</time>
      </trkpt>
      <trkpt lat="43.01925" lon="0.10835">
        <ele>1149</ele>
        <time>2013-02-09T09:40:35Z</time>
      </trkpt>
      <trkpt lat="43.01924" lon="0.10835">
        <ele>1150</ele>
        <time>2013-02-09T09:40:50Z</time>
      </trkpt>
      <trkpt lat="43.01925" lon="0.10836">
        <ele>1150</ele>
        <time>2013-02-09T09:40:58Z</time>
      </trkpt>
      <trkpt lat="43.01926" lon="0.10837">
        <ele>1150</ele>
        <time>2013-02-09T09:41:06Z</time>
      </trkpt>
      <trkpt lat="43.01926" lon="0.10839">
        <ele>1150</ele>
        <time>2013-02-09T09:41:16Z</time>
      </trkpt>
      <trkpt lat="43.01926" lon="0.1084">
        <ele>1150</ele>
        <time>2013-02-09T09:41:30Z</time>
      </trkpt>
      <trkpt lat="43.01927" lon="0.10841">
        <ele>1150</ele>
        <time>2013-02-09T09:41:57Z</time>
      </trkpt>
      <trkpt lat="43.01926" lon="0.1084">
        <ele>1150</ele>
        <time>2013-02-09T09:42:01Z</time>
      </trkpt>
      <trkpt lat="43.01924" lon="0.1084">
        <ele>1150</ele>
        <time>2013-02-09T09:42:03Z</time>
      </trkpt>
      <trkpt lat="43.01926" lon="0.10841">
        <ele>1149</ele>
        <time>2013-02-09T09:42:08Z</time>
      </trkpt>
      <trkpt lat="43.01927" lon="0.10843">
        <ele>1149</ele>
        <time>2013-02-09T09:42:10Z</time>
      </trkpt>
      <trkpt lat="43.01928" lon="0.10844">
        <ele>1148</ele>
        <time>2013-02-09T09:42:13Z</time>
      </trkpt>
      <trkpt lat="43.01928" lon="0.10846">
        <ele>1146</ele>
        <time>2013-02-09T09:42:18Z</time>
      </trkpt>
      <trkpt lat="43.01929" lon="0.10847">
        <ele>1144</ele>
        <time>2013-02-09T09:42:26Z</time>
      </trkpt>
      <trkpt lat="43.01929" lon="0.10846">
        <ele>1144</ele>
        <time>2013-02-09T09:42:41Z</time>
      </trkpt>
      <trkpt lat="43.01929" lon="0.10844">
        <ele>1144</ele>
        <time>2013-02-09T09:42:44Z</time>
      </trkpt>
      <trkpt lat="43.0193" lon="0.10843">
        <ele>1145</ele>
        <time>2013-02-09T09:42:49Z</time>
      </trkpt>
      <trkpt lat="43.0193" lon="0.10844">
        <ele>1147</ele>
        <time>2013-02-09T09:43:20Z</time>
      </trkpt>
      <trkpt lat="43.01929" lon="0.10844">
        <ele>1147</ele>
        <time>2013-02-09T09:43:24Z</time>
      </trkpt>
      <trkpt lat="43.01928" lon="0.10844">
        <ele>1147</ele>
        <time>2013-02-09T09:43:30Z</time>
      </trkpt>
      <trkpt lat="43.01929" lon="0.10845">
        <ele>1147</ele>
        <time>2013-02-09T09:43:37Z</time>
      </trkpt>
      <trkpt lat="43.0193" lon="0.10846">
        <ele>1147</ele>
        <time>2013-02-09T09:43:40Z</time>
      </trkpt>
      <trkpt lat="43.01931" lon="0.10846">
        <ele>1147</ele>
        <time>2013-02-09T09:43:44Z</time>
      </trkpt>
      <trkpt lat="43.01932" lon="0.10847">
        <ele>1147</ele>
        <time>2013-02-09T09:43:51Z</time>
      </trkpt>
      <trkpt lat="43.01931" lon="0.10847">
        <ele>1147</ele>
        <time>2013-02-09T09:43:56Z</time>
      </trkpt>
      <trkpt lat="43.01929" lon="0.10846">
        <ele>1147</ele>
        <time>2013-02-09T09:44:05Z</time>
      </trkpt>
      <trkpt lat="43.0193" lon="0.10844">
        <ele>1147</ele>
        <time>2013-02-09T09:44:31Z</time>
      </trkpt>
      <trkpt lat="43.01932" lon="0.10845">
        <ele>1147</ele>
        <time>2013-02-09T09:44:34Z</time>
      </trkpt>
      <trkpt lat="43.01934" lon="0.10846">
        <ele>1147</ele>
        <time>2013-02-09T09:44:35Z</time>
      </trkpt>
      <trkpt lat="43.01932" lon="0.10845">
        <ele>1147</ele>
        <time>2013-02-09T09:44:43Z</time>
      </trkpt>
      <trkpt lat="43.01931" lon="0.10844">
        <ele>1147</ele>
        <time>2013-02-09T09:44:58Z</time>
      </trkpt>
      <trkpt lat="43.01931" lon="0.10846">
        <ele>1147</ele>
        <time>2013-02-09T09:45:07Z</time>
      </trkpt>
      <trkpt lat="43.01933" lon="0.10846">
        <ele>1147</ele>
        <time>2013-02-09T09:45:14Z</time>
      </trkpt>
      <trkpt lat="43.01934" lon="0.10847">
        <ele>1147</ele>
        <time>2013-02-09T09:45:18Z</time>
      </trkpt>
      <trkpt lat="43.01933" lon="0.10848">
        <ele>1147</ele>
        <time>2013-02-09T09:45:42Z</time>
      </trkpt>
      <trkpt lat="43.01931" lon="0.10848">
        <ele>1147</ele>
        <time>2013-02-09T09:46:02Z</time>
      </trkpt>
      <trkpt lat="43.0193" lon="0.10848">
        <ele>1147</ele>
        <time>2013-02-09T09:46:12Z</time>
      </trkpt>
      <trkpt lat="43.01929" lon="0.10848">
        <ele>1147</ele>
        <time>2013-02-09T09:46:18Z</time>
      </trkpt>
      <trkpt lat="43.01929" lon="0.10847">
        <ele>1147</ele>
        <time>2013-02-09T09:46:44Z</time>
      </trkpt>
      <trkpt lat="43.01928" lon="0.10848">
        <ele>1146</ele>
        <time>2013-02-09T09:47:02Z</time>
      </trkpt>
      <trkpt lat="43.01927" lon="0.10847">
        <ele>1145</ele>
        <time>2013-02-09T09:47:39Z</time>
      </trkpt>
      <trkpt lat="43.01929" lon="0.10847">
        <ele>1145</ele>
        <time>2013-02-09T09:47:53Z</time>
      </trkpt>
      <trkpt lat="43.0193" lon="0.10847">
        <ele>1145</ele>
        <time>2013-02-09T09:47:58Z</time>
      </trkpt>
      <trkpt lat="43.01931" lon="0.10846">
        <ele>1145</ele>
        <time>2013-02-09T09:48:01Z</time>
      </trkpt>
      <trkpt lat="43.01933" lon="0.10846">
        <ele>1145</ele>
        <time>2013-02-09T09:48:05Z</time>
      </trkpt>
      <trkpt lat="43.01931" lon="0.10848">
        <ele>1148</ele>
        <time>2013-02-09T09:48:23Z</time>
      </trkpt>
      <trkpt lat="43.0193" lon="0.10847">
        <ele>1148</ele>
        <time>2013-02-09T09:48:33Z</time>
      </trkpt>
      <trkpt lat="43.01929" lon="0.10845">
        <ele>1148</ele>
        <time>2013-02-09T09:48:39Z</time>
      </trkpt>
      <trkpt lat="43.01929" lon="0.10843">
        <ele>1148</ele>
        <time>2013-02-09T09:48:41Z</time>
      </trkpt>
      <trkpt lat="43.01929" lon="0.10841">
        <ele>1148</ele>
        <time>2013-02-09T09:48:43Z</time>
      </trkpt>
      <trkpt lat="43.01928" lon="0.10839">
        <ele>1148</ele>
        <time>2013-02-09T09:48:45Z</time>
      </trkpt>
      <trkpt lat="43.01928" lon="0.10836">
        <ele>1148</ele>
        <time>2013-02-09T09:48:47Z</time>
      </trkpt>
      <trkpt lat="43.01928" lon="0.10834">
        <ele>1148</ele>
        <time>2013-02-09T09:48:49Z</time>
      </trkpt>
      <trkpt lat="43.01928" lon="0.10832">
        <ele>1148</ele>
        <time>2013-02-09T09:48:51Z</time>
      </trkpt>
      <trkpt lat="43.01928" lon="0.1083">
        <ele>1148</ele>
        <time>2013-02-09T09:48:53Z</time>
      </trkpt>
      <trkpt lat="43.01928" lon="0.10828">
        <ele>1148</ele>
        <time>2013-02-09T09:48:55Z</time>
      </trkpt>
      <trkpt lat="43.01928" lon="0.10826">
        <ele>1148</ele>
        <time>2013-02-09T09:48:57Z</time>
      </trkpt>
      <trkpt lat="43.01928" lon="0.10824">
        <ele>1148</ele>
        <time>2013-02-09T09:48:59Z</time>
      </trkpt>
      <trkpt lat="43.01928" lon="0.10822">
        <ele>1148</ele>
        <time>2013-02-09T09:49:01Z</time>
      </trkpt>
      <trkpt lat="43.01928" lon="0.1082">
        <ele>1148</ele>
        <time>2013-02-09T09:49:03Z</time>
      </trkpt>
      <trkpt lat="43.01928" lon="0.10818">
        <ele>1148</ele>
        <time>2013-02-09T09:49:05Z</time>
      </trkpt>
      <trkpt lat="43.01929" lon="0.10817">
        <ele>1148</ele>
        <time>2013-02-09T09:49:07Z</time>
      </trkpt>
      <trkpt lat="43.01929" lon="0.10815">
        <ele>1148</ele>
        <time>2013-02-09T09:49:09Z</time>
      </trkpt>
      <trkpt lat="43.01929" lon="0.10813">
        <ele>1148</ele>
        <time>2013-02-09T09:49:11Z</time>
      </trkpt>
      <trkpt lat="43.01929" lon="0.10812">
        <ele>1148</ele>
        <time>2013-02-09T09:49:13Z</time>
      </trkpt>
      <trkpt lat="43.0193" lon="0.1081">
        <ele>1148</ele>
        <time>2013-02-09T09:49:15Z</time>
      </trkpt>
      <trkpt lat="43.01932" lon="0.10808">
        <ele>1149</ele>
        <time>2013-02-09T09:49:18Z</time>
      </trkpt>
      <trkpt lat="43.01932" lon="0.10806">
        <ele>1149</ele>
        <time>2013-02-09T09:49:20Z</time>
      </trkpt>
      <trkpt lat="43.01933" lon="0.10804">
        <ele>1149</ele>
        <time>2013-02-09T09:49:22Z</time>
      </trkpt>
      <trkpt lat="43.01933" lon="0.10802">
        <ele>1149</ele>
        <time>2013-02-09T09:49:24Z</time>
      </trkpt>
      <trkpt lat="43.01933" lon="0.10801">
        <ele>1149</ele>
        <time>2013-02-09T09:49:26Z</time>
      </trkpt>
      <trkpt lat="43.01933" lon="0.10799">
        <ele>1149</ele>
        <time>2013-02-09T09:49:28Z</time>
      </trkpt>
      <trkpt lat="43.01934" lon="0.10798">
        <ele>1149</ele>
        <time>2013-02-09T09:49:32Z</time>
      </trkpt>
      <trkpt lat="43.01936" lon="0.108">
        <ele>1150</ele>
        <time>2013-02-09T09:49:35Z</time>
      </trkpt>
      <trkpt lat="43.01936" lon="0.10802">
        <ele>1150</ele>
        <time>2013-02-09T09:49:37Z</time>
      </trkpt>
      <trkpt lat="43.01938" lon="0.10802">
        <ele>1150</ele>
        <time>2013-02-09T09:49:39Z</time>
      </trkpt>
      <trkpt lat="43.01939" lon="0.10804">
        <ele>1151</ele>
        <time>2013-02-09T09:49:42Z</time>
      </trkpt>
      <trkpt lat="43.0194" lon="0.10805">
        <ele>1151</ele>
        <time>2013-02-09T09:49:45Z</time>
      </trkpt>
      <trkpt lat="43.01942" lon="0.10806">
        <ele>1151</ele>
        <time>2013-02-09T09:49:48Z</time>
      </trkpt>
      <trkpt lat="43.01943" lon="0.10806">
        <ele>1152</ele>
        <time>2013-02-09T09:49:51Z</time>
      </trkpt>
      <trkpt lat="43.01944" lon="0.10804">
        <ele>1152</ele>
        <time>2013-02-09T09:49:54Z</time>
      </trkpt>
      <trkpt lat="43.01944" lon="0.10802">
        <ele>1152</ele>
        <time>2013-02-09T09:49:56Z</time>
      </trkpt>
      <trkpt lat="43.01944" lon="0.10801">
        <ele>1152</ele>
        <time>2013-02-09T09:49:58Z</time>
      </trkpt>
      <trkpt lat="43.01944" lon="0.10799">
        <ele>1153</ele>
        <time>2013-02-09T09:50:00Z</time>
      </trkpt>
      <trkpt lat="43.01944" lon="0.10797">
        <ele>1153</ele>
        <time>2013-02-09T09:50:02Z</time>
      </trkpt>
      <trkpt lat="43.01944" lon="0.10796">
        <ele>1153</ele>
        <time>2013-02-09T09:50:05Z</time>
      </trkpt>
      <trkpt lat="43.01945" lon="0.10795">
        <ele>1154</ele>
        <time>2013-02-09T09:50:10Z</time>
      </trkpt>
      <trkpt lat="43.01946" lon="0.10796">
        <ele>1154</ele>
        <time>2013-02-09T09:50:13Z</time>
      </trkpt>
      <trkpt lat="43.01948" lon="0.10797">
        <ele>1154</ele>
        <time>2013-02-09T09:50:16Z</time>
      </trkpt>
      <trkpt lat="43.01949" lon="0.10797">
        <ele>1155</ele>
        <time>2013-02-09T09:50:18Z</time>
      </trkpt>
      <trkpt lat="43.01951" lon="0.10798">
        <ele>1155</ele>
        <time>2013-02-09T09:50:20Z</time>
      </trkpt>
      <trkpt lat="43.01952" lon="0.108">
        <ele>1155</ele>
        <time>2013-02-09T09:50:22Z</time>
      </trkpt>
      <trkpt lat="43.01953" lon="0.10801">
        <ele>1155</ele>
        <time>2013-02-09T09:50:24Z</time>
      </trkpt>
      <trkpt lat="43.01955" lon="0.10802">
        <ele>1155</ele>
        <time>2013-02-09T09:50:26Z</time>
      </trkpt>
      <trkpt lat="43.01956" lon="0.10803">
        <ele>1156</ele>
        <time>2013-02-09T09:50:28Z</time>
      </trkpt>
      <trkpt lat="43.01957" lon="0.10804">
        <ele>1156</ele>
        <time>2013-02-09T09:50:30Z</time>
      </trkpt>
      <trkpt lat="43.01958" lon="0.10804">
        <ele>1156</ele>
        <time>2013-02-09T09:50:32Z</time>
      </trkpt>
      <trkpt lat="43.0196" lon="0.10804">
        <ele>1156</ele>
        <time>2013-02-09T09:50:34Z</time>
      </trkpt>
      <trkpt lat="43.01961" lon="0.10805">
        <ele>1157</ele>
        <time>2013-02-09T09:50:36Z</time>
      </trkpt>
      <trkpt lat="43.01963" lon="0.10806">
        <ele>1157</ele>
        <time>2013-02-09T09:50:38Z</time>
      </trkpt>
      <trkpt lat="43.01964" lon="0.10807">
        <ele>1157</ele>
        <time>2013-02-09T09:50:40Z</time>
      </trkpt>
      <trkpt lat="43.01965" lon="0.10808">
        <ele>1157</ele>
        <time>2013-02-09T09:50:42Z</time>
      </trkpt>
      <trkpt lat="43.01967" lon="0.1081">
        <ele>1157</ele>
        <time>2013-02-09T09:50:44Z</time>
      </trkpt>
      <trkpt lat="43.01968" lon="0.1081">
        <ele>1157</ele>
        <time>2013-02-09T09:50:46Z</time>
      </trkpt>
      <trkpt lat="43.01969" lon="0.10811">
        <ele>1157</ele>
        <time>2013-02-09T09:50:48Z</time>
      </trkpt>
      <trkpt lat="43.01971" lon="0.10812">
        <ele>1158</ele>
        <time>2013-02-09T09:50:50Z</time>
      </trkpt>
      <trkpt lat="43.01972" lon="0.10814">
        <ele>1159</ele>
        <time>2013-02-09T09:50:53Z</time>
      </trkpt>
      <trkpt lat="43.01973" lon="0.10815">
        <ele>1159</ele>
        <time>2013-02-09T09:50:56Z</time>
      </trkpt>
      <trkpt lat="43.01975" lon="0.10817">
        <ele>1160</ele>
        <time>2013-02-09T09:50:59Z</time>
      </trkpt>
      <trkpt lat="43.01976" lon="0.10819">
        <ele>1161</ele>
        <time>2013-02-09T09:51:02Z</time>
      </trkpt>
      <trkpt lat="43.01978" lon="0.1082">
        <ele>1162</ele>
        <time>2013-02-09T09:51:05Z</time>
      </trkpt>
      <trkpt lat="43.01979" lon="0.10821">
        <ele>1162</ele>
        <time>2013-02-09T09:51:08Z</time>
      </trkpt>
      <trkpt lat="43.0198" lon="0.10822">
        <ele>1162</ele>
        <time>2013-02-09T09:51:11Z</time>
      </trkpt>
      <trkpt lat="43.01981" lon="0.10824">
        <ele>1163</ele>
        <time>2013-02-09T09:51:14Z</time>
      </trkpt>
      <trkpt lat="43.01982" lon="0.10825">
        <ele>1164</ele>
        <time>2013-02-09T09:51:17Z</time>
      </trkpt>
      <trkpt lat="43.01984" lon="0.10826">
        <ele>1164</ele>
        <time>2013-02-09T09:51:20Z</time>
      </trkpt>
      <trkpt lat="43.01985" lon="0.10827">
        <ele>1164</ele>
        <time>2013-02-09T09:51:22Z</time>
      </trkpt>
      <trkpt lat="43.01987" lon="0.10829">
        <ele>1164</ele>
        <time>2013-02-09T09:51:25Z</time>
      </trkpt>
      <trkpt lat="43.01988" lon="0.1083">
        <ele>1164</ele>
        <time>2013-02-09T09:51:27Z</time>
      </trkpt>
      <trkpt lat="43.01989" lon="0.10831">
        <ele>1165</ele>
        <time>2013-02-09T09:51:29Z</time>
      </trkpt>
      <trkpt lat="43.01991" lon="0.10832">
        <ele>1165</ele>
        <time>2013-02-09T09:51:31Z</time>
      </trkpt>
      <trkpt lat="43.01992" lon="0.10833">
        <ele>1165</ele>
        <time>2013-02-09T09:51:33Z</time>
      </trkpt>
      <trkpt lat="43.01993" lon="0.10835">
        <ele>1165</ele>
        <time>2013-02-09T09:51:35Z</time>
      </trkpt>
      <trkpt lat="43.01993" lon="0.10836">
        <ele>1165</ele>
        <time>2013-02-09T09:51:36Z</time>
      </trkpt>
      <trkpt lat="43.01994" lon="0.10839">
        <ele>1165</ele>
        <time>2013-02-09T09:51:38Z</time>
      </trkpt>
      <trkpt lat="43.01994" lon="0.10841">
        <ele>1165</ele>
        <time>2013-02-09T09:51:39Z</time>
      </trkpt>
      <trkpt lat="43.01994" lon="0.10843">
        <ele>1166</ele>
        <time>2013-02-09T09:51:41Z</time>
      </trkpt>
      <trkpt lat="43.01995" lon="0.10845">
        <ele>1166</ele>
        <time>2013-02-09T09:51:43Z</time>
      </trkpt>
      <trkpt lat="43.01996" lon="0.10847">
        <ele>1166</ele>
        <time>2013-02-09T09:51:45Z</time>
      </trkpt>
      <trkpt lat="43.01997" lon="0.10848">
        <ele>1167</ele>
        <time>2013-02-09T09:51:47Z</time>
      </trkpt>
      <trkpt lat="43.01997" lon="0.1085">
        <ele>1167</ele>
        <time>2013-02-09T09:51:49Z</time>
      </trkpt>
      <trkpt lat="43.01998" lon="0.10852">
        <ele>1168</ele>
        <time>2013-02-09T09:51:51Z</time>
      </trkpt>
      <trkpt lat="43.01999" lon="0.10854">
        <ele>1168</ele>
        <time>2013-02-09T09:51:53Z</time>
      </trkpt>
      <trkpt lat="43.01999" lon="0.10856">
        <ele>1168</ele>
        <time>2013-02-09T09:51:55Z</time>
      </trkpt>
      <trkpt lat="43.02" lon="0.10859">
        <ele>1169</ele>
        <time>2013-02-09T09:51:57Z</time>
      </trkpt>
      <trkpt lat="43.02" lon="0.10861">
        <ele>1169</ele>
        <time>2013-02-09T09:51:59Z</time>
      </trkpt>
      <trkpt lat="43.02001" lon="0.10863">
        <ele>1170</ele>
        <time>2013-02-09T09:52:01Z</time>
      </trkpt>
      <trkpt lat="43.02002" lon="0.10864">
        <ele>1170</ele>
        <time>2013-02-09T09:52:02Z</time>
      </trkpt>
      <trkpt lat="43.02002" lon="0.10867">
        <ele>1171</ele>
        <time>2013-02-09T09:52:04Z</time>
      </trkpt>
      <trkpt lat="43.02002" lon="0.10868">
        <ele>1171</ele>
        <time>2013-02-09T09:52:05Z</time>
      </trkpt>
      <trkpt lat="43.02003" lon="0.1087">
        <ele>1172</ele>
        <time>2013-02-09T09:52:07Z</time>
      </trkpt>
      <trkpt lat="43.02004" lon="0.10872">
        <ele>1173</ele>
        <time>2013-02-09T09:52:10Z</time>
      </trkpt>
      <trkpt lat="43.02005" lon="0.1087">
        <ele>1174</ele>
        <time>2013-02-09T09:52:18Z</time>
      </trkpt>
      <trkpt lat="43.02005" lon="0.10869">
        <ele>1174</ele>
        <time>2013-02-09T09:52:23Z</time>
      </trkpt>
      <trkpt lat="43.02006" lon="0.10867">
        <ele>1174</ele>
        <time>2013-02-09T09:52:26Z</time>
      </trkpt>
      <trkpt lat="43.02006" lon="0.10869">
        <ele>1167</ele>
        <time>2013-02-09T09:52:53Z</time>
      </trkpt>
      <trkpt lat="43.02005" lon="0.1087">
        <ele>1167</ele>
        <time>2013-02-09T09:52:59Z</time>
      </trkpt>
      <trkpt lat="43.02004" lon="0.1087">
        <ele>1174</ele>
        <time>2013-02-09T09:53:11Z</time>
      </trkpt>
      <trkpt lat="43.02005" lon="0.10869">
        <ele>1177</ele>
        <time>2013-02-09T09:53:47Z</time>
      </trkpt>
      <trkpt lat="43.02005" lon="0.10866">
        <ele>1177</ele>
        <time>2013-02-09T09:53:55Z</time>
      </trkpt>
      <trkpt lat="43.02005" lon="0.10868">
        <ele>1177</ele>
        <time>2013-02-09T09:53:57Z</time>
      </trkpt>
      <trkpt lat="43.02005" lon="0.1087">
        <ele>1177</ele>
        <time>2013-02-09T09:53:59Z</time>
      </trkpt>
      <trkpt lat="43.02006" lon="0.10873">
        <ele>1177</ele>
        <time>2013-02-09T09:54:02Z</time>
      </trkpt>
      <trkpt lat="43.02006" lon="0.10875">
        <ele>1177</ele>
        <time>2013-02-09T09:54:03Z</time>
      </trkpt>
      <trkpt lat="43.02007" lon="0.10877">
        <ele>1177</ele>
        <time>2013-02-09T09:54:05Z</time>
      </trkpt>
      <trkpt lat="43.02007" lon="0.1088">
        <ele>1177</ele>
        <time>2013-02-09T09:54:06Z</time>
      </trkpt>
      <trkpt lat="43.02007" lon="0.10882">
        <ele>1177</ele>
        <time>2013-02-09T09:54:07Z</time>
      </trkpt>
      <trkpt lat="43.02008" lon="0.10884">
        <ele>1178</ele>
        <time>2013-02-09T09:54:09Z</time>
      </trkpt>
      <trkpt lat="43.02008" lon="0.10887">
        <ele>1180</ele>
        <time>2013-02-09T09:54:11Z</time>
      </trkpt>
      <trkpt lat="43.02009" lon="0.10891">
        <ele>1181</ele>
        <time>2013-02-09T09:54:13Z</time>
      </trkpt>
      <trkpt lat="43.02008" lon="0.10893">
        <ele>1183</ele>
        <time>2013-02-09T09:54:15Z</time>
      </trkpt>
      <trkpt lat="43.02008" lon="0.10895">
        <ele>1184</ele>
        <time>2013-02-09T09:54:16Z</time>
      </trkpt>
      <trkpt lat="43.02008" lon="0.10897">
        <ele>1185</ele>
        <time>2013-02-09T09:54:18Z</time>
      </trkpt>
      <trkpt lat="43.02008" lon="0.10898">
        <ele>1186</ele>
        <time>2013-02-09T09:54:19Z</time>
      </trkpt>
      <trkpt lat="43.02008" lon="0.10902">
        <ele>1187</ele>
        <time>2013-02-09T09:54:21Z</time>
      </trkpt>
      <trkpt lat="43.02008" lon="0.10904">
        <ele>1188</ele>
        <time>2013-02-09T09:54:22Z</time>
      </trkpt>
      <trkpt lat="43.02009" lon="0.10906">
        <ele>1190</ele>
        <time>2013-02-09T09:54:24Z</time>
      </trkpt>
      <trkpt lat="43.0201" lon="0.10908">
        <ele>1191</ele>
        <time>2013-02-09T09:54:26Z</time>
      </trkpt>
      <trkpt lat="43.0201" lon="0.1091">
        <ele>1192</ele>
        <time>2013-02-09T09:54:28Z</time>
      </trkpt>
      <trkpt lat="43.0201" lon="0.10912">
        <ele>1193</ele>
        <time>2013-02-09T09:54:30Z</time>
      </trkpt>
      <trkpt lat="43.02011" lon="0.10914">
        <ele>1193</ele>
        <time>2013-02-09T09:54:32Z</time>
      </trkpt>
      <trkpt lat="43.02012" lon="0.10916">
        <ele>1193</ele>
        <time>2013-02-09T09:54:33Z</time>
      </trkpt>
      <trkpt lat="43.02013" lon="0.10918">
        <ele>1193</ele>
        <time>2013-02-09T09:54:35Z</time>
      </trkpt>
      <trkpt lat="43.02015" lon="0.1092">
        <ele>1193</ele>
        <time>2013-02-09T09:54:37Z</time>
      </trkpt>
      <trkpt lat="43.02016" lon="0.10922">
        <ele>1193</ele>
        <time>2013-02-09T09:54:39Z</time>
      </trkpt>
      <trkpt lat="43.02017" lon="0.10924">
        <ele>1193</ele>
        <time>2013-02-09T09:54:42Z</time>
      </trkpt>
      <trkpt lat="43.02018" lon="0.10927">
        <ele>1193</ele>
        <time>2013-02-09T09:54:44Z</time>
      </trkpt>
      <trkpt lat="43.0202" lon="0.10928">
        <ele>1193</ele>
        <time>2013-02-09T09:54:46Z</time>
      </trkpt>
      <trkpt lat="43.02021" lon="0.10931">
        <ele>1193</ele>
        <time>2013-02-09T09:54:48Z</time>
      </trkpt>
      <trkpt lat="43.02022" lon="0.10933">
        <ele>1192</ele>
        <time>2013-02-09T09:54:50Z</time>
      </trkpt>
      <trkpt lat="43.02023" lon="0.10934">
        <ele>1191</ele>
        <time>2013-02-09T09:54:52Z</time>
      </trkpt>
      <trkpt lat="43.02023" lon="0.10936">
        <ele>1190</ele>
        <time>2013-02-09T09:54:54Z</time>
      </trkpt>
      <trkpt lat="43.02024" lon="0.10938">
        <ele>1189</ele>
        <time>2013-02-09T09:54:56Z</time>
      </trkpt>
      <trkpt lat="43.02026" lon="0.10939">
        <ele>1188</ele>
        <time>2013-02-09T09:54:58Z</time>
      </trkpt>
      <trkpt lat="43.02026" lon="0.10941">
        <ele>1187</ele>
        <time>2013-02-09T09:55:00Z</time>
      </trkpt>
      <trkpt lat="43.02027" lon="0.10943">
        <ele>1186</ele>
        <time>2013-02-09T09:55:02Z</time>
      </trkpt>
      <trkpt lat="43.02027" lon="0.10945">
        <ele>1186</ele>
        <time>2013-02-09T09:55:03Z</time>
      </trkpt>
      <trkpt lat="43.02027" lon="0.10946">
        <ele>1186</ele>
        <time>2013-02-09T09:55:04Z</time>
      </trkpt>
      <trkpt lat="43.02028" lon="0.10948">
        <ele>1186</ele>
        <time>2013-02-09T09:55:06Z</time>
      </trkpt>
      <trkpt lat="43.02028" lon="0.10951">
        <ele>1186</ele>
        <time>2013-02-09T09:55:08Z</time>
      </trkpt>
      <trkpt lat="43.02029" lon="0.10953">
        <ele>1186</ele>
        <time>2013-02-09T09:55:10Z</time>
      </trkpt>
      <trkpt lat="43.0203" lon="0.10955">
        <ele>1185</ele>
        <time>2013-02-09T09:55:13Z</time>
      </trkpt>
      <trkpt lat="43.02031" lon="0.10957">
        <ele>1184</ele>
        <time>2013-02-09T09:55:16Z</time>
      </trkpt>
      <trkpt lat="43.02031" lon="0.10959">
        <ele>1184</ele>
        <time>2013-02-09T09:55:18Z</time>
      </trkpt>
      <trkpt lat="43.02032" lon="0.1096">
        <ele>1184</ele>
        <time>2013-02-09T09:55:20Z</time>
      </trkpt>
      <trkpt lat="43.02032" lon="0.10963">
        <ele>1184</ele>
        <time>2013-02-09T09:55:22Z</time>
      </trkpt>
      <trkpt lat="43.02032" lon="0.10964">
        <ele>1184</ele>
        <time>2013-02-09T09:55:23Z</time>
      </trkpt>
      <trkpt lat="43.02032" lon="0.10966">
        <ele>1184</ele>
        <time>2013-02-09T09:55:24Z</time>
      </trkpt>
      <trkpt lat="43.02033" lon="0.10968">
        <ele>1184</ele>
        <time>2013-02-09T09:55:26Z</time>
      </trkpt>
      <trkpt lat="43.02034" lon="0.1097">
        <ele>1184</ele>
        <time>2013-02-09T09:55:28Z</time>
      </trkpt>
      <trkpt lat="43.02034" lon="0.10972">
        <ele>1184</ele>
        <time>2013-02-09T09:55:30Z</time>
      </trkpt>
      <trkpt lat="43.02034" lon="0.10975">
        <ele>1184</ele>
        <time>2013-02-09T09:55:32Z</time>
      </trkpt>
      <trkpt lat="43.02034" lon="0.10977">
        <ele>1184</ele>
        <time>2013-02-09T09:55:34Z</time>
      </trkpt>
      <trkpt lat="43.02035" lon="0.10979">
        <ele>1184</ele>
        <time>2013-02-09T09:55:36Z</time>
      </trkpt>
      <trkpt lat="43.02035" lon="0.10981">
        <ele>1184</ele>
        <time>2013-02-09T09:55:38Z</time>
      </trkpt>
      <trkpt lat="43.02036" lon="0.10983">
        <ele>1184</ele>
        <time>2013-02-09T09:55:40Z</time>
      </trkpt>
      <trkpt lat="43.02036" lon="0.10986">
        <ele>1184</ele>
        <time>2013-02-09T09:55:42Z</time>
      </trkpt>
      <trkpt lat="43.02037" lon="0.10988">
        <ele>1184</ele>
        <time>2013-02-09T09:55:44Z</time>
      </trkpt>
      <trkpt lat="43.02037" lon="0.1099">
        <ele>1184</ele>
        <time>2013-02-09T09:55:46Z</time>
      </trkpt>
      <trkpt lat="43.02037" lon="0.10992">
        <ele>1184</ele>
        <time>2013-02-09T09:55:48Z</time>
      </trkpt>
      <trkpt lat="43.02037" lon="0.10995">
        <ele>1184</ele>
        <time>2013-02-09T09:55:50Z</time>
      </trkpt>
      <trkpt lat="43.02037" lon="0.10996">
        <ele>1184</ele>
        <time>2013-02-09T09:55:51Z</time>
      </trkpt>
      <trkpt lat="43.02037" lon="0.10998">
        <ele>1184</ele>
        <time>2013-02-09T09:55:53Z</time>
      </trkpt>
      <trkpt lat="43.02037" lon="0.11">
        <ele>1184</ele>
        <time>2013-02-09T09:55:55Z</time>
      </trkpt>
      <trkpt lat="43.02038" lon="0.11002">
        <ele>1184</ele>
        <time>2013-02-09T09:55:56Z</time>
      </trkpt>
      <trkpt lat="43.02038" lon="0.11005">
        <ele>1184</ele>
        <time>2013-02-09T09:55:58Z</time>
      </trkpt>
      <trkpt lat="43.02039" lon="0.11007">
        <ele>1184</ele>
        <time>2013-02-09T09:56:00Z</time>
      </trkpt>
      <trkpt lat="43.02039" lon="0.11009">
        <ele>1184</ele>
        <time>2013-02-09T09:56:01Z</time>
      </trkpt>
      <trkpt lat="43.02039" lon="0.11011">
        <ele>1184</ele>
        <time>2013-02-09T09:56:03Z</time>
      </trkpt>
      <trkpt lat="43.02039" lon="0.11012">
        <ele>1184</ele>
        <time>2013-02-09T09:56:05Z</time>
      </trkpt>
      <trkpt lat="43.0204" lon="0.11014">
        <ele>1184</ele>
        <time>2013-02-09T09:56:07Z</time>
      </trkpt>
      <trkpt lat="43.0204" lon="0.11016">
        <ele>1184</ele>
        <time>2013-02-09T09:56:09Z</time>
      </trkpt>
      <trkpt lat="43.0204" lon="0.11019">
        <ele>1184</ele>
        <time>2013-02-09T09:56:11Z</time>
      </trkpt>
      <trkpt lat="43.02041" lon="0.11022">
        <ele>1184</ele>
        <time>2013-02-09T09:56:13Z</time>
      </trkpt>
      <trkpt lat="43.02041" lon="0.11024">
        <ele>1184</ele>
        <time>2013-02-09T09:56:15Z</time>
      </trkpt>
      <trkpt lat="43.0204" lon="0.11028">
        <ele>1184</ele>
        <time>2013-02-09T09:56:17Z</time>
      </trkpt>
      <trkpt lat="43.0204" lon="0.1103">
        <ele>1184</ele>
        <time>2013-02-09T09:56:19Z</time>
      </trkpt>
      <trkpt lat="43.02041" lon="0.11032">
        <ele>1184</ele>
        <time>2013-02-09T09:56:21Z</time>
      </trkpt>
      <trkpt lat="43.02041" lon="0.11034">
        <ele>1184</ele>
        <time>2013-02-09T09:56:23Z</time>
      </trkpt>
      <trkpt lat="43.02041" lon="0.11036">
        <ele>1184</ele>
        <time>2013-02-09T09:56:25Z</time>
      </trkpt>
      <trkpt lat="43.02042" lon="0.11038">
        <ele>1184</ele>
        <time>2013-02-09T09:56:27Z</time>
      </trkpt>
      <trkpt lat="43.02042" lon="0.11041">
        <ele>1184</ele>
        <time>2013-02-09T09:56:29Z</time>
      </trkpt>
      <trkpt lat="43.02042" lon="0.11043">
        <ele>1184</ele>
        <time>2013-02-09T09:56:30Z</time>
      </trkpt>
      <trkpt lat="43.02043" lon="0.11045">
        <ele>1184</ele>
        <time>2013-02-09T09:56:32Z</time>
      </trkpt>
      <trkpt lat="43.02043" lon="0.11046">
        <ele>1184</ele>
        <time>2013-02-09T09:56:33Z</time>
      </trkpt>
      <trkpt lat="43.02044" lon="0.11049">
        <ele>1184</ele>
        <time>2013-02-09T09:56:35Z</time>
      </trkpt>
      <trkpt lat="43.02044" lon="0.1105">
        <ele>1184</ele>
        <time>2013-02-09T09:56:37Z</time>
      </trkpt>
      <trkpt lat="43.02045" lon="0.11053">
        <ele>1184</ele>
        <time>2013-02-09T09:56:39Z</time>
      </trkpt>
      <trkpt lat="43.02045" lon="0.11055">
        <ele>1184</ele>
        <time>2013-02-09T09:56:41Z</time>
      </trkpt>
      <trkpt lat="43.02046" lon="0.11057">
        <ele>1184</ele>
        <time>2013-02-09T09:56:43Z</time>
      </trkpt>
      <trkpt lat="43.02046" lon="0.11059">
        <ele>1184</ele>
        <time>2013-02-09T09:56:45Z</time>
      </trkpt>
      <trkpt lat="43.02047" lon="0.1106">
        <ele>1184</ele>
        <time>2013-02-09T09:56:46Z</time>
      </trkpt>
      <trkpt lat="43.02047" lon="0.11062">
        <ele>1184</ele>
        <time>2013-02-09T09:56:47Z</time>
      </trkpt>
      <trkpt lat="43.02047" lon="0.11064">
        <ele>1184</ele>
        <time>2013-02-09T09:56:49Z</time>
      </trkpt>
      <trkpt lat="43.02047" lon="0.11066">
        <ele>1184</ele>
        <time>2013-02-09T09:56:51Z</time>
      </trkpt>
      <trkpt lat="43.02048" lon="0.11067">
        <ele>1184</ele>
        <time>2013-02-09T09:56:53Z</time>
      </trkpt>
      <trkpt lat="43.02048" lon="0.11069">
        <ele>1184</ele>
        <time>2013-02-09T09:56:55Z</time>
      </trkpt>
      <trkpt lat="43.02049" lon="0.11071">
        <ele>1184</ele>
        <time>2013-02-09T09:56:57Z</time>
      </trkpt>
      <trkpt lat="43.0205" lon="0.11073">
        <ele>1184</ele>
        <time>2013-02-09T09:56:59Z</time>
      </trkpt>
      <trkpt lat="43.0205" lon="0.11075">
        <ele>1184</ele>
        <time>2013-02-09T09:57:01Z</time>
      </trkpt>
      <trkpt lat="43.02051" lon="0.11077">
        <ele>1184</ele>
        <time>2013-02-09T09:57:03Z</time>
      </trkpt>
      <trkpt lat="43.02052" lon="0.11079">
        <ele>1184</ele>
        <time>2013-02-09T09:57:05Z</time>
      </trkpt>
      <trkpt lat="43.02052" lon="0.11081">
        <ele>1184</ele>
        <time>2013-02-09T09:57:06Z</time>
      </trkpt>
      <trkpt lat="43.02053" lon="0.11084">
        <ele>1184</ele>
        <time>2013-02-09T09:57:08Z</time>
      </trkpt>
      <trkpt lat="43.02053" lon="0.11085">
        <ele>1184</ele>
        <time>2013-02-09T09:57:09Z</time>
      </trkpt>
      <trkpt lat="43.02053" lon="0.11088">
        <ele>1184</ele>
        <time>2013-02-09T09:57:11Z</time>
      </trkpt>
      <trkpt lat="43.02053" lon="0.1109">
        <ele>1184</ele>
        <time>2013-02-09T09:57:13Z</time>
      </trkpt>
      <trkpt lat="43.02054" lon="0.11091">
        <ele>1184</ele>
        <time>2013-02-09T09:57:14Z</time>
      </trkpt>
      <trkpt lat="43.02054" lon="0.11094">
        <ele>1184</ele>
        <time>2013-02-09T09:57:16Z</time>
      </trkpt>
      <trkpt lat="43.02055" lon="0.11096">
        <ele>1184</ele>
        <time>2013-02-09T09:57:18Z</time>
      </trkpt>
      <trkpt lat="43.02056" lon="0.11098">
        <ele>1184</ele>
        <time>2013-02-09T09:57:20Z</time>
      </trkpt>
      <trkpt lat="43.02056" lon="0.11099">
        <ele>1184</ele>
        <time>2013-02-09T09:57:21Z</time>
      </trkpt>
      <trkpt lat="43.02056" lon="0.11102">
        <ele>1185</ele>
        <time>2013-02-09T09:57:23Z</time>
      </trkpt>
      <trkpt lat="43.02057" lon="0.11104">
        <ele>1185</ele>
        <time>2013-02-09T09:57:25Z</time>
      </trkpt>
      <trkpt lat="43.02057" lon="0.11105">
        <ele>1185</ele>
        <time>2013-02-09T09:57:26Z</time>
      </trkpt>
      <trkpt lat="43.02057" lon="0.11107">
        <ele>1185</ele>
        <time>2013-02-09T09:57:27Z</time>
      </trkpt>
      <trkpt lat="43.02058" lon="0.11109">
        <ele>1185</ele>
        <time>2013-02-09T09:57:29Z</time>
      </trkpt>
      <trkpt lat="43.02058" lon="0.11112">
        <ele>1185</ele>
        <time>2013-02-09T09:57:31Z</time>
      </trkpt>
      <trkpt lat="43.02059" lon="0.11114">
        <ele>1186</ele>
        <time>2013-02-09T09:57:33Z</time>
      </trkpt>
      <trkpt lat="43.02059" lon="0.11117">
        <ele>1186</ele>
        <time>2013-02-09T09:57:35Z</time>
      </trkpt>
      <trkpt lat="43.0206" lon="0.11119">
        <ele>1186</ele>
        <time>2013-02-09T09:57:37Z</time>
      </trkpt>
      <trkpt lat="43.0206" lon="0.11122">
        <ele>1186</ele>
        <time>2013-02-09T09:57:39Z</time>
      </trkpt>
      <trkpt lat="43.02061" lon="0.11124">
        <ele>1186</ele>
        <time>2013-02-09T09:57:41Z</time>
      </trkpt>
      <trkpt lat="43.02061" lon="0.11127">
        <ele>1186</ele>
        <time>2013-02-09T09:57:43Z</time>
      </trkpt>
      <trkpt lat="43.02062" lon="0.11129">
        <ele>1186</ele>
        <time>2013-02-09T09:57:45Z</time>
      </trkpt>
      <trkpt lat="43.02062" lon="0.11131">
        <ele>1186</ele>
        <time>2013-02-09T09:57:46Z</time>
      </trkpt>
      <trkpt lat="43.02062" lon="0.11132">
        <ele>1186</ele>
        <time>2013-02-09T09:57:47Z</time>
      </trkpt>
      <trkpt lat="43.02062" lon="0.11134">
        <ele>1186</ele>
        <time>2013-02-09T09:57:48Z</time>
      </trkpt>
      <trkpt lat="43.02063" lon="0.11136">
        <ele>1186</ele>
        <time>2013-02-09T09:57:50Z</time>
      </trkpt>
      <trkpt lat="43.02063" lon="0.11138">
        <ele>1187</ele>
        <time>2013-02-09T09:57:51Z</time>
      </trkpt>
      <trkpt lat="43.02063" lon="0.1114">
        <ele>1187</ele>
        <time>2013-02-09T09:57:53Z</time>
      </trkpt>
      <trkpt lat="43.02064" lon="0.11142">
        <ele>1187</ele>
        <time>2013-02-09T09:57:55Z</time>
      </trkpt>
      <trkpt lat="43.02064" lon="0.11144">
        <ele>1187</ele>
        <time>2013-02-09T09:57:56Z</time>
      </trkpt>
      <trkpt lat="43.02066" lon="0.11146">
        <ele>1187</ele>
        <time>2013-02-09T09:57:59Z</time>
      </trkpt>
      <trkpt lat="43.02066" lon="0.11148">
        <ele>1187</ele>
        <time>2013-02-09T09:58:01Z</time>
      </trkpt>
      <trkpt lat="43.02066" lon="0.1115">
        <ele>1187</ele>
        <time>2013-02-09T09:58:02Z</time>
      </trkpt>
      <trkpt lat="43.02067" lon="0.11152">
        <ele>1187</ele>
        <time>2013-02-09T09:58:04Z</time>
      </trkpt>
      <trkpt lat="43.02067" lon="0.11154">
        <ele>1187</ele>
        <time>2013-02-09T09:58:05Z</time>
      </trkpt>
      <trkpt lat="43.02068" lon="0.11156">
        <ele>1187</ele>
        <time>2013-02-09T09:58:07Z</time>
      </trkpt>
      <trkpt lat="43.02068" lon="0.11158">
        <ele>1187</ele>
        <time>2013-02-09T09:58:08Z</time>
      </trkpt>
      <trkpt lat="43.02068" lon="0.1116">
        <ele>1187</ele>
        <time>2013-02-09T09:58:10Z</time>
      </trkpt>
      <trkpt lat="43.02068" lon="0.11161">
        <ele>1187</ele>
        <time>2013-02-09T09:58:11Z</time>
      </trkpt>
      <trkpt lat="43.02069" lon="0.11163">
        <ele>1188</ele>
        <time>2013-02-09T09:58:13Z</time>
      </trkpt>
      <trkpt lat="43.02069" lon="0.11166">
        <ele>1188</ele>
        <time>2013-02-09T09:58:15Z</time>
      </trkpt>
      <trkpt lat="43.02069" lon="0.11168">
        <ele>1189</ele>
        <time>2013-02-09T09:58:17Z</time>
      </trkpt>
      <trkpt lat="43.0207" lon="0.1117">
        <ele>1189</ele>
        <time>2013-02-09T09:58:19Z</time>
      </trkpt>
      <trkpt lat="43.02071" lon="0.11172">
        <ele>1190</ele>
        <time>2013-02-09T09:58:24Z</time>
      </trkpt>
      <trkpt lat="43.02071" lon="0.11173">
        <ele>1190</ele>
        <time>2013-02-09T09:58:25Z</time>
      </trkpt>
      <trkpt lat="43.02071" lon="0.11176">
        <ele>1190</ele>
        <time>2013-02-09T09:58:27Z</time>
      </trkpt>
      <trkpt lat="43.02072" lon="0.11177">
        <ele>1190</ele>
        <time>2013-02-09T09:58:28Z</time>
      </trkpt>
      <trkpt lat="43.02072" lon="0.11179">
        <ele>1190</ele>
        <time>2013-02-09T09:58:29Z</time>
      </trkpt>
      <trkpt lat="43.02073" lon="0.11181">
        <ele>1190</ele>
        <time>2013-02-09T09:58:31Z</time>
      </trkpt>
      <trkpt lat="43.02074" lon="0.11183">
        <ele>1190</ele>
        <time>2013-02-09T09:58:33Z</time>
      </trkpt>
      <trkpt lat="43.02075" lon="0.11186">
        <ele>1190</ele>
        <time>2013-02-09T09:58:35Z</time>
      </trkpt>
      <trkpt lat="43.02075" lon="0.11188">
        <ele>1191</ele>
        <time>2013-02-09T09:58:36Z</time>
      </trkpt>
      <trkpt lat="43.02075" lon="0.1119">
        <ele>1191</ele>
        <time>2013-02-09T09:58:38Z</time>
      </trkpt>
      <trkpt lat="43.02076" lon="0.11192">
        <ele>1192</ele>
        <time>2013-02-09T09:58:40Z</time>
      </trkpt>
      <trkpt lat="43.02077" lon="0.11195">
        <ele>1192</ele>
        <time>2013-02-09T09:58:42Z</time>
      </trkpt>
      <trkpt lat="43.02078" lon="0.11197">
        <ele>1192</ele>
        <time>2013-02-09T09:58:44Z</time>
      </trkpt>
      <trkpt lat="43.02079" lon="0.11199">
        <ele>1192</ele>
        <time>2013-02-09T09:58:46Z</time>
      </trkpt>
      <trkpt lat="43.02079" lon="0.11201">
        <ele>1192</ele>
        <time>2013-02-09T09:58:47Z</time>
      </trkpt>
      <trkpt lat="43.0208" lon="0.11203">
        <ele>1192</ele>
        <time>2013-02-09T09:58:49Z</time>
      </trkpt>
      <trkpt lat="43.02081" lon="0.11206">
        <ele>1192</ele>
        <time>2013-02-09T09:58:51Z</time>
      </trkpt>
      <trkpt lat="43.02082" lon="0.11208">
        <ele>1193</ele>
        <time>2013-02-09T09:58:53Z</time>
      </trkpt>
      <trkpt lat="43.02083" lon="0.1121">
        <ele>1193</ele>
        <time>2013-02-09T09:58:55Z</time>
      </trkpt>
      <trkpt lat="43.02084" lon="0.11212">
        <ele>1193</ele>
        <time>2013-02-09T09:58:57Z</time>
      </trkpt>
      <trkpt lat="43.02086" lon="0.11214">
        <ele>1193</ele>
        <time>2013-02-09T09:58:59Z</time>
      </trkpt>
      <trkpt lat="43.02087" lon="0.11216">
        <ele>1193</ele>
        <time>2013-02-09T09:59:01Z</time>
      </trkpt>
      <trkpt lat="43.02088" lon="0.11217">
        <ele>1193</ele>
        <time>2013-02-09T09:59:02Z</time>
      </trkpt>
      <trkpt lat="43.02089" lon="0.11219">
        <ele>1193</ele>
        <time>2013-02-09T09:59:04Z</time>
      </trkpt>
      <trkpt lat="43.02091" lon="0.11221">
        <ele>1194</ele>
        <time>2013-02-09T09:59:06Z</time>
      </trkpt>
      <trkpt lat="43.02092" lon="0.11223">
        <ele>1194</ele>
        <time>2013-02-09T09:59:08Z</time>
      </trkpt>
      <trkpt lat="43.02094" lon="0.11225">
        <ele>1194</ele>
        <time>2013-02-09T09:59:10Z</time>
      </trkpt>
      <trkpt lat="43.02095" lon="0.11227">
        <ele>1194</ele>
        <time>2013-02-09T09:59:12Z</time>
      </trkpt>
      <trkpt lat="43.02097" lon="0.11229">
        <ele>1195</ele>
        <time>2013-02-09T09:59:14Z</time>
      </trkpt>
      <trkpt lat="43.02099" lon="0.1123">
        <ele>1195</ele>
        <time>2013-02-09T09:59:16Z</time>
      </trkpt>
      <trkpt lat="43.021" lon="0.11231">
        <ele>1195</ele>
        <time>2013-02-09T09:59:18Z</time>
      </trkpt>
      <trkpt lat="43.02101" lon="0.11233">
        <ele>1195</ele>
        <time>2013-02-09T09:59:20Z</time>
      </trkpt>
      <trkpt lat="43.02102" lon="0.11236">
        <ele>1196</ele>
        <time>2013-02-09T09:59:22Z</time>
      </trkpt>
      <trkpt lat="43.02103" lon="0.11238">
        <ele>1196</ele>
        <time>2013-02-09T09:59:24Z</time>
      </trkpt>
      <trkpt lat="43.02105" lon="0.1124">
        <ele>1196</ele>
        <time>2013-02-09T09:59:26Z</time>
      </trkpt>
      <trkpt lat="43.02105" lon="0.11242">
        <ele>1196</ele>
        <time>2013-02-09T09:59:27Z</time>
      </trkpt>
      <trkpt lat="43.02106" lon="0.11244">
        <ele>1196</ele>
        <time>2013-02-09T09:59:29Z</time>
      </trkpt>
      <trkpt lat="43.02107" lon="0.11246">
        <ele>1196</ele>
        <time>2013-02-09T09:59:31Z</time>
      </trkpt>
      <trkpt lat="43.02108" lon="0.11248">
        <ele>1197</ele>
        <time>2013-02-09T09:59:33Z</time>
      </trkpt>
      <trkpt lat="43.0211" lon="0.11249">
        <ele>1197</ele>
        <time>2013-02-09T09:59:35Z</time>
      </trkpt>
      <trkpt lat="43.02111" lon="0.11252">
        <ele>1197</ele>
        <time>2013-02-09T09:59:37Z</time>
      </trkpt>
      <trkpt lat="43.02111" lon="0.11254">
        <ele>1198</ele>
        <time>2013-02-09T09:59:39Z</time>
      </trkpt>
      <trkpt lat="43.02112" lon="0.11255">
        <ele>1198</ele>
        <time>2013-02-09T09:59:40Z</time>
      </trkpt>
      <trkpt lat="43.02113" lon="0.11257">
        <ele>1198</ele>
        <time>2013-02-09T09:59:42Z</time>
      </trkpt>
      <trkpt lat="43.02113" lon="0.11259">
        <ele>1199</ele>
        <time>2013-02-09T09:59:44Z</time>
      </trkpt>
      <trkpt lat="43.02114" lon="0.11262">
        <ele>1199</ele>
        <time>2013-02-09T09:59:46Z</time>
      </trkpt>
      <trkpt lat="43.02116" lon="0.11264">
        <ele>1199</ele>
        <time>2013-02-09T09:59:48Z</time>
      </trkpt>
      <trkpt lat="43.02117" lon="0.11265">
        <ele>1200</ele>
        <time>2013-02-09T09:59:50Z</time>
      </trkpt>
      <trkpt lat="43.02118" lon="0.11267">
        <ele>1200</ele>
        <time>2013-02-09T09:59:52Z</time>
      </trkpt>
      <trkpt lat="43.02119" lon="0.11269">
        <ele>1200</ele>
        <time>2013-02-09T09:59:54Z</time>
      </trkpt>
      <trkpt lat="43.0212" lon="0.11271">
        <ele>1200</ele>
        <time>2013-02-09T09:59:56Z</time>
      </trkpt>
      <trkpt lat="43.0212" lon="0.11273">
        <ele>1200</ele>
        <time>2013-02-09T09:59:57Z</time>
      </trkpt>
      <trkpt lat="43.02121" lon="0.11275">
        <ele>1201</ele>
        <time>2013-02-09T09:59:59Z</time>
      </trkpt>
      <trkpt lat="43.02122" lon="0.11277">
        <ele>1201</ele>
        <time>2013-02-09T10:00:01Z</time>
      </trkpt>
      <trkpt lat="43.02122" lon="0.11279">
        <ele>1202</ele>
        <time>2013-02-09T10:00:03Z</time>
      </trkpt>
      <trkpt lat="43.02124" lon="0.11281">
        <ele>1202</ele>
        <time>2013-02-09T10:00:05Z</time>
      </trkpt>
      <trkpt lat="43.02125" lon="0.11283">
        <ele>1202</ele>
        <time>2013-02-09T10:00:07Z</time>
      </trkpt>
      <trkpt lat="43.02126" lon="0.11286">
        <ele>1202</ele>
        <time>2013-02-09T10:00:09Z</time>
      </trkpt>
      <trkpt lat="43.02126" lon="0.11288">
        <ele>1202</ele>
        <time>2013-02-09T10:00:11Z</time>
      </trkpt>
      <trkpt lat="43.02127" lon="0.1129">
        <ele>1202</ele>
        <time>2013-02-09T10:00:13Z</time>
      </trkpt>
      <trkpt lat="43.02128" lon="0.11293">
        <ele>1202</ele>
        <time>2013-02-09T10:00:15Z</time>
      </trkpt>
      <trkpt lat="43.02129" lon="0.11295">
        <ele>1202</ele>
        <time>2013-02-09T10:00:17Z</time>
      </trkpt>
      <trkpt lat="43.02129" lon="0.11297">
        <ele>1202</ele>
        <time>2013-02-09T10:00:19Z</time>
      </trkpt>
      <trkpt lat="43.0213" lon="0.11299">
        <ele>1203</ele>
        <time>2013-02-09T10:00:21Z</time>
      </trkpt>
      <trkpt lat="43.02131" lon="0.11302">
        <ele>1203</ele>
        <time>2013-02-09T10:00:23Z</time>
      </trkpt>
      <trkpt lat="43.02132" lon="0.11304">
        <ele>1203</ele>
        <time>2013-02-09T10:00:25Z</time>
      </trkpt>
      <trkpt lat="43.02133" lon="0.11305">
        <ele>1203</ele>
        <time>2013-02-09T10:00:27Z</time>
      </trkpt>
      <trkpt lat="43.02134" lon="0.11308">
        <ele>1203</ele>
        <time>2013-02-09T10:00:29Z</time>
      </trkpt>
      <trkpt lat="43.02134" lon="0.1131">
        <ele>1203</ele>
        <time>2013-02-09T10:00:31Z</time>
      </trkpt>
      <trkpt lat="43.02135" lon="0.11312">
        <ele>1203</ele>
        <time>2013-02-09T10:00:33Z</time>
      </trkpt>
      <trkpt lat="43.02136" lon="0.11315">
        <ele>1203</ele>
        <time>2013-02-09T10:00:35Z</time>
      </trkpt>
      <trkpt lat="43.02137" lon="0.11316">
        <ele>1203</ele>
        <time>2013-02-09T10:00:37Z</time>
      </trkpt>
      <trkpt lat="43.02137" lon="0.11318">
        <ele>1204</ele>
        <time>2013-02-09T10:00:39Z</time>
      </trkpt>
      <trkpt lat="43.02138" lon="0.11321">
        <ele>1204</ele>
        <time>2013-02-09T10:00:41Z</time>
      </trkpt>
      <trkpt lat="43.0214" lon="0.11323">
        <ele>1204</ele>
        <time>2013-02-09T10:00:43Z</time>
      </trkpt>
      <trkpt lat="43.02141" lon="0.11325">
        <ele>1204</ele>
        <time>2013-02-09T10:00:45Z</time>
      </trkpt>
      <trkpt lat="43.02142" lon="0.11328">
        <ele>1204</ele>
        <time>2013-02-09T10:00:47Z</time>
      </trkpt>
      <trkpt lat="43.02144" lon="0.11329">
        <ele>1204</ele>
        <time>2013-02-09T10:00:49Z</time>
      </trkpt>
      <trkpt lat="43.02146" lon="0.11329">
        <ele>1205</ele>
        <time>2013-02-09T10:00:51Z</time>
      </trkpt>
      <trkpt lat="43.02147" lon="0.1133">
        <ele>1205</ele>
        <time>2013-02-09T10:00:54Z</time>
      </trkpt>
      <trkpt lat="43.02148" lon="0.1133">
        <ele>1205</ele>
        <time>2013-02-09T10:00:56Z</time>
      </trkpt>
      <trkpt lat="43.0215" lon="0.11331">
        <ele>1205</ele>
        <time>2013-02-09T10:00:58Z</time>
      </trkpt>
      <trkpt lat="43.02152" lon="0.11331">
        <ele>1205</ele>
        <time>2013-02-09T10:01:00Z</time>
      </trkpt>
      <trkpt lat="43.02154" lon="0.1133">
        <ele>1205</ele>
        <time>2013-02-09T10:01:02Z</time>
      </trkpt>
      <trkpt lat="43.02156" lon="0.11329">
        <ele>1205</ele>
        <time>2013-02-09T10:01:04Z</time>
      </trkpt>
      <trkpt lat="43.02158" lon="0.11328">
        <ele>1205</ele>
        <time>2013-02-09T10:01:06Z</time>
      </trkpt>
      <trkpt lat="43.0216" lon="0.11327">
        <ele>1205</ele>
        <time>2013-02-09T10:01:07Z</time>
      </trkpt>
      <trkpt lat="43.02161" lon="0.11327">
        <ele>1205</ele>
        <time>2013-02-09T10:01:09Z</time>
      </trkpt>
      <trkpt lat="43.02163" lon="0.11326">
        <ele>1205</ele>
        <time>2013-02-09T10:01:11Z</time>
      </trkpt>
      <trkpt lat="43.02164" lon="0.11325">
        <ele>1205</ele>
        <time>2013-02-09T10:01:16Z</time>
      </trkpt>
      <trkpt lat="43.02165" lon="0.11323">
        <ele>1205</ele>
        <time>2013-02-09T10:01:45Z</time>
      </trkpt>
      <trkpt lat="43.02165" lon="0.11322">
        <ele>1205</ele>
        <time>2013-02-09T10:01:54Z</time>
      </trkpt>
      <trkpt lat="43.02163" lon="0.11321">
        <ele>1205</ele>
        <time>2013-02-09T10:01:57Z</time>
      </trkpt>
      <trkpt lat="43.02162" lon="0.1132">
        <ele>1205</ele>
        <time>2013-02-09T10:02:05Z</time>
      </trkpt>
      <trkpt lat="43.02161" lon="0.11319">
        <ele>1205</ele>
        <time>2013-02-09T10:02:07Z</time>
      </trkpt>
      <trkpt lat="43.02162" lon="0.1132">
        <ele>1205</ele>
        <time>2013-02-09T10:02:20Z</time>
      </trkpt>
      <trkpt lat="43.02163" lon="0.1132">
        <ele>1205</ele>
        <time>2013-02-09T10:02:29Z</time>
      </trkpt>
      <trkpt lat="43.02164" lon="0.1132">
        <ele>1205</ele>
        <time>2013-02-09T10:02:36Z</time>
      </trkpt>
      <trkpt lat="43.02165" lon="0.1132">
        <ele>1207</ele>
        <time>2013-02-09T10:02:55Z</time>
      </trkpt>
      <trkpt lat="43.02164" lon="0.1132">
        <ele>1207</ele>
        <time>2013-02-09T10:03:11Z</time>
      </trkpt>
      <trkpt lat="43.02165" lon="0.1132">
        <ele>1207</ele>
        <time>2013-02-09T10:03:30Z</time>
      </trkpt>
      <trkpt lat="43.02166" lon="0.1132">
        <ele>1206</ele>
        <time>2013-02-09T10:03:49Z</time>
      </trkpt>
      <trkpt lat="43.02168" lon="0.1132">
        <ele>1206</ele>
        <time>2013-02-09T10:03:57Z</time>
      </trkpt>
      <trkpt lat="43.02169" lon="0.1132">
        <ele>1206</ele>
        <time>2013-02-09T10:04:07Z</time>
      </trkpt>
      <trkpt lat="43.0217" lon="0.1132">
        <ele>1206</ele>
        <time>2013-02-09T10:04:12Z</time>
      </trkpt>
      <trkpt lat="43.02168" lon="0.1132">
        <ele>1206</ele>
        <time>2013-02-09T10:04:28Z</time>
      </trkpt>
      <trkpt lat="43.02167" lon="0.1132">
        <ele>1206</ele>
        <time>2013-02-09T10:04:37Z</time>
      </trkpt>
      <trkpt lat="43.02166" lon="0.1132">
        <ele>1206</ele>
        <time>2013-02-09T10:04:41Z</time>
      </trkpt>
      <trkpt lat="43.02165" lon="0.1132">
        <ele>1206</ele>
        <time>2013-02-09T10:04:55Z</time>
      </trkpt>
      <trkpt lat="43.02165" lon="0.11321">
        <ele>1206</ele>
        <time>2013-02-09T10:05:51Z</time>
      </trkpt>
      <trkpt lat="43.02166" lon="0.11322">
        <ele>1206</ele>
        <time>2013-02-09T10:07:18Z</time>
      </trkpt>
      <trkpt lat="43.02165" lon="0.11323">
        <ele>1207</ele>
        <time>2013-02-09T10:08:08Z</time>
      </trkpt>
      <trkpt lat="43.02165" lon="0.11321">
        <ele>1207</ele>
        <time>2013-02-09T10:08:13Z</time>
      </trkpt>
      <trkpt lat="43.02166" lon="0.11319">
        <ele>1207</ele>
        <time>2013-02-09T10:08:15Z</time>
      </trkpt>
      <trkpt lat="43.02166" lon="0.11317">
        <ele>1207</ele>
        <time>2013-02-09T10:08:17Z</time>
      </trkpt>
      <trkpt lat="43.02166" lon="0.11315">
        <ele>1207</ele>
        <time>2013-02-09T10:08:19Z</time>
      </trkpt>
      <trkpt lat="43.02165" lon="0.11314">
        <ele>1207</ele>
        <time>2013-02-09T10:08:21Z</time>
      </trkpt>
      <trkpt lat="43.02165" lon="0.11312">
        <ele>1207</ele>
        <time>2013-02-09T10:08:23Z</time>
      </trkpt>
      <trkpt lat="43.02165" lon="0.11311">
        <ele>1207</ele>
        <time>2013-02-09T10:08:25Z</time>
      </trkpt>
      <trkpt lat="43.02165" lon="0.11309">
        <ele>1207</ele>
        <time>2013-02-09T10:08:28Z</time>
      </trkpt>
      <trkpt lat="43.02164" lon="0.11308">
        <ele>1207</ele>
        <time>2013-02-09T10:08:31Z</time>
      </trkpt>
      <trkpt lat="43.02163" lon="0.11306">
        <ele>1207</ele>
        <time>2013-02-09T10:08:33Z</time>
      </trkpt>
      <trkpt lat="43.02162" lon="0.11305">
        <ele>1209</ele>
        <time>2013-02-09T10:08:36Z</time>
      </trkpt>
      <trkpt lat="43.02161" lon="0.11303">
        <ele>1210</ele>
        <time>2013-02-09T10:08:40Z</time>
      </trkpt>
      <trkpt lat="43.02161" lon="0.11301">
        <ele>1210</ele>
        <time>2013-02-09T10:08:43Z</time>
      </trkpt>
      <trkpt lat="43.0216" lon="0.11299">
        <ele>1210</ele>
        <time>2013-02-09T10:08:46Z</time>
      </trkpt>
      <trkpt lat="43.0216" lon="0.11298">
        <ele>1210</ele>
        <time>2013-02-09T10:08:50Z</time>
      </trkpt>
      <trkpt lat="43.02159" lon="0.11296">
        <ele>1211</ele>
        <time>2013-02-09T10:08:53Z</time>
      </trkpt>
      <trkpt lat="43.02159" lon="0.11294">
        <ele>1211</ele>
        <time>2013-02-09T10:08:55Z</time>
      </trkpt>
      <trkpt lat="43.02159" lon="0.11292">
        <ele>1211</ele>
        <time>2013-02-09T10:08:57Z</time>
      </trkpt>
      <trkpt lat="43.02158" lon="0.1129">
        <ele>1211</ele>
        <time>2013-02-09T10:08:59Z</time>
      </trkpt>
      <trkpt lat="43.02158" lon="0.11289">
        <ele>1211</ele>
        <time>2013-02-09T10:09:01Z</time>
      </trkpt>
      <trkpt lat="43.02157" lon="0.11287">
        <ele>1212</ele>
        <time>2013-02-09T10:09:03Z</time>
      </trkpt>
      <trkpt lat="43.02157" lon="0.11285">
        <ele>1212</ele>
        <time>2013-02-09T10:09:05Z</time>
      </trkpt>
      <trkpt lat="43.02157" lon="0.11283">
        <ele>1212</ele>
        <time>2013-02-09T10:09:07Z</time>
      </trkpt>
      <trkpt lat="43.02156" lon="0.11282">
        <ele>1213</ele>
        <time>2013-02-09T10:09:09Z</time>
      </trkpt>
      <trkpt lat="43.02156" lon="0.1128">
        <ele>1213</ele>
        <time>2013-02-09T10:09:11Z</time>
      </trkpt>
      <trkpt lat="43.02156" lon="0.11279">
        <ele>1213</ele>
        <time>2013-02-09T10:09:13Z</time>
      </trkpt>
      <trkpt lat="43.02156" lon="0.11277">
        <ele>1213</ele>
        <time>2013-02-09T10:09:15Z</time>
      </trkpt>
      <trkpt lat="43.02156" lon="0.11275">
        <ele>1213</ele>
        <time>2013-02-09T10:09:17Z</time>
      </trkpt>
      <trkpt lat="43.02155" lon="0.11274">
        <ele>1213</ele>
        <time>2013-02-09T10:09:19Z</time>
      </trkpt>
      <trkpt lat="43.02155" lon="0.11272">
        <ele>1213</ele>
        <time>2013-02-09T10:09:21Z</time>
      </trkpt>
      <trkpt lat="43.02155" lon="0.1127">
        <ele>1213</ele>
        <time>2013-02-09T10:09:23Z</time>
      </trkpt>
      <trkpt lat="43.02155" lon="0.11268">
        <ele>1213</ele>
        <time>2013-02-09T10:09:26Z</time>
      </trkpt>
      <trkpt lat="43.02154" lon="0.11266">
        <ele>1214</ele>
        <time>2013-02-09T10:09:29Z</time>
      </trkpt>
      <trkpt lat="43.02154" lon="0.11264">
        <ele>1214</ele>
        <time>2013-02-09T10:09:32Z</time>
      </trkpt>
      <trkpt lat="43.02153" lon="0.11263">
        <ele>1215</ele>
        <time>2013-02-09T10:09:35Z</time>
      </trkpt>
      <trkpt lat="43.02153" lon="0.11261">
        <ele>1215</ele>
        <time>2013-02-09T10:09:38Z</time>
      </trkpt>
      <trkpt lat="43.02153" lon="0.11259">
        <ele>1216</ele>
        <time>2013-02-09T10:09:41Z</time>
      </trkpt>
      <trkpt lat="43.02152" lon="0.11257">
        <ele>1216</ele>
        <time>2013-02-09T10:09:44Z</time>
      </trkpt>
      <trkpt lat="43.02152" lon="0.11255">
        <ele>1217</ele>
        <time>2013-02-09T10:09:46Z</time>
      </trkpt>
      <trkpt lat="43.02152" lon="0.11253">
        <ele>1217</ele>
        <time>2013-02-09T10:09:48Z</time>
      </trkpt>
      <trkpt lat="43.02152" lon="0.11252">
        <ele>1217</ele>
        <time>2013-02-09T10:09:50Z</time>
      </trkpt>
      <trkpt lat="43.02152" lon="0.1125">
        <ele>1217</ele>
        <time>2013-02-09T10:09:52Z</time>
      </trkpt>
      <trkpt lat="43.02152" lon="0.11248">
        <ele>1217</ele>
        <time>2013-02-09T10:09:54Z</time>
      </trkpt>
      <trkpt lat="43.02151" lon="0.11247">
        <ele>1217</ele>
        <time>2013-02-09T10:09:56Z</time>
      </trkpt>
      <trkpt lat="43.02151" lon="0.11245">
        <ele>1218</ele>
        <time>2013-02-09T10:09:58Z</time>
      </trkpt>
      <trkpt lat="43.02151" lon="0.11243">
        <ele>1218</ele>
        <time>2013-02-09T10:10:00Z</time>
      </trkpt>
      <trkpt lat="43.02151" lon="0.11242">
        <ele>1219</ele>
        <time>2013-02-09T10:10:02Z</time>
      </trkpt>
      <trkpt lat="43.02151" lon="0.1124">
        <ele>1219</ele>
        <time>2013-02-09T10:10:04Z</time>
      </trkpt>
      <trkpt lat="43.0215" lon="0.11238">
        <ele>1219</ele>
        <time>2013-02-09T10:10:06Z</time>
      </trkpt>
      <trkpt lat="43.0215" lon="0.11237">
        <ele>1220</ele>
        <time>2013-02-09T10:10:08Z</time>
      </trkpt>
      <trkpt lat="43.02151" lon="0.11235">
        <ele>1220</ele>
        <time>2013-02-09T10:10:10Z</time>
      </trkpt>
      <trkpt lat="43.0215" lon="0.11233">
        <ele>1220</ele>
        <time>2013-02-09T10:10:13Z</time>
      </trkpt>
      <trkpt lat="43.0215" lon="0.11231">
        <ele>1221</ele>
        <time>2013-02-09T10:10:15Z</time>
      </trkpt>
      <trkpt lat="43.0215" lon="0.1123">
        <ele>1221</ele>
        <time>2013-02-09T10:10:17Z</time>
      </trkpt>
      <trkpt lat="43.0215" lon="0.11228">
        <ele>1222</ele>
        <time>2013-02-09T10:10:19Z</time>
      </trkpt>
      <trkpt lat="43.0215" lon="0.11227">
        <ele>1222</ele>
        <time>2013-02-09T10:10:21Z</time>
      </trkpt>
      <trkpt lat="43.0215" lon="0.11225">
        <ele>1223</ele>
        <time>2013-02-09T10:10:23Z</time>
      </trkpt>
      <trkpt lat="43.0215" lon="0.11224">
        <ele>1223</ele>
        <time>2013-02-09T10:10:25Z</time>
      </trkpt>
      <trkpt lat="43.0215" lon="0.11221">
        <ele>1224</ele>
        <time>2013-02-09T10:10:28Z</time>
      </trkpt>
      <trkpt lat="43.0215" lon="0.11219">
        <ele>1224</ele>
        <time>2013-02-09T10:10:31Z</time>
      </trkpt>
      <trkpt lat="43.0215" lon="0.11218">
        <ele>1225</ele>
        <time>2013-02-09T10:10:33Z</time>
      </trkpt>
      <trkpt lat="43.0215" lon="0.11216">
        <ele>1225</ele>
        <time>2013-02-09T10:10:35Z</time>
      </trkpt>
      <trkpt lat="43.0215" lon="0.11214">
        <ele>1226</ele>
        <time>2013-02-09T10:10:37Z</time>
      </trkpt>
      <trkpt lat="43.02149" lon="0.11212">
        <ele>1226</ele>
        <time>2013-02-09T10:10:39Z</time>
      </trkpt>
      <trkpt lat="43.02149" lon="0.11211">
        <ele>1226</ele>
        <time>2013-02-09T10:10:41Z</time>
      </trkpt>
      <trkpt lat="43.02148" lon="0.11209">
        <ele>1227</ele>
        <time>2013-02-09T10:10:43Z</time>
      </trkpt>
      <trkpt lat="43.02148" lon="0.11207">
        <ele>1227</ele>
        <time>2013-02-09T10:10:45Z</time>
      </trkpt>
      <trkpt lat="43.02148" lon="0.11205">
        <ele>1227</ele>
        <time>2013-02-09T10:10:47Z</time>
      </trkpt>
      <trkpt lat="43.02148" lon="0.11203">
        <ele>1227</ele>
        <time>2013-02-09T10:10:49Z</time>
      </trkpt>
      <trkpt lat="43.02147" lon="0.11201">
        <ele>1228</ele>
        <time>2013-02-09T10:10:51Z</time>
      </trkpt>
      <trkpt lat="43.02146" lon="0.112">
        <ele>1228</ele>
        <time>2013-02-09T10:10:53Z</time>
      </trkpt>
      <trkpt lat="43.02146" lon="0.11198">
        <ele>1229</ele>
        <time>2013-02-09T10:10:55Z</time>
      </trkpt>
      <trkpt lat="43.02145" lon="0.11196">
        <ele>1229</ele>
        <time>2013-02-09T10:10:57Z</time>
      </trkpt>
      <trkpt lat="43.02145" lon="0.11195">
        <ele>1229</ele>
        <time>2013-02-09T10:10:59Z</time>
      </trkpt>
      <trkpt lat="43.02145" lon="0.11192">
        <ele>1229</ele>
        <time>2013-02-09T10:11:01Z</time>
      </trkpt>
      <trkpt lat="43.02145" lon="0.1119">
        <ele>1230</ele>
        <time>2013-02-09T10:11:03Z</time>
      </trkpt>
      <trkpt lat="43.02145" lon="0.11188">
        <ele>1230</ele>
        <time>2013-02-09T10:11:05Z</time>
      </trkpt>
      <trkpt lat="43.02145" lon="0.11187">
        <ele>1230</ele>
        <time>2013-02-09T10:11:07Z</time>
      </trkpt>
      <trkpt lat="43.02144" lon="0.11185">
        <ele>1231</ele>
        <time>2013-02-09T10:11:09Z</time>
      </trkpt>
      <trkpt lat="43.02144" lon="0.11184">
        <ele>1231</ele>
        <time>2013-02-09T10:11:11Z</time>
      </trkpt>
      <trkpt lat="43.02144" lon="0.11182">
        <ele>1231</ele>
        <time>2013-02-09T10:11:13Z</time>
      </trkpt>
      <trkpt lat="43.02143" lon="0.1118">
        <ele>1231</ele>
        <time>2013-02-09T10:11:15Z</time>
      </trkpt>
      <trkpt lat="43.02143" lon="0.11179">
        <ele>1231</ele>
        <time>2013-02-09T10:11:17Z</time>
      </trkpt>
      <trkpt lat="43.02143" lon="0.11176">
        <ele>1231</ele>
        <time>2013-02-09T10:11:19Z</time>
      </trkpt>
      <trkpt lat="43.02143" lon="0.11175">
        <ele>1231</ele>
        <time>2013-02-09T10:11:21Z</time>
      </trkpt>
      <trkpt lat="43.02143" lon="0.11173">
        <ele>1231</ele>
        <time>2013-02-09T10:11:23Z</time>
      </trkpt>
      <trkpt lat="43.02143" lon="0.11171">
        <ele>1231</ele>
        <time>2013-02-09T10:11:25Z</time>
      </trkpt>
      <trkpt lat="43.02143" lon="0.11169">
        <ele>1231</ele>
        <time>2013-02-09T10:11:27Z</time>
      </trkpt>
      <trkpt lat="43.02142" lon="0.11167">
        <ele>1232</ele>
        <time>2013-02-09T10:11:29Z</time>
      </trkpt>
      <trkpt lat="43.02142" lon="0.11165">
        <ele>1232</ele>
        <time>2013-02-09T10:11:31Z</time>
      </trkpt>
      <trkpt lat="43.02142" lon="0.11163">
        <ele>1232</ele>
        <time>2013-02-09T10:11:33Z</time>
      </trkpt>
      <trkpt lat="43.02142" lon="0.11161">
        <ele>1232</ele>
        <time>2013-02-09T10:11:35Z</time>
      </trkpt>
      <trkpt lat="43.02142" lon="0.11159">
        <ele>1233</ele>
        <time>2013-02-09T10:11:37Z</time>
      </trkpt>
      <trkpt lat="43.02141" lon="0.11157">
        <ele>1233</ele>
        <time>2013-02-09T10:11:39Z</time>
      </trkpt>
      <trkpt lat="43.02141" lon="0.11154">
        <ele>1233</ele>
        <time>2013-02-09T10:11:41Z</time>
      </trkpt>
      <trkpt lat="43.02141" lon="0.11152">
        <ele>1233</ele>
        <time>2013-02-09T10:11:43Z</time>
      </trkpt>
      <trkpt lat="43.02141" lon="0.11149">
        <ele>1233</ele>
        <time>2013-02-09T10:11:45Z</time>
      </trkpt>
      <trkpt lat="43.02141" lon="0.11146">
        <ele>1234</ele>
        <time>2013-02-09T10:11:47Z</time>
      </trkpt>
      <trkpt lat="43.02141" lon="0.11144">
        <ele>1234</ele>
        <time>2013-02-09T10:11:49Z</time>
      </trkpt>
      <trkpt lat="43.02141" lon="0.11142">
        <ele>1234</ele>
        <time>2013-02-09T10:11:51Z</time>
      </trkpt>
      <trkpt lat="43.0214" lon="0.11139">
        <ele>1234</ele>
        <time>2013-02-09T10:11:53Z</time>
      </trkpt>
      <trkpt lat="43.0214" lon="0.11137">
        <ele>1234</ele>
        <time>2013-02-09T10:11:55Z</time>
      </trkpt>
      <trkpt lat="43.0214" lon="0.11134">
        <ele>1234</ele>
        <time>2013-02-09T10:11:57Z</time>
      </trkpt>
      <trkpt lat="43.0214" lon="0.11132">
        <ele>1234</ele>
        <time>2013-02-09T10:11:59Z</time>
      </trkpt>
      <trkpt lat="43.0214" lon="0.1113">
        <ele>1234</ele>
        <time>2013-02-09T10:12:00Z</time>
      </trkpt>
      <trkpt lat="43.0214" lon="0.11128">
        <ele>1234</ele>
        <time>2013-02-09T10:12:02Z</time>
      </trkpt>
      <trkpt lat="43.0214" lon="0.11126">
        <ele>1234</ele>
        <time>2013-02-09T10:12:03Z</time>
      </trkpt>
      <trkpt lat="43.0214" lon="0.11124">
        <ele>1235</ele>
        <time>2013-02-09T10:12:05Z</time>
      </trkpt>
      <trkpt lat="43.0214" lon="0.11121">
        <ele>1235</ele>
        <time>2013-02-09T10:12:07Z</time>
      </trkpt>
      <trkpt lat="43.0214" lon="0.1112">
        <ele>1235</ele>
        <time>2013-02-09T10:12:08Z</time>
      </trkpt>
      <trkpt lat="43.0214" lon="0.11118">
        <ele>1235</ele>
        <time>2013-02-09T10:12:10Z</time>
      </trkpt>
      <trkpt lat="43.0214" lon="0.11116">
        <ele>1235</ele>
        <time>2013-02-09T10:12:11Z</time>
      </trkpt>
      <trkpt lat="43.02139" lon="0.11114">
        <ele>1235</ele>
        <time>2013-02-09T10:12:13Z</time>
      </trkpt>
      <trkpt lat="43.0214" lon="0.11112">
        <ele>1235</ele>
        <time>2013-02-09T10:12:15Z</time>
      </trkpt>
      <trkpt lat="43.0214" lon="0.11109">
        <ele>1235</ele>
        <time>2013-02-09T10:12:17Z</time>
      </trkpt>
      <trkpt lat="43.0214" lon="0.11107">
        <ele>1235</ele>
        <time>2013-02-09T10:12:19Z</time>
      </trkpt>
      <trkpt lat="43.0214" lon="0.11104">
        <ele>1235</ele>
        <time>2013-02-09T10:12:21Z</time>
      </trkpt>
      <trkpt lat="43.02141" lon="0.11102">
        <ele>1235</ele>
        <time>2013-02-09T10:12:23Z</time>
      </trkpt>
      <trkpt lat="43.02141" lon="0.111">
        <ele>1235</ele>
        <time>2013-02-09T10:12:25Z</time>
      </trkpt>
      <trkpt lat="43.02142" lon="0.11097">
        <ele>1235</ele>
        <time>2013-02-09T10:12:27Z</time>
      </trkpt>
      <trkpt lat="43.02141" lon="0.11095">
        <ele>1235</ele>
        <time>2013-02-09T10:12:29Z</time>
      </trkpt>
      <trkpt lat="43.02141" lon="0.11093">
        <ele>1235</ele>
        <time>2013-02-09T10:12:31Z</time>
      </trkpt>
      <trkpt lat="43.02141" lon="0.11091">
        <ele>1235</ele>
        <time>2013-02-09T10:12:33Z</time>
      </trkpt>
      <trkpt lat="43.02141" lon="0.11089">
        <ele>1235</ele>
        <time>2013-02-09T10:12:35Z</time>
      </trkpt>
      <trkpt lat="43.02141" lon="0.11086">
        <ele>1235</ele>
        <time>2013-02-09T10:12:37Z</time>
      </trkpt>
      <trkpt lat="43.02142" lon="0.11084">
        <ele>1236</ele>
        <time>2013-02-09T10:12:39Z</time>
      </trkpt>
      <trkpt lat="43.02142" lon="0.11081">
        <ele>1236</ele>
        <time>2013-02-09T10:12:41Z</time>
      </trkpt>
      <trkpt lat="43.02142" lon="0.11079">
        <ele>1237</ele>
        <time>2013-02-09T10:12:43Z</time>
      </trkpt>
      <trkpt lat="43.02142" lon="0.11077">
        <ele>1237</ele>
        <time>2013-02-09T10:12:45Z</time>
      </trkpt>
      <trkpt lat="43.02142" lon="0.11074">
        <ele>1237</ele>
        <time>2013-02-09T10:12:47Z</time>
      </trkpt>
      <trkpt lat="43.02143" lon="0.11073">
        <ele>1237</ele>
        <time>2013-02-09T10:12:48Z</time>
      </trkpt>
      <trkpt lat="43.02143" lon="0.11071">
        <ele>1237</ele>
        <time>2013-02-09T10:12:50Z</time>
      </trkpt>
      <trkpt lat="43.02142" lon="0.11068">
        <ele>1238</ele>
        <time>2013-02-09T10:12:52Z</time>
      </trkpt>
      <trkpt lat="43.02143" lon="0.11066">
        <ele>1238</ele>
        <time>2013-02-09T10:12:54Z</time>
      </trkpt>
      <trkpt lat="43.02143" lon="0.11064">
        <ele>1238</ele>
        <time>2013-02-09T10:12:56Z</time>
      </trkpt>
      <trkpt lat="43.02142" lon="0.11062">
        <ele>1238</ele>
        <time>2013-02-09T10:12:58Z</time>
      </trkpt>
      <trkpt lat="43.02143" lon="0.1106">
        <ele>1238</ele>
        <time>2013-02-09T10:13:00Z</time>
      </trkpt>
      <trkpt lat="43.02143" lon="0.11058">
        <ele>1238</ele>
        <time>2013-02-09T10:13:02Z</time>
      </trkpt>
      <trkpt lat="43.02143" lon="0.11056">
        <ele>1238</ele>
        <time>2013-02-09T10:13:04Z</time>
      </trkpt>
      <trkpt lat="43.02143" lon="0.11054">
        <ele>1238</ele>
        <time>2013-02-09T10:13:06Z</time>
      </trkpt>
      <trkpt lat="43.02144" lon="0.11052">
        <ele>1238</ele>
        <time>2013-02-09T10:13:08Z</time>
      </trkpt>
      <trkpt lat="43.02144" lon="0.1105">
        <ele>1238</ele>
        <time>2013-02-09T10:13:10Z</time>
      </trkpt>
      <trkpt lat="43.02145" lon="0.11049">
        <ele>1239</ele>
        <time>2013-02-09T10:13:12Z</time>
      </trkpt>
      <trkpt lat="43.02145" lon="0.11047">
        <ele>1239</ele>
        <time>2013-02-09T10:13:14Z</time>
      </trkpt>
      <trkpt lat="43.02145" lon="0.11045">
        <ele>1239</ele>
        <time>2013-02-09T10:13:16Z</time>
      </trkpt>
      <trkpt lat="43.02145" lon="0.11043">
        <ele>1240</ele>
        <time>2013-02-09T10:13:18Z</time>
      </trkpt>
      <trkpt lat="43.02145" lon="0.11041">
        <ele>1240</ele>
        <time>2013-02-09T10:13:20Z</time>
      </trkpt>
      <trkpt lat="43.02145" lon="0.11039">
        <ele>1240</ele>
        <time>2013-02-09T10:13:22Z</time>
      </trkpt>
      <trkpt lat="43.02145" lon="0.11037">
        <ele>1240</ele>
        <time>2013-02-09T10:13:24Z</time>
      </trkpt>
      <trkpt lat="43.02146" lon="0.11035">
        <ele>1241</ele>
        <time>2013-02-09T10:13:26Z</time>
      </trkpt>
      <trkpt lat="43.02146" lon="0.11033">
        <ele>1241</ele>
        <time>2013-02-09T10:13:28Z</time>
      </trkpt>
      <trkpt lat="43.02147" lon="0.11031">
        <ele>1241</ele>
        <time>2013-02-09T10:13:30Z</time>
      </trkpt>
      <trkpt lat="43.02147" lon="0.11029">
        <ele>1241</ele>
        <time>2013-02-09T10:13:32Z</time>
      </trkpt>
      <trkpt lat="43.02148" lon="0.11028">
        <ele>1242</ele>
        <time>2013-02-09T10:13:34Z</time>
      </trkpt>
      <trkpt lat="43.02148" lon="0.11026">
        <ele>1242</ele>
        <time>2013-02-09T10:13:36Z</time>
      </trkpt>
      <trkpt lat="43.02148" lon="0.11024">
        <ele>1243</ele>
        <time>2013-02-09T10:13:38Z</time>
      </trkpt>
      <trkpt lat="43.02148" lon="0.11022">
        <ele>1243</ele>
        <time>2013-02-09T10:13:40Z</time>
      </trkpt>
      <trkpt lat="43.02148" lon="0.1102">
        <ele>1244</ele>
        <time>2013-02-09T10:13:42Z</time>
      </trkpt>
      <trkpt lat="43.02148" lon="0.11018">
        <ele>1244</ele>
        <time>2013-02-09T10:13:44Z</time>
      </trkpt>
      <trkpt lat="43.02148" lon="0.11015">
        <ele>1244</ele>
        <time>2013-02-09T10:13:46Z</time>
      </trkpt>
      <trkpt lat="43.02148" lon="0.11013">
        <ele>1244</ele>
        <time>2013-02-09T10:13:48Z</time>
      </trkpt>
      <trkpt lat="43.02149" lon="0.11011">
        <ele>1245</ele>
        <time>2013-02-09T10:13:50Z</time>
      </trkpt>
      <trkpt lat="43.02149" lon="0.11009">
        <ele>1245</ele>
        <time>2013-02-09T10:13:52Z</time>
      </trkpt>
      <trkpt lat="43.0215" lon="0.11007">
        <ele>1245</ele>
        <time>2013-02-09T10:13:54Z</time>
      </trkpt>
      <trkpt lat="43.0215" lon="0.11004">
        <ele>1245</ele>
        <time>2013-02-09T10:13:56Z</time>
      </trkpt>
      <trkpt lat="43.0215" lon="0.11003">
        <ele>1245</ele>
        <time>2013-02-09T10:13:58Z</time>
      </trkpt>
      <trkpt lat="43.02151" lon="0.11001">
        <ele>1245</ele>
        <time>2013-02-09T10:14:00Z</time>
      </trkpt>
      <trkpt lat="43.02151" lon="0.10999">
        <ele>1245</ele>
        <time>2013-02-09T10:14:02Z</time>
      </trkpt>
      <trkpt lat="43.02152" lon="0.10996">
        <ele>1245</ele>
        <time>2013-02-09T10:14:04Z</time>
      </trkpt>
      <trkpt lat="43.02152" lon="0.10994">
        <ele>1245</ele>
        <time>2013-02-09T10:14:06Z</time>
      </trkpt>
      <trkpt lat="43.02153" lon="0.10993">
        <ele>1245</ele>
        <time>2013-02-09T10:14:08Z</time>
      </trkpt>
      <trkpt lat="43.02154" lon="0.10991">
        <ele>1245</ele>
        <time>2013-02-09T10:14:10Z</time>
      </trkpt>
      <trkpt lat="43.02154" lon="0.10989">
        <ele>1246</ele>
        <time>2013-02-09T10:14:12Z</time>
      </trkpt>
      <trkpt lat="43.02155" lon="0.10987">
        <ele>1247</ele>
        <time>2013-02-09T10:14:14Z</time>
      </trkpt>
      <trkpt lat="43.02155" lon="0.10985">
        <ele>1247</ele>
        <time>2013-02-09T10:14:16Z</time>
      </trkpt>
      <trkpt lat="43.02156" lon="0.10984">
        <ele>1248</ele>
        <time>2013-02-09T10:14:18Z</time>
      </trkpt>
      <trkpt lat="43.02157" lon="0.10982">
        <ele>1249</ele>
        <time>2013-02-09T10:14:20Z</time>
      </trkpt>
      <trkpt lat="43.02158" lon="0.1098">
        <ele>1250</ele>
        <time>2013-02-09T10:14:22Z</time>
      </trkpt>
      <trkpt lat="43.02158" lon="0.10979">
        <ele>1250</ele>
        <time>2013-02-09T10:14:24Z</time>
      </trkpt>
      <trkpt lat="43.02159" lon="0.10977">
        <ele>1251</ele>
        <time>2013-02-09T10:14:26Z</time>
      </trkpt>
      <trkpt lat="43.0216" lon="0.10976">
        <ele>1251</ele>
        <time>2013-02-09T10:14:28Z</time>
      </trkpt>
      <trkpt lat="43.0216" lon="0.10974">
        <ele>1251</ele>
        <time>2013-02-09T10:14:30Z</time>
      </trkpt>
      <trkpt lat="43.02161" lon="0.10972">
        <ele>1251</ele>
        <time>2013-02-09T10:14:32Z</time>
      </trkpt>
      <trkpt lat="43.02162" lon="0.1097">
        <ele>1251</ele>
        <time>2013-02-09T10:14:34Z</time>
      </trkpt>
      <trkpt lat="43.02163" lon="0.10968">
        <ele>1251</ele>
        <time>2013-02-09T10:14:36Z</time>
      </trkpt>
      <trkpt lat="43.02163" lon="0.10967">
        <ele>1252</ele>
        <time>2013-02-09T10:14:38Z</time>
      </trkpt>
      <trkpt lat="43.02164" lon="0.10965">
        <ele>1252</ele>
        <time>2013-02-09T10:14:40Z</time>
      </trkpt>
      <trkpt lat="43.02164" lon="0.10963">
        <ele>1252</ele>
        <time>2013-02-09T10:14:42Z</time>
      </trkpt>
      <trkpt lat="43.02164" lon="0.10961">
        <ele>1252</ele>
        <time>2013-02-09T10:14:45Z</time>
      </trkpt>
      <trkpt lat="43.02164" lon="0.1096">
        <ele>1253</ele>
        <time>2013-02-09T10:14:47Z</time>
      </trkpt>
      <trkpt lat="43.02165" lon="0.10958">
        <ele>1254</ele>
        <time>2013-02-09T10:14:49Z</time>
      </trkpt>
      <trkpt lat="43.02165" lon="0.10956">
        <ele>1255</ele>
        <time>2013-02-09T10:14:51Z</time>
      </trkpt>
      <trkpt lat="43.02166" lon="0.10955">
        <ele>1255</ele>
        <time>2013-02-09T10:14:53Z</time>
      </trkpt>
      <trkpt lat="43.02167" lon="0.10953">
        <ele>1255</ele>
        <time>2013-02-09T10:14:55Z</time>
      </trkpt>
      <trkpt lat="43.02168" lon="0.10952">
        <ele>1255</ele>
        <time>2013-02-09T10:14:57Z</time>
      </trkpt>
      <trkpt lat="43.02169" lon="0.1095">
        <ele>1255</ele>
        <time>2013-02-09T10:14:59Z</time>
      </trkpt>
      <trkpt lat="43.02169" lon="0.10949">
        <ele>1255</ele>
        <time>2013-02-09T10:15:01Z</time>
      </trkpt>
      <trkpt lat="43.0217" lon="0.10947">
        <ele>1255</ele>
        <time>2013-02-09T10:15:04Z</time>
      </trkpt>
      <trkpt lat="43.02171" lon="0.10945">
        <ele>1255</ele>
        <time>2013-02-09T10:15:07Z</time>
      </trkpt>
      <trkpt lat="43.02171" lon="0.10943">
        <ele>1255</ele>
        <time>2013-02-09T10:15:09Z</time>
      </trkpt>
      <trkpt lat="43.02171" lon="0.10942">
        <ele>1255</ele>
        <time>2013-02-09T10:15:11Z</time>
      </trkpt>
      <trkpt lat="43.02172" lon="0.1094">
        <ele>1255</ele>
        <time>2013-02-09T10:15:13Z</time>
      </trkpt>
      <trkpt lat="43.02172" lon="0.10938">
        <ele>1255</ele>
        <time>2013-02-09T10:15:15Z</time>
      </trkpt>
      <trkpt lat="43.02172" lon="0.10936">
        <ele>1255</ele>
        <time>2013-02-09T10:15:17Z</time>
      </trkpt>
      <trkpt lat="43.02173" lon="0.10934">
        <ele>1255</ele>
        <time>2013-02-09T10:15:19Z</time>
      </trkpt>
      <trkpt lat="43.02172" lon="0.10933">
        <ele>1256</ele>
        <time>2013-02-09T10:15:21Z</time>
      </trkpt>
      <trkpt lat="43.02172" lon="0.10931">
        <ele>1257</ele>
        <time>2013-02-09T10:15:23Z</time>
      </trkpt>
      <trkpt lat="43.02172" lon="0.1093">
        <ele>1257</ele>
        <time>2013-02-09T10:15:25Z</time>
      </trkpt>
      <trkpt lat="43.02172" lon="0.10928">
        <ele>1258</ele>
        <time>2013-02-09T10:15:27Z</time>
      </trkpt>
      <trkpt lat="43.02172" lon="0.10926">
        <ele>1258</ele>
        <time>2013-02-09T10:15:29Z</time>
      </trkpt>
      <trkpt lat="43.02172" lon="0.10925">
        <ele>1259</ele>
        <time>2013-02-09T10:15:31Z</time>
      </trkpt>
      <trkpt lat="43.02172" lon="0.10923">
        <ele>1259</ele>
        <time>2013-02-09T10:15:33Z</time>
      </trkpt>
      <trkpt lat="43.02172" lon="0.10921">
        <ele>1260</ele>
        <time>2013-02-09T10:15:35Z</time>
      </trkpt>
      <trkpt lat="43.02172" lon="0.10919">
        <ele>1260</ele>
        <time>2013-02-09T10:15:37Z</time>
      </trkpt>
      <trkpt lat="43.02172" lon="0.10917">
        <ele>1260</ele>
        <time>2013-02-09T10:15:39Z</time>
      </trkpt>
      <trkpt lat="43.02171" lon="0.10915">
        <ele>1261</ele>
        <time>2013-02-09T10:15:41Z</time>
      </trkpt>
      <trkpt lat="43.02171" lon="0.10914">
        <ele>1261</ele>
        <time>2013-02-09T10:15:43Z</time>
      </trkpt>
      <trkpt lat="43.02171" lon="0.10912">
        <ele>1262</ele>
        <time>2013-02-09T10:15:45Z</time>
      </trkpt>
      <trkpt lat="43.02171" lon="0.1091">
        <ele>1262</ele>
        <time>2013-02-09T10:15:47Z</time>
      </trkpt>
      <trkpt lat="43.02171" lon="0.10909">
        <ele>1262</ele>
        <time>2013-02-09T10:15:49Z</time>
      </trkpt>
      <trkpt lat="43.0217" lon="0.10907">
        <ele>1263</ele>
        <time>2013-02-09T10:15:52Z</time>
      </trkpt>
      <trkpt lat="43.0217" lon="0.10905">
        <ele>1263</ele>
        <time>2013-02-09T10:15:54Z</time>
      </trkpt>
      <trkpt lat="43.0217" lon="0.10903">
        <ele>1264</ele>
        <time>2013-02-09T10:15:56Z</time>
      </trkpt>
      <trkpt lat="43.02169" lon="0.10901">
        <ele>1265</ele>
        <time>2013-02-09T10:15:58Z</time>
      </trkpt>
      <trkpt lat="43.02168" lon="0.10899">
        <ele>1265</ele>
        <time>2013-02-09T10:16:00Z</time>
      </trkpt>
      <trkpt lat="43.02168" lon="0.10897">
        <ele>1266</ele>
        <time>2013-02-09T10:16:02Z</time>
      </trkpt>
      <trkpt lat="43.02168" lon="0.10894">
        <ele>1266</ele>
        <time>2013-02-09T10:16:04Z</time>
      </trkpt>
      <trkpt lat="43.02167" lon="0.10892">
        <ele>1267</ele>
        <time>2013-02-09T10:16:06Z</time>
      </trkpt>
      <trkpt lat="43.02167" lon="0.10891">
        <ele>1267</ele>
        <time>2013-02-09T10:16:08Z</time>
      </trkpt>
      <trkpt lat="43.02167" lon="0.10889">
        <ele>1267</ele>
        <time>2013-02-09T10:16:10Z</time>
      </trkpt>
      <trkpt lat="43.02167" lon="0.10887">
        <ele>1267</ele>
        <time>2013-02-09T10:16:12Z</time>
      </trkpt>
      <trkpt lat="43.02167" lon="0.10884">
        <ele>1267</ele>
        <time>2013-02-09T10:16:14Z</time>
      </trkpt>
      <trkpt lat="43.02167" lon="0.10882">
        <ele>1267</ele>
        <time>2013-02-09T10:16:16Z</time>
      </trkpt>
      <trkpt lat="43.02167" lon="0.10881">
        <ele>1267</ele>
        <time>2013-02-09T10:16:17Z</time>
      </trkpt>
      <trkpt lat="43.02168" lon="0.10879">
        <ele>1267</ele>
        <time>2013-02-09T10:16:19Z</time>
      </trkpt>
      <trkpt lat="43.02168" lon="0.10876">
        <ele>1268</ele>
        <time>2013-02-09T10:16:21Z</time>
      </trkpt>
      <trkpt lat="43.02168" lon="0.10875">
        <ele>1268</ele>
        <time>2013-02-09T10:16:23Z</time>
      </trkpt>
      <trkpt lat="43.02168" lon="0.10872">
        <ele>1268</ele>
        <time>2013-02-09T10:16:25Z</time>
      </trkpt>
      <trkpt lat="43.02168" lon="0.1087">
        <ele>1269</ele>
        <time>2013-02-09T10:16:27Z</time>
      </trkpt>
      <trkpt lat="43.02168" lon="0.10869">
        <ele>1269</ele>
        <time>2013-02-09T10:16:29Z</time>
      </trkpt>
      <trkpt lat="43.02168" lon="0.10867">
        <ele>1269</ele>
        <time>2013-02-09T10:16:31Z</time>
      </trkpt>
      <trkpt lat="43.02168" lon="0.10865">
        <ele>1269</ele>
        <time>2013-02-09T10:16:33Z</time>
      </trkpt>
      <trkpt lat="43.02168" lon="0.10863">
        <ele>1270</ele>
        <time>2013-02-09T10:16:35Z</time>
      </trkpt>
      <trkpt lat="43.02168" lon="0.10861">
        <ele>1270</ele>
        <time>2013-02-09T10:16:37Z</time>
      </trkpt>
      <trkpt lat="43.02168" lon="0.10859">
        <ele>1271</ele>
        <time>2013-02-09T10:16:39Z</time>
      </trkpt>
      <trkpt lat="43.02168" lon="0.10857">
        <ele>1271</ele>
        <time>2013-02-09T10:16:41Z</time>
      </trkpt>
      <trkpt lat="43.02168" lon="0.10854">
        <ele>1271</ele>
        <time>2013-02-09T10:16:43Z</time>
      </trkpt>
      <trkpt lat="43.02168" lon="0.10853">
        <ele>1271</ele>
        <time>2013-02-09T10:16:45Z</time>
      </trkpt>
      <trkpt lat="43.02168" lon="0.10851">
        <ele>1271</ele>
        <time>2013-02-09T10:16:47Z</time>
      </trkpt>
      <trkpt lat="43.02168" lon="0.10849">
        <ele>1271</ele>
        <time>2013-02-09T10:16:49Z</time>
      </trkpt>
      <trkpt lat="43.02169" lon="0.10847">
        <ele>1271</ele>
        <time>2013-02-09T10:16:51Z</time>
      </trkpt>
      <trkpt lat="43.02169" lon="0.10845">
        <ele>1271</ele>
        <time>2013-02-09T10:16:53Z</time>
      </trkpt>
      <trkpt lat="43.02169" lon="0.10843">
        <ele>1271</ele>
        <time>2013-02-09T10:16:55Z</time>
      </trkpt>
      <trkpt lat="43.02169" lon="0.10841">
        <ele>1271</ele>
        <time>2013-02-09T10:16:57Z</time>
      </trkpt>
      <trkpt lat="43.0217" lon="0.1084">
        <ele>1271</ele>
        <time>2013-02-09T10:16:59Z</time>
      </trkpt>
      <trkpt lat="43.02171" lon="0.10838">
        <ele>1271</ele>
        <time>2013-02-09T10:17:01Z</time>
      </trkpt>
      <trkpt lat="43.02171" lon="0.10836">
        <ele>1271</ele>
        <time>2013-02-09T10:17:03Z</time>
      </trkpt>
      <trkpt lat="43.02172" lon="0.10834">
        <ele>1272</ele>
        <time>2013-02-09T10:17:05Z</time>
      </trkpt>
      <trkpt lat="43.02172" lon="0.10832">
        <ele>1272</ele>
        <time>2013-02-09T10:17:07Z</time>
      </trkpt>
      <trkpt lat="43.02172" lon="0.10831">
        <ele>1272</ele>
        <time>2013-02-09T10:17:09Z</time>
      </trkpt>
      <trkpt lat="43.02172" lon="0.10829">
        <ele>1272</ele>
        <time>2013-02-09T10:17:11Z</time>
      </trkpt>
      <trkpt lat="43.02172" lon="0.10827">
        <ele>1272</ele>
        <time>2013-02-09T10:17:13Z</time>
      </trkpt>
      <trkpt lat="43.02172" lon="0.10825">
        <ele>1272</ele>
        <time>2013-02-09T10:17:15Z</time>
      </trkpt>
      <trkpt lat="43.02172" lon="0.10824">
        <ele>1272</ele>
        <time>2013-02-09T10:17:17Z</time>
      </trkpt>
      <trkpt lat="43.02171" lon="0.10821">
        <ele>1272</ele>
        <time>2013-02-09T10:17:19Z</time>
      </trkpt>
      <trkpt lat="43.02171" lon="0.1082">
        <ele>1272</ele>
        <time>2013-02-09T10:17:21Z</time>
      </trkpt>
      <trkpt lat="43.02171" lon="0.10818">
        <ele>1273</ele>
        <time>2013-02-09T10:17:23Z</time>
      </trkpt>
      <trkpt lat="43.02171" lon="0.10816">
        <ele>1273</ele>
        <time>2013-02-09T10:17:25Z</time>
      </trkpt>
      <trkpt lat="43.02171" lon="0.10814">
        <ele>1273</ele>
        <time>2013-02-09T10:17:27Z</time>
      </trkpt>
      <trkpt lat="43.02172" lon="0.10813">
        <ele>1273</ele>
        <time>2013-02-09T10:17:29Z</time>
      </trkpt>
      <trkpt lat="43.02172" lon="0.10811">
        <ele>1274</ele>
        <time>2013-02-09T10:17:31Z</time>
      </trkpt>
      <trkpt lat="43.02171" lon="0.10809">
        <ele>1274</ele>
        <time>2013-02-09T10:17:33Z</time>
      </trkpt>
      <trkpt lat="43.02172" lon="0.10808">
        <ele>1274</ele>
        <time>2013-02-09T10:17:35Z</time>
      </trkpt>
      <trkpt lat="43.02172" lon="0.10806">
        <ele>1274</ele>
        <time>2013-02-09T10:17:37Z</time>
      </trkpt>
      <trkpt lat="43.02172" lon="0.10804">
        <ele>1274</ele>
        <time>2013-02-09T10:17:39Z</time>
      </trkpt>
      <trkpt lat="43.02172" lon="0.10802">
        <ele>1274</ele>
        <time>2013-02-09T10:17:41Z</time>
      </trkpt>
      <trkpt lat="43.02172" lon="0.108">
        <ele>1274</ele>
        <time>2013-02-09T10:17:43Z</time>
      </trkpt>
      <trkpt lat="43.02172" lon="0.10797">
        <ele>1275</ele>
        <time>2013-02-09T10:17:45Z</time>
      </trkpt>
      <trkpt lat="43.02172" lon="0.10795">
        <ele>1276</ele>
        <time>2013-02-09T10:17:47Z</time>
      </trkpt>
      <trkpt lat="43.02172" lon="0.10793">
        <ele>1276</ele>
        <time>2013-02-09T10:17:49Z</time>
      </trkpt>
      <trkpt lat="43.02172" lon="0.10791">
        <ele>1277</ele>
        <time>2013-02-09T10:17:51Z</time>
      </trkpt>
      <trkpt lat="43.02172" lon="0.10789">
        <ele>1277</ele>
        <time>2013-02-09T10:17:53Z</time>
      </trkpt>
      <trkpt lat="43.02172" lon="0.10787">
        <ele>1277</ele>
        <time>2013-02-09T10:17:55Z</time>
      </trkpt>
      <trkpt lat="43.02172" lon="0.10785">
        <ele>1278</ele>
        <time>2013-02-09T10:17:57Z</time>
      </trkpt>
      <trkpt lat="43.02172" lon="0.10783">
        <ele>1278</ele>
        <time>2013-02-09T10:17:59Z</time>
      </trkpt>
      <trkpt lat="43.02173" lon="0.10781">
        <ele>1279</ele>
        <time>2013-02-09T10:18:01Z</time>
      </trkpt>
      <trkpt lat="43.02173" lon="0.1078">
        <ele>1279</ele>
        <time>2013-02-09T10:18:03Z</time>
      </trkpt>
      <trkpt lat="43.02173" lon="0.10778">
        <ele>1280</ele>
        <time>2013-02-09T10:18:05Z</time>
      </trkpt>
      <trkpt lat="43.02174" lon="0.10776">
        <ele>1280</ele>
        <time>2013-02-09T10:18:07Z</time>
      </trkpt>
      <trkpt lat="43.02174" lon="0.10774">
        <ele>1281</ele>
        <time>2013-02-09T10:18:09Z</time>
      </trkpt>
      <trkpt lat="43.02174" lon="0.10772">
        <ele>1281</ele>
        <time>2013-02-09T10:18:11Z</time>
      </trkpt>
      <trkpt lat="43.02174" lon="0.1077">
        <ele>1281</ele>
        <time>2013-02-09T10:18:13Z</time>
      </trkpt>
      <trkpt lat="43.02174" lon="0.10768">
        <ele>1281</ele>
        <time>2013-02-09T10:18:15Z</time>
      </trkpt>
      <trkpt lat="43.02174" lon="0.10767">
        <ele>1282</ele>
        <time>2013-02-09T10:18:17Z</time>
      </trkpt>
      <trkpt lat="43.02174" lon="0.10765">
        <ele>1282</ele>
        <time>2013-02-09T10:18:19Z</time>
      </trkpt>
      <trkpt lat="43.02174" lon="0.10763">
        <ele>1282</ele>
        <time>2013-02-09T10:18:21Z</time>
      </trkpt>
      <trkpt lat="43.02174" lon="0.10761">
        <ele>1282</ele>
        <time>2013-02-09T10:18:23Z</time>
      </trkpt>
      <trkpt lat="43.02174" lon="0.10759">
        <ele>1283</ele>
        <time>2013-02-09T10:18:25Z</time>
      </trkpt>
      <trkpt lat="43.02174" lon="0.10757">
        <ele>1283</ele>
        <time>2013-02-09T10:18:27Z</time>
      </trkpt>
      <trkpt lat="43.02175" lon="0.10755">
        <ele>1283</ele>
        <time>2013-02-09T10:18:29Z</time>
      </trkpt>
      <trkpt lat="43.02175" lon="0.10753">
        <ele>1283</ele>
        <time>2013-02-09T10:18:31Z</time>
      </trkpt>
      <trkpt lat="43.02175" lon="0.10751">
        <ele>1284</ele>
        <time>2013-02-09T10:18:33Z</time>
      </trkpt>
      <trkpt lat="43.02175" lon="0.1075">
        <ele>1284</ele>
        <time>2013-02-09T10:18:35Z</time>
      </trkpt>
      <trkpt lat="43.02175" lon="0.10747">
        <ele>1285</ele>
        <time>2013-02-09T10:18:37Z</time>
      </trkpt>
      <trkpt lat="43.02176" lon="0.10745">
        <ele>1285</ele>
        <time>2013-02-09T10:18:39Z</time>
      </trkpt>
      <trkpt lat="43.02176" lon="0.10743">
        <ele>1286</ele>
        <time>2013-02-09T10:18:41Z</time>
      </trkpt>
      <trkpt lat="43.02176" lon="0.10741">
        <ele>1286</ele>
        <time>2013-02-09T10:18:43Z</time>
      </trkpt>
      <trkpt lat="43.02177" lon="0.10739">
        <ele>1286</ele>
        <time>2013-02-09T10:18:45Z</time>
      </trkpt>
      <trkpt lat="43.02177" lon="0.10737">
        <ele>1286</ele>
        <time>2013-02-09T10:18:47Z</time>
      </trkpt>
      <trkpt lat="43.02177" lon="0.10735">
        <ele>1286</ele>
        <time>2013-02-09T10:18:49Z</time>
      </trkpt>
      <trkpt lat="43.02178" lon="0.10733">
        <ele>1286</ele>
        <time>2013-02-09T10:18:51Z</time>
      </trkpt>
      <trkpt lat="43.02179" lon="0.10731">
        <ele>1286</ele>
        <time>2013-02-09T10:18:53Z</time>
      </trkpt>
      <trkpt lat="43.02179" lon="0.10729">
        <ele>1287</ele>
        <time>2013-02-09T10:18:55Z</time>
      </trkpt>
      <trkpt lat="43.0218" lon="0.10727">
        <ele>1287</ele>
        <time>2013-02-09T10:18:57Z</time>
      </trkpt>
      <trkpt lat="43.0218" lon="0.10725">
        <ele>1287</ele>
        <time>2013-02-09T10:18:59Z</time>
      </trkpt>
      <trkpt lat="43.0218" lon="0.10723">
        <ele>1287</ele>
        <time>2013-02-09T10:19:01Z</time>
      </trkpt>
      <trkpt lat="43.02181" lon="0.10721">
        <ele>1288</ele>
        <time>2013-02-09T10:19:03Z</time>
      </trkpt>
      <trkpt lat="43.02182" lon="0.10719">
        <ele>1288</ele>
        <time>2013-02-09T10:19:05Z</time>
      </trkpt>
      <trkpt lat="43.02182" lon="0.10718">
        <ele>1288</ele>
        <time>2013-02-09T10:19:07Z</time>
      </trkpt>
      <trkpt lat="43.02182" lon="0.10716">
        <ele>1288</ele>
        <time>2013-02-09T10:19:09Z</time>
      </trkpt>
      <trkpt lat="43.02182" lon="0.10713">
        <ele>1289</ele>
        <time>2013-02-09T10:19:11Z</time>
      </trkpt>
      <trkpt lat="43.02183" lon="0.10711">
        <ele>1289</ele>
        <time>2013-02-09T10:19:13Z</time>
      </trkpt>
      <trkpt lat="43.02184" lon="0.1071">
        <ele>1289</ele>
        <time>2013-02-09T10:19:15Z</time>
      </trkpt>
      <trkpt lat="43.02184" lon="0.10707">
        <ele>1289</ele>
        <time>2013-02-09T10:19:17Z</time>
      </trkpt>
      <trkpt lat="43.02185" lon="0.10706">
        <ele>1289</ele>
        <time>2013-02-09T10:19:19Z</time>
      </trkpt>
      <trkpt lat="43.02185" lon="0.10704">
        <ele>1289</ele>
        <time>2013-02-09T10:19:21Z</time>
      </trkpt>
      <trkpt lat="43.02185" lon="0.10701">
        <ele>1289</ele>
        <time>2013-02-09T10:19:23Z</time>
      </trkpt>
      <trkpt lat="43.02185" lon="0.10699">
        <ele>1289</ele>
        <time>2013-02-09T10:19:25Z</time>
      </trkpt>
      <trkpt lat="43.02185" lon="0.10697">
        <ele>1290</ele>
        <time>2013-02-09T10:19:27Z</time>
      </trkpt>
      <trkpt lat="43.02186" lon="0.10695">
        <ele>1290</ele>
        <time>2013-02-09T10:19:29Z</time>
      </trkpt>
      <trkpt lat="43.02186" lon="0.10693">
        <ele>1290</ele>
        <time>2013-02-09T10:19:31Z</time>
      </trkpt>
      <trkpt lat="43.02186" lon="0.10691">
        <ele>1290</ele>
        <time>2013-02-09T10:19:33Z</time>
      </trkpt>
      <trkpt lat="43.02187" lon="0.10689">
        <ele>1290</ele>
        <time>2013-02-09T10:19:34Z</time>
      </trkpt>
      <trkpt lat="43.02187" lon="0.10687">
        <ele>1291</ele>
        <time>2013-02-09T10:19:36Z</time>
      </trkpt>
      <trkpt lat="43.02187" lon="0.10685">
        <ele>1291</ele>
        <time>2013-02-09T10:19:38Z</time>
      </trkpt>
      <trkpt lat="43.02188" lon="0.10683">
        <ele>1291</ele>
        <time>2013-02-09T10:19:40Z</time>
      </trkpt>
      <trkpt lat="43.02189" lon="0.10681">
        <ele>1292</ele>
        <time>2013-02-09T10:19:42Z</time>
      </trkpt>
      <trkpt lat="43.02189" lon="0.10679">
        <ele>1292</ele>
        <time>2013-02-09T10:19:44Z</time>
      </trkpt>
      <trkpt lat="43.0219" lon="0.10676">
        <ele>1292</ele>
        <time>2013-02-09T10:19:46Z</time>
      </trkpt>
      <trkpt lat="43.0219" lon="0.10674">
        <ele>1292</ele>
        <time>2013-02-09T10:19:48Z</time>
      </trkpt>
      <trkpt lat="43.0219" lon="0.10672">
        <ele>1292</ele>
        <time>2013-02-09T10:19:50Z</time>
      </trkpt>
      <trkpt lat="43.02191" lon="0.1067">
        <ele>1292</ele>
        <time>2013-02-09T10:19:52Z</time>
      </trkpt>
      <trkpt lat="43.02191" lon="0.10667">
        <ele>1292</ele>
        <time>2013-02-09T10:19:54Z</time>
      </trkpt>
      <trkpt lat="43.02191" lon="0.10665">
        <ele>1293</ele>
        <time>2013-02-09T10:19:56Z</time>
      </trkpt>
      <trkpt lat="43.02191" lon="0.10662">
        <ele>1294</ele>
        <time>2013-02-09T10:19:58Z</time>
      </trkpt>
      <trkpt lat="43.02191" lon="0.1066">
        <ele>1294</ele>
        <time>2013-02-09T10:20:00Z</time>
      </trkpt>
      <trkpt lat="43.0219" lon="0.10659">
        <ele>1295</ele>
        <time>2013-02-09T10:20:02Z</time>
      </trkpt>
      <trkpt lat="43.0219" lon="0.10656">
        <ele>1295</ele>
        <time>2013-02-09T10:20:04Z</time>
      </trkpt>
      <trkpt lat="43.02189" lon="0.10654">
        <ele>1295</ele>
        <time>2013-02-09T10:20:06Z</time>
      </trkpt>
      <trkpt lat="43.02189" lon="0.10652">
        <ele>1295</ele>
        <time>2013-02-09T10:20:08Z</time>
      </trkpt>
      <trkpt lat="43.02189" lon="0.1065">
        <ele>1295</ele>
        <time>2013-02-09T10:20:10Z</time>
      </trkpt>
      <trkpt lat="43.0219" lon="0.10648">
        <ele>1295</ele>
        <time>2013-02-09T10:20:11Z</time>
      </trkpt>
      <trkpt lat="43.0219" lon="0.10646">
        <ele>1295</ele>
        <time>2013-02-09T10:20:13Z</time>
      </trkpt>
      <trkpt lat="43.02191" lon="0.10644">
        <ele>1295</ele>
        <time>2013-02-09T10:20:15Z</time>
      </trkpt>
      <trkpt lat="43.02192" lon="0.10642">
        <ele>1295</ele>
        <time>2013-02-09T10:20:17Z</time>
      </trkpt>
      <trkpt lat="43.02193" lon="0.1064">
        <ele>1295</ele>
        <time>2013-02-09T10:20:18Z</time>
      </trkpt>
      <trkpt lat="43.02193" lon="0.10638">
        <ele>1295</ele>
        <time>2013-02-09T10:20:20Z</time>
      </trkpt>
      <trkpt lat="43.02193" lon="0.10636">
        <ele>1295</ele>
        <time>2013-02-09T10:20:21Z</time>
      </trkpt>
      <trkpt lat="43.02193" lon="0.10634">
        <ele>1295</ele>
        <time>2013-02-09T10:20:23Z</time>
      </trkpt>
      <trkpt lat="43.02193" lon="0.10632">
        <ele>1295</ele>
        <time>2013-02-09T10:20:25Z</time>
      </trkpt>
      <trkpt lat="43.02193" lon="0.10628">
        <ele>1295</ele>
        <time>2013-02-09T10:20:27Z</time>
      </trkpt>
      <trkpt lat="43.02193" lon="0.10627">
        <ele>1295</ele>
        <time>2013-02-09T10:20:28Z</time>
      </trkpt>
      <trkpt lat="43.02193" lon="0.10625">
        <ele>1295</ele>
        <time>2013-02-09T10:20:29Z</time>
      </trkpt>
      <trkpt lat="43.02194" lon="0.10623">
        <ele>1295</ele>
        <time>2013-02-09T10:20:31Z</time>
      </trkpt>
      <trkpt lat="43.02194" lon="0.10622">
        <ele>1295</ele>
        <time>2013-02-09T10:20:32Z</time>
      </trkpt>
      <trkpt lat="43.02195" lon="0.10619">
        <ele>1295</ele>
        <time>2013-02-09T10:20:34Z</time>
      </trkpt>
      <trkpt lat="43.02194" lon="0.10617">
        <ele>1295</ele>
        <time>2013-02-09T10:20:36Z</time>
      </trkpt>
      <trkpt lat="43.02194" lon="0.10615">
        <ele>1295</ele>
        <time>2013-02-09T10:20:38Z</time>
      </trkpt>
      <trkpt lat="43.02194" lon="0.10613">
        <ele>1295</ele>
        <time>2013-02-09T10:20:40Z</time>
      </trkpt>
      <trkpt lat="43.02195" lon="0.10611">
        <ele>1297</ele>
        <time>2013-02-09T10:20:43Z</time>
      </trkpt>
      <trkpt lat="43.02196" lon="0.10609">
        <ele>1299</ele>
        <time>2013-02-09T10:20:45Z</time>
      </trkpt>
      <trkpt lat="43.02195" lon="0.10607">
        <ele>1300</ele>
        <time>2013-02-09T10:20:47Z</time>
      </trkpt>
      <trkpt lat="43.02196" lon="0.10604">
        <ele>1300</ele>
        <time>2013-02-09T10:20:49Z</time>
      </trkpt>
      <trkpt lat="43.02196" lon="0.10602">
        <ele>1300</ele>
        <time>2013-02-09T10:20:51Z</time>
      </trkpt>
      <trkpt lat="43.02196" lon="0.106">
        <ele>1300</ele>
        <time>2013-02-09T10:20:53Z</time>
      </trkpt>
      <trkpt lat="43.02196" lon="0.10599">
        <ele>1300</ele>
        <time>2013-02-09T10:20:55Z</time>
      </trkpt>
      <trkpt lat="43.02197" lon="0.10596">
        <ele>1301</ele>
        <time>2013-02-09T10:20:57Z</time>
      </trkpt>
      <trkpt lat="43.02197" lon="0.10595">
        <ele>1302</ele>
        <time>2013-02-09T10:20:58Z</time>
      </trkpt>
      <trkpt lat="43.02197" lon="0.10593">
        <ele>1302</ele>
        <time>2013-02-09T10:20:59Z</time>
      </trkpt>
      <trkpt lat="43.02199" lon="0.10591">
        <ele>1302</ele>
        <time>2013-02-09T10:21:01Z</time>
      </trkpt>
      <trkpt lat="43.02199" lon="0.1059">
        <ele>1302</ele>
        <time>2013-02-09T10:21:02Z</time>
      </trkpt>
      <trkpt lat="43.02198" lon="0.10588">
        <ele>1302</ele>
        <time>2013-02-09T10:21:03Z</time>
      </trkpt>
      <trkpt lat="43.02198" lon="0.10586">
        <ele>1302</ele>
        <time>2013-02-09T10:21:04Z</time>
      </trkpt>
      <trkpt lat="43.02198" lon="0.10584">
        <ele>1302</ele>
        <time>2013-02-09T10:21:06Z</time>
      </trkpt>
      <trkpt lat="43.02198" lon="0.10582">
        <ele>1302</ele>
        <time>2013-02-09T10:21:07Z</time>
      </trkpt>
      <trkpt lat="43.02198" lon="0.1058">
        <ele>1302</ele>
        <time>2013-02-09T10:21:09Z</time>
      </trkpt>
      <trkpt lat="43.02198" lon="0.10577">
        <ele>1302</ele>
        <time>2013-02-09T10:21:11Z</time>
      </trkpt>
      <trkpt lat="43.02198" lon="0.10575">
        <ele>1302</ele>
        <time>2013-02-09T10:21:13Z</time>
      </trkpt>
      <trkpt lat="43.02198" lon="0.10573">
        <ele>1302</ele>
        <time>2013-02-09T10:21:14Z</time>
      </trkpt>
      <trkpt lat="43.02197" lon="0.10572">
        <ele>1302</ele>
        <time>2013-02-09T10:21:15Z</time>
      </trkpt>
      <trkpt lat="43.02196" lon="0.1057">
        <ele>1302</ele>
        <time>2013-02-09T10:21:16Z</time>
      </trkpt>
      <trkpt lat="43.02196" lon="0.10568">
        <ele>1302</ele>
        <time>2013-02-09T10:21:17Z</time>
      </trkpt>
      <trkpt lat="43.02195" lon="0.10566">
        <ele>1302</ele>
        <time>2013-02-09T10:21:19Z</time>
      </trkpt>
      <trkpt lat="43.02195" lon="0.10564">
        <ele>1302</ele>
        <time>2013-02-09T10:21:21Z</time>
      </trkpt>
      <trkpt lat="43.02195" lon="0.10565">
        <ele>1302</ele>
        <time>2013-02-09T10:21:25Z</time>
      </trkpt>
      <trkpt lat="43.02194" lon="0.10565">
        <ele>1302</ele>
        <time>2013-02-09T10:21:32Z</time>
      </trkpt>
      <trkpt lat="43.02193" lon="0.10566">
        <ele>1302</ele>
        <time>2013-02-09T10:21:35Z</time>
      </trkpt>
      <trkpt lat="43.02192" lon="0.10569">
        <ele>1302</ele>
        <time>2013-02-09T10:21:39Z</time>
      </trkpt>
      <trkpt lat="43.02191" lon="0.1057">
        <ele>1302</ele>
        <time>2013-02-09T10:21:42Z</time>
      </trkpt>
      <trkpt lat="43.02193" lon="0.10569">
        <ele>1302</ele>
        <time>2013-02-09T10:21:48Z</time>
      </trkpt>
      <trkpt lat="43.02194" lon="0.10567">
        <ele>1301</ele>
        <time>2013-02-09T10:21:52Z</time>
      </trkpt>
      <trkpt lat="43.02193" lon="0.10565">
        <ele>1300</ele>
        <time>2013-02-09T10:21:54Z</time>
      </trkpt>
      <trkpt lat="43.02193" lon="0.10563">
        <ele>1300</ele>
        <time>2013-02-09T10:21:56Z</time>
      </trkpt>
      <trkpt lat="43.02192" lon="0.10561">
        <ele>1300</ele>
        <time>2013-02-09T10:21:58Z</time>
      </trkpt>
      <trkpt lat="43.02191" lon="0.10559">
        <ele>1300</ele>
        <time>2013-02-09T10:22:00Z</time>
      </trkpt>
      <trkpt lat="43.02192" lon="0.10557">
        <ele>1300</ele>
        <time>2013-02-09T10:22:01Z</time>
      </trkpt>
      <trkpt lat="43.02192" lon="0.10555">
        <ele>1300</ele>
        <time>2013-02-09T10:22:02Z</time>
      </trkpt>
      <trkpt lat="43.02192" lon="0.10553">
        <ele>1300</ele>
        <time>2013-02-09T10:22:03Z</time>
      </trkpt>
      <trkpt lat="43.02192" lon="0.1055">
        <ele>1300</ele>
        <time>2013-02-09T10:22:05Z</time>
      </trkpt>
      <trkpt lat="43.02191" lon="0.10548">
        <ele>1300</ele>
        <time>2013-02-09T10:22:06Z</time>
      </trkpt>
      <trkpt lat="43.02191" lon="0.10547">
        <ele>1300</ele>
        <time>2013-02-09T10:22:07Z</time>
      </trkpt>
      <trkpt lat="43.02191" lon="0.10545">
        <ele>1300</ele>
        <time>2013-02-09T10:22:08Z</time>
      </trkpt>
      <trkpt lat="43.02191" lon="0.10542">
        <ele>1300</ele>
        <time>2013-02-09T10:22:10Z</time>
      </trkpt>
      <trkpt lat="43.02191" lon="0.10539">
        <ele>1300</ele>
        <time>2013-02-09T10:22:12Z</time>
      </trkpt>
      <trkpt lat="43.02192" lon="0.10537">
        <ele>1300</ele>
        <time>2013-02-09T10:22:13Z</time>
      </trkpt>
      <trkpt lat="43.02192" lon="0.10535">
        <ele>1300</ele>
        <time>2013-02-09T10:22:15Z</time>
      </trkpt>
      <trkpt lat="43.02191" lon="0.10533">
        <ele>1300</ele>
        <time>2013-02-09T10:22:17Z</time>
      </trkpt>
      <trkpt lat="43.0219" lon="0.10531">
        <ele>1300</ele>
        <time>2013-02-09T10:22:19Z</time>
      </trkpt>
      <trkpt lat="43.02189" lon="0.10529">
        <ele>1300</ele>
        <time>2013-02-09T10:22:21Z</time>
      </trkpt>
      <trkpt lat="43.02188" lon="0.10527">
        <ele>1300</ele>
        <time>2013-02-09T10:22:23Z</time>
      </trkpt>
      <trkpt lat="43.02187" lon="0.10525">
        <ele>1300</ele>
        <time>2013-02-09T10:22:25Z</time>
      </trkpt>
      <trkpt lat="43.02186" lon="0.10524">
        <ele>1300</ele>
        <time>2013-02-09T10:22:27Z</time>
      </trkpt>
      <trkpt lat="43.02184" lon="0.10522">
        <ele>1300</ele>
        <time>2013-02-09T10:22:30Z</time>
      </trkpt>
      <trkpt lat="43.02183" lon="0.1052">
        <ele>1300</ele>
        <time>2013-02-09T10:22:34Z</time>
      </trkpt>
      <trkpt lat="43.02182" lon="0.10518">
        <ele>1300</ele>
        <time>2013-02-09T10:22:38Z</time>
      </trkpt>
      <trkpt lat="43.0218" lon="0.10516">
        <ele>1300</ele>
        <time>2013-02-09T10:22:40Z</time>
      </trkpt>
      <trkpt lat="43.02179" lon="0.10514">
        <ele>1300</ele>
        <time>2013-02-09T10:22:42Z</time>
      </trkpt>
      <trkpt lat="43.02178" lon="0.10514">
        <ele>1300</ele>
        <time>2013-02-09T10:22:44Z</time>
      </trkpt>
      <trkpt lat="43.02177" lon="0.10513">
        <ele>1300</ele>
        <time>2013-02-09T10:22:46Z</time>
      </trkpt>
      <trkpt lat="43.02175" lon="0.10511">
        <ele>1300</ele>
        <time>2013-02-09T10:22:48Z</time>
      </trkpt>
      <trkpt lat="43.02174" lon="0.10509">
        <ele>1300</ele>
        <time>2013-02-09T10:22:50Z</time>
      </trkpt>
      <trkpt lat="43.02173" lon="0.10507">
        <ele>1300</ele>
        <time>2013-02-09T10:22:52Z</time>
      </trkpt>
      <trkpt lat="43.02171" lon="0.10506">
        <ele>1300</ele>
        <time>2013-02-09T10:22:54Z</time>
      </trkpt>
      <trkpt lat="43.0217" lon="0.10504">
        <ele>1300</ele>
        <time>2013-02-09T10:22:56Z</time>
      </trkpt>
      <trkpt lat="43.02169" lon="0.10503">
        <ele>1300</ele>
        <time>2013-02-09T10:22:58Z</time>
      </trkpt>
      <trkpt lat="43.02167" lon="0.10501">
        <ele>1300</ele>
        <time>2013-02-09T10:23:00Z</time>
      </trkpt>
      <trkpt lat="43.02165" lon="0.10499">
        <ele>1300</ele>
        <time>2013-02-09T10:23:02Z</time>
      </trkpt>
      <trkpt lat="43.02164" lon="0.10497">
        <ele>1300</ele>
        <time>2013-02-09T10:23:04Z</time>
      </trkpt>
      <trkpt lat="43.02163" lon="0.10496">
        <ele>1300</ele>
        <time>2013-02-09T10:23:06Z</time>
      </trkpt>
      <trkpt lat="43.02163" lon="0.10495">
        <ele>1300</ele>
        <time>2013-02-09T10:23:07Z</time>
      </trkpt>
      <trkpt lat="43.02161" lon="0.10493">
        <ele>1300</ele>
        <time>2013-02-09T10:23:09Z</time>
      </trkpt>
      <trkpt lat="43.02161" lon="0.10492">
        <ele>1300</ele>
        <time>2013-02-09T10:23:10Z</time>
      </trkpt>
      <trkpt lat="43.0216" lon="0.1049">
        <ele>1300</ele>
        <time>2013-02-09T10:23:11Z</time>
      </trkpt>
      <trkpt lat="43.02158" lon="0.10487">
        <ele>1300</ele>
        <time>2013-02-09T10:23:13Z</time>
      </trkpt>
      <trkpt lat="43.02158" lon="0.10486">
        <ele>1300</ele>
        <time>2013-02-09T10:23:14Z</time>
      </trkpt>
      <trkpt lat="43.02156" lon="0.10484">
        <ele>1300</ele>
        <time>2013-02-09T10:23:16Z</time>
      </trkpt>
      <trkpt lat="43.02155" lon="0.10483">
        <ele>1300</ele>
        <time>2013-02-09T10:23:18Z</time>
      </trkpt>
      <trkpt lat="43.02154" lon="0.1048">
        <ele>1300</ele>
        <time>2013-02-09T10:23:20Z</time>
      </trkpt>
      <trkpt lat="43.02154" lon="0.10478">
        <ele>1300</ele>
        <time>2013-02-09T10:23:23Z</time>
      </trkpt>
      <trkpt lat="43.02154" lon="0.10476">
        <ele>1300</ele>
        <time>2013-02-09T10:23:23Z</time>
      </trkpt>
      <trkpt lat="43.02155" lon="0.10474">
        <ele>1300</ele>
        <time>2013-02-09T10:23:25Z</time>
      </trkpt>
      <trkpt lat="43.02155" lon="0.10473">
        <ele>1300</ele>
        <time>2013-02-09T10:23:26Z</time>
      </trkpt>
      <trkpt lat="43.02155" lon="0.1047">
        <ele>1300</ele>
        <time>2013-02-09T10:23:28Z</time>
      </trkpt>
      <trkpt lat="43.02155" lon="0.10469">
        <ele>1300</ele>
        <time>2013-02-09T10:23:29Z</time>
      </trkpt>
      <trkpt lat="43.02154" lon="0.10467">
        <ele>1300</ele>
        <time>2013-02-09T10:23:31Z</time>
      </trkpt>
      <trkpt lat="43.02153" lon="0.10464">
        <ele>1300</ele>
        <time>2013-02-09T10:23:33Z</time>
      </trkpt>
      <trkpt lat="43.02152" lon="0.10462">
        <ele>1300</ele>
        <time>2013-02-09T10:23:35Z</time>
      </trkpt>
      <trkpt lat="43.02151" lon="0.10461">
        <ele>1300</ele>
        <time>2013-02-09T10:23:37Z</time>
      </trkpt>
      <trkpt lat="43.0215" lon="0.1046">
        <ele>1300</ele>
        <time>2013-02-09T10:23:39Z</time>
      </trkpt>
      <trkpt lat="43.02148" lon="0.10458">
        <ele>1300</ele>
        <time>2013-02-09T10:23:41Z</time>
      </trkpt>
      <trkpt lat="43.0215" lon="0.10457">
        <ele>1300</ele>
        <time>2013-02-09T10:24:05Z</time>
      </trkpt>
      <trkpt lat="43.0215" lon="0.10455">
        <ele>1300</ele>
        <time>2013-02-09T10:24:08Z</time>
      </trkpt>
      <trkpt lat="43.02152" lon="0.10454">
        <ele>1300</ele>
        <time>2013-02-09T10:24:10Z</time>
      </trkpt>
      <trkpt lat="43.0215" lon="0.10454">
        <ele>1298</ele>
        <time>2013-02-09T10:24:21Z</time>
      </trkpt>
      <trkpt lat="43.0215" lon="0.10456">
        <ele>1298</ele>
        <time>2013-02-09T10:24:33Z</time>
      </trkpt>
      <trkpt lat="43.02148" lon="0.10455">
        <ele>1298</ele>
        <time>2013-02-09T10:24:56Z</time>
      </trkpt>
      <trkpt lat="43.02148" lon="0.10454">
        <ele>1298</ele>
        <time>2013-02-09T10:25:05Z</time>
      </trkpt>
      <trkpt lat="43.02148" lon="0.10456">
        <ele>1298</ele>
        <time>2013-02-09T10:25:16Z</time>
      </trkpt>
      <trkpt lat="43.02148" lon="0.10454">
        <ele>1298</ele>
        <time>2013-02-09T10:25:24Z</time>
      </trkpt>
      <trkpt lat="43.02149" lon="0.10452">
        <ele>1298</ele>
        <time>2013-02-09T10:25:28Z</time>
      </trkpt>
      <trkpt lat="43.02147" lon="0.10453">
        <ele>1298</ele>
        <time>2013-02-09T10:25:40Z</time>
      </trkpt>
      <trkpt lat="43.02146" lon="0.10454">
        <ele>1298</ele>
        <time>2013-02-09T10:25:43Z</time>
      </trkpt>
      <trkpt lat="43.02147" lon="0.10454">
        <ele>1298</ele>
        <time>2013-02-09T10:25:49Z</time>
      </trkpt>
      <trkpt lat="43.02147" lon="0.10456">
        <ele>1300</ele>
        <time>2013-02-09T10:25:55Z</time>
      </trkpt>
      <trkpt lat="43.02147" lon="0.10457">
        <ele>1303</ele>
        <time>2013-02-09T10:26:00Z</time>
      </trkpt>
      <trkpt lat="43.02148" lon="0.10457">
        <ele>1305</ele>
        <time>2013-02-09T10:26:03Z</time>
      </trkpt>
      <trkpt lat="43.02147" lon="0.10459">
        <ele>1305</ele>
        <time>2013-02-09T10:26:13Z</time>
      </trkpt>
      <trkpt lat="43.02148" lon="0.10457">
        <ele>1305</ele>
        <time>2013-02-09T10:26:19Z</time>
      </trkpt>
      <trkpt lat="43.02147" lon="0.10456">
        <ele>1305</ele>
        <time>2013-02-09T10:26:27Z</time>
      </trkpt>
      <trkpt lat="43.02146" lon="0.10455">
        <ele>1305</ele>
        <time>2013-02-09T10:26:29Z</time>
      </trkpt>
      <trkpt lat="43.02144" lon="0.10454">
        <ele>1305</ele>
        <time>2013-02-09T10:26:31Z</time>
      </trkpt>
      <trkpt lat="43.02143" lon="0.10454">
        <ele>1305</ele>
        <time>2013-02-09T10:26:32Z</time>
      </trkpt>
      <trkpt lat="43.02142" lon="0.10453">
        <ele>1305</ele>
        <time>2013-02-09T10:26:33Z</time>
      </trkpt>
      <trkpt lat="43.0214" lon="0.10452">
        <ele>1305</ele>
        <time>2013-02-09T10:26:34Z</time>
      </trkpt>
      <trkpt lat="43.02139" lon="0.10452">
        <ele>1305</ele>
        <time>2013-02-09T10:26:36Z</time>
      </trkpt>
      <trkpt lat="43.02137" lon="0.10451">
        <ele>1305</ele>
        <time>2013-02-09T10:26:38Z</time>
      </trkpt>
      <trkpt lat="43.02136" lon="0.1045">
        <ele>1305</ele>
        <time>2013-02-09T10:26:40Z</time>
      </trkpt>
      <trkpt lat="43.02135" lon="0.10448">
        <ele>1305</ele>
        <time>2013-02-09T10:26:42Z</time>
      </trkpt>
      <trkpt lat="43.02134" lon="0.10446">
        <ele>1305</ele>
        <time>2013-02-09T10:26:44Z</time>
      </trkpt>
      <trkpt lat="43.02132" lon="0.10444">
        <ele>1305</ele>
        <time>2013-02-09T10:26:46Z</time>
      </trkpt>
      <trkpt lat="43.02131" lon="0.10443">
        <ele>1305</ele>
        <time>2013-02-09T10:26:48Z</time>
      </trkpt>
      <trkpt lat="43.0213" lon="0.10441">
        <ele>1305</ele>
        <time>2013-02-09T10:26:50Z</time>
      </trkpt>
      <trkpt lat="43.02129" lon="0.10441">
        <ele>1305</ele>
        <time>2013-02-09T10:26:52Z</time>
      </trkpt>
      <trkpt lat="43.02127" lon="0.1044">
        <ele>1305</ele>
        <time>2013-02-09T10:26:54Z</time>
      </trkpt>
      <trkpt lat="43.02126" lon="0.10438">
        <ele>1305</ele>
        <time>2013-02-09T10:26:57Z</time>
      </trkpt>
      <trkpt lat="43.02124" lon="0.10436">
        <ele>1306</ele>
        <time>2013-02-09T10:27:00Z</time>
      </trkpt>
      <trkpt lat="43.02123" lon="0.10435">
        <ele>1306</ele>
        <time>2013-02-09T10:27:02Z</time>
      </trkpt>
      <trkpt lat="43.02121" lon="0.10433">
        <ele>1306</ele>
        <time>2013-02-09T10:27:05Z</time>
      </trkpt>
      <trkpt lat="43.0212" lon="0.1043">
        <ele>1306</ele>
        <time>2013-02-09T10:27:07Z</time>
      </trkpt>
      <trkpt lat="43.0212" lon="0.10428">
        <ele>1306</ele>
        <time>2013-02-09T10:27:09Z</time>
      </trkpt>
      <trkpt lat="43.02119" lon="0.10426">
        <ele>1306</ele>
        <time>2013-02-09T10:27:11Z</time>
      </trkpt>
      <trkpt lat="43.02119" lon="0.10424">
        <ele>1306</ele>
        <time>2013-02-09T10:27:13Z</time>
      </trkpt>
      <trkpt lat="43.02119" lon="0.10421">
        <ele>1306</ele>
        <time>2013-02-09T10:27:15Z</time>
      </trkpt>
      <trkpt lat="43.02118" lon="0.10419">
        <ele>1306</ele>
        <time>2013-02-09T10:27:17Z</time>
      </trkpt>
      <trkpt lat="43.02118" lon="0.10417">
        <ele>1307</ele>
        <time>2013-02-09T10:27:19Z</time>
      </trkpt>
      <trkpt lat="43.02117" lon="0.10415">
        <ele>1307</ele>
        <time>2013-02-09T10:27:21Z</time>
      </trkpt>
      <trkpt lat="43.02116" lon="0.10413">
        <ele>1307</ele>
        <time>2013-02-09T10:27:23Z</time>
      </trkpt>
      <trkpt lat="43.02116" lon="0.10411">
        <ele>1307</ele>
        <time>2013-02-09T10:27:25Z</time>
      </trkpt>
      <trkpt lat="43.02116" lon="0.10409">
        <ele>1307</ele>
        <time>2013-02-09T10:27:26Z</time>
      </trkpt>
      <trkpt lat="43.02115" lon="0.10408">
        <ele>1308</ele>
        <time>2013-02-09T10:27:28Z</time>
      </trkpt>
      <trkpt lat="43.02114" lon="0.10406">
        <ele>1308</ele>
        <time>2013-02-09T10:27:30Z</time>
      </trkpt>
      <trkpt lat="43.02113" lon="0.10403">
        <ele>1309</ele>
        <time>2013-02-09T10:27:32Z</time>
      </trkpt>
      <trkpt lat="43.02112" lon="0.10401">
        <ele>1309</ele>
        <time>2013-02-09T10:27:34Z</time>
      </trkpt>
      <trkpt lat="43.02112" lon="0.10399">
        <ele>1309</ele>
        <time>2013-02-09T10:27:36Z</time>
      </trkpt>
      <trkpt lat="43.02111" lon="0.10397">
        <ele>1310</ele>
        <time>2013-02-09T10:27:38Z</time>
      </trkpt>
      <trkpt lat="43.0211" lon="0.10395">
        <ele>1310</ele>
        <time>2013-02-09T10:27:40Z</time>
      </trkpt>
      <trkpt lat="43.02109" lon="0.10393">
        <ele>1311</ele>
        <time>2013-02-09T10:27:42Z</time>
      </trkpt>
      <trkpt lat="43.02107" lon="0.10391">
        <ele>1311</ele>
        <time>2013-02-09T10:27:44Z</time>
      </trkpt>
      <trkpt lat="43.02107" lon="0.1039">
        <ele>1311</ele>
        <time>2013-02-09T10:27:45Z</time>
      </trkpt>
      <trkpt lat="43.02106" lon="0.10388">
        <ele>1311</ele>
        <time>2013-02-09T10:27:47Z</time>
      </trkpt>
      <trkpt lat="43.02105" lon="0.10386">
        <ele>1311</ele>
        <time>2013-02-09T10:27:49Z</time>
      </trkpt>
      <trkpt lat="43.02103" lon="0.10385">
        <ele>1311</ele>
        <time>2013-02-09T10:27:51Z</time>
      </trkpt>
      <trkpt lat="43.02102" lon="0.10383">
        <ele>1311</ele>
        <time>2013-02-09T10:27:53Z</time>
      </trkpt>
      <trkpt lat="43.02101" lon="0.10381">
        <ele>1312</ele>
        <time>2013-02-09T10:27:56Z</time>
      </trkpt>
      <trkpt lat="43.02101" lon="0.10379">
        <ele>1312</ele>
        <time>2013-02-09T10:27:58Z</time>
      </trkpt>
      <trkpt lat="43.02101" lon="0.10378">
        <ele>1313</ele>
        <time>2013-02-09T10:28:00Z</time>
      </trkpt>
      <trkpt lat="43.02099" lon="0.10375">
        <ele>1315</ele>
        <time>2013-02-09T10:28:03Z</time>
      </trkpt>
      <trkpt lat="43.02098" lon="0.10373">
        <ele>1315</ele>
        <time>2013-02-09T10:28:05Z</time>
      </trkpt>
      <trkpt lat="43.02097" lon="0.10371">
        <ele>1315</ele>
        <time>2013-02-09T10:28:07Z</time>
      </trkpt>
      <trkpt lat="43.02095" lon="0.1037">
        <ele>1315</ele>
        <time>2013-02-09T10:28:09Z</time>
      </trkpt>
      <trkpt lat="43.02094" lon="0.10368">
        <ele>1315</ele>
        <time>2013-02-09T10:28:11Z</time>
      </trkpt>
      <trkpt lat="43.02094" lon="0.10366">
        <ele>1315</ele>
        <time>2013-02-09T10:28:14Z</time>
      </trkpt>
      <trkpt lat="43.02093" lon="0.10364">
        <ele>1315</ele>
        <time>2013-02-09T10:28:16Z</time>
      </trkpt>
      <trkpt lat="43.02092" lon="0.10362">
        <ele>1315</ele>
        <time>2013-02-09T10:28:19Z</time>
      </trkpt>
      <trkpt lat="43.02091" lon="0.10361">
        <ele>1315</ele>
        <time>2013-02-09T10:28:21Z</time>
      </trkpt>
      <trkpt lat="43.0209" lon="0.1036">
        <ele>1315</ele>
        <time>2013-02-09T10:28:23Z</time>
      </trkpt>
      <trkpt lat="43.02088" lon="0.10359">
        <ele>1316</ele>
        <time>2013-02-09T10:28:26Z</time>
      </trkpt>
      <trkpt lat="43.02087" lon="0.10359">
        <ele>1317</ele>
        <time>2013-02-09T10:28:29Z</time>
      </trkpt>
      <trkpt lat="43.02086" lon="0.10358">
        <ele>1318</ele>
        <time>2013-02-09T10:28:32Z</time>
      </trkpt>
      <trkpt lat="43.02084" lon="0.10357">
        <ele>1318</ele>
        <time>2013-02-09T10:28:35Z</time>
      </trkpt>
      <trkpt lat="43.02083" lon="0.10355">
        <ele>1319</ele>
        <time>2013-02-09T10:28:38Z</time>
      </trkpt>
      <trkpt lat="43.02082" lon="0.10353">
        <ele>1319</ele>
        <time>2013-02-09T10:28:42Z</time>
      </trkpt>
      <trkpt lat="43.02081" lon="0.10351">
        <ele>1319</ele>
        <time>2013-02-09T10:28:45Z</time>
      </trkpt>
      <trkpt lat="43.02079" lon="0.10349">
        <ele>1320</ele>
        <time>2013-02-09T10:28:47Z</time>
      </trkpt>
      <trkpt lat="43.02078" lon="0.10347">
        <ele>1321</ele>
        <time>2013-02-09T10:28:49Z</time>
      </trkpt>
      <trkpt lat="43.02078" lon="0.10345">
        <ele>1321</ele>
        <time>2013-02-09T10:28:51Z</time>
      </trkpt>
      <trkpt lat="43.02076" lon="0.10344">
        <ele>1322</ele>
        <time>2013-02-09T10:28:55Z</time>
      </trkpt>
      <trkpt lat="43.02075" lon="0.10343">
        <ele>1323</ele>
        <time>2013-02-09T10:28:58Z</time>
      </trkpt>
      <trkpt lat="43.02074" lon="0.10343">
        <ele>1324</ele>
        <time>2013-02-09T10:29:00Z</time>
      </trkpt>
      <trkpt lat="43.02073" lon="0.10341">
        <ele>1324</ele>
        <time>2013-02-09T10:29:02Z</time>
      </trkpt>
      <trkpt lat="43.02072" lon="0.10342">
        <ele>1326</ele>
        <time>2013-02-09T10:29:05Z</time>
      </trkpt>
      <trkpt lat="43.02071" lon="0.1034">
        <ele>1327</ele>
        <time>2013-02-09T10:29:07Z</time>
      </trkpt>
      <trkpt lat="43.02071" lon="0.10339">
        <ele>1327</ele>
        <time>2013-02-09T10:29:09Z</time>
      </trkpt>
      <trkpt lat="43.0207" lon="0.10337">
        <ele>1327</ele>
        <time>2013-02-09T10:29:12Z</time>
      </trkpt>
      <trkpt lat="43.02069" lon="0.10335">
        <ele>1327</ele>
        <time>2013-02-09T10:29:14Z</time>
      </trkpt>
      <trkpt lat="43.02068" lon="0.10334">
        <ele>1327</ele>
        <time>2013-02-09T10:29:16Z</time>
      </trkpt>
      <trkpt lat="43.02067" lon="0.10333">
        <ele>1327</ele>
        <time>2013-02-09T10:29:18Z</time>
      </trkpt>
      <trkpt lat="43.02065" lon="0.10332">
        <ele>1327</ele>
        <time>2013-02-09T10:29:20Z</time>
      </trkpt>
      <trkpt lat="43.02064" lon="0.10333">
        <ele>1327</ele>
        <time>2013-02-09T10:29:22Z</time>
      </trkpt>
      <trkpt lat="43.02063" lon="0.10334">
        <ele>1327</ele>
        <time>2013-02-09T10:29:24Z</time>
      </trkpt>
      <trkpt lat="43.02061" lon="0.10334">
        <ele>1327</ele>
        <time>2013-02-09T10:29:26Z</time>
      </trkpt>
      <trkpt lat="43.0206" lon="0.10334">
        <ele>1327</ele>
        <time>2013-02-09T10:29:28Z</time>
      </trkpt>
      <trkpt lat="43.02059" lon="0.10333">
        <ele>1327</ele>
        <time>2013-02-09T10:29:31Z</time>
      </trkpt>
      <trkpt lat="43.02058" lon="0.10331">
        <ele>1327</ele>
        <time>2013-02-09T10:29:34Z</time>
      </trkpt>
      <trkpt lat="43.02059" lon="0.10332">
        <ele>1327</ele>
        <time>2013-02-09T10:30:13Z</time>
      </trkpt>
      <trkpt lat="43.02059" lon="0.1033">
        <ele>1327</ele>
        <time>2013-02-09T10:30:30Z</time>
      </trkpt>
      <trkpt lat="43.02059" lon="0.10329">
        <ele>1327</ele>
        <time>2013-02-09T10:30:32Z</time>
      </trkpt>
      <trkpt lat="43.02058" lon="0.10327">
        <ele>1327</ele>
        <time>2013-02-09T10:30:42Z</time>
      </trkpt>
      <trkpt lat="43.02057" lon="0.10327">
        <ele>1327</ele>
        <time>2013-02-09T10:31:04Z</time>
      </trkpt>
      <trkpt lat="43.02056" lon="0.10325">
        <ele>1327</ele>
        <time>2013-02-09T10:31:25Z</time>
      </trkpt>
      <trkpt lat="43.02055" lon="0.10323">
        <ele>1327</ele>
        <time>2013-02-09T10:31:28Z</time>
      </trkpt>
      <trkpt lat="43.02055" lon="0.10321">
        <ele>1327</ele>
        <time>2013-02-09T10:31:30Z</time>
      </trkpt>
      <trkpt lat="43.02054" lon="0.10319">
        <ele>1327</ele>
        <time>2013-02-09T10:31:32Z</time>
      </trkpt>
      <trkpt lat="43.02054" lon="0.10318">
        <ele>1328</ele>
        <time>2013-02-09T10:31:34Z</time>
      </trkpt>
      <trkpt lat="43.02053" lon="0.10316">
        <ele>1328</ele>
        <time>2013-02-09T10:31:36Z</time>
      </trkpt>
      <trkpt lat="43.02053" lon="0.10314">
        <ele>1329</ele>
        <time>2013-02-09T10:31:38Z</time>
      </trkpt>
      <trkpt lat="43.02052" lon="0.10313">
        <ele>1330</ele>
        <time>2013-02-09T10:31:40Z</time>
      </trkpt>
      <trkpt lat="43.02052" lon="0.10311">
        <ele>1330</ele>
        <time>2013-02-09T10:31:42Z</time>
      </trkpt>
      <trkpt lat="43.02051" lon="0.10309">
        <ele>1331</ele>
        <time>2013-02-09T10:31:44Z</time>
      </trkpt>
      <trkpt lat="43.02051" lon="0.10308">
        <ele>1331</ele>
        <time>2013-02-09T10:31:46Z</time>
      </trkpt>
      <trkpt lat="43.0205" lon="0.10306">
        <ele>1332</ele>
        <time>2013-02-09T10:31:48Z</time>
      </trkpt>
      <trkpt lat="43.0205" lon="0.10304">
        <ele>1332</ele>
        <time>2013-02-09T10:31:50Z</time>
      </trkpt>
      <trkpt lat="43.02049" lon="0.10302">
        <ele>1332</ele>
        <time>2013-02-09T10:31:52Z</time>
      </trkpt>
      <trkpt lat="43.02048" lon="0.103">
        <ele>1333</ele>
        <time>2013-02-09T10:31:54Z</time>
      </trkpt>
      <trkpt lat="43.02048" lon="0.10298">
        <ele>1333</ele>
        <time>2013-02-09T10:31:56Z</time>
      </trkpt>
      <trkpt lat="43.02047" lon="0.10296">
        <ele>1333</ele>
        <time>2013-02-09T10:31:58Z</time>
      </trkpt>
      <trkpt lat="43.02046" lon="0.10295">
        <ele>1334</ele>
        <time>2013-02-09T10:32:00Z</time>
      </trkpt>
      <trkpt lat="43.02045" lon="0.10293">
        <ele>1335</ele>
        <time>2013-02-09T10:32:03Z</time>
      </trkpt>
      <trkpt lat="43.02044" lon="0.10291">
        <ele>1335</ele>
        <time>2013-02-09T10:32:05Z</time>
      </trkpt>
      <trkpt lat="43.02043" lon="0.10289">
        <ele>1336</ele>
        <time>2013-02-09T10:32:07Z</time>
      </trkpt>
      <trkpt lat="43.02042" lon="0.10287">
        <ele>1336</ele>
        <time>2013-02-09T10:32:09Z</time>
      </trkpt>
      <trkpt lat="43.02042" lon="0.10286">
        <ele>1336</ele>
        <time>2013-02-09T10:32:11Z</time>
      </trkpt>
      <trkpt lat="43.02041" lon="0.10284">
        <ele>1337</ele>
        <time>2013-02-09T10:32:13Z</time>
      </trkpt>
      <trkpt lat="43.0204" lon="0.10282">
        <ele>1337</ele>
        <time>2013-02-09T10:32:15Z</time>
      </trkpt>
      <trkpt lat="43.0204" lon="0.1028">
        <ele>1337</ele>
        <time>2013-02-09T10:32:17Z</time>
      </trkpt>
      <trkpt lat="43.02039" lon="0.10278">
        <ele>1338</ele>
        <time>2013-02-09T10:32:19Z</time>
      </trkpt>
      <trkpt lat="43.02038" lon="0.10276">
        <ele>1338</ele>
        <time>2013-02-09T10:32:21Z</time>
      </trkpt>
      <trkpt lat="43.02037" lon="0.10275">
        <ele>1339</ele>
        <time>2013-02-09T10:32:23Z</time>
      </trkpt>
      <trkpt lat="43.02037" lon="0.10273">
        <ele>1339</ele>
        <time>2013-02-09T10:32:25Z</time>
      </trkpt>
      <trkpt lat="43.02036" lon="0.10272">
        <ele>1340</ele>
        <time>2013-02-09T10:32:27Z</time>
      </trkpt>
      <trkpt lat="43.02036" lon="0.1027">
        <ele>1340</ele>
        <time>2013-02-09T10:32:29Z</time>
      </trkpt>
      <trkpt lat="43.02036" lon="0.10268">
        <ele>1340</ele>
        <time>2013-02-09T10:32:31Z</time>
      </trkpt>
      <trkpt lat="43.02036" lon="0.10267">
        <ele>1340</ele>
        <time>2013-02-09T10:32:33Z</time>
      </trkpt>
      <trkpt lat="43.02036" lon="0.10265">
        <ele>1340</ele>
        <time>2013-02-09T10:32:35Z</time>
      </trkpt>
      <trkpt lat="43.02035" lon="0.10262">
        <ele>1341</ele>
        <time>2013-02-09T10:32:37Z</time>
      </trkpt>
      <trkpt lat="43.02035" lon="0.10261">
        <ele>1341</ele>
        <time>2013-02-09T10:32:39Z</time>
      </trkpt>
      <trkpt lat="43.02034" lon="0.10259">
        <ele>1342</ele>
        <time>2013-02-09T10:32:41Z</time>
      </trkpt>
      <trkpt lat="43.02034" lon="0.10256">
        <ele>1342</ele>
        <time>2013-02-09T10:32:43Z</time>
      </trkpt>
      <trkpt lat="43.02033" lon="0.10255">
        <ele>1342</ele>
        <time>2013-02-09T10:32:45Z</time>
      </trkpt>
      <trkpt lat="43.02032" lon="0.10253">
        <ele>1343</ele>
        <time>2013-02-09T10:32:47Z</time>
      </trkpt>
      <trkpt lat="43.02032" lon="0.10251">
        <ele>1343</ele>
        <time>2013-02-09T10:32:49Z</time>
      </trkpt>
      <trkpt lat="43.02031" lon="0.10249">
        <ele>1343</ele>
        <time>2013-02-09T10:32:51Z</time>
      </trkpt>
      <trkpt lat="43.02031" lon="0.10247">
        <ele>1343</ele>
        <time>2013-02-09T10:32:53Z</time>
      </trkpt>
      <trkpt lat="43.02031" lon="0.10245">
        <ele>1343</ele>
        <time>2013-02-09T10:32:55Z</time>
      </trkpt>
      <trkpt lat="43.0203" lon="0.10243">
        <ele>1344</ele>
        <time>2013-02-09T10:32:57Z</time>
      </trkpt>
      <trkpt lat="43.0203" lon="0.10241">
        <ele>1344</ele>
        <time>2013-02-09T10:32:59Z</time>
      </trkpt>
      <trkpt lat="43.02029" lon="0.10239">
        <ele>1345</ele>
        <time>2013-02-09T10:33:01Z</time>
      </trkpt>
      <trkpt lat="43.02028" lon="0.10238">
        <ele>1346</ele>
        <time>2013-02-09T10:33:04Z</time>
      </trkpt>
      <trkpt lat="43.02026" lon="0.10236">
        <ele>1347</ele>
        <time>2013-02-09T10:33:07Z</time>
      </trkpt>
      <trkpt lat="43.02025" lon="0.10234">
        <ele>1347</ele>
        <time>2013-02-09T10:33:10Z</time>
      </trkpt>
      <trkpt lat="43.02024" lon="0.10233">
        <ele>1348</ele>
        <time>2013-02-09T10:33:12Z</time>
      </trkpt>
      <trkpt lat="43.02023" lon="0.10231">
        <ele>1348</ele>
        <time>2013-02-09T10:33:15Z</time>
      </trkpt>
      <trkpt lat="43.02022" lon="0.10229">
        <ele>1349</ele>
        <time>2013-02-09T10:33:18Z</time>
      </trkpt>
      <trkpt lat="43.02021" lon="0.10227">
        <ele>1349</ele>
        <time>2013-02-09T10:33:20Z</time>
      </trkpt>
      <trkpt lat="43.02021" lon="0.10225">
        <ele>1350</ele>
        <time>2013-02-09T10:33:22Z</time>
      </trkpt>
      <trkpt lat="43.0202" lon="0.10223">
        <ele>1351</ele>
        <time>2013-02-09T10:33:25Z</time>
      </trkpt>
      <trkpt lat="43.02019" lon="0.10221">
        <ele>1352</ele>
        <time>2013-02-09T10:33:28Z</time>
      </trkpt>
      <trkpt lat="43.02018" lon="0.10219">
        <ele>1352</ele>
        <time>2013-02-09T10:33:31Z</time>
      </trkpt>
      <trkpt lat="43.02017" lon="0.10217">
        <ele>1353</ele>
        <time>2013-02-09T10:33:33Z</time>
      </trkpt>
      <trkpt lat="43.02017" lon="0.10216">
        <ele>1353</ele>
        <time>2013-02-09T10:33:35Z</time>
      </trkpt>
      <trkpt lat="43.02016" lon="0.10214">
        <ele>1353</ele>
        <time>2013-02-09T10:33:37Z</time>
      </trkpt>
      <trkpt lat="43.02016" lon="0.10212">
        <ele>1354</ele>
        <time>2013-02-09T10:33:39Z</time>
      </trkpt>
      <trkpt lat="43.02015" lon="0.1021">
        <ele>1354</ele>
        <time>2013-02-09T10:33:41Z</time>
      </trkpt>
      <trkpt lat="43.02015" lon="0.10209">
        <ele>1355</ele>
        <time>2013-02-09T10:33:43Z</time>
      </trkpt>
      <trkpt lat="43.02014" lon="0.10206">
        <ele>1355</ele>
        <time>2013-02-09T10:33:45Z</time>
      </trkpt>
      <trkpt lat="43.02014" lon="0.10205">
        <ele>1355</ele>
        <time>2013-02-09T10:33:47Z</time>
      </trkpt>
      <trkpt lat="43.02013" lon="0.10203">
        <ele>1356</ele>
        <time>2013-02-09T10:33:49Z</time>
      </trkpt>
      <trkpt lat="43.02013" lon="0.10201">
        <ele>1356</ele>
        <time>2013-02-09T10:33:51Z</time>
      </trkpt>
      <trkpt lat="43.02012" lon="0.10199">
        <ele>1356</ele>
        <time>2013-02-09T10:33:53Z</time>
      </trkpt>
      <trkpt lat="43.02012" lon="0.10198">
        <ele>1357</ele>
        <time>2013-02-09T10:33:55Z</time>
      </trkpt>
      <trkpt lat="43.02012" lon="0.10196">
        <ele>1357</ele>
        <time>2013-02-09T10:33:57Z</time>
      </trkpt>
      <trkpt lat="43.02011" lon="0.10194">
        <ele>1357</ele>
        <time>2013-02-09T10:33:59Z</time>
      </trkpt>
      <trkpt lat="43.02011" lon="0.10192">
        <ele>1357</ele>
        <time>2013-02-09T10:34:01Z</time>
      </trkpt>
      <trkpt lat="43.02011" lon="0.10189">
        <ele>1357</ele>
        <time>2013-02-09T10:34:03Z</time>
      </trkpt>
      <trkpt lat="43.0201" lon="0.10187">
        <ele>1358</ele>
        <time>2013-02-09T10:34:05Z</time>
      </trkpt>
      <trkpt lat="43.02009" lon="0.10186">
        <ele>1358</ele>
        <time>2013-02-09T10:34:07Z</time>
      </trkpt>
      <trkpt lat="43.02008" lon="0.10183">
        <ele>1358</ele>
        <time>2013-02-09T10:34:09Z</time>
      </trkpt>
      <trkpt lat="43.02008" lon="0.10182">
        <ele>1358</ele>
        <time>2013-02-09T10:34:11Z</time>
      </trkpt>
      <trkpt lat="43.02007" lon="0.10179">
        <ele>1358</ele>
        <time>2013-02-09T10:34:13Z</time>
      </trkpt>
      <trkpt lat="43.02006" lon="0.10177">
        <ele>1358</ele>
        <time>2013-02-09T10:34:15Z</time>
      </trkpt>
      <trkpt lat="43.02005" lon="0.10176">
        <ele>1359</ele>
        <time>2013-02-09T10:34:17Z</time>
      </trkpt>
      <trkpt lat="43.02005" lon="0.10174">
        <ele>1359</ele>
        <time>2013-02-09T10:34:19Z</time>
      </trkpt>
      <trkpt lat="43.02005" lon="0.10172">
        <ele>1359</ele>
        <time>2013-02-09T10:34:21Z</time>
      </trkpt>
      <trkpt lat="43.02004" lon="0.1017">
        <ele>1359</ele>
        <time>2013-02-09T10:34:23Z</time>
      </trkpt>
      <trkpt lat="43.02003" lon="0.10168">
        <ele>1359</ele>
        <time>2013-02-09T10:34:25Z</time>
      </trkpt>
      <trkpt lat="43.02003" lon="0.10166">
        <ele>1359</ele>
        <time>2013-02-09T10:34:27Z</time>
      </trkpt>
      <trkpt lat="43.02003" lon="0.10164">
        <ele>1359</ele>
        <time>2013-02-09T10:34:29Z</time>
      </trkpt>
      <trkpt lat="43.02002" lon="0.10162">
        <ele>1359</ele>
        <time>2013-02-09T10:34:31Z</time>
      </trkpt>
      <trkpt lat="43.02002" lon="0.1016">
        <ele>1359</ele>
        <time>2013-02-09T10:34:48Z</time>
      </trkpt>
      <trkpt lat="43.02001" lon="0.10158">
        <ele>1359</ele>
        <time>2013-02-09T10:34:50Z</time>
      </trkpt>
      <trkpt lat="43.02" lon="0.10156">
        <ele>1359</ele>
        <time>2013-02-09T10:34:52Z</time>
      </trkpt>
      <trkpt lat="43.02" lon="0.10153">
        <ele>1359</ele>
        <time>2013-02-09T10:34:54Z</time>
      </trkpt>
      <trkpt lat="43.02" lon="0.10152">
        <ele>1359</ele>
        <time>2013-02-09T10:34:56Z</time>
      </trkpt>
      <trkpt lat="43.01999" lon="0.10149">
        <ele>1359</ele>
        <time>2013-02-09T10:34:58Z</time>
      </trkpt>
      <trkpt lat="43.01999" lon="0.10147">
        <ele>1359</ele>
        <time>2013-02-09T10:35:00Z</time>
      </trkpt>
      <trkpt lat="43.01998" lon="0.10145">
        <ele>1359</ele>
        <time>2013-02-09T10:35:02Z</time>
      </trkpt>
      <trkpt lat="43.01998" lon="0.10143">
        <ele>1359</ele>
        <time>2013-02-09T10:35:04Z</time>
      </trkpt>
      <trkpt lat="43.01997" lon="0.10141">
        <ele>1359</ele>
        <time>2013-02-09T10:35:06Z</time>
      </trkpt>
      <trkpt lat="43.01997" lon="0.10139">
        <ele>1359</ele>
        <time>2013-02-09T10:35:08Z</time>
      </trkpt>
      <trkpt lat="43.01996" lon="0.10137">
        <ele>1360</ele>
        <time>2013-02-09T10:35:10Z</time>
      </trkpt>
      <trkpt lat="43.01996" lon="0.10136">
        <ele>1360</ele>
        <time>2013-02-09T10:35:12Z</time>
      </trkpt>
      <trkpt lat="43.01995" lon="0.10134">
        <ele>1360</ele>
        <time>2013-02-09T10:35:14Z</time>
      </trkpt>
      <trkpt lat="43.01994" lon="0.10132">
        <ele>1360</ele>
        <time>2013-02-09T10:35:16Z</time>
      </trkpt>
      <trkpt lat="43.01994" lon="0.10131">
        <ele>1361</ele>
        <time>2013-02-09T10:35:18Z</time>
      </trkpt>
      <trkpt lat="43.01994" lon="0.10129">
        <ele>1361</ele>
        <time>2013-02-09T10:35:20Z</time>
      </trkpt>
      <trkpt lat="43.01993" lon="0.10127">
        <ele>1362</ele>
        <time>2013-02-09T10:35:22Z</time>
      </trkpt>
      <trkpt lat="43.01992" lon="0.10125">
        <ele>1362</ele>
        <time>2013-02-09T10:35:24Z</time>
      </trkpt>
      <trkpt lat="43.01992" lon="0.10124">
        <ele>1363</ele>
        <time>2013-02-09T10:35:26Z</time>
      </trkpt>
      <trkpt lat="43.01991" lon="0.10122">
        <ele>1363</ele>
        <time>2013-02-09T10:35:28Z</time>
      </trkpt>
      <trkpt lat="43.01991" lon="0.1012">
        <ele>1364</ele>
        <time>2013-02-09T10:35:30Z</time>
      </trkpt>
      <trkpt lat="43.0199" lon="0.10119">
        <ele>1364</ele>
        <time>2013-02-09T10:35:32Z</time>
      </trkpt>
      <trkpt lat="43.0199" lon="0.10117">
        <ele>1365</ele>
        <time>2013-02-09T10:35:34Z</time>
      </trkpt>
      <trkpt lat="43.01989" lon="0.10115">
        <ele>1365</ele>
        <time>2013-02-09T10:35:36Z</time>
      </trkpt>
      <trkpt lat="43.01989" lon="0.10113">
        <ele>1366</ele>
        <time>2013-02-09T10:35:38Z</time>
      </trkpt>
      <trkpt lat="43.01988" lon="0.10112">
        <ele>1366</ele>
        <time>2013-02-09T10:35:40Z</time>
      </trkpt>
      <trkpt lat="43.01987" lon="0.1011">
        <ele>1367</ele>
        <time>2013-02-09T10:35:42Z</time>
      </trkpt>
      <trkpt lat="43.01985" lon="0.10108">
        <ele>1368</ele>
        <time>2013-02-09T10:35:45Z</time>
      </trkpt>
      <trkpt lat="43.01984" lon="0.10107">
        <ele>1368</ele>
        <time>2013-02-09T10:35:47Z</time>
      </trkpt>
      <trkpt lat="43.01983" lon="0.10106">
        <ele>1369</ele>
        <time>2013-02-09T10:35:49Z</time>
      </trkpt>
      <trkpt lat="43.01981" lon="0.10105">
        <ele>1369</ele>
        <time>2013-02-09T10:35:51Z</time>
      </trkpt>
      <trkpt lat="43.0198" lon="0.10104">
        <ele>1369</ele>
        <time>2013-02-09T10:35:53Z</time>
      </trkpt>
      <trkpt lat="43.01979" lon="0.10103">
        <ele>1369</ele>
        <time>2013-02-09T10:35:55Z</time>
      </trkpt>
      <trkpt lat="43.01977" lon="0.10102">
        <ele>1369</ele>
        <time>2013-02-09T10:35:57Z</time>
      </trkpt>
      <trkpt lat="43.01976" lon="0.10101">
        <ele>1369</ele>
        <time>2013-02-09T10:35:59Z</time>
      </trkpt>
      <trkpt lat="43.01974" lon="0.10101">
        <ele>1369</ele>
        <time>2013-02-09T10:36:01Z</time>
      </trkpt>
      <trkpt lat="43.01973" lon="0.10099">
        <ele>1369</ele>
        <time>2013-02-09T10:36:03Z</time>
      </trkpt>
      <trkpt lat="43.01971" lon="0.10098">
        <ele>1369</ele>
        <time>2013-02-09T10:36:05Z</time>
      </trkpt>
      <trkpt lat="43.0197" lon="0.10096">
        <ele>1370</ele>
        <time>2013-02-09T10:36:08Z</time>
      </trkpt>
      <trkpt lat="43.01969" lon="0.10095">
        <ele>1370</ele>
        <time>2013-02-09T10:36:10Z</time>
      </trkpt>
      <trkpt lat="43.01968" lon="0.10093">
        <ele>1370</ele>
        <time>2013-02-09T10:36:12Z</time>
      </trkpt>
      <trkpt lat="43.01967" lon="0.10091">
        <ele>1371</ele>
        <time>2013-02-09T10:36:14Z</time>
      </trkpt>
      <trkpt lat="43.01966" lon="0.1009">
        <ele>1371</ele>
        <time>2013-02-09T10:36:16Z</time>
      </trkpt>
      <trkpt lat="43.01966" lon="0.10088">
        <ele>1371</ele>
        <time>2013-02-09T10:36:18Z</time>
      </trkpt>
      <trkpt lat="43.01965" lon="0.10086">
        <ele>1372</ele>
        <time>2013-02-09T10:36:20Z</time>
      </trkpt>
      <trkpt lat="43.01964" lon="0.10083">
        <ele>1372</ele>
        <time>2013-02-09T10:36:22Z</time>
      </trkpt>
      <trkpt lat="43.01963" lon="0.10081">
        <ele>1373</ele>
        <time>2013-02-09T10:36:24Z</time>
      </trkpt>
      <trkpt lat="43.01963" lon="0.10079">
        <ele>1373</ele>
        <time>2013-02-09T10:36:26Z</time>
      </trkpt>
      <trkpt lat="43.01962" lon="0.10076">
        <ele>1374</ele>
        <time>2013-02-09T10:36:28Z</time>
      </trkpt>
      <trkpt lat="43.01962" lon="0.10074">
        <ele>1374</ele>
        <time>2013-02-09T10:36:30Z</time>
      </trkpt>
      <trkpt lat="43.01962" lon="0.10073">
        <ele>1374</ele>
        <time>2013-02-09T10:36:32Z</time>
      </trkpt>
      <trkpt lat="43.01962" lon="0.10071">
        <ele>1374</ele>
        <time>2013-02-09T10:36:34Z</time>
      </trkpt>
      <trkpt lat="43.01961" lon="0.10069">
        <ele>1374</ele>
        <time>2013-02-09T10:36:36Z</time>
      </trkpt>
      <trkpt lat="43.01961" lon="0.10067">
        <ele>1375</ele>
        <time>2013-02-09T10:36:38Z</time>
      </trkpt>
      <trkpt lat="43.01961" lon="0.10065">
        <ele>1375</ele>
        <time>2013-02-09T10:36:40Z</time>
      </trkpt>
      <trkpt lat="43.01961" lon="0.10063">
        <ele>1375</ele>
        <time>2013-02-09T10:36:42Z</time>
      </trkpt>
      <trkpt lat="43.0196" lon="0.10061">
        <ele>1376</ele>
        <time>2013-02-09T10:36:44Z</time>
      </trkpt>
      <trkpt lat="43.0196" lon="0.10059">
        <ele>1377</ele>
        <time>2013-02-09T10:36:46Z</time>
      </trkpt>
      <trkpt lat="43.0196" lon="0.10057">
        <ele>1377</ele>
        <time>2013-02-09T10:36:48Z</time>
      </trkpt>
      <trkpt lat="43.01961" lon="0.10054">
        <ele>1378</ele>
        <time>2013-02-09T10:36:50Z</time>
      </trkpt>
      <trkpt lat="43.0196" lon="0.10052">
        <ele>1378</ele>
        <time>2013-02-09T10:36:52Z</time>
      </trkpt>
      <trkpt lat="43.0196" lon="0.1005">
        <ele>1379</ele>
        <time>2013-02-09T10:37:04Z</time>
      </trkpt>
      <trkpt lat="43.0196" lon="0.10048">
        <ele>1379</ele>
        <time>2013-02-09T10:37:06Z</time>
      </trkpt>
      <trkpt lat="43.0196" lon="0.10046">
        <ele>1379</ele>
        <time>2013-02-09T10:37:08Z</time>
      </trkpt>
      <trkpt lat="43.0196" lon="0.10044">
        <ele>1379</ele>
        <time>2013-02-09T10:37:10Z</time>
      </trkpt>
      <trkpt lat="43.0196" lon="0.10042">
        <ele>1379</ele>
        <time>2013-02-09T10:37:12Z</time>
      </trkpt>
      <trkpt lat="43.0196" lon="0.1004">
        <ele>1379</ele>
        <time>2013-02-09T10:37:14Z</time>
      </trkpt>
      <trkpt lat="43.01959" lon="0.10038">
        <ele>1380</ele>
        <time>2013-02-09T10:37:16Z</time>
      </trkpt>
      <trkpt lat="43.01959" lon="0.10036">
        <ele>1380</ele>
        <time>2013-02-09T10:37:18Z</time>
      </trkpt>
      <trkpt lat="43.01958" lon="0.10034">
        <ele>1380</ele>
        <time>2013-02-09T10:37:20Z</time>
      </trkpt>
      <trkpt lat="43.01958" lon="0.10031">
        <ele>1380</ele>
        <time>2013-02-09T10:37:22Z</time>
      </trkpt>
      <trkpt lat="43.01957" lon="0.10029">
        <ele>1380</ele>
        <time>2013-02-09T10:37:24Z</time>
      </trkpt>
      <trkpt lat="43.01957" lon="0.10026">
        <ele>1380</ele>
        <time>2013-02-09T10:37:26Z</time>
      </trkpt>
      <trkpt lat="43.01956" lon="0.10024">
        <ele>1380</ele>
        <time>2013-02-09T10:37:28Z</time>
      </trkpt>
      <trkpt lat="43.01955" lon="0.10021">
        <ele>1380</ele>
        <time>2013-02-09T10:37:30Z</time>
      </trkpt>
      <trkpt lat="43.01955" lon="0.10019">
        <ele>1380</ele>
        <time>2013-02-09T10:37:32Z</time>
      </trkpt>
      <trkpt lat="43.01954" lon="0.10017">
        <ele>1380</ele>
        <time>2013-02-09T10:37:34Z</time>
      </trkpt>
      <trkpt lat="43.01953" lon="0.10014">
        <ele>1381</ele>
        <time>2013-02-09T10:37:36Z</time>
      </trkpt>
      <trkpt lat="43.01952" lon="0.10012">
        <ele>1381</ele>
        <time>2013-02-09T10:37:38Z</time>
      </trkpt>
      <trkpt lat="43.01951" lon="0.1001">
        <ele>1381</ele>
        <time>2013-02-09T10:37:40Z</time>
      </trkpt>
      <trkpt lat="43.01951" lon="0.10008">
        <ele>1381</ele>
        <time>2013-02-09T10:37:41Z</time>
      </trkpt>
      <trkpt lat="43.0195" lon="0.10006">
        <ele>1381</ele>
        <time>2013-02-09T10:37:43Z</time>
      </trkpt>
      <trkpt lat="43.01949" lon="0.10004">
        <ele>1381</ele>
        <time>2013-02-09T10:37:45Z</time>
      </trkpt>
      <trkpt lat="43.01949" lon="0.10002">
        <ele>1381</ele>
        <time>2013-02-09T10:37:46Z</time>
      </trkpt>
      <trkpt lat="43.01948" lon="0.1">
        <ele>1381</ele>
        <time>2013-02-09T10:37:48Z</time>
      </trkpt>
      <trkpt lat="43.01948" lon="0.09997">
        <ele>1381</ele>
        <time>2013-02-09T10:37:50Z</time>
      </trkpt>
      <trkpt lat="43.01947" lon="0.09995">
        <ele>1381</ele>
        <time>2013-02-09T10:37:52Z</time>
      </trkpt>
      <trkpt lat="43.01946" lon="0.09993">
        <ele>1381</ele>
        <time>2013-02-09T10:37:54Z</time>
      </trkpt>
      <trkpt lat="43.01945" lon="0.0999">
        <ele>1381</ele>
        <time>2013-02-09T10:37:56Z</time>
      </trkpt>
      <trkpt lat="43.01944" lon="0.09988">
        <ele>1381</ele>
        <time>2013-02-09T10:37:58Z</time>
      </trkpt>
      <trkpt lat="43.01944" lon="0.09985">
        <ele>1381</ele>
        <time>2013-02-09T10:38:00Z</time>
      </trkpt>
      <trkpt lat="43.01943" lon="0.09983">
        <ele>1381</ele>
        <time>2013-02-09T10:38:02Z</time>
      </trkpt>
      <trkpt lat="43.01942" lon="0.09981">
        <ele>1381</ele>
        <time>2013-02-09T10:38:04Z</time>
      </trkpt>
      <trkpt lat="43.01941" lon="0.09979">
        <ele>1381</ele>
        <time>2013-02-09T10:38:06Z</time>
      </trkpt>
      <trkpt lat="43.0194" lon="0.09977">
        <ele>1381</ele>
        <time>2013-02-09T10:38:11Z</time>
      </trkpt>
      <trkpt lat="43.01938" lon="0.09975">
        <ele>1381</ele>
        <time>2013-02-09T10:38:13Z</time>
      </trkpt>
      <trkpt lat="43.01937" lon="0.09974">
        <ele>1381</ele>
        <time>2013-02-09T10:38:15Z</time>
      </trkpt>
      <trkpt lat="43.01935" lon="0.09972">
        <ele>1381</ele>
        <time>2013-02-09T10:38:17Z</time>
      </trkpt>
      <trkpt lat="43.01934" lon="0.09971">
        <ele>1381</ele>
        <time>2013-02-09T10:38:19Z</time>
      </trkpt>
      <trkpt lat="43.01933" lon="0.09969">
        <ele>1381</ele>
        <time>2013-02-09T10:38:21Z</time>
      </trkpt>
      <trkpt lat="43.01931" lon="0.09968">
        <ele>1381</ele>
        <time>2013-02-09T10:38:23Z</time>
      </trkpt>
      <trkpt lat="43.0193" lon="0.09966">
        <ele>1381</ele>
        <time>2013-02-09T10:38:25Z</time>
      </trkpt>
      <trkpt lat="43.0193" lon="0.09964">
        <ele>1381</ele>
        <time>2013-02-09T10:38:27Z</time>
      </trkpt>
      <trkpt lat="43.01929" lon="0.09962">
        <ele>1381</ele>
        <time>2013-02-09T10:38:29Z</time>
      </trkpt>
      <trkpt lat="43.01928" lon="0.09959">
        <ele>1381</ele>
        <time>2013-02-09T10:38:31Z</time>
      </trkpt>
      <trkpt lat="43.01928" lon="0.09957">
        <ele>1381</ele>
        <time>2013-02-09T10:38:33Z</time>
      </trkpt>
      <trkpt lat="43.01927" lon="0.09955">
        <ele>1381</ele>
        <time>2013-02-09T10:38:34Z</time>
      </trkpt>
      <trkpt lat="43.01927" lon="0.09953">
        <ele>1381</ele>
        <time>2013-02-09T10:38:36Z</time>
      </trkpt>
      <trkpt lat="43.01927" lon="0.09951">
        <ele>1381</ele>
        <time>2013-02-09T10:38:38Z</time>
      </trkpt>
      <trkpt lat="43.01927" lon="0.0995">
        <ele>1381</ele>
        <time>2013-02-09T10:38:40Z</time>
      </trkpt>
      <trkpt lat="43.01927" lon="0.09948">
        <ele>1381</ele>
        <time>2013-02-09T10:41:31Z</time>
      </trkpt>
      <trkpt lat="43.01927" lon="0.0995">
        <ele>1381</ele>
        <time>2013-02-09T10:42:18Z</time>
      </trkpt>
      <trkpt lat="43.01928" lon="0.09949">
        <ele>1381</ele>
        <time>2013-02-09T10:42:35Z</time>
      </trkpt>
      <trkpt lat="43.01929" lon="0.09949">
        <ele>1381</ele>
        <time>2013-02-09T10:42:52Z</time>
      </trkpt>
      <trkpt lat="43.01928" lon="0.09949">
        <ele>1381</ele>
        <time>2013-02-09T10:43:11Z</time>
      </trkpt>
      <trkpt lat="43.01927" lon="0.09949">
        <ele>1381</ele>
        <time>2013-02-09T10:43:20Z</time>
      </trkpt>
      <trkpt lat="43.01928" lon="0.09947">
        <ele>1381</ele>
        <time>2013-02-09T10:44:37Z</time>
      </trkpt>
      <trkpt lat="43.01928" lon="0.09945">
        <ele>1381</ele>
        <time>2013-02-09T10:44:39Z</time>
      </trkpt>
      <trkpt lat="43.01929" lon="0.09944">
        <ele>1381</ele>
        <time>2013-02-09T10:44:41Z</time>
      </trkpt>
      <trkpt lat="43.0193" lon="0.09942">
        <ele>1381</ele>
        <time>2013-02-09T10:44:43Z</time>
      </trkpt>
      <trkpt lat="43.0193" lon="0.0994">
        <ele>1381</ele>
        <time>2013-02-09T10:44:45Z</time>
      </trkpt>
      <trkpt lat="43.01931" lon="0.09938">
        <ele>1381</ele>
        <time>2013-02-09T10:44:48Z</time>
      </trkpt>
      <trkpt lat="43.01932" lon="0.09937">
        <ele>1381</ele>
        <time>2013-02-09T10:44:50Z</time>
      </trkpt>
      <trkpt lat="43.01933" lon="0.09935">
        <ele>1381</ele>
        <time>2013-02-09T10:44:52Z</time>
      </trkpt>
      <trkpt lat="43.01933" lon="0.09933">
        <ele>1381</ele>
        <time>2013-02-09T10:44:54Z</time>
      </trkpt>
      <trkpt lat="43.01934" lon="0.09932">
        <ele>1381</ele>
        <time>2013-02-09T10:44:56Z</time>
      </trkpt>
      <trkpt lat="43.01934" lon="0.0993">
        <ele>1381</ele>
        <time>2013-02-09T10:44:58Z</time>
      </trkpt>
      <trkpt lat="43.01935" lon="0.09928">
        <ele>1381</ele>
        <time>2013-02-09T10:45:00Z</time>
      </trkpt>
      <trkpt lat="43.01936" lon="0.09927">
        <ele>1381</ele>
        <time>2013-02-09T10:45:02Z</time>
      </trkpt>
      <trkpt lat="43.01936" lon="0.09925">
        <ele>1381</ele>
        <time>2013-02-09T10:45:04Z</time>
      </trkpt>
      <trkpt lat="43.01936" lon="0.09923">
        <ele>1381</ele>
        <time>2013-02-09T10:45:06Z</time>
      </trkpt>
      <trkpt lat="43.01937" lon="0.09921">
        <ele>1382</ele>
        <time>2013-02-09T10:45:08Z</time>
      </trkpt>
      <trkpt lat="43.01938" lon="0.09919">
        <ele>1382</ele>
        <time>2013-02-09T10:45:10Z</time>
      </trkpt>
      <trkpt lat="43.01938" lon="0.09916">
        <ele>1383</ele>
        <time>2013-02-09T10:45:12Z</time>
      </trkpt>
      <trkpt lat="43.01937" lon="0.09914">
        <ele>1383</ele>
        <time>2013-02-09T10:45:14Z</time>
      </trkpt>
      <trkpt lat="43.01936" lon="0.09913">
        <ele>1384</ele>
        <time>2013-02-09T10:45:16Z</time>
      </trkpt>
      <trkpt lat="43.01935" lon="0.09912">
        <ele>1384</ele>
        <time>2013-02-09T10:45:18Z</time>
      </trkpt>
      <trkpt lat="43.01934" lon="0.09911">
        <ele>1384</ele>
        <time>2013-02-09T10:45:20Z</time>
      </trkpt>
      <trkpt lat="43.01933" lon="0.0991">
        <ele>1384</ele>
        <time>2013-02-09T10:45:22Z</time>
      </trkpt>
      <trkpt lat="43.01932" lon="0.09908">
        <ele>1385</ele>
        <time>2013-02-09T10:45:25Z</time>
      </trkpt>
      <trkpt lat="43.01931" lon="0.09906">
        <ele>1385</ele>
        <time>2013-02-09T10:45:27Z</time>
      </trkpt>
      <trkpt lat="43.01931" lon="0.09905">
        <ele>1386</ele>
        <time>2013-02-09T10:45:29Z</time>
      </trkpt>
      <trkpt lat="43.0193" lon="0.09903">
        <ele>1386</ele>
        <time>2013-02-09T10:45:31Z</time>
      </trkpt>
      <trkpt lat="43.01929" lon="0.09902">
        <ele>1387</ele>
        <time>2013-02-09T10:45:33Z</time>
      </trkpt>
      <trkpt lat="43.01928" lon="0.099">
        <ele>1388</ele>
        <time>2013-02-09T10:45:36Z</time>
      </trkpt>
      <trkpt lat="43.01926" lon="0.09899">
        <ele>1388</ele>
        <time>2013-02-09T10:45:39Z</time>
      </trkpt>
      <trkpt lat="43.01926" lon="0.09898">
        <ele>1388</ele>
        <time>2013-02-09T10:45:42Z</time>
      </trkpt>
      <trkpt lat="43.01927" lon="0.09896">
        <ele>1389</ele>
        <time>2013-02-09T10:45:45Z</time>
      </trkpt>
      <trkpt lat="43.01929" lon="0.09895">
        <ele>1389</ele>
        <time>2013-02-09T10:45:48Z</time>
      </trkpt>
      <trkpt lat="43.0193" lon="0.09895">
        <ele>1389</ele>
        <time>2013-02-09T10:45:50Z</time>
      </trkpt>
      <trkpt lat="43.01931" lon="0.09894">
        <ele>1389</ele>
        <time>2013-02-09T10:45:52Z</time>
      </trkpt>
      <trkpt lat="43.01933" lon="0.09894">
        <ele>1389</ele>
        <time>2013-02-09T10:45:54Z</time>
      </trkpt>
      <trkpt lat="43.01934" lon="0.09893">
        <ele>1390</ele>
        <time>2013-02-09T10:45:57Z</time>
      </trkpt>
      <trkpt lat="43.01936" lon="0.09892">
        <ele>1390</ele>
        <time>2013-02-09T10:46:00Z</time>
      </trkpt>
      <trkpt lat="43.01937" lon="0.09891">
        <ele>1390</ele>
        <time>2013-02-09T10:46:03Z</time>
      </trkpt>
      <trkpt lat="43.01938" lon="0.0989">
        <ele>1391</ele>
        <time>2013-02-09T10:46:06Z</time>
      </trkpt>
      <trkpt lat="43.01939" lon="0.09888">
        <ele>1391</ele>
        <time>2013-02-09T10:46:10Z</time>
      </trkpt>
      <trkpt lat="43.01941" lon="0.09887">
        <ele>1391</ele>
        <time>2013-02-09T10:46:14Z</time>
      </trkpt>
      <trkpt lat="43.01942" lon="0.09885">
        <ele>1392</ele>
        <time>2013-02-09T10:46:18Z</time>
      </trkpt>
      <trkpt lat="43.01943" lon="0.09884">
        <ele>1392</ele>
        <time>2013-02-09T10:46:22Z</time>
      </trkpt>
      <trkpt lat="43.01944" lon="0.09882">
        <ele>1392</ele>
        <time>2013-02-09T10:46:25Z</time>
      </trkpt>
      <trkpt lat="43.01943" lon="0.09881">
        <ele>1392</ele>
        <time>2013-02-09T10:46:29Z</time>
      </trkpt>
      <trkpt lat="43.01942" lon="0.09879">
        <ele>1392</ele>
        <time>2013-02-09T10:46:32Z</time>
      </trkpt>
      <trkpt lat="43.0194" lon="0.09879">
        <ele>1392</ele>
        <time>2013-02-09T10:46:35Z</time>
      </trkpt>
      <trkpt lat="43.01939" lon="0.09878">
        <ele>1392</ele>
        <time>2013-02-09T10:46:37Z</time>
      </trkpt>
      <trkpt lat="43.01937" lon="0.09877">
        <ele>1392</ele>
        <time>2013-02-09T10:46:39Z</time>
      </trkpt>
      <trkpt lat="43.01936" lon="0.09876">
        <ele>1393</ele>
        <time>2013-02-09T10:46:41Z</time>
      </trkpt>
      <trkpt lat="43.01935" lon="0.09876">
        <ele>1393</ele>
        <time>2013-02-09T10:46:43Z</time>
      </trkpt>
      <trkpt lat="43.01934" lon="0.09874">
        <ele>1393</ele>
        <time>2013-02-09T10:46:45Z</time>
      </trkpt>
      <trkpt lat="43.01932" lon="0.09873">
        <ele>1394</ele>
        <time>2013-02-09T10:46:47Z</time>
      </trkpt>
      <trkpt lat="43.01931" lon="0.09872">
        <ele>1394</ele>
        <time>2013-02-09T10:46:49Z</time>
      </trkpt>
      <trkpt lat="43.0193" lon="0.09871">
        <ele>1394</ele>
        <time>2013-02-09T10:46:51Z</time>
      </trkpt>
      <trkpt lat="43.01929" lon="0.09871">
        <ele>1395</ele>
        <time>2013-02-09T10:46:53Z</time>
      </trkpt>
      <trkpt lat="43.01928" lon="0.0987">
        <ele>1395</ele>
        <time>2013-02-09T10:46:55Z</time>
      </trkpt>
      <trkpt lat="43.01926" lon="0.09868">
        <ele>1396</ele>
        <time>2013-02-09T10:47:01Z</time>
      </trkpt>
      <trkpt lat="43.01926" lon="0.09867">
        <ele>1396</ele>
        <time>2013-02-09T10:47:04Z</time>
      </trkpt>
      <trkpt lat="43.01924" lon="0.09865">
        <ele>1396</ele>
        <time>2013-02-09T10:47:09Z</time>
      </trkpt>
      <trkpt lat="43.01923" lon="0.09863">
        <ele>1396</ele>
        <time>2013-02-09T10:47:18Z</time>
      </trkpt>
      <trkpt lat="43.01925" lon="0.09863">
        <ele>1396</ele>
        <time>2013-02-09T10:47:29Z</time>
      </trkpt>
      <trkpt lat="43.01926" lon="0.09863">
        <ele>1396</ele>
        <time>2013-02-09T10:47:31Z</time>
      </trkpt>
      <trkpt lat="43.01928" lon="0.09863">
        <ele>1396</ele>
        <time>2013-02-09T10:47:33Z</time>
      </trkpt>
      <trkpt lat="43.01929" lon="0.09862">
        <ele>1396</ele>
        <time>2013-02-09T10:47:35Z</time>
      </trkpt>
      <trkpt lat="43.01931" lon="0.09862">
        <ele>1397</ele>
        <time>2013-02-09T10:47:37Z</time>
      </trkpt>
      <trkpt lat="43.01932" lon="0.09861">
        <ele>1397</ele>
        <time>2013-02-09T10:47:39Z</time>
      </trkpt>
      <trkpt lat="43.01933" lon="0.0986">
        <ele>1397</ele>
        <time>2013-02-09T10:47:41Z</time>
      </trkpt>
      <trkpt lat="43.01934" lon="0.09859">
        <ele>1398</ele>
        <time>2013-02-09T10:47:43Z</time>
      </trkpt>
      <trkpt lat="43.01936" lon="0.09858">
        <ele>1398</ele>
        <time>2013-02-09T10:47:45Z</time>
      </trkpt>
      <trkpt lat="43.01937" lon="0.09858">
        <ele>1398</ele>
        <time>2013-02-09T10:47:47Z</time>
      </trkpt>
      <trkpt lat="43.01938" lon="0.09856">
        <ele>1399</ele>
        <time>2013-02-09T10:47:49Z</time>
      </trkpt>
      <trkpt lat="43.01939" lon="0.09855">
        <ele>1399</ele>
        <time>2013-02-09T10:47:51Z</time>
      </trkpt>
      <trkpt lat="43.01941" lon="0.09854">
        <ele>1399</ele>
        <time>2013-02-09T10:47:53Z</time>
      </trkpt>
      <trkpt lat="43.01942" lon="0.09853">
        <ele>1401</ele>
        <time>2013-02-09T10:48:04Z</time>
      </trkpt>
      <trkpt lat="43.01943" lon="0.09853">
        <ele>1401</ele>
        <time>2013-02-09T10:48:06Z</time>
      </trkpt>
      <trkpt lat="43.01942" lon="0.09851">
        <ele>1401</ele>
        <time>2013-02-09T10:48:26Z</time>
      </trkpt>
      <trkpt lat="43.0194" lon="0.0985">
        <ele>1401</ele>
        <time>2013-02-09T10:48:28Z</time>
      </trkpt>
      <trkpt lat="43.01939" lon="0.0985">
        <ele>1401</ele>
        <time>2013-02-09T10:48:30Z</time>
      </trkpt>
      <trkpt lat="43.01937" lon="0.09849">
        <ele>1401</ele>
        <time>2013-02-09T10:48:32Z</time>
      </trkpt>
      <trkpt lat="43.01936" lon="0.09848">
        <ele>1401</ele>
        <time>2013-02-09T10:48:34Z</time>
      </trkpt>
      <trkpt lat="43.01934" lon="0.09847">
        <ele>1402</ele>
        <time>2013-02-09T10:48:36Z</time>
      </trkpt>
      <trkpt lat="43.01933" lon="0.09845">
        <ele>1402</ele>
        <time>2013-02-09T10:48:38Z</time>
      </trkpt>
      <trkpt lat="43.01932" lon="0.09844">
        <ele>1402</ele>
        <time>2013-02-09T10:48:40Z</time>
      </trkpt>
      <trkpt lat="43.01931" lon="0.09843">
        <ele>1402</ele>
        <time>2013-02-09T10:48:42Z</time>
      </trkpt>
      <trkpt lat="43.01929" lon="0.09841">
        <ele>1403</ele>
        <time>2013-02-09T10:48:45Z</time>
      </trkpt>
      <trkpt lat="43.01928" lon="0.0984">
        <ele>1403</ele>
        <time>2013-02-09T10:48:47Z</time>
      </trkpt>
      <trkpt lat="43.01927" lon="0.09838">
        <ele>1403</ele>
        <time>2013-02-09T10:48:49Z</time>
      </trkpt>
      <trkpt lat="43.01926" lon="0.09838">
        <ele>1403</ele>
        <time>2013-02-09T10:48:51Z</time>
      </trkpt>
      <trkpt lat="43.01924" lon="0.09837">
        <ele>1404</ele>
        <time>2013-02-09T10:48:53Z</time>
      </trkpt>
      <trkpt lat="43.01923" lon="0.09836">
        <ele>1404</ele>
        <time>2013-02-09T10:48:55Z</time>
      </trkpt>
      <trkpt lat="43.01922" lon="0.09835">
        <ele>1404</ele>
        <time>2013-02-09T10:48:57Z</time>
      </trkpt>
      <trkpt lat="43.0192" lon="0.09834">
        <ele>1405</ele>
        <time>2013-02-09T10:48:59Z</time>
      </trkpt>
      <trkpt lat="43.01919" lon="0.09833">
        <ele>1405</ele>
        <time>2013-02-09T10:49:01Z</time>
      </trkpt>
      <trkpt lat="43.01918" lon="0.09831">
        <ele>1405</ele>
        <time>2013-02-09T10:49:03Z</time>
      </trkpt>
      <trkpt lat="43.01917" lon="0.0983">
        <ele>1405</ele>
        <time>2013-02-09T10:49:05Z</time>
      </trkpt>
      <trkpt lat="43.01915" lon="0.09829">
        <ele>1405</ele>
        <time>2013-02-09T10:49:07Z</time>
      </trkpt>
      <trkpt lat="43.01914" lon="0.09827">
        <ele>1406</ele>
        <time>2013-02-09T10:49:10Z</time>
      </trkpt>
      <trkpt lat="43.01912" lon="0.09826">
        <ele>1406</ele>
        <time>2013-02-09T10:49:13Z</time>
      </trkpt>
      <trkpt lat="43.01911" lon="0.09825">
        <ele>1406</ele>
        <time>2013-02-09T10:49:20Z</time>
      </trkpt>
      <trkpt lat="43.0191" lon="0.09825">
        <ele>1407</ele>
        <time>2013-02-09T10:49:32Z</time>
      </trkpt>
      <trkpt lat="43.0191" lon="0.09823">
        <ele>1407</ele>
        <time>2013-02-09T10:50:04Z</time>
      </trkpt>
      <trkpt lat="43.01912" lon="0.09821">
        <ele>1407</ele>
        <time>2013-02-09T10:50:06Z</time>
      </trkpt>
      <trkpt lat="43.01913" lon="0.0982">
        <ele>1407</ele>
        <time>2013-02-09T10:50:08Z</time>
      </trkpt>
      <trkpt lat="43.01914" lon="0.09819">
        <ele>1407</ele>
        <time>2013-02-09T10:50:10Z</time>
      </trkpt>
      <trkpt lat="43.01916" lon="0.09819">
        <ele>1407</ele>
        <time>2013-02-09T10:50:13Z</time>
      </trkpt>
      <trkpt lat="43.01917" lon="0.09818">
        <ele>1407</ele>
        <time>2013-02-09T10:50:16Z</time>
      </trkpt>
      <trkpt lat="43.01918" lon="0.09818">
        <ele>1408</ele>
        <time>2013-02-09T10:50:24Z</time>
      </trkpt>
      <trkpt lat="43.01918" lon="0.09816">
        <ele>1408</ele>
        <time>2013-02-09T10:50:30Z</time>
      </trkpt>
      <trkpt lat="43.01917" lon="0.09815">
        <ele>1408</ele>
        <time>2013-02-09T10:50:33Z</time>
      </trkpt>
      <trkpt lat="43.01916" lon="0.09814">
        <ele>1408</ele>
        <time>2013-02-09T10:50:35Z</time>
      </trkpt>
      <trkpt lat="43.01915" lon="0.09812">
        <ele>1409</ele>
        <time>2013-02-09T10:50:43Z</time>
      </trkpt>
      <trkpt lat="43.01913" lon="0.09811">
        <ele>1409</ele>
        <time>2013-02-09T10:50:45Z</time>
      </trkpt>
      <trkpt lat="43.01912" lon="0.0981">
        <ele>1409</ele>
        <time>2013-02-09T10:50:47Z</time>
      </trkpt>
      <trkpt lat="43.0191" lon="0.09809">
        <ele>1410</ele>
        <time>2013-02-09T10:50:49Z</time>
      </trkpt>
      <trkpt lat="43.01909" lon="0.09809">
        <ele>1410</ele>
        <time>2013-02-09T10:50:51Z</time>
      </trkpt>
      <trkpt lat="43.01908" lon="0.09808">
        <ele>1411</ele>
        <time>2013-02-09T10:50:53Z</time>
      </trkpt>
      <trkpt lat="43.01906" lon="0.09808">
        <ele>1411</ele>
        <time>2013-02-09T10:50:55Z</time>
      </trkpt>
      <trkpt lat="43.01905" lon="0.09807">
        <ele>1412</ele>
        <time>2013-02-09T10:50:57Z</time>
      </trkpt>
      <trkpt lat="43.01903" lon="0.09807">
        <ele>1412</ele>
        <time>2013-02-09T10:50:59Z</time>
      </trkpt>
      <trkpt lat="43.01902" lon="0.09807">
        <ele>1413</ele>
        <time>2013-02-09T10:51:01Z</time>
      </trkpt>
      <trkpt lat="43.019" lon="0.09807">
        <ele>1414</ele>
        <time>2013-02-09T10:51:03Z</time>
      </trkpt>
      <trkpt lat="43.01899" lon="0.09807">
        <ele>1414</ele>
        <time>2013-02-09T10:51:05Z</time>
      </trkpt>
      <trkpt lat="43.01898" lon="0.09807">
        <ele>1415</ele>
        <time>2013-02-09T10:51:07Z</time>
      </trkpt>
      <trkpt lat="43.01897" lon="0.09806">
        <ele>1416</ele>
        <time>2013-02-09T10:51:09Z</time>
      </trkpt>
      <trkpt lat="43.01895" lon="0.09806">
        <ele>1416</ele>
        <time>2013-02-09T10:51:11Z</time>
      </trkpt>
      <trkpt lat="43.01894" lon="0.09806">
        <ele>1417</ele>
        <time>2013-02-09T10:51:13Z</time>
      </trkpt>
      <trkpt lat="43.01893" lon="0.09804">
        <ele>1418</ele>
        <time>2013-02-09T10:51:17Z</time>
      </trkpt>
      <trkpt lat="43.01891" lon="0.09803">
        <ele>1419</ele>
        <time>2013-02-09T10:51:23Z</time>
      </trkpt>
      <trkpt lat="43.0189" lon="0.09802">
        <ele>1420</ele>
        <time>2013-02-09T10:51:26Z</time>
      </trkpt>
      <trkpt lat="43.01889" lon="0.09801">
        <ele>1420</ele>
        <time>2013-02-09T10:51:30Z</time>
      </trkpt>
      <trkpt lat="43.01888" lon="0.098">
        <ele>1421</ele>
        <time>2013-02-09T10:51:34Z</time>
      </trkpt>
      <trkpt lat="43.01887" lon="0.09799">
        <ele>1421</ele>
        <time>2013-02-09T10:51:37Z</time>
      </trkpt>
      <trkpt lat="43.01886" lon="0.09798">
        <ele>1422</ele>
        <time>2013-02-09T10:51:40Z</time>
      </trkpt>
      <trkpt lat="43.01884" lon="0.09796">
        <ele>1422</ele>
        <time>2013-02-09T10:51:43Z</time>
      </trkpt>
      <trkpt lat="43.01883" lon="0.09795">
        <ele>1423</ele>
        <time>2013-02-09T10:51:46Z</time>
      </trkpt>
      <trkpt lat="43.01881" lon="0.09794">
        <ele>1424</ele>
        <time>2013-02-09T10:51:49Z</time>
      </trkpt>
      <trkpt lat="43.0188" lon="0.09792">
        <ele>1425</ele>
        <time>2013-02-09T10:51:52Z</time>
      </trkpt>
      <trkpt lat="43.01879" lon="0.09791">
        <ele>1425</ele>
        <time>2013-02-09T10:51:55Z</time>
      </trkpt>
      <trkpt lat="43.01877" lon="0.09789">
        <ele>1426</ele>
        <time>2013-02-09T10:51:58Z</time>
      </trkpt>
      <trkpt lat="43.01876" lon="0.09788">
        <ele>1427</ele>
        <time>2013-02-09T10:52:11Z</time>
      </trkpt>
      <trkpt lat="43.01875" lon="0.09787">
        <ele>1427</ele>
        <time>2013-02-09T10:52:13Z</time>
      </trkpt>
      <trkpt lat="43.01873" lon="0.09785">
        <ele>1427</ele>
        <time>2013-02-09T10:52:16Z</time>
      </trkpt>
      <trkpt lat="43.01872" lon="0.09784">
        <ele>1428</ele>
        <time>2013-02-09T10:52:19Z</time>
      </trkpt>
      <trkpt lat="43.01871" lon="0.09782">
        <ele>1429</ele>
        <time>2013-02-09T10:52:22Z</time>
      </trkpt>
      <trkpt lat="43.0187" lon="0.09781">
        <ele>1429</ele>
        <time>2013-02-09T10:52:25Z</time>
      </trkpt>
      <trkpt lat="43.01868" lon="0.09779">
        <ele>1430</ele>
        <time>2013-02-09T10:52:28Z</time>
      </trkpt>
      <trkpt lat="43.01867" lon="0.09778">
        <ele>1430</ele>
        <time>2013-02-09T10:52:30Z</time>
      </trkpt>
      <trkpt lat="43.01865" lon="0.09776">
        <ele>1431</ele>
        <time>2013-02-09T10:52:33Z</time>
      </trkpt>
      <trkpt lat="43.01864" lon="0.09775">
        <ele>1432</ele>
        <time>2013-02-09T10:52:35Z</time>
      </trkpt>
      <trkpt lat="43.01863" lon="0.09773">
        <ele>1432</ele>
        <time>2013-02-09T10:52:37Z</time>
      </trkpt>
      <trkpt lat="43.01862" lon="0.09772">
        <ele>1432</ele>
        <time>2013-02-09T10:52:39Z</time>
      </trkpt>
      <trkpt lat="43.01861" lon="0.09771">
        <ele>1433</ele>
        <time>2013-02-09T10:52:41Z</time>
      </trkpt>
      <trkpt lat="43.0186" lon="0.09769">
        <ele>1433</ele>
        <time>2013-02-09T10:52:43Z</time>
      </trkpt>
      <trkpt lat="43.01859" lon="0.09768">
        <ele>1434</ele>
        <time>2013-02-09T10:52:45Z</time>
      </trkpt>
      <trkpt lat="43.01858" lon="0.09766">
        <ele>1434</ele>
        <time>2013-02-09T10:52:47Z</time>
      </trkpt>
      <trkpt lat="43.01857" lon="0.09764">
        <ele>1435</ele>
        <time>2013-02-09T10:52:49Z</time>
      </trkpt>
      <trkpt lat="43.01856" lon="0.09763">
        <ele>1435</ele>
        <time>2013-02-09T10:52:51Z</time>
      </trkpt>
      <trkpt lat="43.01855" lon="0.09762">
        <ele>1436</ele>
        <time>2013-02-09T10:52:53Z</time>
      </trkpt>
      <trkpt lat="43.01853" lon="0.0976">
        <ele>1436</ele>
        <time>2013-02-09T10:52:56Z</time>
      </trkpt>
      <trkpt lat="43.01852" lon="0.09759">
        <ele>1437</ele>
        <time>2013-02-09T10:52:58Z</time>
      </trkpt>
      <trkpt lat="43.01851" lon="0.09758">
        <ele>1437</ele>
        <time>2013-02-09T10:53:00Z</time>
      </trkpt>
      <trkpt lat="43.01849" lon="0.09757">
        <ele>1437</ele>
        <time>2013-02-09T10:53:02Z</time>
      </trkpt>
      <trkpt lat="43.01848" lon="0.09756">
        <ele>1437</ele>
        <time>2013-02-09T10:53:04Z</time>
      </trkpt>
      <trkpt lat="43.01846" lon="0.09755">
        <ele>1437</ele>
        <time>2013-02-09T10:53:06Z</time>
      </trkpt>
      <trkpt lat="43.01845" lon="0.09754">
        <ele>1437</ele>
        <time>2013-02-09T10:53:08Z</time>
      </trkpt>
      <trkpt lat="43.01844" lon="0.09753">
        <ele>1437</ele>
        <time>2013-02-09T10:53:10Z</time>
      </trkpt>
      <trkpt lat="43.01843" lon="0.09752">
        <ele>1437</ele>
        <time>2013-02-09T10:53:12Z</time>
      </trkpt>
      <trkpt lat="43.01841" lon="0.09751">
        <ele>1437</ele>
        <time>2013-02-09T10:53:14Z</time>
      </trkpt>
      <trkpt lat="43.0184" lon="0.0975">
        <ele>1438</ele>
        <time>2013-02-09T10:53:16Z</time>
      </trkpt>
      <trkpt lat="43.01839" lon="0.09749">
        <ele>1438</ele>
        <time>2013-02-09T10:53:18Z</time>
      </trkpt>
      <trkpt lat="43.01837" lon="0.09748">
        <ele>1438</ele>
        <time>2013-02-09T10:53:20Z</time>
      </trkpt>
      <trkpt lat="43.01836" lon="0.09747">
        <ele>1438</ele>
        <time>2013-02-09T10:53:22Z</time>
      </trkpt>
      <trkpt lat="43.01834" lon="0.09746">
        <ele>1438</ele>
        <time>2013-02-09T10:53:24Z</time>
      </trkpt>
      <trkpt lat="43.01833" lon="0.09745">
        <ele>1438</ele>
        <time>2013-02-09T10:53:37Z</time>
      </trkpt>
      <trkpt lat="43.01832" lon="0.09745">
        <ele>1438</ele>
        <time>2013-02-09T10:53:39Z</time>
      </trkpt>
      <trkpt lat="43.0183" lon="0.09744">
        <ele>1438</ele>
        <time>2013-02-09T10:53:41Z</time>
      </trkpt>
      <trkpt lat="43.01829" lon="0.09743">
        <ele>1438</ele>
        <time>2013-02-09T10:53:43Z</time>
      </trkpt>
      <trkpt lat="43.01828" lon="0.09742">
        <ele>1438</ele>
        <time>2013-02-09T10:53:45Z</time>
      </trkpt>
      <trkpt lat="43.01826" lon="0.09742">
        <ele>1439</ele>
        <time>2013-02-09T10:53:47Z</time>
      </trkpt>
      <trkpt lat="43.01825" lon="0.09741">
        <ele>1439</ele>
        <time>2013-02-09T10:53:49Z</time>
      </trkpt>
      <trkpt lat="43.01823" lon="0.09741">
        <ele>1439</ele>
        <time>2013-02-09T10:53:51Z</time>
      </trkpt>
      <trkpt lat="43.01822" lon="0.0974">
        <ele>1439</ele>
        <time>2013-02-09T10:53:53Z</time>
      </trkpt>
      <trkpt lat="43.0182" lon="0.09739">
        <ele>1440</ele>
        <time>2013-02-09T10:53:55Z</time>
      </trkpt>
      <trkpt lat="43.01819" lon="0.09738">
        <ele>1440</ele>
        <time>2013-02-09T10:53:57Z</time>
      </trkpt>
      <trkpt lat="43.01817" lon="0.09738">
        <ele>1440</ele>
        <time>2013-02-09T10:53:59Z</time>
      </trkpt>
      <trkpt lat="43.01816" lon="0.09737">
        <ele>1440</ele>
        <time>2013-02-09T10:54:01Z</time>
      </trkpt>
      <trkpt lat="43.01814" lon="0.09736">
        <ele>1440</ele>
        <time>2013-02-09T10:54:03Z</time>
      </trkpt>
      <trkpt lat="43.01813" lon="0.09736">
        <ele>1441</ele>
        <time>2013-02-09T10:54:05Z</time>
      </trkpt>
      <trkpt lat="43.01811" lon="0.09735">
        <ele>1441</ele>
        <time>2013-02-09T10:54:07Z</time>
      </trkpt>
      <trkpt lat="43.0181" lon="0.09735">
        <ele>1441</ele>
        <time>2013-02-09T10:54:09Z</time>
      </trkpt>
      <trkpt lat="43.01808" lon="0.09734">
        <ele>1441</ele>
        <time>2013-02-09T10:54:11Z</time>
      </trkpt>
      <trkpt lat="43.01807" lon="0.09733">
        <ele>1441</ele>
        <time>2013-02-09T10:54:13Z</time>
      </trkpt>
      <trkpt lat="43.01805" lon="0.09732">
        <ele>1442</ele>
        <time>2013-02-09T10:54:15Z</time>
      </trkpt>
      <trkpt lat="43.01804" lon="0.09731">
        <ele>1442</ele>
        <time>2013-02-09T10:54:17Z</time>
      </trkpt>
      <trkpt lat="43.01803" lon="0.0973">
        <ele>1442</ele>
        <time>2013-02-09T10:54:19Z</time>
      </trkpt>
      <trkpt lat="43.01801" lon="0.09729">
        <ele>1443</ele>
        <time>2013-02-09T10:54:21Z</time>
      </trkpt>
      <trkpt lat="43.018" lon="0.09728">
        <ele>1443</ele>
        <time>2013-02-09T10:54:23Z</time>
      </trkpt>
      <trkpt lat="43.01798" lon="0.09728">
        <ele>1444</ele>
        <time>2013-02-09T10:54:32Z</time>
      </trkpt>
      <trkpt lat="43.01797" lon="0.09727">
        <ele>1444</ele>
        <time>2013-02-09T10:54:34Z</time>
      </trkpt>
      <trkpt lat="43.01796" lon="0.09726">
        <ele>1444</ele>
        <time>2013-02-09T10:54:36Z</time>
      </trkpt>
      <trkpt lat="43.01794" lon="0.09726">
        <ele>1445</ele>
        <time>2013-02-09T10:54:38Z</time>
      </trkpt>
      <trkpt lat="43.01793" lon="0.09725">
        <ele>1445</ele>
        <time>2013-02-09T10:54:40Z</time>
      </trkpt>
      <trkpt lat="43.01792" lon="0.09725">
        <ele>1446</ele>
        <time>2013-02-09T10:54:42Z</time>
      </trkpt>
      <trkpt lat="43.0179" lon="0.09724">
        <ele>1446</ele>
        <time>2013-02-09T10:54:44Z</time>
      </trkpt>
      <trkpt lat="43.01789" lon="0.09724">
        <ele>1446</ele>
        <time>2013-02-09T10:54:46Z</time>
      </trkpt>
      <trkpt lat="43.01788" lon="0.09723">
        <ele>1447</ele>
        <time>2013-02-09T10:54:48Z</time>
      </trkpt>
      <trkpt lat="43.01786" lon="0.09723">
        <ele>1447</ele>
        <time>2013-02-09T10:54:50Z</time>
      </trkpt>
      <trkpt lat="43.01785" lon="0.09722">
        <ele>1447</ele>
        <time>2013-02-09T10:54:52Z</time>
      </trkpt>
      <trkpt lat="43.01783" lon="0.09722">
        <ele>1448</ele>
        <time>2013-02-09T10:54:54Z</time>
      </trkpt>
      <trkpt lat="43.01782" lon="0.09721">
        <ele>1448</ele>
        <time>2013-02-09T10:54:56Z</time>
      </trkpt>
      <trkpt lat="43.01781" lon="0.09721">
        <ele>1448</ele>
        <time>2013-02-09T10:54:58Z</time>
      </trkpt>
      <trkpt lat="43.0178" lon="0.09721">
        <ele>1449</ele>
        <time>2013-02-09T10:55:00Z</time>
      </trkpt>
      <trkpt lat="43.01778" lon="0.0972">
        <ele>1449</ele>
        <time>2013-02-09T10:55:02Z</time>
      </trkpt>
      <trkpt lat="43.01777" lon="0.0972">
        <ele>1449</ele>
        <time>2013-02-09T10:55:04Z</time>
      </trkpt>
      <trkpt lat="43.01775" lon="0.09719">
        <ele>1450</ele>
        <time>2013-02-09T10:55:06Z</time>
      </trkpt>
      <trkpt lat="43.01774" lon="0.09719">
        <ele>1450</ele>
        <time>2013-02-09T10:55:08Z</time>
      </trkpt>
      <trkpt lat="43.01773" lon="0.09719">
        <ele>1450</ele>
        <time>2013-02-09T10:55:10Z</time>
      </trkpt>
      <trkpt lat="43.01771" lon="0.09719">
        <ele>1451</ele>
        <time>2013-02-09T10:55:12Z</time>
      </trkpt>
      <trkpt lat="43.0177" lon="0.09718">
        <ele>1451</ele>
        <time>2013-02-09T10:55:14Z</time>
      </trkpt>
      <trkpt lat="43.01768" lon="0.09718">
        <ele>1451</ele>
        <time>2013-02-09T10:55:16Z</time>
      </trkpt>
      <trkpt lat="43.01767" lon="0.09718">
        <ele>1452</ele>
        <time>2013-02-09T10:55:42Z</time>
      </trkpt>
      <trkpt lat="43.01765" lon="0.09718">
        <ele>1452</ele>
        <time>2013-02-09T10:55:44Z</time>
      </trkpt>
      <trkpt lat="43.01764" lon="0.09717">
        <ele>1452</ele>
        <time>2013-02-09T10:55:46Z</time>
      </trkpt>
      <trkpt lat="43.01762" lon="0.09717">
        <ele>1453</ele>
        <time>2013-02-09T10:55:48Z</time>
      </trkpt>
      <trkpt lat="43.0176" lon="0.09717">
        <ele>1453</ele>
        <time>2013-02-09T10:55:50Z</time>
      </trkpt>
      <trkpt lat="43.01759" lon="0.09717">
        <ele>1453</ele>
        <time>2013-02-09T10:55:52Z</time>
      </trkpt>
      <trkpt lat="43.01757" lon="0.09717">
        <ele>1454</ele>
        <time>2013-02-09T10:55:54Z</time>
      </trkpt>
      <trkpt lat="43.01756" lon="0.09717">
        <ele>1454</ele>
        <time>2013-02-09T10:55:56Z</time>
      </trkpt>
      <trkpt lat="43.01754" lon="0.09716">
        <ele>1454</ele>
        <time>2013-02-09T10:55:58Z</time>
      </trkpt>
      <trkpt lat="43.01753" lon="0.09716">
        <ele>1454</ele>
        <time>2013-02-09T10:56:00Z</time>
      </trkpt>
      <trkpt lat="43.01752" lon="0.09715">
        <ele>1455</ele>
        <time>2013-02-09T10:56:02Z</time>
      </trkpt>
      <trkpt lat="43.01751" lon="0.09715">
        <ele>1455</ele>
        <time>2013-02-09T10:56:04Z</time>
      </trkpt>
      <trkpt lat="43.01749" lon="0.09714">
        <ele>1455</ele>
        <time>2013-02-09T10:56:06Z</time>
      </trkpt>
      <trkpt lat="43.01748" lon="0.09713">
        <ele>1456</ele>
        <time>2013-02-09T10:56:08Z</time>
      </trkpt>
      <trkpt lat="43.01746" lon="0.09713">
        <ele>1456</ele>
        <time>2013-02-09T10:56:10Z</time>
      </trkpt>
      <trkpt lat="43.01745" lon="0.09712">
        <ele>1456</ele>
        <time>2013-02-09T10:56:12Z</time>
      </trkpt>
      <trkpt lat="43.01743" lon="0.09711">
        <ele>1456</ele>
        <time>2013-02-09T10:56:14Z</time>
      </trkpt>
      <trkpt lat="43.01742" lon="0.09711">
        <ele>1456</ele>
        <time>2013-02-09T10:56:16Z</time>
      </trkpt>
      <trkpt lat="43.01741" lon="0.0971">
        <ele>1457</ele>
        <time>2013-02-09T10:56:18Z</time>
      </trkpt>
      <trkpt lat="43.0174" lon="0.09708">
        <ele>1457</ele>
        <time>2013-02-09T10:56:21Z</time>
      </trkpt>
      <trkpt lat="43.01738" lon="0.09707">
        <ele>1458</ele>
        <time>2013-02-09T10:56:24Z</time>
      </trkpt>
      <trkpt lat="43.01737" lon="0.09706">
        <ele>1458</ele>
        <time>2013-02-09T10:56:27Z</time>
      </trkpt>
      <trkpt lat="43.01736" lon="0.09704">
        <ele>1459</ele>
        <time>2013-02-09T10:56:30Z</time>
      </trkpt>
      <trkpt lat="43.01734" lon="0.09703">
        <ele>1460</ele>
        <time>2013-02-09T10:56:33Z</time>
      </trkpt>
      <trkpt lat="43.01733" lon="0.09702">
        <ele>1460</ele>
        <time>2013-02-09T10:56:37Z</time>
      </trkpt>
      <trkpt lat="43.01732" lon="0.097">
        <ele>1461</ele>
        <time>2013-02-09T10:56:40Z</time>
      </trkpt>
      <trkpt lat="43.0173" lon="0.09699">
        <ele>1461</ele>
        <time>2013-02-09T10:56:43Z</time>
      </trkpt>
      <trkpt lat="43.01729" lon="0.09698">
        <ele>1461</ele>
        <time>2013-02-09T10:56:45Z</time>
      </trkpt>
      <trkpt lat="43.01728" lon="0.09697">
        <ele>1462</ele>
        <time>2013-02-09T10:56:47Z</time>
      </trkpt>
      <trkpt lat="43.01727" lon="0.09697">
        <ele>1462</ele>
        <time>2013-02-09T10:56:49Z</time>
      </trkpt>
      <trkpt lat="43.01725" lon="0.09696">
        <ele>1462</ele>
        <time>2013-02-09T10:56:52Z</time>
      </trkpt>
      <trkpt lat="43.01724" lon="0.09694">
        <ele>1463</ele>
        <time>2013-02-09T10:56:55Z</time>
      </trkpt>
      <trkpt lat="43.01723" lon="0.09693">
        <ele>1463</ele>
        <time>2013-02-09T10:56:58Z</time>
      </trkpt>
      <trkpt lat="43.01722" lon="0.09691">
        <ele>1464</ele>
        <time>2013-02-09T10:57:02Z</time>
      </trkpt>
      <trkpt lat="43.01721" lon="0.0969">
        <ele>1465</ele>
        <time>2013-02-09T10:57:05Z</time>
      </trkpt>
      <trkpt lat="43.0172" lon="0.09689">
        <ele>1465</ele>
        <time>2013-02-09T10:57:08Z</time>
      </trkpt>
      <trkpt lat="43.01718" lon="0.09687">
        <ele>1466</ele>
        <time>2013-02-09T10:57:11Z</time>
      </trkpt>
      <trkpt lat="43.01717" lon="0.09686">
        <ele>1467</ele>
        <time>2013-02-09T10:57:14Z</time>
      </trkpt>
      <trkpt lat="43.01715" lon="0.09684">
        <ele>1467</ele>
        <time>2013-02-09T10:57:17Z</time>
      </trkpt>
      <trkpt lat="43.01714" lon="0.09683">
        <ele>1468</ele>
        <time>2013-02-09T10:57:20Z</time>
      </trkpt>
      <trkpt lat="43.01712" lon="0.09681">
        <ele>1468</ele>
        <time>2013-02-09T10:57:23Z</time>
      </trkpt>
      <trkpt lat="43.01711" lon="0.09679">
        <ele>1468</ele>
        <time>2013-02-09T10:57:26Z</time>
      </trkpt>
      <trkpt lat="43.0171" lon="0.09678">
        <ele>1469</ele>
        <time>2013-02-09T10:57:29Z</time>
      </trkpt>
      <trkpt lat="43.01709" lon="0.09676">
        <ele>1469</ele>
        <time>2013-02-09T10:57:32Z</time>
      </trkpt>
      <trkpt lat="43.01708" lon="0.09674">
        <ele>1470</ele>
        <time>2013-02-09T10:57:35Z</time>
      </trkpt>
      <trkpt lat="43.01707" lon="0.09673">
        <ele>1470</ele>
        <time>2013-02-09T10:57:37Z</time>
      </trkpt>
      <trkpt lat="43.01706" lon="0.09671">
        <ele>1470</ele>
        <time>2013-02-09T10:57:40Z</time>
      </trkpt>
      <trkpt lat="43.01704" lon="0.0967">
        <ele>1471</ele>
        <time>2013-02-09T10:57:42Z</time>
      </trkpt>
      <trkpt lat="43.01703" lon="0.09668">
        <ele>1472</ele>
        <time>2013-02-09T10:58:03Z</time>
      </trkpt>
      <trkpt lat="43.01701" lon="0.09667">
        <ele>1473</ele>
        <time>2013-02-09T10:58:06Z</time>
      </trkpt>
      <trkpt lat="43.017" lon="0.09666">
        <ele>1473</ele>
        <time>2013-02-09T10:58:08Z</time>
      </trkpt>
      <trkpt lat="43.01699" lon="0.09665">
        <ele>1473</ele>
        <time>2013-02-09T10:58:10Z</time>
      </trkpt>
      <trkpt lat="43.01698" lon="0.09663">
        <ele>1473</ele>
        <time>2013-02-09T10:58:12Z</time>
      </trkpt>
      <trkpt lat="43.01696" lon="0.09662">
        <ele>1473</ele>
        <time>2013-02-09T10:58:14Z</time>
      </trkpt>
      <trkpt lat="43.01695" lon="0.09661">
        <ele>1473</ele>
        <time>2013-02-09T10:58:16Z</time>
      </trkpt>
      <trkpt lat="43.01694" lon="0.0966">
        <ele>1473</ele>
        <time>2013-02-09T10:58:18Z</time>
      </trkpt>
      <trkpt lat="43.01693" lon="0.09658">
        <ele>1473</ele>
        <time>2013-02-09T10:58:20Z</time>
      </trkpt>
      <trkpt lat="43.01691" lon="0.09657">
        <ele>1474</ele>
        <time>2013-02-09T10:58:22Z</time>
      </trkpt>
      <trkpt lat="43.0169" lon="0.09656">
        <ele>1474</ele>
        <time>2013-02-09T10:58:24Z</time>
      </trkpt>
      <trkpt lat="43.01689" lon="0.09655">
        <ele>1474</ele>
        <time>2013-02-09T10:58:26Z</time>
      </trkpt>
      <trkpt lat="43.01688" lon="0.09653">
        <ele>1474</ele>
        <time>2013-02-09T10:58:28Z</time>
      </trkpt>
      <trkpt lat="43.01686" lon="0.09652">
        <ele>1474</ele>
        <time>2013-02-09T10:58:30Z</time>
      </trkpt>
      <trkpt lat="43.01685" lon="0.09651">
        <ele>1474</ele>
        <time>2013-02-09T10:58:32Z</time>
      </trkpt>
      <trkpt lat="43.01684" lon="0.0965">
        <ele>1474</ele>
        <time>2013-02-09T10:58:34Z</time>
      </trkpt>
      <trkpt lat="43.01683" lon="0.09648">
        <ele>1475</ele>
        <time>2013-02-09T10:58:36Z</time>
      </trkpt>
      <trkpt lat="43.01681" lon="0.09647">
        <ele>1475</ele>
        <time>2013-02-09T10:58:38Z</time>
      </trkpt>
      <trkpt lat="43.0168" lon="0.09646">
        <ele>1475</ele>
        <time>2013-02-09T10:58:40Z</time>
      </trkpt>
      <trkpt lat="43.01679" lon="0.09645">
        <ele>1475</ele>
        <time>2013-02-09T10:58:42Z</time>
      </trkpt>
      <trkpt lat="43.01678" lon="0.09644">
        <ele>1475</ele>
        <time>2013-02-09T10:58:44Z</time>
      </trkpt>
      <trkpt lat="43.01676" lon="0.09643">
        <ele>1475</ele>
        <time>2013-02-09T10:58:46Z</time>
      </trkpt>
      <trkpt lat="43.01675" lon="0.09642">
        <ele>1475</ele>
        <time>2013-02-09T10:58:48Z</time>
      </trkpt>
      <trkpt lat="43.01674" lon="0.0964">
        <ele>1476</ele>
        <time>2013-02-09T10:58:50Z</time>
      </trkpt>
      <trkpt lat="43.01673" lon="0.0964">
        <ele>1476</ele>
        <time>2013-02-09T10:58:52Z</time>
      </trkpt>
      <trkpt lat="43.01671" lon="0.09639">
        <ele>1476</ele>
        <time>2013-02-09T10:58:54Z</time>
      </trkpt>
      <trkpt lat="43.0167" lon="0.09637">
        <ele>1476</ele>
        <time>2013-02-09T10:58:56Z</time>
      </trkpt>
      <trkpt lat="43.01668" lon="0.09636">
        <ele>1476</ele>
        <time>2013-02-09T10:58:58Z</time>
      </trkpt>
      <trkpt lat="43.01667" lon="0.09635">
        <ele>1476</ele>
        <time>2013-02-09T10:59:00Z</time>
      </trkpt>
      <trkpt lat="43.01665" lon="0.09634">
        <ele>1476</ele>
        <time>2013-02-09T10:59:02Z</time>
      </trkpt>
      <trkpt lat="43.01664" lon="0.09633">
        <ele>1476</ele>
        <time>2013-02-09T10:59:04Z</time>
      </trkpt>
      <trkpt lat="43.01663" lon="0.09631">
        <ele>1476</ele>
        <time>2013-02-09T10:59:06Z</time>
      </trkpt>
      <trkpt lat="43.01662" lon="0.0963">
        <ele>1477</ele>
        <time>2013-02-09T10:59:08Z</time>
      </trkpt>
      <trkpt lat="43.0166" lon="0.09629">
        <ele>1477</ele>
        <time>2013-02-09T10:59:10Z</time>
      </trkpt>
      <trkpt lat="43.01659" lon="0.09627">
        <ele>1477</ele>
        <time>2013-02-09T10:59:12Z</time>
      </trkpt>
      <trkpt lat="43.01658" lon="0.09626">
        <ele>1477</ele>
        <time>2013-02-09T10:59:14Z</time>
      </trkpt>
      <trkpt lat="43.01657" lon="0.09625">
        <ele>1477</ele>
        <time>2013-02-09T10:59:16Z</time>
      </trkpt>
      <trkpt lat="43.01656" lon="0.09623">
        <ele>1477</ele>
        <time>2013-02-09T10:59:18Z</time>
      </trkpt>
      <trkpt lat="43.01654" lon="0.09622">
        <ele>1477</ele>
        <time>2013-02-09T10:59:20Z</time>
      </trkpt>
      <trkpt lat="43.01652" lon="0.0962">
        <ele>1477</ele>
        <time>2013-02-09T10:59:23Z</time>
      </trkpt>
      <trkpt lat="43.01651" lon="0.09619">
        <ele>1477</ele>
        <time>2013-02-09T10:59:25Z</time>
      </trkpt>
      <trkpt lat="43.0165" lon="0.09618">
        <ele>1478</ele>
        <time>2013-02-09T10:59:27Z</time>
      </trkpt>
      <trkpt lat="43.01648" lon="0.09617">
        <ele>1478</ele>
        <time>2013-02-09T10:59:29Z</time>
      </trkpt>
      <trkpt lat="43.01647" lon="0.09616">
        <ele>1478</ele>
        <time>2013-02-09T10:59:31Z</time>
      </trkpt>
      <trkpt lat="43.01646" lon="0.09614">
        <ele>1478</ele>
        <time>2013-02-09T10:59:34Z</time>
      </trkpt>
      <trkpt lat="43.01644" lon="0.09613">
        <ele>1478</ele>
        <time>2013-02-09T10:59:37Z</time>
      </trkpt>
      <trkpt lat="43.01642" lon="0.09611">
        <ele>1478</ele>
        <time>2013-02-09T10:59:40Z</time>
      </trkpt>
      <trkpt lat="43.01641" lon="0.0961">
        <ele>1479</ele>
        <time>2013-02-09T10:59:42Z</time>
      </trkpt>
      <trkpt lat="43.0164" lon="0.0961">
        <ele>1479</ele>
        <time>2013-02-09T10:59:44Z</time>
      </trkpt>
      <trkpt lat="43.01639" lon="0.09609">
        <ele>1479</ele>
        <time>2013-02-09T10:59:46Z</time>
      </trkpt>
      <trkpt lat="43.01638" lon="0.09608">
        <ele>1479</ele>
        <time>2013-02-09T10:59:48Z</time>
      </trkpt>
      <trkpt lat="43.01636" lon="0.09606">
        <ele>1479</ele>
        <time>2013-02-09T10:59:51Z</time>
      </trkpt>
      <trkpt lat="43.01635" lon="0.09606">
        <ele>1480</ele>
        <time>2013-02-09T10:59:53Z</time>
      </trkpt>
      <trkpt lat="43.01633" lon="0.09604">
        <ele>1480</ele>
        <time>2013-02-09T10:59:56Z</time>
      </trkpt>
      <trkpt lat="43.01632" lon="0.09603">
        <ele>1480</ele>
        <time>2013-02-09T10:59:59Z</time>
      </trkpt>
      <trkpt lat="43.01632" lon="0.09601">
        <ele>1480</ele>
        <time>2013-02-09T11:00:01Z</time>
      </trkpt>
      <trkpt lat="43.0163" lon="0.09599">
        <ele>1481</ele>
        <time>2013-02-09T11:00:04Z</time>
      </trkpt>
      <trkpt lat="43.0163" lon="0.09597">
        <ele>1482</ele>
        <time>2013-02-09T11:00:07Z</time>
      </trkpt>
      <trkpt lat="43.01629" lon="0.09596">
        <ele>1482</ele>
        <time>2013-02-09T11:00:10Z</time>
      </trkpt>
      <trkpt lat="43.01628" lon="0.09594">
        <ele>1483</ele>
        <time>2013-02-09T11:00:12Z</time>
      </trkpt>
      <trkpt lat="43.01628" lon="0.09593">
        <ele>1483</ele>
        <time>2013-02-09T11:00:14Z</time>
      </trkpt>
      <trkpt lat="43.01628" lon="0.09591">
        <ele>1483</ele>
        <time>2013-02-09T11:00:16Z</time>
      </trkpt>
      <trkpt lat="43.01627" lon="0.0959">
        <ele>1484</ele>
        <time>2013-02-09T11:00:18Z</time>
      </trkpt>
      <trkpt lat="43.01627" lon="0.09588">
        <ele>1484</ele>
        <time>2013-02-09T11:00:20Z</time>
      </trkpt>
      <trkpt lat="43.01627" lon="0.09587">
        <ele>1485</ele>
        <time>2013-02-09T11:00:22Z</time>
      </trkpt>
      <trkpt lat="43.01626" lon="0.09585">
        <ele>1485</ele>
        <time>2013-02-09T11:00:24Z</time>
      </trkpt>
      <trkpt lat="43.01627" lon="0.09584">
        <ele>1486</ele>
        <time>2013-02-09T11:00:27Z</time>
      </trkpt>
      <trkpt lat="43.01627" lon="0.09582">
        <ele>1486</ele>
        <time>2013-02-09T11:00:29Z</time>
      </trkpt>
      <trkpt lat="43.01627" lon="0.0958">
        <ele>1487</ele>
        <time>2013-02-09T11:00:31Z</time>
      </trkpt>
      <trkpt lat="43.01627" lon="0.09579">
        <ele>1487</ele>
        <time>2013-02-09T11:00:33Z</time>
      </trkpt>
      <trkpt lat="43.01627" lon="0.09577">
        <ele>1487</ele>
        <time>2013-02-09T11:00:35Z</time>
      </trkpt>
      <trkpt lat="43.01627" lon="0.09575">
        <ele>1488</ele>
        <time>2013-02-09T11:00:38Z</time>
      </trkpt>
      <trkpt lat="43.01627" lon="0.09574">
        <ele>1488</ele>
        <time>2013-02-09T11:00:40Z</time>
      </trkpt>
      <trkpt lat="43.01627" lon="0.09572">
        <ele>1488</ele>
        <time>2013-02-09T11:00:42Z</time>
      </trkpt>
      <trkpt lat="43.01627" lon="0.09571">
        <ele>1488</ele>
        <time>2013-02-09T11:00:44Z</time>
      </trkpt>
      <trkpt lat="43.01628" lon="0.09569">
        <ele>1489</ele>
        <time>2013-02-09T11:00:46Z</time>
      </trkpt>
      <trkpt lat="43.01628" lon="0.09568">
        <ele>1489</ele>
        <time>2013-02-09T11:00:48Z</time>
      </trkpt>
      <trkpt lat="43.01628" lon="0.09566">
        <ele>1489</ele>
        <time>2013-02-09T11:00:50Z</time>
      </trkpt>
      <trkpt lat="43.01628" lon="0.09565">
        <ele>1489</ele>
        <time>2013-02-09T11:00:52Z</time>
      </trkpt>
      <trkpt lat="43.01628" lon="0.09563">
        <ele>1490</ele>
        <time>2013-02-09T11:00:54Z</time>
      </trkpt>
      <trkpt lat="43.01628" lon="0.09562">
        <ele>1490</ele>
        <time>2013-02-09T11:00:56Z</time>
      </trkpt>
      <trkpt lat="43.01628" lon="0.0956">
        <ele>1490</ele>
        <time>2013-02-09T11:00:58Z</time>
      </trkpt>
      <trkpt lat="43.01628" lon="0.09559">
        <ele>1490</ele>
        <time>2013-02-09T11:01:00Z</time>
      </trkpt>
      <trkpt lat="43.01629" lon="0.09557">
        <ele>1490</ele>
        <time>2013-02-09T11:01:02Z</time>
      </trkpt>
      <trkpt lat="43.01629" lon="0.09556">
        <ele>1491</ele>
        <time>2013-02-09T11:01:04Z</time>
      </trkpt>
      <trkpt lat="43.01629" lon="0.09554">
        <ele>1491</ele>
        <time>2013-02-09T11:01:06Z</time>
      </trkpt>
      <trkpt lat="43.01629" lon="0.09553">
        <ele>1491</ele>
        <time>2013-02-09T11:01:08Z</time>
      </trkpt>
      <trkpt lat="43.01629" lon="0.09551">
        <ele>1491</ele>
        <time>2013-02-09T11:01:11Z</time>
      </trkpt>
      <trkpt lat="43.01629" lon="0.09549">
        <ele>1492</ele>
        <time>2013-02-09T11:01:14Z</time>
      </trkpt>
      <trkpt lat="43.01629" lon="0.09547">
        <ele>1492</ele>
        <time>2013-02-09T11:01:16Z</time>
      </trkpt>
      <trkpt lat="43.01629" lon="0.09546">
        <ele>1492</ele>
        <time>2013-02-09T11:01:18Z</time>
      </trkpt>
      <trkpt lat="43.01629" lon="0.09544">
        <ele>1492</ele>
        <time>2013-02-09T11:01:21Z</time>
      </trkpt>
      <trkpt lat="43.01628" lon="0.09542">
        <ele>1493</ele>
        <time>2013-02-09T11:01:24Z</time>
      </trkpt>
      <trkpt lat="43.01628" lon="0.0954">
        <ele>1493</ele>
        <time>2013-02-09T11:01:27Z</time>
      </trkpt>
      <trkpt lat="43.01628" lon="0.09538">
        <ele>1493</ele>
        <time>2013-02-09T11:01:29Z</time>
      </trkpt>
      <trkpt lat="43.01628" lon="0.09537">
        <ele>1493</ele>
        <time>2013-02-09T11:01:31Z</time>
      </trkpt>
      <trkpt lat="43.01628" lon="0.09535">
        <ele>1493</ele>
        <time>2013-02-09T11:01:33Z</time>
      </trkpt>
      <trkpt lat="43.01628" lon="0.09533">
        <ele>1494</ele>
        <time>2013-02-09T11:01:36Z</time>
      </trkpt>
      <trkpt lat="43.01628" lon="0.09531">
        <ele>1494</ele>
        <time>2013-02-09T11:01:38Z</time>
      </trkpt>
      <trkpt lat="43.01628" lon="0.0953">
        <ele>1494</ele>
        <time>2013-02-09T11:01:40Z</time>
      </trkpt>
      <trkpt lat="43.01628" lon="0.09528">
        <ele>1495</ele>
        <time>2013-02-09T11:01:42Z</time>
      </trkpt>
      <trkpt lat="43.01628" lon="0.09527">
        <ele>1495</ele>
        <time>2013-02-09T11:01:44Z</time>
      </trkpt>
      <trkpt lat="43.01628" lon="0.09525">
        <ele>1495</ele>
        <time>2013-02-09T11:01:46Z</time>
      </trkpt>
      <trkpt lat="43.01627" lon="0.09523">
        <ele>1496</ele>
        <time>2013-02-09T11:01:49Z</time>
      </trkpt>
      <trkpt lat="43.01627" lon="0.09522">
        <ele>1496</ele>
        <time>2013-02-09T11:01:51Z</time>
      </trkpt>
      <trkpt lat="43.01627" lon="0.0952">
        <ele>1496</ele>
        <time>2013-02-09T11:01:53Z</time>
      </trkpt>
      <trkpt lat="43.01627" lon="0.09519">
        <ele>1496</ele>
        <time>2013-02-09T11:01:55Z</time>
      </trkpt>
      <trkpt lat="43.01627" lon="0.09517">
        <ele>1496</ele>
        <time>2013-02-09T11:01:58Z</time>
      </trkpt>
      <trkpt lat="43.01627" lon="0.09515">
        <ele>1497</ele>
        <time>2013-02-09T11:02:01Z</time>
      </trkpt>
      <trkpt lat="43.01627" lon="0.09513">
        <ele>1497</ele>
        <time>2013-02-09T11:02:03Z</time>
      </trkpt>
      <trkpt lat="43.01627" lon="0.09512">
        <ele>1497</ele>
        <time>2013-02-09T11:02:05Z</time>
      </trkpt>
      <trkpt lat="43.01627" lon="0.0951">
        <ele>1497</ele>
        <time>2013-02-09T11:02:07Z</time>
      </trkpt>
      <trkpt lat="43.01627" lon="0.09509">
        <ele>1498</ele>
        <time>2013-02-09T11:02:09Z</time>
      </trkpt>
      <trkpt lat="43.01627" lon="0.09507">
        <ele>1498</ele>
        <time>2013-02-09T11:02:12Z</time>
      </trkpt>
      <trkpt lat="43.01627" lon="0.09505">
        <ele>1498</ele>
        <time>2013-02-09T11:02:14Z</time>
      </trkpt>
      <trkpt lat="43.01628" lon="0.09504">
        <ele>1498</ele>
        <time>2013-02-09T11:02:16Z</time>
      </trkpt>
      <trkpt lat="43.01628" lon="0.09502">
        <ele>1499</ele>
        <time>2013-02-09T11:02:18Z</time>
      </trkpt>
      <trkpt lat="43.01628" lon="0.09501">
        <ele>1499</ele>
        <time>2013-02-09T11:02:20Z</time>
      </trkpt>
      <trkpt lat="43.01628" lon="0.09499">
        <ele>1499</ele>
        <time>2013-02-09T11:02:22Z</time>
      </trkpt>
      <trkpt lat="43.01628" lon="0.09497">
        <ele>1499</ele>
        <time>2013-02-09T11:02:25Z</time>
      </trkpt>
      <trkpt lat="43.01628" lon="0.09495">
        <ele>1500</ele>
        <time>2013-02-09T11:02:28Z</time>
      </trkpt>
      <trkpt lat="43.01629" lon="0.09494">
        <ele>1500</ele>
        <time>2013-02-09T11:02:30Z</time>
      </trkpt>
      <trkpt lat="43.0163" lon="0.09492">
        <ele>1500</ele>
        <time>2013-02-09T11:02:33Z</time>
      </trkpt>
      <trkpt lat="43.0163" lon="0.0949">
        <ele>1500</ele>
        <time>2013-02-09T11:02:36Z</time>
      </trkpt>
      <trkpt lat="43.01631" lon="0.09488">
        <ele>1501</ele>
        <time>2013-02-09T11:02:39Z</time>
      </trkpt>
      <trkpt lat="43.01632" lon="0.09487">
        <ele>1501</ele>
        <time>2013-02-09T11:02:41Z</time>
      </trkpt>
      <trkpt lat="43.01632" lon="0.09484">
        <ele>1501</ele>
        <time>2013-02-09T11:02:44Z</time>
      </trkpt>
      <trkpt lat="43.01632" lon="0.09483">
        <ele>1501</ele>
        <time>2013-02-09T11:02:46Z</time>
      </trkpt>
      <trkpt lat="43.01633" lon="0.09482">
        <ele>1501</ele>
        <time>2013-02-09T11:02:48Z</time>
      </trkpt>
      <trkpt lat="43.01633" lon="0.0948">
        <ele>1501</ele>
        <time>2013-02-09T11:02:50Z</time>
      </trkpt>
      <trkpt lat="43.01633" lon="0.09478">
        <ele>1501</ele>
        <time>2013-02-09T11:02:52Z</time>
      </trkpt>
      <trkpt lat="43.01632" lon="0.09477">
        <ele>1501</ele>
        <time>2013-02-09T11:02:54Z</time>
      </trkpt>
      <trkpt lat="43.01632" lon="0.09475">
        <ele>1501</ele>
        <time>2013-02-09T11:02:56Z</time>
      </trkpt>
      <trkpt lat="43.01632" lon="0.09474">
        <ele>1502</ele>
        <time>2013-02-09T11:02:58Z</time>
      </trkpt>
      <trkpt lat="43.01631" lon="0.09472">
        <ele>1502</ele>
        <time>2013-02-09T11:03:01Z</time>
      </trkpt>
      <trkpt lat="43.0163" lon="0.0947">
        <ele>1502</ele>
        <time>2013-02-09T11:03:03Z</time>
      </trkpt>
      <trkpt lat="43.0163" lon="0.09468">
        <ele>1503</ele>
        <time>2013-02-09T11:03:06Z</time>
      </trkpt>
      <trkpt lat="43.0163" lon="0.09467">
        <ele>1503</ele>
        <time>2013-02-09T11:03:09Z</time>
      </trkpt>
      <trkpt lat="43.01629" lon="0.09465">
        <ele>1503</ele>
        <time>2013-02-09T11:03:11Z</time>
      </trkpt>
      <trkpt lat="43.01628" lon="0.09464">
        <ele>1503</ele>
        <time>2013-02-09T11:03:13Z</time>
      </trkpt>
      <trkpt lat="43.0163" lon="0.09463">
        <ele>1506</ele>
        <time>2013-02-09T11:03:55Z</time>
      </trkpt>
      <trkpt lat="43.01631" lon="0.09464">
        <ele>1506</ele>
        <time>2013-02-09T11:04:50Z</time>
      </trkpt>
      <trkpt lat="43.01631" lon="0.09463">
        <ele>1506</ele>
        <time>2013-02-09T11:06:04Z</time>
      </trkpt>
      <trkpt lat="43.01629" lon="0.09462">
        <ele>1506</ele>
        <time>2013-02-09T11:06:08Z</time>
      </trkpt>
      <trkpt lat="43.01628" lon="0.0946">
        <ele>1506</ele>
        <time>2013-02-09T11:06:12Z</time>
      </trkpt>
      <trkpt lat="43.01627" lon="0.0946">
        <ele>1506</ele>
        <time>2013-02-09T11:06:14Z</time>
      </trkpt>
      <trkpt lat="43.01625" lon="0.09459">
        <ele>1506</ele>
        <time>2013-02-09T11:06:17Z</time>
      </trkpt>
      <trkpt lat="43.01624" lon="0.09458">
        <ele>1506</ele>
        <time>2013-02-09T11:06:20Z</time>
      </trkpt>
      <trkpt lat="43.01622" lon="0.09457">
        <ele>1506</ele>
        <time>2013-02-09T11:06:23Z</time>
      </trkpt>
      <trkpt lat="43.01621" lon="0.09457">
        <ele>1507</ele>
        <time>2013-02-09T11:06:26Z</time>
      </trkpt>
      <trkpt lat="43.01619" lon="0.09457">
        <ele>1507</ele>
        <time>2013-02-09T11:06:29Z</time>
      </trkpt>
      <trkpt lat="43.01618" lon="0.09456">
        <ele>1507</ele>
        <time>2013-02-09T11:06:32Z</time>
      </trkpt>
      <trkpt lat="43.01617" lon="0.09455">
        <ele>1508</ele>
        <time>2013-02-09T11:06:35Z</time>
      </trkpt>
      <trkpt lat="43.01616" lon="0.09454">
        <ele>1508</ele>
        <time>2013-02-09T11:06:39Z</time>
      </trkpt>
      <trkpt lat="43.01616" lon="0.09452">
        <ele>1509</ele>
        <time>2013-02-09T11:06:41Z</time>
      </trkpt>
      <trkpt lat="43.01617" lon="0.09449">
        <ele>1509</ele>
        <time>2013-02-09T11:06:44Z</time>
      </trkpt>
      <trkpt lat="43.01616" lon="0.09448">
        <ele>1510</ele>
        <time>2013-02-09T11:06:46Z</time>
      </trkpt>
      <trkpt lat="43.01617" lon="0.09447">
        <ele>1510</ele>
        <time>2013-02-09T11:06:48Z</time>
      </trkpt>
      <trkpt lat="43.01615" lon="0.09446">
        <ele>1510</ele>
        <time>2013-02-09T11:06:51Z</time>
      </trkpt>
      <trkpt lat="43.01614" lon="0.09447">
        <ele>1511</ele>
        <time>2013-02-09T11:06:53Z</time>
      </trkpt>
      <trkpt lat="43.01612" lon="0.09448">
        <ele>1511</ele>
        <time>2013-02-09T11:06:56Z</time>
      </trkpt>
      <trkpt lat="43.01611" lon="0.09448">
        <ele>1512</ele>
        <time>2013-02-09T11:07:00Z</time>
      </trkpt>
      <trkpt lat="43.0161" lon="0.09448">
        <ele>1512</ele>
        <time>2013-02-09T11:07:03Z</time>
      </trkpt>
      <trkpt lat="43.01609" lon="0.09447">
        <ele>1513</ele>
        <time>2013-02-09T11:07:07Z</time>
      </trkpt>
      <trkpt lat="43.01609" lon="0.09445">
        <ele>1513</ele>
        <time>2013-02-09T11:07:10Z</time>
      </trkpt>
      <trkpt lat="43.01608" lon="0.09443">
        <ele>1514</ele>
        <time>2013-02-09T11:07:13Z</time>
      </trkpt>
      <trkpt lat="43.01608" lon="0.09441">
        <ele>1514</ele>
        <time>2013-02-09T11:07:15Z</time>
      </trkpt>
      <trkpt lat="43.01608" lon="0.0944">
        <ele>1515</ele>
        <time>2013-02-09T11:07:17Z</time>
      </trkpt>
      <trkpt lat="43.01608" lon="0.09438">
        <ele>1515</ele>
        <time>2013-02-09T11:07:19Z</time>
      </trkpt>
      <trkpt lat="43.01608" lon="0.09437">
        <ele>1515</ele>
        <time>2013-02-09T11:07:22Z</time>
      </trkpt>
      <trkpt lat="43.01607" lon="0.09435">
        <ele>1516</ele>
        <time>2013-02-09T11:07:25Z</time>
      </trkpt>
      <trkpt lat="43.01607" lon="0.09433">
        <ele>1516</ele>
        <time>2013-02-09T11:07:28Z</time>
      </trkpt>
      <trkpt lat="43.01607" lon="0.09432">
        <ele>1516</ele>
        <time>2013-02-09T11:07:31Z</time>
      </trkpt>
      <trkpt lat="43.01607" lon="0.0943">
        <ele>1516</ele>
        <time>2013-02-09T11:07:33Z</time>
      </trkpt>
      <trkpt lat="43.01607" lon="0.09428">
        <ele>1517</ele>
        <time>2013-02-09T11:07:35Z</time>
      </trkpt>
      <trkpt lat="43.01607" lon="0.09426">
        <ele>1517</ele>
        <time>2013-02-09T11:07:38Z</time>
      </trkpt>
      <trkpt lat="43.01608" lon="0.09425">
        <ele>1518</ele>
        <time>2013-02-09T11:07:41Z</time>
      </trkpt>
      <trkpt lat="43.01608" lon="0.09423">
        <ele>1519</ele>
        <time>2013-02-09T11:07:48Z</time>
      </trkpt>
      <trkpt lat="43.01608" lon="0.09422">
        <ele>1519</ele>
        <time>2013-02-09T11:07:53Z</time>
      </trkpt>
      <trkpt lat="43.01606" lon="0.09423">
        <ele>1519</ele>
        <time>2013-02-09T11:08:00Z</time>
      </trkpt>
      <trkpt lat="43.01605" lon="0.09424">
        <ele>1520</ele>
        <time>2013-02-09T11:08:02Z</time>
      </trkpt>
      <trkpt lat="43.01604" lon="0.09425">
        <ele>1520</ele>
        <time>2013-02-09T11:08:04Z</time>
      </trkpt>
      <trkpt lat="43.01602" lon="0.09426">
        <ele>1520</ele>
        <time>2013-02-09T11:08:06Z</time>
      </trkpt>
      <trkpt lat="43.01601" lon="0.09428">
        <ele>1520</ele>
        <time>2013-02-09T11:08:09Z</time>
      </trkpt>
      <trkpt lat="43.016" lon="0.09429">
        <ele>1520</ele>
        <time>2013-02-09T11:08:11Z</time>
      </trkpt>
      <trkpt lat="43.01598" lon="0.0943">
        <ele>1521</ele>
        <time>2013-02-09T11:08:13Z</time>
      </trkpt>
      <trkpt lat="43.01597" lon="0.09431">
        <ele>1521</ele>
        <time>2013-02-09T11:08:16Z</time>
      </trkpt>
      <trkpt lat="43.01596" lon="0.09431">
        <ele>1522</ele>
        <time>2013-02-09T11:08:20Z</time>
      </trkpt>
      <trkpt lat="43.01595" lon="0.09431">
        <ele>1522</ele>
        <time>2013-02-09T11:08:23Z</time>
      </trkpt>
      <trkpt lat="43.01593" lon="0.09431">
        <ele>1523</ele>
        <time>2013-02-09T11:08:25Z</time>
      </trkpt>
      <trkpt lat="43.01595" lon="0.0943">
        <ele>1524</ele>
        <time>2013-02-09T11:08:33Z</time>
      </trkpt>
      <trkpt lat="43.01595" lon="0.09428">
        <ele>1524</ele>
        <time>2013-02-09T11:08:35Z</time>
      </trkpt>
      <trkpt lat="43.01596" lon="0.09426">
        <ele>1524</ele>
        <time>2013-02-09T11:08:37Z</time>
      </trkpt>
      <trkpt lat="43.01596" lon="0.09424">
        <ele>1524</ele>
        <time>2013-02-09T11:08:39Z</time>
      </trkpt>
      <trkpt lat="43.01596" lon="0.09422">
        <ele>1524</ele>
        <time>2013-02-09T11:08:41Z</time>
      </trkpt>
      <trkpt lat="43.01596" lon="0.0942">
        <ele>1524</ele>
        <time>2013-02-09T11:08:43Z</time>
      </trkpt>
      <trkpt lat="43.01597" lon="0.09418">
        <ele>1524</ele>
        <time>2013-02-09T11:08:45Z</time>
      </trkpt>
      <trkpt lat="43.01597" lon="0.09416">
        <ele>1524</ele>
        <time>2013-02-09T11:08:47Z</time>
      </trkpt>
      <trkpt lat="43.01597" lon="0.09414">
        <ele>1524</ele>
        <time>2013-02-09T11:08:49Z</time>
      </trkpt>
      <trkpt lat="43.01597" lon="0.09413">
        <ele>1524</ele>
        <time>2013-02-09T11:08:51Z</time>
      </trkpt>
      <trkpt lat="43.01597" lon="0.09411">
        <ele>1524</ele>
        <time>2013-02-09T11:08:55Z</time>
      </trkpt>
      <trkpt lat="43.01597" lon="0.09409">
        <ele>1526</ele>
        <time>2013-02-09T11:08:59Z</time>
      </trkpt>
      <trkpt lat="43.01596" lon="0.09411">
        <ele>1527</ele>
        <time>2013-02-09T11:09:07Z</time>
      </trkpt>
      <trkpt lat="43.01595" lon="0.09412">
        <ele>1527</ele>
        <time>2013-02-09T11:09:09Z</time>
      </trkpt>
      <trkpt lat="43.01593" lon="0.09414">
        <ele>1528</ele>
        <time>2013-02-09T11:09:11Z</time>
      </trkpt>
      <trkpt lat="43.01592" lon="0.09415">
        <ele>1528</ele>
        <time>2013-02-09T11:09:14Z</time>
      </trkpt>
      <trkpt lat="43.0159" lon="0.09416">
        <ele>1529</ele>
        <time>2013-02-09T11:09:17Z</time>
      </trkpt>
      <trkpt lat="43.01589" lon="0.09416">
        <ele>1529</ele>
        <time>2013-02-09T11:09:19Z</time>
      </trkpt>
      <trkpt lat="43.01588" lon="0.09417">
        <ele>1529</ele>
        <time>2013-02-09T11:09:22Z</time>
      </trkpt>
      <trkpt lat="43.01586" lon="0.09418">
        <ele>1530</ele>
        <time>2013-02-09T11:09:27Z</time>
      </trkpt>
      <trkpt lat="43.01587" lon="0.09416">
        <ele>1531</ele>
        <time>2013-02-09T11:09:37Z</time>
      </trkpt>
      <trkpt lat="43.01588" lon="0.09415">
        <ele>1531</ele>
        <time>2013-02-09T11:09:39Z</time>
      </trkpt>
      <trkpt lat="43.01588" lon="0.09413">
        <ele>1531</ele>
        <time>2013-02-09T11:09:41Z</time>
      </trkpt>
      <trkpt lat="43.01588" lon="0.09411">
        <ele>1531</ele>
        <time>2013-02-09T11:09:43Z</time>
      </trkpt>
      <trkpt lat="43.01588" lon="0.09409">
        <ele>1531</ele>
        <time>2013-02-09T11:09:45Z</time>
      </trkpt>
      <trkpt lat="43.01588" lon="0.09408">
        <ele>1531</ele>
        <time>2013-02-09T11:09:47Z</time>
      </trkpt>
      <trkpt lat="43.01589" lon="0.09405">
        <ele>1531</ele>
        <time>2013-02-09T11:09:49Z</time>
      </trkpt>
      <trkpt lat="43.01589" lon="0.09404">
        <ele>1532</ele>
        <time>2013-02-09T11:09:51Z</time>
      </trkpt>
      <trkpt lat="43.01589" lon="0.09402">
        <ele>1532</ele>
        <time>2013-02-09T11:09:53Z</time>
      </trkpt>
      <trkpt lat="43.01589" lon="0.094">
        <ele>1533</ele>
        <time>2013-02-09T11:09:55Z</time>
      </trkpt>
      <trkpt lat="43.01589" lon="0.09399">
        <ele>1533</ele>
        <time>2013-02-09T11:09:57Z</time>
      </trkpt>
      <trkpt lat="43.01589" lon="0.09397">
        <ele>1533</ele>
        <time>2013-02-09T11:09:59Z</time>
      </trkpt>
      <trkpt lat="43.01589" lon="0.09395">
        <ele>1533</ele>
        <time>2013-02-09T11:10:01Z</time>
      </trkpt>
      <trkpt lat="43.01589" lon="0.09393">
        <ele>1534</ele>
        <time>2013-02-09T11:10:03Z</time>
      </trkpt>
      <trkpt lat="43.01589" lon="0.09391">
        <ele>1535</ele>
        <time>2013-02-09T11:10:06Z</time>
      </trkpt>
      <trkpt lat="43.01589" lon="0.09389">
        <ele>1537</ele>
        <time>2013-02-09T11:10:16Z</time>
      </trkpt>
      <trkpt lat="43.01588" lon="0.0939">
        <ele>1538</ele>
        <time>2013-02-09T11:10:23Z</time>
      </trkpt>
      <trkpt lat="43.01587" lon="0.09392">
        <ele>1538</ele>
        <time>2013-02-09T11:10:25Z</time>
      </trkpt>
      <trkpt lat="43.01586" lon="0.09393">
        <ele>1538</ele>
        <time>2013-02-09T11:10:27Z</time>
      </trkpt>
      <trkpt lat="43.01585" lon="0.09395">
        <ele>1539</ele>
        <time>2013-02-09T11:10:29Z</time>
      </trkpt>
      <trkpt lat="43.01584" lon="0.09397">
        <ele>1539</ele>
        <time>2013-02-09T11:10:31Z</time>
      </trkpt>
      <trkpt lat="43.01582" lon="0.09398">
        <ele>1539</ele>
        <time>2013-02-09T11:10:33Z</time>
      </trkpt>
      <trkpt lat="43.01581" lon="0.09399">
        <ele>1539</ele>
        <time>2013-02-09T11:10:36Z</time>
      </trkpt>
      <trkpt lat="43.0158" lon="0.094">
        <ele>1540</ele>
        <time>2013-02-09T11:10:38Z</time>
      </trkpt>
      <trkpt lat="43.01579" lon="0.09401">
        <ele>1540</ele>
        <time>2013-02-09T11:10:40Z</time>
      </trkpt>
      <trkpt lat="43.01578" lon="0.09402">
        <ele>1540</ele>
        <time>2013-02-09T11:10:42Z</time>
      </trkpt>
      <trkpt lat="43.01577" lon="0.09403">
        <ele>1541</ele>
        <time>2013-02-09T11:10:47Z</time>
      </trkpt>
      <trkpt lat="43.01577" lon="0.09401">
        <ele>1541</ele>
        <time>2013-02-09T11:10:54Z</time>
      </trkpt>
      <trkpt lat="43.01577" lon="0.09399">
        <ele>1541</ele>
        <time>2013-02-09T11:10:56Z</time>
      </trkpt>
      <trkpt lat="43.01577" lon="0.09397">
        <ele>1541</ele>
        <time>2013-02-09T11:10:58Z</time>
      </trkpt>
      <trkpt lat="43.01577" lon="0.09395">
        <ele>1541</ele>
        <time>2013-02-09T11:11:00Z</time>
      </trkpt>
      <trkpt lat="43.01577" lon="0.09393">
        <ele>1541</ele>
        <time>2013-02-09T11:11:02Z</time>
      </trkpt>
      <trkpt lat="43.01577" lon="0.09391">
        <ele>1541</ele>
        <time>2013-02-09T11:11:04Z</time>
      </trkpt>
      <trkpt lat="43.01577" lon="0.09389">
        <ele>1542</ele>
        <time>2013-02-09T11:11:06Z</time>
      </trkpt>
      <trkpt lat="43.01577" lon="0.09387">
        <ele>1542</ele>
        <time>2013-02-09T11:11:08Z</time>
      </trkpt>
      <trkpt lat="43.01577" lon="0.09385">
        <ele>1542</ele>
        <time>2013-02-09T11:11:10Z</time>
      </trkpt>
      <trkpt lat="43.01577" lon="0.09383">
        <ele>1543</ele>
        <time>2013-02-09T11:11:12Z</time>
      </trkpt>
      <trkpt lat="43.01576" lon="0.09381">
        <ele>1543</ele>
        <time>2013-02-09T11:11:14Z</time>
      </trkpt>
      <trkpt lat="43.01576" lon="0.0938">
        <ele>1544</ele>
        <time>2013-02-09T11:11:47Z</time>
      </trkpt>
      <trkpt lat="43.01576" lon="0.09378">
        <ele>1544</ele>
        <time>2013-02-09T11:11:49Z</time>
      </trkpt>
      <trkpt lat="43.01575" lon="0.09376">
        <ele>1544</ele>
        <time>2013-02-09T11:11:51Z</time>
      </trkpt>
      <trkpt lat="43.01575" lon="0.09374">
        <ele>1544</ele>
        <time>2013-02-09T11:11:53Z</time>
      </trkpt>
      <trkpt lat="43.01575" lon="0.09372">
        <ele>1545</ele>
        <time>2013-02-09T11:11:55Z</time>
      </trkpt>
      <trkpt lat="43.01574" lon="0.0937">
        <ele>1545</ele>
        <time>2013-02-09T11:11:57Z</time>
      </trkpt>
      <trkpt lat="43.01574" lon="0.09368">
        <ele>1546</ele>
        <time>2013-02-09T11:12:00Z</time>
      </trkpt>
      <trkpt lat="43.01575" lon="0.09368">
        <ele>1547</ele>
        <time>2013-02-09T11:14:33Z</time>
      </trkpt>
      <trkpt lat="43.01577" lon="0.09367">
        <ele>1547</ele>
        <time>2013-02-09T11:15:23Z</time>
      </trkpt>
      <trkpt lat="43.01576" lon="0.09365">
        <ele>1547</ele>
        <time>2013-02-09T11:15:25Z</time>
      </trkpt>
      <trkpt lat="43.01576" lon="0.09363">
        <ele>1547</ele>
        <time>2013-02-09T11:15:27Z</time>
      </trkpt>
      <trkpt lat="43.01575" lon="0.0936">
        <ele>1547</ele>
        <time>2013-02-09T11:15:29Z</time>
      </trkpt>
      <trkpt lat="43.01574" lon="0.0936">
        <ele>1547</ele>
        <time>2013-02-09T11:15:33Z</time>
      </trkpt>
      <trkpt lat="43.01572" lon="0.09362">
        <ele>1547</ele>
        <time>2013-02-09T11:15:36Z</time>
      </trkpt>
      <trkpt lat="43.01572" lon="0.09363">
        <ele>1547</ele>
        <time>2013-02-09T11:15:38Z</time>
      </trkpt>
      <trkpt lat="43.01571" lon="0.09365">
        <ele>1548</ele>
        <time>2013-02-09T11:15:40Z</time>
      </trkpt>
      <trkpt lat="43.01569" lon="0.09366">
        <ele>1548</ele>
        <time>2013-02-09T11:15:42Z</time>
      </trkpt>
      <trkpt lat="43.01568" lon="0.09368">
        <ele>1549</ele>
        <time>2013-02-09T11:15:44Z</time>
      </trkpt>
      <trkpt lat="43.01567" lon="0.09369">
        <ele>1549</ele>
        <time>2013-02-09T11:15:46Z</time>
      </trkpt>
      <trkpt lat="43.01566" lon="0.0937">
        <ele>1549</ele>
        <time>2013-02-09T11:15:48Z</time>
      </trkpt>
      <trkpt lat="43.01564" lon="0.09372">
        <ele>1549</ele>
        <time>2013-02-09T11:15:50Z</time>
      </trkpt>
      <trkpt lat="43.01563" lon="0.09373">
        <ele>1550</ele>
        <time>2013-02-09T11:15:52Z</time>
      </trkpt>
      <trkpt lat="43.01562" lon="0.09374">
        <ele>1550</ele>
        <time>2013-02-09T11:15:54Z</time>
      </trkpt>
      <trkpt lat="43.01561" lon="0.09375">
        <ele>1550</ele>
        <time>2013-02-09T11:15:56Z</time>
      </trkpt>
      <trkpt lat="43.01559" lon="0.09376">
        <ele>1551</ele>
        <time>2013-02-09T11:15:58Z</time>
      </trkpt>
      <trkpt lat="43.01558" lon="0.09377">
        <ele>1551</ele>
        <time>2013-02-09T11:16:00Z</time>
      </trkpt>
      <trkpt lat="43.01557" lon="0.09378">
        <ele>1552</ele>
        <time>2013-02-09T11:16:02Z</time>
      </trkpt>
      <trkpt lat="43.01556" lon="0.09379">
        <ele>1552</ele>
        <time>2013-02-09T11:16:04Z</time>
      </trkpt>
      <trkpt lat="43.01554" lon="0.09379">
        <ele>1553</ele>
        <time>2013-02-09T11:16:06Z</time>
      </trkpt>
      <trkpt lat="43.01553" lon="0.09379">
        <ele>1553</ele>
        <time>2013-02-09T11:16:08Z</time>
      </trkpt>
      <trkpt lat="43.01552" lon="0.0938">
        <ele>1553</ele>
        <time>2013-02-09T11:16:10Z</time>
      </trkpt>
      <trkpt lat="43.01551" lon="0.09379">
        <ele>1553</ele>
        <time>2013-02-09T11:16:12Z</time>
      </trkpt>
      <trkpt lat="43.0155" lon="0.09379">
        <ele>1554</ele>
        <time>2013-02-09T11:16:14Z</time>
      </trkpt>
      <trkpt lat="43.01548" lon="0.09378">
        <ele>1554</ele>
        <time>2013-02-09T11:16:16Z</time>
      </trkpt>
      <trkpt lat="43.01547" lon="0.09377">
        <ele>1555</ele>
        <time>2013-02-09T11:16:18Z</time>
      </trkpt>
      <trkpt lat="43.01546" lon="0.09376">
        <ele>1555</ele>
        <time>2013-02-09T11:16:21Z</time>
      </trkpt>
      <trkpt lat="43.01544" lon="0.09375">
        <ele>1555</ele>
        <time>2013-02-09T11:16:24Z</time>
      </trkpt>
      <trkpt lat="43.01543" lon="0.09374">
        <ele>1556</ele>
        <time>2013-02-09T11:16:26Z</time>
      </trkpt>
      <trkpt lat="43.01542" lon="0.09373">
        <ele>1556</ele>
        <time>2013-02-09T11:16:29Z</time>
      </trkpt>
      <trkpt lat="43.0154" lon="0.09371">
        <ele>1556</ele>
        <time>2013-02-09T11:16:31Z</time>
      </trkpt>
      <trkpt lat="43.01539" lon="0.09371">
        <ele>1556</ele>
        <time>2013-02-09T11:16:33Z</time>
      </trkpt>
      <trkpt lat="43.01538" lon="0.0937">
        <ele>1557</ele>
        <time>2013-02-09T11:16:35Z</time>
      </trkpt>
      <trkpt lat="43.01537" lon="0.09369">
        <ele>1557</ele>
        <time>2013-02-09T11:16:37Z</time>
      </trkpt>
      <trkpt lat="43.01535" lon="0.09368">
        <ele>1557</ele>
        <time>2013-02-09T11:16:39Z</time>
      </trkpt>
      <trkpt lat="43.01534" lon="0.09367">
        <ele>1557</ele>
        <time>2013-02-09T11:16:41Z</time>
      </trkpt>
      <trkpt lat="43.01533" lon="0.09367">
        <ele>1558</ele>
        <time>2013-02-09T11:16:43Z</time>
      </trkpt>
      <trkpt lat="43.01532" lon="0.09366">
        <ele>1558</ele>
        <time>2013-02-09T11:16:45Z</time>
      </trkpt>
      <trkpt lat="43.0153" lon="0.09365">
        <ele>1558</ele>
        <time>2013-02-09T11:16:47Z</time>
      </trkpt>
      <trkpt lat="43.01529" lon="0.09365">
        <ele>1559</ele>
        <time>2013-02-09T11:17:02Z</time>
      </trkpt>
      <trkpt lat="43.01527" lon="0.09364">
        <ele>1559</ele>
        <time>2013-02-09T11:17:04Z</time>
      </trkpt>
      <trkpt lat="43.01526" lon="0.09364">
        <ele>1559</ele>
        <time>2013-02-09T11:17:06Z</time>
      </trkpt>
      <trkpt lat="43.01525" lon="0.09363">
        <ele>1559</ele>
        <time>2013-02-09T11:17:08Z</time>
      </trkpt>
      <trkpt lat="43.01523" lon="0.09362">
        <ele>1559</ele>
        <time>2013-02-09T11:17:10Z</time>
      </trkpt>
      <trkpt lat="43.01522" lon="0.09362">
        <ele>1559</ele>
        <time>2013-02-09T11:17:12Z</time>
      </trkpt>
      <trkpt lat="43.01521" lon="0.09361">
        <ele>1559</ele>
        <time>2013-02-09T11:17:14Z</time>
      </trkpt>
      <trkpt lat="43.01519" lon="0.0936">
        <ele>1560</ele>
        <time>2013-02-09T11:17:16Z</time>
      </trkpt>
      <trkpt lat="43.01518" lon="0.09358">
        <ele>1560</ele>
        <time>2013-02-09T11:17:18Z</time>
      </trkpt>
      <trkpt lat="43.01517" lon="0.09357">
        <ele>1561</ele>
        <time>2013-02-09T11:17:20Z</time>
      </trkpt>
      <trkpt lat="43.01516" lon="0.09355">
        <ele>1561</ele>
        <time>2013-02-09T11:17:22Z</time>
      </trkpt>
      <trkpt lat="43.01516" lon="0.09353">
        <ele>1561</ele>
        <time>2013-02-09T11:17:24Z</time>
      </trkpt>
      <trkpt lat="43.01514" lon="0.09352">
        <ele>1561</ele>
        <time>2013-02-09T11:17:26Z</time>
      </trkpt>
      <trkpt lat="43.01513" lon="0.0935">
        <ele>1562</ele>
        <time>2013-02-09T11:17:28Z</time>
      </trkpt>
      <trkpt lat="43.01512" lon="0.09349">
        <ele>1562</ele>
        <time>2013-02-09T11:17:30Z</time>
      </trkpt>
      <trkpt lat="43.01511" lon="0.09347">
        <ele>1563</ele>
        <time>2013-02-09T11:17:32Z</time>
      </trkpt>
      <trkpt lat="43.0151" lon="0.09345">
        <ele>1563</ele>
        <time>2013-02-09T11:17:35Z</time>
      </trkpt>
      <trkpt lat="43.01508" lon="0.09343">
        <ele>1564</ele>
        <time>2013-02-09T11:17:38Z</time>
      </trkpt>
      <trkpt lat="43.01507" lon="0.09341">
        <ele>1564</ele>
        <time>2013-02-09T11:17:41Z</time>
      </trkpt>
      <trkpt lat="43.01506" lon="0.0934">
        <ele>1564</ele>
        <time>2013-02-09T11:17:43Z</time>
      </trkpt>
      <trkpt lat="43.01504" lon="0.09339">
        <ele>1564</ele>
        <time>2013-02-09T11:17:45Z</time>
      </trkpt>
      <trkpt lat="43.01503" lon="0.09338">
        <ele>1565</ele>
        <time>2013-02-09T11:17:47Z</time>
      </trkpt>
      <trkpt lat="43.01502" lon="0.09338">
        <ele>1565</ele>
        <time>2013-02-09T11:17:49Z</time>
      </trkpt>
      <trkpt lat="43.015" lon="0.09336">
        <ele>1565</ele>
        <time>2013-02-09T11:17:52Z</time>
      </trkpt>
      <trkpt lat="43.01499" lon="0.09336">
        <ele>1565</ele>
        <time>2013-02-09T11:17:54Z</time>
      </trkpt>
      <trkpt lat="43.01498" lon="0.09336">
        <ele>1566</ele>
        <time>2013-02-09T11:17:56Z</time>
      </trkpt>
      <trkpt lat="43.01497" lon="0.09335">
        <ele>1566</ele>
        <time>2013-02-09T11:17:58Z</time>
      </trkpt>
      <trkpt lat="43.01495" lon="0.09334">
        <ele>1566</ele>
        <time>2013-02-09T11:18:00Z</time>
      </trkpt>
      <trkpt lat="43.01494" lon="0.09333">
        <ele>1567</ele>
        <time>2013-02-09T11:18:02Z</time>
      </trkpt>
      <trkpt lat="43.01493" lon="0.09332">
        <ele>1567</ele>
        <time>2013-02-09T11:18:04Z</time>
      </trkpt>
      <trkpt lat="43.01492" lon="0.09332">
        <ele>1567</ele>
        <time>2013-02-09T11:18:06Z</time>
      </trkpt>
      <trkpt lat="43.0149" lon="0.09333">
        <ele>1568</ele>
        <time>2013-02-09T11:18:09Z</time>
      </trkpt>
      <trkpt lat="43.01489" lon="0.09335">
        <ele>1569</ele>
        <time>2013-02-09T11:18:12Z</time>
      </trkpt>
      <trkpt lat="43.01488" lon="0.09336">
        <ele>1569</ele>
        <time>2013-02-09T11:18:14Z</time>
      </trkpt>
      <trkpt lat="43.01487" lon="0.09338">
        <ele>1570</ele>
        <time>2013-02-09T11:18:17Z</time>
      </trkpt>
      <trkpt lat="43.01485" lon="0.09339">
        <ele>1570</ele>
        <time>2013-02-09T11:18:20Z</time>
      </trkpt>
      <trkpt lat="43.01484" lon="0.09339">
        <ele>1571</ele>
        <time>2013-02-09T11:18:23Z</time>
      </trkpt>
      <trkpt lat="43.01483" lon="0.09337">
        <ele>1571</ele>
        <time>2013-02-09T11:18:26Z</time>
      </trkpt>
      <trkpt lat="43.01482" lon="0.09335">
        <ele>1571</ele>
        <time>2013-02-09T11:18:29Z</time>
      </trkpt>
      <trkpt lat="43.01481" lon="0.09333">
        <ele>1572</ele>
        <time>2013-02-09T11:18:32Z</time>
      </trkpt>
      <trkpt lat="43.0148" lon="0.09331">
        <ele>1572</ele>
        <time>2013-02-09T11:18:35Z</time>
      </trkpt>
      <trkpt lat="43.01479" lon="0.09329">
        <ele>1572</ele>
        <time>2013-02-09T11:18:38Z</time>
      </trkpt>
      <trkpt lat="43.01477" lon="0.09328">
        <ele>1573</ele>
        <time>2013-02-09T11:18:41Z</time>
      </trkpt>
      <trkpt lat="43.01476" lon="0.09326">
        <ele>1573</ele>
        <time>2013-02-09T11:18:44Z</time>
      </trkpt>
      <trkpt lat="43.01475" lon="0.09324">
        <ele>1573</ele>
        <time>2013-02-09T11:18:47Z</time>
      </trkpt>
      <trkpt lat="43.01474" lon="0.09323">
        <ele>1574</ele>
        <time>2013-02-09T11:18:50Z</time>
      </trkpt>
      <trkpt lat="43.01472" lon="0.09321">
        <ele>1574</ele>
        <time>2013-02-09T11:18:53Z</time>
      </trkpt>
      <trkpt lat="43.01471" lon="0.09319">
        <ele>1575</ele>
        <time>2013-02-09T11:18:56Z</time>
      </trkpt>
      <trkpt lat="43.01469" lon="0.09318">
        <ele>1575</ele>
        <time>2013-02-09T11:18:59Z</time>
      </trkpt>
      <trkpt lat="43.01468" lon="0.09316">
        <ele>1575</ele>
        <time>2013-02-09T11:19:02Z</time>
      </trkpt>
      <trkpt lat="43.01466" lon="0.09315">
        <ele>1576</ele>
        <time>2013-02-09T11:19:05Z</time>
      </trkpt>
      <trkpt lat="43.01465" lon="0.09314">
        <ele>1576</ele>
        <time>2013-02-09T11:19:08Z</time>
      </trkpt>
      <trkpt lat="43.01464" lon="0.09313">
        <ele>1576</ele>
        <time>2013-02-09T11:19:11Z</time>
      </trkpt>
      <trkpt lat="43.01463" lon="0.09314">
        <ele>1577</ele>
        <time>2013-02-09T11:19:14Z</time>
      </trkpt>
      <trkpt lat="43.01462" lon="0.09316">
        <ele>1577</ele>
        <time>2013-02-09T11:19:17Z</time>
      </trkpt>
      <trkpt lat="43.01462" lon="0.09317">
        <ele>1577</ele>
        <time>2013-02-09T11:19:19Z</time>
      </trkpt>
      <trkpt lat="43.01461" lon="0.09319">
        <ele>1577</ele>
        <time>2013-02-09T11:19:21Z</time>
      </trkpt>
      <trkpt lat="43.0146" lon="0.0932">
        <ele>1578</ele>
        <time>2013-02-09T11:19:24Z</time>
      </trkpt>
      <trkpt lat="43.01458" lon="0.0932">
        <ele>1578</ele>
        <time>2013-02-09T11:19:27Z</time>
      </trkpt>
      <trkpt lat="43.01457" lon="0.09321">
        <ele>1578</ele>
        <time>2013-02-09T11:19:29Z</time>
      </trkpt>
      <trkpt lat="43.01455" lon="0.09322">
        <ele>1579</ele>
        <time>2013-02-09T11:19:32Z</time>
      </trkpt>
      <trkpt lat="43.01454" lon="0.09324">
        <ele>1579</ele>
        <time>2013-02-09T11:19:35Z</time>
      </trkpt>
      <trkpt lat="43.01453" lon="0.09325">
        <ele>1579</ele>
        <time>2013-02-09T11:19:38Z</time>
      </trkpt>
      <trkpt lat="43.01451" lon="0.09326">
        <ele>1580</ele>
        <time>2013-02-09T11:19:41Z</time>
      </trkpt>
      <trkpt lat="43.0145" lon="0.09326">
        <ele>1580</ele>
        <time>2013-02-09T11:19:44Z</time>
      </trkpt>
      <trkpt lat="43.01449" lon="0.09326">
        <ele>1581</ele>
        <time>2013-02-09T11:19:47Z</time>
      </trkpt>
      <trkpt lat="43.01447" lon="0.09324">
        <ele>1581</ele>
        <time>2013-02-09T11:19:50Z</time>
      </trkpt>
      <trkpt lat="43.01446" lon="0.09324">
        <ele>1581</ele>
        <time>2013-02-09T11:19:52Z</time>
      </trkpt>
      <trkpt lat="43.01445" lon="0.09322">
        <ele>1582</ele>
        <time>2013-02-09T11:19:55Z</time>
      </trkpt>
      <trkpt lat="43.01444" lon="0.09321">
        <ele>1582</ele>
        <time>2013-02-09T11:19:57Z</time>
      </trkpt>
      <trkpt lat="43.01442" lon="0.09321">
        <ele>1582</ele>
        <time>2013-02-09T11:20:02Z</time>
      </trkpt>
      <trkpt lat="43.01441" lon="0.09319">
        <ele>1582</ele>
        <time>2013-02-09T11:20:05Z</time>
      </trkpt>
      <trkpt lat="43.0144" lon="0.09318">
        <ele>1582</ele>
        <time>2013-02-09T11:20:07Z</time>
      </trkpt>
      <trkpt lat="43.01439" lon="0.09317">
        <ele>1582</ele>
        <time>2013-02-09T11:20:09Z</time>
      </trkpt>
      <trkpt lat="43.01437" lon="0.09316">
        <ele>1583</ele>
        <time>2013-02-09T11:20:11Z</time>
      </trkpt>
      <trkpt lat="43.01436" lon="0.09315">
        <ele>1583</ele>
        <time>2013-02-09T11:20:13Z</time>
      </trkpt>
      <trkpt lat="43.01435" lon="0.09315">
        <ele>1583</ele>
        <time>2013-02-09T11:20:15Z</time>
      </trkpt>
      <trkpt lat="43.01434" lon="0.09314">
        <ele>1583</ele>
        <time>2013-02-09T11:20:17Z</time>
      </trkpt>
      <trkpt lat="43.01432" lon="0.09313">
        <ele>1583</ele>
        <time>2013-02-09T11:20:19Z</time>
      </trkpt>
      <trkpt lat="43.01431" lon="0.09312">
        <ele>1583</ele>
        <time>2013-02-09T11:20:21Z</time>
      </trkpt>
      <trkpt lat="43.0143" lon="0.09312">
        <ele>1584</ele>
        <time>2013-02-09T11:20:23Z</time>
      </trkpt>
      <trkpt lat="43.01429" lon="0.09311">
        <ele>1584</ele>
        <time>2013-02-09T11:20:25Z</time>
      </trkpt>
      <trkpt lat="43.01428" lon="0.0931">
        <ele>1584</ele>
        <time>2013-02-09T11:20:27Z</time>
      </trkpt>
      <trkpt lat="43.01426" lon="0.0931">
        <ele>1585</ele>
        <time>2013-02-09T11:20:29Z</time>
      </trkpt>
      <trkpt lat="43.01425" lon="0.09309">
        <ele>1585</ele>
        <time>2013-02-09T11:20:31Z</time>
      </trkpt>
      <trkpt lat="43.01424" lon="0.09309">
        <ele>1585</ele>
        <time>2013-02-09T11:20:33Z</time>
      </trkpt>
      <trkpt lat="43.01423" lon="0.09309">
        <ele>1585</ele>
        <time>2013-02-09T11:20:35Z</time>
      </trkpt>
      <trkpt lat="43.01422" lon="0.09309">
        <ele>1586</ele>
        <time>2013-02-09T11:20:37Z</time>
      </trkpt>
      <trkpt lat="43.0142" lon="0.09309">
        <ele>1586</ele>
        <time>2013-02-09T11:20:40Z</time>
      </trkpt>
      <trkpt lat="43.01419" lon="0.09308">
        <ele>1586</ele>
        <time>2013-02-09T11:20:42Z</time>
      </trkpt>
      <trkpt lat="43.01418" lon="0.09308">
        <ele>1587</ele>
        <time>2013-02-09T11:20:44Z</time>
      </trkpt>
      <trkpt lat="43.01417" lon="0.09308">
        <ele>1587</ele>
        <time>2013-02-09T11:20:46Z</time>
      </trkpt>
      <trkpt lat="43.01415" lon="0.09308">
        <ele>1587</ele>
        <time>2013-02-09T11:20:48Z</time>
      </trkpt>
      <trkpt lat="43.01414" lon="0.09308">
        <ele>1588</ele>
        <time>2013-02-09T11:20:50Z</time>
      </trkpt>
      <trkpt lat="43.01413" lon="0.09307">
        <ele>1588</ele>
        <time>2013-02-09T11:20:52Z</time>
      </trkpt>
      <trkpt lat="43.01411" lon="0.09307">
        <ele>1588</ele>
        <time>2013-02-09T11:20:54Z</time>
      </trkpt>
      <trkpt lat="43.0141" lon="0.09307">
        <ele>1588</ele>
        <time>2013-02-09T11:20:56Z</time>
      </trkpt>
      <trkpt lat="43.01409" lon="0.09307">
        <ele>1588</ele>
        <time>2013-02-09T11:20:58Z</time>
      </trkpt>
      <trkpt lat="43.01408" lon="0.09307">
        <ele>1588</ele>
        <time>2013-02-09T11:21:00Z</time>
      </trkpt>
      <trkpt lat="43.01407" lon="0.09307">
        <ele>1589</ele>
        <time>2013-02-09T11:21:02Z</time>
      </trkpt>
      <trkpt lat="43.01405" lon="0.09306">
        <ele>1589</ele>
        <time>2013-02-09T11:21:05Z</time>
      </trkpt>
      <trkpt lat="43.01404" lon="0.09306">
        <ele>1589</ele>
        <time>2013-02-09T11:21:07Z</time>
      </trkpt>
      <trkpt lat="43.01403" lon="0.09306">
        <ele>1589</ele>
        <time>2013-02-09T11:21:09Z</time>
      </trkpt>
      <trkpt lat="43.01402" lon="0.09305">
        <ele>1589</ele>
        <time>2013-02-09T11:21:11Z</time>
      </trkpt>
      <trkpt lat="43.014" lon="0.09304">
        <ele>1590</ele>
        <time>2013-02-09T11:21:14Z</time>
      </trkpt>
      <trkpt lat="43.01399" lon="0.09303">
        <ele>1590</ele>
        <time>2013-02-09T11:21:16Z</time>
      </trkpt>
      <trkpt lat="43.01398" lon="0.09302">
        <ele>1590</ele>
        <time>2013-02-09T11:21:18Z</time>
      </trkpt>
      <trkpt lat="43.01397" lon="0.09302">
        <ele>1590</ele>
        <time>2013-02-09T11:21:20Z</time>
      </trkpt>
      <trkpt lat="43.01395" lon="0.09301">
        <ele>1590</ele>
        <time>2013-02-09T11:21:22Z</time>
      </trkpt>
      <trkpt lat="43.01394" lon="0.09301">
        <ele>1591</ele>
        <time>2013-02-09T11:21:24Z</time>
      </trkpt>
      <trkpt lat="43.01392" lon="0.093">
        <ele>1591</ele>
        <time>2013-02-09T11:21:27Z</time>
      </trkpt>
      <trkpt lat="43.01391" lon="0.09299">
        <ele>1591</ele>
        <time>2013-02-09T11:21:29Z</time>
      </trkpt>
      <trkpt lat="43.0139" lon="0.09298">
        <ele>1591</ele>
        <time>2013-02-09T11:21:32Z</time>
      </trkpt>
      <trkpt lat="43.01388" lon="0.09297">
        <ele>1591</ele>
        <time>2013-02-09T11:21:35Z</time>
      </trkpt>
      <trkpt lat="43.01387" lon="0.09296">
        <ele>1592</ele>
        <time>2013-02-09T11:21:40Z</time>
      </trkpt>
      <trkpt lat="43.01386" lon="0.09295">
        <ele>1592</ele>
        <time>2013-02-09T11:21:42Z</time>
      </trkpt>
      <trkpt lat="43.01385" lon="0.09294">
        <ele>1592</ele>
        <time>2013-02-09T11:21:44Z</time>
      </trkpt>
      <trkpt lat="43.01384" lon="0.09295">
        <ele>1593</ele>
        <time>2013-02-09T11:21:46Z</time>
      </trkpt>
      <trkpt lat="43.01383" lon="0.09296">
        <ele>1593</ele>
        <time>2013-02-09T11:21:49Z</time>
      </trkpt>
      <trkpt lat="43.01384" lon="0.09298">
        <ele>1593</ele>
        <time>2013-02-09T11:21:51Z</time>
      </trkpt>
      <trkpt lat="43.01383" lon="0.09301">
        <ele>1593</ele>
        <time>2013-02-09T11:21:53Z</time>
      </trkpt>
      <trkpt lat="43.01384" lon="0.09302">
        <ele>1594</ele>
        <time>2013-02-09T11:21:59Z</time>
      </trkpt>
      <trkpt lat="43.01384" lon="0.09305">
        <ele>1594</ele>
        <time>2013-02-09T11:22:01Z</time>
      </trkpt>
      <trkpt lat="43.01384" lon="0.09307">
        <ele>1594</ele>
        <time>2013-02-09T11:22:03Z</time>
      </trkpt>
      <trkpt lat="43.01384" lon="0.09308">
        <ele>1594</ele>
        <time>2013-02-09T11:22:05Z</time>
      </trkpt>
      <trkpt lat="43.01384" lon="0.09311">
        <ele>1594</ele>
        <time>2013-02-09T11:22:07Z</time>
      </trkpt>
      <trkpt lat="43.01384" lon="0.09312">
        <ele>1594</ele>
        <time>2013-02-09T11:22:09Z</time>
      </trkpt>
      <trkpt lat="43.01385" lon="0.09314">
        <ele>1594</ele>
        <time>2013-02-09T11:22:11Z</time>
      </trkpt>
      <trkpt lat="43.01385" lon="0.09316">
        <ele>1595</ele>
        <time>2013-02-09T11:22:13Z</time>
      </trkpt>
      <trkpt lat="43.01385" lon="0.09318">
        <ele>1595</ele>
        <time>2013-02-09T11:22:15Z</time>
      </trkpt>
      <trkpt lat="43.01385" lon="0.0932">
        <ele>1595</ele>
        <time>2013-02-09T11:22:17Z</time>
      </trkpt>
      <trkpt lat="43.01386" lon="0.09322">
        <ele>1596</ele>
        <time>2013-02-09T11:22:20Z</time>
      </trkpt>
      <trkpt lat="43.01386" lon="0.09323">
        <ele>1596</ele>
        <time>2013-02-09T11:22:23Z</time>
      </trkpt>
      <trkpt lat="43.01385" lon="0.09324">
        <ele>1597</ele>
        <time>2013-02-09T11:22:30Z</time>
      </trkpt>
      <trkpt lat="43.01384" lon="0.09324">
        <ele>1597</ele>
        <time>2013-02-09T11:22:33Z</time>
      </trkpt>
      <trkpt lat="43.01382" lon="0.09323">
        <ele>1598</ele>
        <time>2013-02-09T11:22:36Z</time>
      </trkpt>
      <trkpt lat="43.01381" lon="0.09322">
        <ele>1599</ele>
        <time>2013-02-09T11:22:39Z</time>
      </trkpt>
      <trkpt lat="43.01379" lon="0.09321">
        <ele>1599</ele>
        <time>2013-02-09T11:22:42Z</time>
      </trkpt>
      <trkpt lat="43.01378" lon="0.0932">
        <ele>1600</ele>
        <time>2013-02-09T11:22:45Z</time>
      </trkpt>
      <trkpt lat="43.01377" lon="0.09319">
        <ele>1600</ele>
        <time>2013-02-09T11:22:47Z</time>
      </trkpt>
      <trkpt lat="43.01376" lon="0.09318">
        <ele>1600</ele>
        <time>2013-02-09T11:22:50Z</time>
      </trkpt>
      <trkpt lat="43.01374" lon="0.09317">
        <ele>1600</ele>
        <time>2013-02-09T11:22:53Z</time>
      </trkpt>
      <trkpt lat="43.01373" lon="0.09316">
        <ele>1601</ele>
        <time>2013-02-09T11:22:56Z</time>
      </trkpt>
      <trkpt lat="43.01371" lon="0.09315">
        <ele>1601</ele>
        <time>2013-02-09T11:22:59Z</time>
      </trkpt>
      <trkpt lat="43.0137" lon="0.09314">
        <ele>1602</ele>
        <time>2013-02-09T11:23:02Z</time>
      </trkpt>
      <trkpt lat="43.01368" lon="0.09313">
        <ele>1602</ele>
        <time>2013-02-09T11:23:07Z</time>
      </trkpt>
      <trkpt lat="43.01367" lon="0.09313">
        <ele>1602</ele>
        <time>2013-02-09T11:23:10Z</time>
      </trkpt>
      <trkpt lat="43.01365" lon="0.09312">
        <ele>1604</ele>
        <time>2013-02-09T11:23:16Z</time>
      </trkpt>
      <trkpt lat="43.01364" lon="0.09311">
        <ele>1604</ele>
        <time>2013-02-09T11:23:18Z</time>
      </trkpt>
      <trkpt lat="43.01363" lon="0.09312">
        <ele>1604</ele>
        <time>2013-02-09T11:23:20Z</time>
      </trkpt>
      <trkpt lat="43.01363" lon="0.09314">
        <ele>1604</ele>
        <time>2013-02-09T11:23:22Z</time>
      </trkpt>
      <trkpt lat="43.01363" lon="0.09315">
        <ele>1604</ele>
        <time>2013-02-09T11:23:24Z</time>
      </trkpt>
      <trkpt lat="43.01363" lon="0.09317">
        <ele>1604</ele>
        <time>2013-02-09T11:23:26Z</time>
      </trkpt>
      <trkpt lat="43.01363" lon="0.09319">
        <ele>1604</ele>
        <time>2013-02-09T11:23:28Z</time>
      </trkpt>
      <trkpt lat="43.01363" lon="0.0932">
        <ele>1605</ele>
        <time>2013-02-09T11:23:30Z</time>
      </trkpt>
      <trkpt lat="43.01363" lon="0.09322">
        <ele>1605</ele>
        <time>2013-02-09T11:23:32Z</time>
      </trkpt>
      <trkpt lat="43.01363" lon="0.09323">
        <ele>1605</ele>
        <time>2013-02-09T11:23:36Z</time>
      </trkpt>
      <trkpt lat="43.01364" lon="0.09325">
        <ele>1605</ele>
        <time>2013-02-09T11:24:07Z</time>
      </trkpt>
      <trkpt lat="43.01364" lon="0.09327">
        <ele>1605</ele>
        <time>2013-02-09T11:24:09Z</time>
      </trkpt>
      <trkpt lat="43.01364" lon="0.09329">
        <ele>1605</ele>
        <time>2013-02-09T11:24:11Z</time>
      </trkpt>
      <trkpt lat="43.01364" lon="0.09331">
        <ele>1605</ele>
        <time>2013-02-09T11:24:13Z</time>
      </trkpt>
      <trkpt lat="43.01364" lon="0.09333">
        <ele>1605</ele>
        <time>2013-02-09T11:24:15Z</time>
      </trkpt>
      <trkpt lat="43.01364" lon="0.09335">
        <ele>1606</ele>
        <time>2013-02-09T11:24:17Z</time>
      </trkpt>
      <trkpt lat="43.01365" lon="0.09337">
        <ele>1606</ele>
        <time>2013-02-09T11:24:19Z</time>
      </trkpt>
      <trkpt lat="43.01365" lon="0.0934">
        <ele>1606</ele>
        <time>2013-02-09T11:24:21Z</time>
      </trkpt>
      <trkpt lat="43.01365" lon="0.09342">
        <ele>1607</ele>
        <time>2013-02-09T11:24:23Z</time>
      </trkpt>
      <trkpt lat="43.01365" lon="0.09344">
        <ele>1607</ele>
        <time>2013-02-09T11:24:25Z</time>
      </trkpt>
      <trkpt lat="43.01365" lon="0.09346">
        <ele>1607</ele>
        <time>2013-02-09T11:24:27Z</time>
      </trkpt>
      <trkpt lat="43.01365" lon="0.09348">
        <ele>1607</ele>
        <time>2013-02-09T11:24:29Z</time>
      </trkpt>
      <trkpt lat="43.01365" lon="0.0935">
        <ele>1608</ele>
        <time>2013-02-09T11:24:31Z</time>
      </trkpt>
      <trkpt lat="43.01364" lon="0.0935">
        <ele>1609</ele>
        <time>2013-02-09T11:24:35Z</time>
      </trkpt>
      <trkpt lat="43.01363" lon="0.09349">
        <ele>1609</ele>
        <time>2013-02-09T11:24:38Z</time>
      </trkpt>
      <trkpt lat="43.01361" lon="0.09347">
        <ele>1610</ele>
        <time>2013-02-09T11:24:40Z</time>
      </trkpt>
      <trkpt lat="43.0136" lon="0.09346">
        <ele>1610</ele>
        <time>2013-02-09T11:24:42Z</time>
      </trkpt>
      <trkpt lat="43.01359" lon="0.09344">
        <ele>1610</ele>
        <time>2013-02-09T11:24:44Z</time>
      </trkpt>
      <trkpt lat="43.01358" lon="0.09343">
        <ele>1611</ele>
        <time>2013-02-09T11:24:46Z</time>
      </trkpt>
      <trkpt lat="43.01356" lon="0.09342">
        <ele>1611</ele>
        <time>2013-02-09T11:24:48Z</time>
      </trkpt>
      <trkpt lat="43.01355" lon="0.09341">
        <ele>1611</ele>
        <time>2013-02-09T11:24:50Z</time>
      </trkpt>
      <trkpt lat="43.01354" lon="0.09339">
        <ele>1611</ele>
        <time>2013-02-09T11:24:52Z</time>
      </trkpt>
      <trkpt lat="43.01353" lon="0.09338">
        <ele>1612</ele>
        <time>2013-02-09T11:24:54Z</time>
      </trkpt>
      <trkpt lat="43.01352" lon="0.09337">
        <ele>1612</ele>
        <time>2013-02-09T11:24:56Z</time>
      </trkpt>
      <trkpt lat="43.0135" lon="0.09335">
        <ele>1613</ele>
        <time>2013-02-09T11:24:59Z</time>
      </trkpt>
      <trkpt lat="43.01349" lon="0.09334">
        <ele>1613</ele>
        <time>2013-02-09T11:25:01Z</time>
      </trkpt>
      <trkpt lat="43.01347" lon="0.09333">
        <ele>1613</ele>
        <time>2013-02-09T11:25:03Z</time>
      </trkpt>
      <trkpt lat="43.01346" lon="0.09332">
        <ele>1614</ele>
        <time>2013-02-09T11:25:06Z</time>
      </trkpt>
      <trkpt lat="43.01345" lon="0.09331">
        <ele>1614</ele>
        <time>2013-02-09T11:25:08Z</time>
      </trkpt>
      <trkpt lat="43.01344" lon="0.0933">
        <ele>1615</ele>
        <time>2013-02-09T11:25:10Z</time>
      </trkpt>
      <trkpt lat="43.01342" lon="0.0933">
        <ele>1615</ele>
        <time>2013-02-09T11:25:13Z</time>
      </trkpt>
      <trkpt lat="43.0134" lon="0.09329">
        <ele>1616</ele>
        <time>2013-02-09T11:25:16Z</time>
      </trkpt>
      <trkpt lat="43.01339" lon="0.09327">
        <ele>1616</ele>
        <time>2013-02-09T11:25:19Z</time>
      </trkpt>
      <trkpt lat="43.01337" lon="0.09326">
        <ele>1616</ele>
        <time>2013-02-09T11:25:21Z</time>
      </trkpt>
      <trkpt lat="43.01336" lon="0.09325">
        <ele>1617</ele>
        <time>2013-02-09T11:25:23Z</time>
      </trkpt>
      <trkpt lat="43.01335" lon="0.09325">
        <ele>1617</ele>
        <time>2013-02-09T11:25:25Z</time>
      </trkpt>
      <trkpt lat="43.01334" lon="0.09324">
        <ele>1617</ele>
        <time>2013-02-09T11:25:27Z</time>
      </trkpt>
      <trkpt lat="43.01333" lon="0.09323">
        <ele>1617</ele>
        <time>2013-02-09T11:25:29Z</time>
      </trkpt>
      <trkpt lat="43.01331" lon="0.09323">
        <ele>1617</ele>
        <time>2013-02-09T11:25:31Z</time>
      </trkpt>
      <trkpt lat="43.0133" lon="0.09322">
        <ele>1617</ele>
        <time>2013-02-09T11:25:34Z</time>
      </trkpt>
      <trkpt lat="43.01329" lon="0.09322">
        <ele>1618</ele>
        <time>2013-02-09T11:25:36Z</time>
      </trkpt>
      <trkpt lat="43.01327" lon="0.09321">
        <ele>1618</ele>
        <time>2013-02-09T11:25:39Z</time>
      </trkpt>
      <trkpt lat="43.01326" lon="0.09321">
        <ele>1619</ele>
        <time>2013-02-09T11:25:42Z</time>
      </trkpt>
      <trkpt lat="43.01325" lon="0.0932">
        <ele>1619</ele>
        <time>2013-02-09T11:25:46Z</time>
      </trkpt>
      <trkpt lat="43.01325" lon="0.09322">
        <ele>1620</ele>
        <time>2013-02-09T11:25:51Z</time>
      </trkpt>
      <trkpt lat="43.01325" lon="0.09324">
        <ele>1620</ele>
        <time>2013-02-09T11:25:53Z</time>
      </trkpt>
      <trkpt lat="43.01325" lon="0.09326">
        <ele>1620</ele>
        <time>2013-02-09T11:25:55Z</time>
      </trkpt>
      <trkpt lat="43.01325" lon="0.09328">
        <ele>1620</ele>
        <time>2013-02-09T11:25:57Z</time>
      </trkpt>
      <trkpt lat="43.01326" lon="0.09329">
        <ele>1621</ele>
        <time>2013-02-09T11:25:59Z</time>
      </trkpt>
      <trkpt lat="43.01326" lon="0.09331">
        <ele>1621</ele>
        <time>2013-02-09T11:26:01Z</time>
      </trkpt>
      <trkpt lat="43.01326" lon="0.09333">
        <ele>1621</ele>
        <time>2013-02-09T11:26:03Z</time>
      </trkpt>
      <trkpt lat="43.01326" lon="0.09334">
        <ele>1621</ele>
        <time>2013-02-09T11:26:05Z</time>
      </trkpt>
      <trkpt lat="43.01326" lon="0.09336">
        <ele>1622</ele>
        <time>2013-02-09T11:26:20Z</time>
      </trkpt>
      <trkpt lat="43.01326" lon="0.09338">
        <ele>1622</ele>
        <time>2013-02-09T11:26:22Z</time>
      </trkpt>
      <trkpt lat="43.01326" lon="0.0934">
        <ele>1622</ele>
        <time>2013-02-09T11:26:24Z</time>
      </trkpt>
      <trkpt lat="43.01326" lon="0.09342">
        <ele>1622</ele>
        <time>2013-02-09T11:26:26Z</time>
      </trkpt>
      <trkpt lat="43.01326" lon="0.09344">
        <ele>1622</ele>
        <time>2013-02-09T11:26:28Z</time>
      </trkpt>
      <trkpt lat="43.01326" lon="0.09346">
        <ele>1622</ele>
        <time>2013-02-09T11:26:30Z</time>
      </trkpt>
      <trkpt lat="43.01325" lon="0.09344">
        <ele>1623</ele>
        <time>2013-02-09T11:26:39Z</time>
      </trkpt>
      <trkpt lat="43.01323" lon="0.09343">
        <ele>1623</ele>
        <time>2013-02-09T11:26:41Z</time>
      </trkpt>
      <trkpt lat="43.01322" lon="0.09342">
        <ele>1624</ele>
        <time>2013-02-09T11:26:43Z</time>
      </trkpt>
      <trkpt lat="43.01321" lon="0.09342">
        <ele>1624</ele>
        <time>2013-02-09T11:26:45Z</time>
      </trkpt>
      <trkpt lat="43.01319" lon="0.09341">
        <ele>1624</ele>
        <time>2013-02-09T11:26:47Z</time>
      </trkpt>
      <trkpt lat="43.01318" lon="0.0934">
        <ele>1625</ele>
        <time>2013-02-09T11:26:49Z</time>
      </trkpt>
      <trkpt lat="43.01317" lon="0.09339">
        <ele>1625</ele>
        <time>2013-02-09T11:26:51Z</time>
      </trkpt>
      <trkpt lat="43.01316" lon="0.09339">
        <ele>1625</ele>
        <time>2013-02-09T11:26:53Z</time>
      </trkpt>
      <trkpt lat="43.01315" lon="0.09338">
        <ele>1626</ele>
        <time>2013-02-09T11:26:55Z</time>
      </trkpt>
      <trkpt lat="43.01313" lon="0.09337">
        <ele>1626</ele>
        <time>2013-02-09T11:26:57Z</time>
      </trkpt>
      <trkpt lat="43.01312" lon="0.09337">
        <ele>1627</ele>
        <time>2013-02-09T11:26:59Z</time>
      </trkpt>
      <trkpt lat="43.01311" lon="0.09336">
        <ele>1627</ele>
        <time>2013-02-09T11:27:01Z</time>
      </trkpt>
      <trkpt lat="43.0131" lon="0.09335">
        <ele>1627</ele>
        <time>2013-02-09T11:27:03Z</time>
      </trkpt>
      <trkpt lat="43.01308" lon="0.09335">
        <ele>1627</ele>
        <time>2013-02-09T11:27:05Z</time>
      </trkpt>
      <trkpt lat="43.01307" lon="0.09334">
        <ele>1628</ele>
        <time>2013-02-09T11:27:07Z</time>
      </trkpt>
      <trkpt lat="43.01306" lon="0.09333">
        <ele>1628</ele>
        <time>2013-02-09T11:27:09Z</time>
      </trkpt>
      <trkpt lat="43.01305" lon="0.09332">
        <ele>1629</ele>
        <time>2013-02-09T11:27:25Z</time>
      </trkpt>
      <trkpt lat="43.01303" lon="0.09331">
        <ele>1630</ele>
        <time>2013-02-09T11:27:28Z</time>
      </trkpt>
      <trkpt lat="43.01302" lon="0.0933">
        <ele>1630</ele>
        <time>2013-02-09T11:27:30Z</time>
      </trkpt>
      <trkpt lat="43.01301" lon="0.09329">
        <ele>1630</ele>
        <time>2013-02-09T11:27:33Z</time>
      </trkpt>
      <trkpt lat="43.01299" lon="0.09327">
        <ele>1630</ele>
        <time>2013-02-09T11:27:36Z</time>
      </trkpt>
      <trkpt lat="43.01298" lon="0.09326">
        <ele>1630</ele>
        <time>2013-02-09T11:27:38Z</time>
      </trkpt>
      <trkpt lat="43.01297" lon="0.09324">
        <ele>1631</ele>
        <time>2013-02-09T11:27:41Z</time>
      </trkpt>
      <trkpt lat="43.01295" lon="0.09323">
        <ele>1631</ele>
        <time>2013-02-09T11:27:44Z</time>
      </trkpt>
      <trkpt lat="43.01293" lon="0.09322">
        <ele>1632</ele>
        <time>2013-02-09T11:27:47Z</time>
      </trkpt>
      <trkpt lat="43.01292" lon="0.09322">
        <ele>1632</ele>
        <time>2013-02-09T11:27:49Z</time>
      </trkpt>
      <trkpt lat="43.01291" lon="0.09321">
        <ele>1633</ele>
        <time>2013-02-09T11:27:51Z</time>
      </trkpt>
      <trkpt lat="43.0129" lon="0.0932">
        <ele>1633</ele>
        <time>2013-02-09T11:27:53Z</time>
      </trkpt>
      <trkpt lat="43.01289" lon="0.0932">
        <ele>1634</ele>
        <time>2013-02-09T11:27:55Z</time>
      </trkpt>
      <trkpt lat="43.01287" lon="0.09319">
        <ele>1634</ele>
        <time>2013-02-09T11:27:57Z</time>
      </trkpt>
      <trkpt lat="43.01286" lon="0.09319">
        <ele>1635</ele>
        <time>2013-02-09T11:27:59Z</time>
      </trkpt>
      <trkpt lat="43.01285" lon="0.09319">
        <ele>1635</ele>
        <time>2013-02-09T11:28:01Z</time>
      </trkpt>
      <trkpt lat="43.01284" lon="0.09318">
        <ele>1636</ele>
        <time>2013-02-09T11:28:03Z</time>
      </trkpt>
      <trkpt lat="43.01283" lon="0.09318">
        <ele>1636</ele>
        <time>2013-02-09T11:28:05Z</time>
      </trkpt>
      <trkpt lat="43.01281" lon="0.09317">
        <ele>1636</ele>
        <time>2013-02-09T11:28:07Z</time>
      </trkpt>
      <trkpt lat="43.0128" lon="0.09317">
        <ele>1637</ele>
        <time>2013-02-09T11:28:09Z</time>
      </trkpt>
      <trkpt lat="43.01279" lon="0.09316">
        <ele>1637</ele>
        <time>2013-02-09T11:28:11Z</time>
      </trkpt>
      <trkpt lat="43.01278" lon="0.09315">
        <ele>1637</ele>
        <time>2013-02-09T11:28:13Z</time>
      </trkpt>
      <trkpt lat="43.01276" lon="0.09315">
        <ele>1637</ele>
        <time>2013-02-09T11:28:15Z</time>
      </trkpt>
      <trkpt lat="43.01275" lon="0.09315">
        <ele>1638</ele>
        <time>2013-02-09T11:28:17Z</time>
      </trkpt>
      <trkpt lat="43.01274" lon="0.09314">
        <ele>1638</ele>
        <time>2013-02-09T11:28:19Z</time>
      </trkpt>
      <trkpt lat="43.01273" lon="0.09313">
        <ele>1638</ele>
        <time>2013-02-09T11:28:22Z</time>
      </trkpt>
      <trkpt lat="43.01271" lon="0.09313">
        <ele>1639</ele>
        <time>2013-02-09T11:28:33Z</time>
      </trkpt>
      <trkpt lat="43.0127" lon="0.09313">
        <ele>1639</ele>
        <time>2013-02-09T11:28:35Z</time>
      </trkpt>
      <trkpt lat="43.01269" lon="0.09313">
        <ele>1639</ele>
        <time>2013-02-09T11:28:37Z</time>
      </trkpt>
      <trkpt lat="43.01268" lon="0.09312">
        <ele>1639</ele>
        <time>2013-02-09T11:28:39Z</time>
      </trkpt>
      <trkpt lat="43.01266" lon="0.09312">
        <ele>1640</ele>
        <time>2013-02-09T11:28:41Z</time>
      </trkpt>
      <trkpt lat="43.01265" lon="0.09312">
        <ele>1640</ele>
        <time>2013-02-09T11:28:43Z</time>
      </trkpt>
      <trkpt lat="43.01264" lon="0.09312">
        <ele>1641</ele>
        <time>2013-02-09T11:28:45Z</time>
      </trkpt>
      <trkpt lat="43.01263" lon="0.09312">
        <ele>1641</ele>
        <time>2013-02-09T11:28:47Z</time>
      </trkpt>
      <trkpt lat="43.01262" lon="0.09312">
        <ele>1641</ele>
        <time>2013-02-09T11:28:49Z</time>
      </trkpt>
      <trkpt lat="43.0126" lon="0.09312">
        <ele>1642</ele>
        <time>2013-02-09T11:28:51Z</time>
      </trkpt>
      <trkpt lat="43.0126" lon="0.09314">
        <ele>1642</ele>
        <time>2013-02-09T11:28:53Z</time>
      </trkpt>
      <trkpt lat="43.0126" lon="0.09316">
        <ele>1643</ele>
        <time>2013-02-09T11:28:55Z</time>
      </trkpt>
      <trkpt lat="43.01261" lon="0.09318">
        <ele>1643</ele>
        <time>2013-02-09T11:28:57Z</time>
      </trkpt>
      <trkpt lat="43.01261" lon="0.09319">
        <ele>1643</ele>
        <time>2013-02-09T11:28:59Z</time>
      </trkpt>
      <trkpt lat="43.01262" lon="0.09321">
        <ele>1643</ele>
        <time>2013-02-09T11:29:01Z</time>
      </trkpt>
      <trkpt lat="43.01262" lon="0.09323">
        <ele>1643</ele>
        <time>2013-02-09T11:29:03Z</time>
      </trkpt>
      <trkpt lat="43.01262" lon="0.09325">
        <ele>1644</ele>
        <time>2013-02-09T11:29:05Z</time>
      </trkpt>
      <trkpt lat="43.01262" lon="0.09327">
        <ele>1644</ele>
        <time>2013-02-09T11:29:07Z</time>
      </trkpt>
      <trkpt lat="43.01262" lon="0.09329">
        <ele>1645</ele>
        <time>2013-02-09T11:29:10Z</time>
      </trkpt>
      <trkpt lat="43.01263" lon="0.0933">
        <ele>1645</ele>
        <time>2013-02-09T11:29:40Z</time>
      </trkpt>
      <trkpt lat="43.01263" lon="0.09332">
        <ele>1645</ele>
        <time>2013-02-09T11:29:42Z</time>
      </trkpt>
      <trkpt lat="43.01264" lon="0.09334">
        <ele>1645</ele>
        <time>2013-02-09T11:29:44Z</time>
      </trkpt>
      <trkpt lat="43.01264" lon="0.09336">
        <ele>1645</ele>
        <time>2013-02-09T11:29:46Z</time>
      </trkpt>
      <trkpt lat="43.01264" lon="0.09338">
        <ele>1646</ele>
        <time>2013-02-09T11:29:48Z</time>
      </trkpt>
      <trkpt lat="43.01264" lon="0.0934">
        <ele>1646</ele>
        <time>2013-02-09T11:29:50Z</time>
      </trkpt>
      <trkpt lat="43.01264" lon="0.09341">
        <ele>1646</ele>
        <time>2013-02-09T11:29:52Z</time>
      </trkpt>
      <trkpt lat="43.01265" lon="0.09343">
        <ele>1646</ele>
        <time>2013-02-09T11:29:54Z</time>
      </trkpt>
      <trkpt lat="43.01265" lon="0.09345">
        <ele>1647</ele>
        <time>2013-02-09T11:29:56Z</time>
      </trkpt>
      <trkpt lat="43.01265" lon="0.09347">
        <ele>1647</ele>
        <time>2013-02-09T11:29:58Z</time>
      </trkpt>
      <trkpt lat="43.01265" lon="0.09348">
        <ele>1647</ele>
        <time>2013-02-09T11:30:00Z</time>
      </trkpt>
      <trkpt lat="43.01265" lon="0.0935">
        <ele>1648</ele>
        <time>2013-02-09T11:30:02Z</time>
      </trkpt>
      <trkpt lat="43.01264" lon="0.09351">
        <ele>1649</ele>
        <time>2013-02-09T11:30:09Z</time>
      </trkpt>
      <trkpt lat="43.01263" lon="0.0935">
        <ele>1649</ele>
        <time>2013-02-09T11:30:11Z</time>
      </trkpt>
      <trkpt lat="43.01262" lon="0.0935">
        <ele>1649</ele>
        <time>2013-02-09T11:30:13Z</time>
      </trkpt>
      <trkpt lat="43.0126" lon="0.09349">
        <ele>1649</ele>
        <time>2013-02-09T11:30:15Z</time>
      </trkpt>
      <trkpt lat="43.01259" lon="0.09349">
        <ele>1650</ele>
        <time>2013-02-09T11:30:17Z</time>
      </trkpt>
      <trkpt lat="43.01258" lon="0.09348">
        <ele>1650</ele>
        <time>2013-02-09T11:30:19Z</time>
      </trkpt>
      <trkpt lat="43.01257" lon="0.09348">
        <ele>1650</ele>
        <time>2013-02-09T11:30:21Z</time>
      </trkpt>
      <trkpt lat="43.01256" lon="0.09347">
        <ele>1651</ele>
        <time>2013-02-09T11:30:23Z</time>
      </trkpt>
      <trkpt lat="43.01254" lon="0.09347">
        <ele>1651</ele>
        <time>2013-02-09T11:30:26Z</time>
      </trkpt>
      <trkpt lat="43.01253" lon="0.09347">
        <ele>1652</ele>
        <time>2013-02-09T11:30:33Z</time>
      </trkpt>
      <trkpt lat="43.01252" lon="0.09346">
        <ele>1652</ele>
        <time>2013-02-09T11:30:35Z</time>
      </trkpt>
      <trkpt lat="43.0125" lon="0.09346">
        <ele>1653</ele>
        <time>2013-02-09T11:30:38Z</time>
      </trkpt>
      <trkpt lat="43.0125" lon="0.09348">
        <ele>1654</ele>
        <time>2013-02-09T11:30:43Z</time>
      </trkpt>
      <trkpt lat="43.01251" lon="0.0935">
        <ele>1654</ele>
        <time>2013-02-09T11:30:45Z</time>
      </trkpt>
      <trkpt lat="43.01251" lon="0.09352">
        <ele>1654</ele>
        <time>2013-02-09T11:30:47Z</time>
      </trkpt>
      <trkpt lat="43.01251" lon="0.09353">
        <ele>1654</ele>
        <time>2013-02-09T11:30:49Z</time>
      </trkpt>
      <trkpt lat="43.01252" lon="0.09355">
        <ele>1654</ele>
        <time>2013-02-09T11:30:51Z</time>
      </trkpt>
      <trkpt lat="43.01252" lon="0.09357">
        <ele>1654</ele>
        <time>2013-02-09T11:30:53Z</time>
      </trkpt>
      <trkpt lat="43.01252" lon="0.09359">
        <ele>1654</ele>
        <time>2013-02-09T11:30:55Z</time>
      </trkpt>
      <trkpt lat="43.01253" lon="0.0936">
        <ele>1654</ele>
        <time>2013-02-09T11:30:57Z</time>
      </trkpt>
      <trkpt lat="43.01253" lon="0.09362">
        <ele>1655</ele>
        <time>2013-02-09T11:30:59Z</time>
      </trkpt>
      <trkpt lat="43.01253" lon="0.09364">
        <ele>1655</ele>
        <time>2013-02-09T11:31:01Z</time>
      </trkpt>
      <trkpt lat="43.01254" lon="0.09365">
        <ele>1655</ele>
        <time>2013-02-09T11:31:03Z</time>
      </trkpt>
      <trkpt lat="43.01254" lon="0.09367">
        <ele>1655</ele>
        <time>2013-02-09T11:31:05Z</time>
      </trkpt>
      <trkpt lat="43.01254" lon="0.09369">
        <ele>1656</ele>
        <time>2013-02-09T11:31:07Z</time>
      </trkpt>
      <trkpt lat="43.01255" lon="0.09371">
        <ele>1656</ele>
        <time>2013-02-09T11:31:09Z</time>
      </trkpt>
      <trkpt lat="43.01255" lon="0.09373">
        <ele>1657</ele>
        <time>2013-02-09T11:31:20Z</time>
      </trkpt>
      <trkpt lat="43.01255" lon="0.09374">
        <ele>1657</ele>
        <time>2013-02-09T11:31:22Z</time>
      </trkpt>
      <trkpt lat="43.01255" lon="0.09376">
        <ele>1657</ele>
        <time>2013-02-09T11:31:24Z</time>
      </trkpt>
      <trkpt lat="43.01255" lon="0.09378">
        <ele>1658</ele>
        <time>2013-02-09T11:31:26Z</time>
      </trkpt>
      <trkpt lat="43.01255" lon="0.0938">
        <ele>1658</ele>
        <time>2013-02-09T11:31:28Z</time>
      </trkpt>
      <trkpt lat="43.01255" lon="0.09381">
        <ele>1658</ele>
        <time>2013-02-09T11:31:30Z</time>
      </trkpt>
      <trkpt lat="43.01255" lon="0.09383">
        <ele>1658</ele>
        <time>2013-02-09T11:31:32Z</time>
      </trkpt>
      <trkpt lat="43.01255" lon="0.09385">
        <ele>1659</ele>
        <time>2013-02-09T11:31:34Z</time>
      </trkpt>
      <trkpt lat="43.01255" lon="0.09387">
        <ele>1659</ele>
        <time>2013-02-09T11:31:36Z</time>
      </trkpt>
      <trkpt lat="43.01255" lon="0.09389">
        <ele>1660</ele>
        <time>2013-02-09T11:31:39Z</time>
      </trkpt>
      <trkpt lat="43.01254" lon="0.0939">
        <ele>1660</ele>
        <time>2013-02-09T11:31:43Z</time>
      </trkpt>
      <trkpt lat="43.01252" lon="0.09389">
        <ele>1661</ele>
        <time>2013-02-09T11:31:45Z</time>
      </trkpt>
      <trkpt lat="43.01251" lon="0.09389">
        <ele>1661</ele>
        <time>2013-02-09T11:31:47Z</time>
      </trkpt>
      <trkpt lat="43.0125" lon="0.09389">
        <ele>1662</ele>
        <time>2013-02-09T11:31:49Z</time>
      </trkpt>
      <trkpt lat="43.01249" lon="0.09391">
        <ele>1663</ele>
        <time>2013-02-09T11:31:52Z</time>
      </trkpt>
      <trkpt lat="43.01249" lon="0.09392">
        <ele>1663</ele>
        <time>2013-02-09T11:31:54Z</time>
      </trkpt>
      <trkpt lat="43.01249" lon="0.09394">
        <ele>1663</ele>
        <time>2013-02-09T11:31:56Z</time>
      </trkpt>
      <trkpt lat="43.01249" lon="0.09396">
        <ele>1664</ele>
        <time>2013-02-09T11:31:58Z</time>
      </trkpt>
      <trkpt lat="43.01249" lon="0.09398">
        <ele>1664</ele>
        <time>2013-02-09T11:32:00Z</time>
      </trkpt>
      <trkpt lat="43.01249" lon="0.094">
        <ele>1665</ele>
        <time>2013-02-09T11:32:02Z</time>
      </trkpt>
      <trkpt lat="43.0125" lon="0.09402">
        <ele>1666</ele>
        <time>2013-02-09T11:32:32Z</time>
      </trkpt>
      <trkpt lat="43.0125" lon="0.09404">
        <ele>1666</ele>
        <time>2013-02-09T11:32:34Z</time>
      </trkpt>
      <trkpt lat="43.0125" lon="0.09406">
        <ele>1666</ele>
        <time>2013-02-09T11:32:36Z</time>
      </trkpt>
      <trkpt lat="43.0125" lon="0.09408">
        <ele>1666</ele>
        <time>2013-02-09T11:32:38Z</time>
      </trkpt>
      <trkpt lat="43.0125" lon="0.0941">
        <ele>1666</ele>
        <time>2013-02-09T11:32:40Z</time>
      </trkpt>
      <trkpt lat="43.01249" lon="0.09412">
        <ele>1666</ele>
        <time>2013-02-09T11:32:42Z</time>
      </trkpt>
      <trkpt lat="43.01248" lon="0.09413">
        <ele>1667</ele>
        <time>2013-02-09T11:32:44Z</time>
      </trkpt>
      <trkpt lat="43.01248" lon="0.09415">
        <ele>1667</ele>
        <time>2013-02-09T11:32:46Z</time>
      </trkpt>
      <trkpt lat="43.01247" lon="0.09416">
        <ele>1668</ele>
        <time>2013-02-09T11:32:49Z</time>
      </trkpt>
      <trkpt lat="43.01245" lon="0.09414">
        <ele>1668</ele>
        <time>2013-02-09T11:32:52Z</time>
      </trkpt>
      <trkpt lat="43.01244" lon="0.09413">
        <ele>1669</ele>
        <time>2013-02-09T11:32:54Z</time>
      </trkpt>
      <trkpt lat="43.01242" lon="0.09412">
        <ele>1669</ele>
        <time>2013-02-09T11:32:56Z</time>
      </trkpt>
      <trkpt lat="43.01241" lon="0.09411">
        <ele>1669</ele>
        <time>2013-02-09T11:32:58Z</time>
      </trkpt>
      <trkpt lat="43.01239" lon="0.0941">
        <ele>1670</ele>
        <time>2013-02-09T11:33:01Z</time>
      </trkpt>
      <trkpt lat="43.01238" lon="0.09409">
        <ele>1670</ele>
        <time>2013-02-09T11:33:03Z</time>
      </trkpt>
      <trkpt lat="43.01236" lon="0.09408">
        <ele>1670</ele>
        <time>2013-02-09T11:33:06Z</time>
      </trkpt>
      <trkpt lat="43.01235" lon="0.09407">
        <ele>1671</ele>
        <time>2013-02-09T11:33:08Z</time>
      </trkpt>
      <trkpt lat="43.01234" lon="0.09406">
        <ele>1671</ele>
        <time>2013-02-09T11:33:11Z</time>
      </trkpt>
      <trkpt lat="43.01233" lon="0.09404">
        <ele>1672</ele>
        <time>2013-02-09T11:33:14Z</time>
      </trkpt>
      <trkpt lat="43.01231" lon="0.09403">
        <ele>1672</ele>
        <time>2013-02-09T11:33:16Z</time>
      </trkpt>
      <trkpt lat="43.0123" lon="0.09402">
        <ele>1672</ele>
        <time>2013-02-09T11:33:18Z</time>
      </trkpt>
      <trkpt lat="43.01229" lon="0.09401">
        <ele>1673</ele>
        <time>2013-02-09T11:33:20Z</time>
      </trkpt>
      <trkpt lat="43.01227" lon="0.094">
        <ele>1673</ele>
        <time>2013-02-09T11:33:23Z</time>
      </trkpt>
      <trkpt lat="43.01226" lon="0.09399">
        <ele>1674</ele>
        <time>2013-02-09T11:33:25Z</time>
      </trkpt>
      <trkpt lat="43.01225" lon="0.09399">
        <ele>1674</ele>
        <time>2013-02-09T11:33:27Z</time>
      </trkpt>
      <trkpt lat="43.01223" lon="0.09401">
        <ele>1675</ele>
        <time>2013-02-09T11:33:30Z</time>
      </trkpt>
      <trkpt lat="43.01223" lon="0.09402">
        <ele>1675</ele>
        <time>2013-02-09T11:33:32Z</time>
      </trkpt>
      <trkpt lat="43.01223" lon="0.09404">
        <ele>1675</ele>
        <time>2013-02-09T11:33:34Z</time>
      </trkpt>
      <trkpt lat="43.01223" lon="0.09406">
        <ele>1676</ele>
        <time>2013-02-09T11:33:36Z</time>
      </trkpt>
      <trkpt lat="43.01223" lon="0.09408">
        <ele>1676</ele>
        <time>2013-02-09T11:33:38Z</time>
      </trkpt>
      <trkpt lat="43.01223" lon="0.0941">
        <ele>1676</ele>
        <time>2013-02-09T11:33:40Z</time>
      </trkpt>
      <trkpt lat="43.01223" lon="0.09412">
        <ele>1676</ele>
        <time>2013-02-09T11:33:42Z</time>
      </trkpt>
      <trkpt lat="43.01223" lon="0.09414">
        <ele>1677</ele>
        <time>2013-02-09T11:33:44Z</time>
      </trkpt>
      <trkpt lat="43.01223" lon="0.09415">
        <ele>1677</ele>
        <time>2013-02-09T11:33:46Z</time>
      </trkpt>
      <trkpt lat="43.01222" lon="0.09417">
        <ele>1677</ele>
        <time>2013-02-09T11:33:48Z</time>
      </trkpt>
      <trkpt lat="43.01222" lon="0.09419">
        <ele>1677</ele>
        <time>2013-02-09T11:33:50Z</time>
      </trkpt>
      <trkpt lat="43.01221" lon="0.09421">
        <ele>1677</ele>
        <time>2013-02-09T11:33:52Z</time>
      </trkpt>
      <trkpt lat="43.01221" lon="0.09423">
        <ele>1678</ele>
        <time>2013-02-09T11:33:54Z</time>
      </trkpt>
      <trkpt lat="43.01221" lon="0.09425">
        <ele>1678</ele>
        <time>2013-02-09T11:33:56Z</time>
      </trkpt>
      <trkpt lat="43.0122" lon="0.09426">
        <ele>1678</ele>
        <time>2013-02-09T11:33:58Z</time>
      </trkpt>
      <trkpt lat="43.0122" lon="0.09428">
        <ele>1679</ele>
        <time>2013-02-09T11:34:00Z</time>
      </trkpt>
      <trkpt lat="43.0122" lon="0.0943">
        <ele>1679</ele>
        <time>2013-02-09T11:34:02Z</time>
      </trkpt>
      <trkpt lat="43.01219" lon="0.09431">
        <ele>1680</ele>
        <time>2013-02-09T11:34:04Z</time>
      </trkpt>
      <trkpt lat="43.01218" lon="0.09433">
        <ele>1680</ele>
        <time>2013-02-09T11:34:06Z</time>
      </trkpt>
      <trkpt lat="43.01217" lon="0.09434">
        <ele>1680</ele>
        <time>2013-02-09T11:34:08Z</time>
      </trkpt>
      <trkpt lat="43.01217" lon="0.09436">
        <ele>1680</ele>
        <time>2013-02-09T11:34:10Z</time>
      </trkpt>
      <trkpt lat="43.01216" lon="0.09437">
        <ele>1681</ele>
        <time>2013-02-09T11:34:12Z</time>
      </trkpt>
      <trkpt lat="43.01215" lon="0.09439">
        <ele>1681</ele>
        <time>2013-02-09T11:34:14Z</time>
      </trkpt>
      <trkpt lat="43.01214" lon="0.09441">
        <ele>1682</ele>
        <time>2013-02-09T11:34:17Z</time>
      </trkpt>
      <trkpt lat="43.01212" lon="0.09442">
        <ele>1682</ele>
        <time>2013-02-09T11:34:20Z</time>
      </trkpt>
      <trkpt lat="43.01211" lon="0.09442">
        <ele>1683</ele>
        <time>2013-02-09T11:34:22Z</time>
      </trkpt>
      <trkpt lat="43.0121" lon="0.09441">
        <ele>1683</ele>
        <time>2013-02-09T11:34:25Z</time>
      </trkpt>
      <trkpt lat="43.01208" lon="0.09439">
        <ele>1684</ele>
        <time>2013-02-09T11:34:49Z</time>
      </trkpt>
      <trkpt lat="43.01207" lon="0.09438">
        <ele>1684</ele>
        <time>2013-02-09T11:34:51Z</time>
      </trkpt>
      <trkpt lat="43.01207" lon="0.09436">
        <ele>1684</ele>
        <time>2013-02-09T11:34:53Z</time>
      </trkpt>
      <trkpt lat="43.01206" lon="0.09434">
        <ele>1684</ele>
        <time>2013-02-09T11:34:55Z</time>
      </trkpt>
      <trkpt lat="43.01205" lon="0.09432">
        <ele>1685</ele>
        <time>2013-02-09T11:34:58Z</time>
      </trkpt>
      <trkpt lat="43.01205" lon="0.0943">
        <ele>1685</ele>
        <time>2013-02-09T11:35:00Z</time>
      </trkpt>
      <trkpt lat="43.01204" lon="0.09428">
        <ele>1685</ele>
        <time>2013-02-09T11:35:02Z</time>
      </trkpt>
      <trkpt lat="43.01203" lon="0.09427">
        <ele>1686</ele>
        <time>2013-02-09T11:35:04Z</time>
      </trkpt>
      <trkpt lat="43.01203" lon="0.09425">
        <ele>1686</ele>
        <time>2013-02-09T11:35:06Z</time>
      </trkpt>
      <trkpt lat="43.01202" lon="0.09424">
        <ele>1686</ele>
        <time>2013-02-09T11:35:08Z</time>
      </trkpt>
      <trkpt lat="43.01202" lon="0.09422">
        <ele>1686</ele>
        <time>2013-02-09T11:35:10Z</time>
      </trkpt>
      <trkpt lat="43.01201" lon="0.09421">
        <ele>1687</ele>
        <time>2013-02-09T11:35:12Z</time>
      </trkpt>
      <trkpt lat="43.012" lon="0.09419">
        <ele>1687</ele>
        <time>2013-02-09T11:35:14Z</time>
      </trkpt>
      <trkpt lat="43.01199" lon="0.09417">
        <ele>1688</ele>
        <time>2013-02-09T11:35:17Z</time>
      </trkpt>
      <trkpt lat="43.01198" lon="0.09416">
        <ele>1688</ele>
        <time>2013-02-09T11:35:19Z</time>
      </trkpt>
      <trkpt lat="43.01197" lon="0.09414">
        <ele>1688</ele>
        <time>2013-02-09T11:35:22Z</time>
      </trkpt>
      <trkpt lat="43.01196" lon="0.09416">
        <ele>1689</ele>
        <time>2013-02-09T11:35:25Z</time>
      </trkpt>
      <trkpt lat="43.01195" lon="0.09418">
        <ele>1689</ele>
        <time>2013-02-09T11:35:27Z</time>
      </trkpt>
      <trkpt lat="43.01194" lon="0.0942">
        <ele>1689</ele>
        <time>2013-02-09T11:35:29Z</time>
      </trkpt>
      <trkpt lat="43.01194" lon="0.09421">
        <ele>1690</ele>
        <time>2013-02-09T11:35:31Z</time>
      </trkpt>
      <trkpt lat="43.01193" lon="0.09424">
        <ele>1690</ele>
        <time>2013-02-09T11:35:33Z</time>
      </trkpt>
      <trkpt lat="43.01192" lon="0.09425">
        <ele>1691</ele>
        <time>2013-02-09T11:35:35Z</time>
      </trkpt>
      <trkpt lat="43.01191" lon="0.09427">
        <ele>1691</ele>
        <time>2013-02-09T11:35:37Z</time>
      </trkpt>
      <trkpt lat="43.01191" lon="0.09428">
        <ele>1692</ele>
        <time>2013-02-09T11:35:39Z</time>
      </trkpt>
      <trkpt lat="43.0119" lon="0.0943">
        <ele>1692</ele>
        <time>2013-02-09T11:35:41Z</time>
      </trkpt>
      <trkpt lat="43.01189" lon="0.09431">
        <ele>1692</ele>
        <time>2013-02-09T11:35:43Z</time>
      </trkpt>
      <trkpt lat="43.01188" lon="0.09433">
        <ele>1693</ele>
        <time>2013-02-09T11:35:46Z</time>
      </trkpt>
      <trkpt lat="43.01186" lon="0.09435">
        <ele>1693</ele>
        <time>2013-02-09T11:35:49Z</time>
      </trkpt>
      <trkpt lat="43.01185" lon="0.09436">
        <ele>1694</ele>
        <time>2013-02-09T11:35:51Z</time>
      </trkpt>
      <trkpt lat="43.01184" lon="0.09437">
        <ele>1695</ele>
        <time>2013-02-09T11:36:10Z</time>
      </trkpt>
      <trkpt lat="43.01182" lon="0.09438">
        <ele>1695</ele>
        <time>2013-02-09T11:36:13Z</time>
      </trkpt>
      <trkpt lat="43.01181" lon="0.09439">
        <ele>1695</ele>
        <time>2013-02-09T11:36:16Z</time>
      </trkpt>
      <trkpt lat="43.01179" lon="0.09441">
        <ele>1695</ele>
        <time>2013-02-09T11:36:18Z</time>
      </trkpt>
      <trkpt lat="43.01178" lon="0.09442">
        <ele>1695</ele>
        <time>2013-02-09T11:36:20Z</time>
      </trkpt>
      <trkpt lat="43.01177" lon="0.09443">
        <ele>1696</ele>
        <time>2013-02-09T11:36:23Z</time>
      </trkpt>
      <trkpt lat="43.01175" lon="0.09444">
        <ele>1696</ele>
        <time>2013-02-09T11:36:26Z</time>
      </trkpt>
      <trkpt lat="43.01174" lon="0.09445">
        <ele>1696</ele>
        <time>2013-02-09T11:36:28Z</time>
      </trkpt>
      <trkpt lat="43.01173" lon="0.09445">
        <ele>1697</ele>
        <time>2013-02-09T11:36:30Z</time>
      </trkpt>
      <trkpt lat="43.01172" lon="0.09446">
        <ele>1697</ele>
        <time>2013-02-09T11:36:32Z</time>
      </trkpt>
      <trkpt lat="43.0117" lon="0.09447">
        <ele>1698</ele>
        <time>2013-02-09T11:36:35Z</time>
      </trkpt>
      <trkpt lat="43.01169" lon="0.09448">
        <ele>1698</ele>
        <time>2013-02-09T11:36:37Z</time>
      </trkpt>
      <trkpt lat="43.01167" lon="0.09448">
        <ele>1698</ele>
        <time>2013-02-09T11:36:39Z</time>
      </trkpt>
      <trkpt lat="43.01166" lon="0.09449">
        <ele>1698</ele>
        <time>2013-02-09T11:36:41Z</time>
      </trkpt>
      <trkpt lat="43.01165" lon="0.09449">
        <ele>1699</ele>
        <time>2013-02-09T11:36:43Z</time>
      </trkpt>
      <trkpt lat="43.01164" lon="0.09449">
        <ele>1699</ele>
        <time>2013-02-09T11:36:46Z</time>
      </trkpt>
      <trkpt lat="43.01163" lon="0.09448">
        <ele>1700</ele>
        <time>2013-02-09T11:36:49Z</time>
      </trkpt>
      <trkpt lat="43.01163" lon="0.09447">
        <ele>1700</ele>
        <time>2013-02-09T11:36:51Z</time>
      </trkpt>
      <trkpt lat="43.01163" lon="0.09445">
        <ele>1700</ele>
        <time>2013-02-09T11:36:53Z</time>
      </trkpt>
      <trkpt lat="43.01163" lon="0.09443">
        <ele>1700</ele>
        <time>2013-02-09T11:36:56Z</time>
      </trkpt>
      <trkpt lat="43.01163" lon="0.09441">
        <ele>1700</ele>
        <time>2013-02-09T11:36:58Z</time>
      </trkpt>
      <trkpt lat="43.01163" lon="0.0944">
        <ele>1701</ele>
        <time>2013-02-09T11:37:01Z</time>
      </trkpt>
      <trkpt lat="43.01161" lon="0.0944">
        <ele>1701</ele>
        <time>2013-02-09T11:37:08Z</time>
      </trkpt>
      <trkpt lat="43.0116" lon="0.09441">
        <ele>1701</ele>
        <time>2013-02-09T11:37:10Z</time>
      </trkpt>
      <trkpt lat="43.01159" lon="0.09441">
        <ele>1702</ele>
        <time>2013-02-09T11:37:12Z</time>
      </trkpt>
      <trkpt lat="43.01157" lon="0.09442">
        <ele>1702</ele>
        <time>2013-02-09T11:37:15Z</time>
      </trkpt>
      <trkpt lat="43.01156" lon="0.09443">
        <ele>1702</ele>
        <time>2013-02-09T11:37:17Z</time>
      </trkpt>
      <trkpt lat="43.01155" lon="0.09443">
        <ele>1703</ele>
        <time>2013-02-09T11:37:19Z</time>
      </trkpt>
      <trkpt lat="43.01154" lon="0.09444">
        <ele>1704</ele>
        <time>2013-02-09T11:37:50Z</time>
      </trkpt>
      <trkpt lat="43.01152" lon="0.09445">
        <ele>1704</ele>
        <time>2013-02-09T11:37:52Z</time>
      </trkpt>
      <trkpt lat="43.01151" lon="0.09445">
        <ele>1704</ele>
        <time>2013-02-09T11:37:54Z</time>
      </trkpt>
      <trkpt lat="43.01149" lon="0.09446">
        <ele>1704</ele>
        <time>2013-02-09T11:37:57Z</time>
      </trkpt>
      <trkpt lat="43.01148" lon="0.09446">
        <ele>1704</ele>
        <time>2013-02-09T11:37:59Z</time>
      </trkpt>
      <trkpt lat="43.01147" lon="0.09447">
        <ele>1705</ele>
        <time>2013-02-09T11:38:01Z</time>
      </trkpt>
      <trkpt lat="43.01145" lon="0.09447">
        <ele>1705</ele>
        <time>2013-02-09T11:38:04Z</time>
      </trkpt>
      <trkpt lat="43.01144" lon="0.09445">
        <ele>1706</ele>
        <time>2013-02-09T11:38:07Z</time>
      </trkpt>
      <trkpt lat="43.01143" lon="0.09444">
        <ele>1706</ele>
        <time>2013-02-09T11:38:10Z</time>
      </trkpt>
      <trkpt lat="43.01142" lon="0.09442">
        <ele>1707</ele>
        <time>2013-02-09T11:38:13Z</time>
      </trkpt>
      <trkpt lat="43.01141" lon="0.0944">
        <ele>1708</ele>
        <time>2013-02-09T11:38:15Z</time>
      </trkpt>
      <trkpt lat="43.01141" lon="0.09439">
        <ele>1709</ele>
        <time>2013-02-09T11:38:17Z</time>
      </trkpt>
      <trkpt lat="43.0114" lon="0.09437">
        <ele>1709</ele>
        <time>2013-02-09T11:38:19Z</time>
      </trkpt>
      <trkpt lat="43.01139" lon="0.09435">
        <ele>1710</ele>
        <time>2013-02-09T11:38:21Z</time>
      </trkpt>
      <trkpt lat="43.01138" lon="0.09433">
        <ele>1710</ele>
        <time>2013-02-09T11:38:24Z</time>
      </trkpt>
      <trkpt lat="43.01137" lon="0.09433">
        <ele>1711</ele>
        <time>2013-02-09T11:38:26Z</time>
      </trkpt>
      <trkpt lat="43.01136" lon="0.09432">
        <ele>1711</ele>
        <time>2013-02-09T11:38:28Z</time>
      </trkpt>
      <trkpt lat="43.01134" lon="0.0943">
        <ele>1712</ele>
        <time>2013-02-09T11:38:31Z</time>
      </trkpt>
      <trkpt lat="43.01133" lon="0.09429">
        <ele>1712</ele>
        <time>2013-02-09T11:38:33Z</time>
      </trkpt>
      <trkpt lat="43.01132" lon="0.09427">
        <ele>1712</ele>
        <time>2013-02-09T11:38:35Z</time>
      </trkpt>
      <trkpt lat="43.0113" lon="0.09426">
        <ele>1713</ele>
        <time>2013-02-09T11:38:38Z</time>
      </trkpt>
      <trkpt lat="43.01129" lon="0.09424">
        <ele>1713</ele>
        <time>2013-02-09T11:38:42Z</time>
      </trkpt>
      <trkpt lat="43.0113" lon="0.09426">
        <ele>1714</ele>
        <time>2013-02-09T11:39:18Z</time>
      </trkpt>
      <trkpt lat="43.01129" lon="0.09424">
        <ele>1714</ele>
        <time>2013-02-09T11:39:24Z</time>
      </trkpt>
      <trkpt lat="43.01129" lon="0.09422">
        <ele>1714</ele>
        <time>2013-02-09T11:39:26Z</time>
      </trkpt>
      <trkpt lat="43.01128" lon="0.0942">
        <ele>1714</ele>
        <time>2013-02-09T11:39:28Z</time>
      </trkpt>
      <trkpt lat="43.01126" lon="0.09419">
        <ele>1714</ele>
        <time>2013-02-09T11:39:31Z</time>
      </trkpt>
      <trkpt lat="43.01125" lon="0.09417">
        <ele>1714</ele>
        <time>2013-02-09T11:39:33Z</time>
      </trkpt>
      <trkpt lat="43.01125" lon="0.09416">
        <ele>1715</ele>
        <time>2013-02-09T11:39:35Z</time>
      </trkpt>
      <trkpt lat="43.01123" lon="0.09414">
        <ele>1715</ele>
        <time>2013-02-09T11:39:38Z</time>
      </trkpt>
      <trkpt lat="43.01122" lon="0.09413">
        <ele>1716</ele>
        <time>2013-02-09T11:39:40Z</time>
      </trkpt>
      <trkpt lat="43.0112" lon="0.09412">
        <ele>1716</ele>
        <time>2013-02-09T11:39:42Z</time>
      </trkpt>
      <trkpt lat="43.01119" lon="0.09412">
        <ele>1716</ele>
        <time>2013-02-09T11:39:44Z</time>
      </trkpt>
      <trkpt lat="43.01117" lon="0.09412">
        <ele>1717</ele>
        <time>2013-02-09T11:39:46Z</time>
      </trkpt>
      <trkpt lat="43.01116" lon="0.09411">
        <ele>1717</ele>
        <time>2013-02-09T11:39:49Z</time>
      </trkpt>
      <trkpt lat="43.01115" lon="0.0941">
        <ele>1718</ele>
        <time>2013-02-09T11:39:51Z</time>
      </trkpt>
      <trkpt lat="43.01115" lon="0.09408">
        <ele>1718</ele>
        <time>2013-02-09T11:39:53Z</time>
      </trkpt>
      <trkpt lat="43.01114" lon="0.09407">
        <ele>1719</ele>
        <time>2013-02-09T11:39:55Z</time>
      </trkpt>
      <trkpt lat="43.01114" lon="0.09405">
        <ele>1719</ele>
        <time>2013-02-09T11:39:57Z</time>
      </trkpt>
      <trkpt lat="43.01114" lon="0.09403">
        <ele>1719</ele>
        <time>2013-02-09T11:39:59Z</time>
      </trkpt>
      <trkpt lat="43.01113" lon="0.09401">
        <ele>1719</ele>
        <time>2013-02-09T11:40:01Z</time>
      </trkpt>
      <trkpt lat="43.01112" lon="0.09399">
        <ele>1720</ele>
        <time>2013-02-09T11:40:03Z</time>
      </trkpt>
      <trkpt lat="43.01112" lon="0.09398">
        <ele>1720</ele>
        <time>2013-02-09T11:40:05Z</time>
      </trkpt>
      <trkpt lat="43.01111" lon="0.09396">
        <ele>1721</ele>
        <time>2013-02-09T11:40:07Z</time>
      </trkpt>
      <trkpt lat="43.0111" lon="0.09394">
        <ele>1721</ele>
        <time>2013-02-09T11:40:10Z</time>
      </trkpt>
      <trkpt lat="43.01109" lon="0.09392">
        <ele>1722</ele>
        <time>2013-02-09T11:40:12Z</time>
      </trkpt>
      <trkpt lat="43.01109" lon="0.09391">
        <ele>1722</ele>
        <time>2013-02-09T11:40:14Z</time>
      </trkpt>
      <trkpt lat="43.01108" lon="0.09389">
        <ele>1722</ele>
        <time>2013-02-09T11:40:16Z</time>
      </trkpt>
      <trkpt lat="43.01107" lon="0.09388">
        <ele>1723</ele>
        <time>2013-02-09T11:40:18Z</time>
      </trkpt>
      <trkpt lat="43.01106" lon="0.09386">
        <ele>1723</ele>
        <time>2013-02-09T11:40:20Z</time>
      </trkpt>
      <trkpt lat="43.01104" lon="0.09385">
        <ele>1724</ele>
        <time>2013-02-09T11:40:41Z</time>
      </trkpt>
      <trkpt lat="43.01104" lon="0.09384">
        <ele>1724</ele>
        <time>2013-02-09T11:40:43Z</time>
      </trkpt>
      <trkpt lat="43.01103" lon="0.09382">
        <ele>1724</ele>
        <time>2013-02-09T11:40:45Z</time>
      </trkpt>
      <trkpt lat="43.01101" lon="0.0938">
        <ele>1725</ele>
        <time>2013-02-09T11:40:48Z</time>
      </trkpt>
      <trkpt lat="43.011" lon="0.09379">
        <ele>1725</ele>
        <time>2013-02-09T11:40:50Z</time>
      </trkpt>
      <trkpt lat="43.01099" lon="0.09377">
        <ele>1725</ele>
        <time>2013-02-09T11:40:53Z</time>
      </trkpt>
      <trkpt lat="43.01097" lon="0.09376">
        <ele>1726</ele>
        <time>2013-02-09T11:40:55Z</time>
      </trkpt>
      <trkpt lat="43.01096" lon="0.09376">
        <ele>1726</ele>
        <time>2013-02-09T11:40:57Z</time>
      </trkpt>
      <trkpt lat="43.01094" lon="0.09377">
        <ele>1727</ele>
        <time>2013-02-09T11:41:00Z</time>
      </trkpt>
      <trkpt lat="43.01093" lon="0.09379">
        <ele>1727</ele>
        <time>2013-02-09T11:41:03Z</time>
      </trkpt>
      <trkpt lat="43.01092" lon="0.09381">
        <ele>1728</ele>
        <time>2013-02-09T11:41:05Z</time>
      </trkpt>
      <trkpt lat="43.01092" lon="0.09382">
        <ele>1728</ele>
        <time>2013-02-09T11:41:07Z</time>
      </trkpt>
      <trkpt lat="43.01091" lon="0.09384">
        <ele>1728</ele>
        <time>2013-02-09T11:41:09Z</time>
      </trkpt>
      <trkpt lat="43.0109" lon="0.09385">
        <ele>1729</ele>
        <time>2013-02-09T11:41:11Z</time>
      </trkpt>
      <trkpt lat="43.01089" lon="0.09387">
        <ele>1729</ele>
        <time>2013-02-09T11:41:13Z</time>
      </trkpt>
      <trkpt lat="43.01088" lon="0.09388">
        <ele>1730</ele>
        <time>2013-02-09T11:41:15Z</time>
      </trkpt>
      <trkpt lat="43.01087" lon="0.0939">
        <ele>1730</ele>
        <time>2013-02-09T11:41:18Z</time>
      </trkpt>
      <trkpt lat="43.01086" lon="0.09392">
        <ele>1731</ele>
        <time>2013-02-09T11:41:21Z</time>
      </trkpt>
      <trkpt lat="43.01085" lon="0.09391">
        <ele>1732</ele>
        <time>2013-02-09T11:41:25Z</time>
      </trkpt>
      <trkpt lat="43.01084" lon="0.09389">
        <ele>1732</ele>
        <time>2013-02-09T11:41:27Z</time>
      </trkpt>
      <trkpt lat="43.01083" lon="0.09387">
        <ele>1733</ele>
        <time>2013-02-09T11:41:30Z</time>
      </trkpt>
      <trkpt lat="43.01083" lon="0.09386">
        <ele>1733</ele>
        <time>2013-02-09T11:41:32Z</time>
      </trkpt>
      <trkpt lat="43.01082" lon="0.09384">
        <ele>1734</ele>
        <time>2013-02-09T11:41:34Z</time>
      </trkpt>
      <trkpt lat="43.01081" lon="0.09382">
        <ele>1734</ele>
        <time>2013-02-09T11:41:36Z</time>
      </trkpt>
      <trkpt lat="43.0108" lon="0.09381">
        <ele>1734</ele>
        <time>2013-02-09T11:41:38Z</time>
      </trkpt>
      <trkpt lat="43.0108" lon="0.09379">
        <ele>1735</ele>
        <time>2013-02-09T11:41:40Z</time>
      </trkpt>
      <trkpt lat="43.01078" lon="0.09378">
        <ele>1735</ele>
        <time>2013-02-09T11:41:52Z</time>
      </trkpt>
      <trkpt lat="43.01078" lon="0.09376">
        <ele>1735</ele>
        <time>2013-02-09T11:41:54Z</time>
      </trkpt>
      <trkpt lat="43.01076" lon="0.09375">
        <ele>1736</ele>
        <time>2013-02-09T11:41:57Z</time>
      </trkpt>
      <trkpt lat="43.01075" lon="0.09373">
        <ele>1736</ele>
        <time>2013-02-09T11:42:00Z</time>
      </trkpt>
      <trkpt lat="43.01073" lon="0.09371">
        <ele>1737</ele>
        <time>2013-02-09T11:42:03Z</time>
      </trkpt>
      <trkpt lat="43.01072" lon="0.09369">
        <ele>1738</ele>
        <time>2013-02-09T11:42:05Z</time>
      </trkpt>
      <trkpt lat="43.0107" lon="0.09368">
        <ele>1738</ele>
        <time>2013-02-09T11:42:07Z</time>
      </trkpt>
      <trkpt lat="43.01069" lon="0.09367">
        <ele>1739</ele>
        <time>2013-02-09T11:42:16Z</time>
      </trkpt>
      <trkpt lat="43.01068" lon="0.09366">
        <ele>1739</ele>
        <time>2013-02-09T11:42:19Z</time>
      </trkpt>
      <trkpt lat="43.01067" lon="0.09365">
        <ele>1739</ele>
        <time>2013-02-09T11:42:33Z</time>
      </trkpt>
      <trkpt lat="43.01065" lon="0.09364">
        <ele>1739</ele>
        <time>2013-02-09T11:42:35Z</time>
      </trkpt>
      <trkpt lat="43.01064" lon="0.09362">
        <ele>1739</ele>
        <time>2013-02-09T11:42:48Z</time>
      </trkpt>
      <trkpt lat="43.01063" lon="0.09361">
        <ele>1739</ele>
        <time>2013-02-09T11:42:50Z</time>
      </trkpt>
      <trkpt lat="43.01062" lon="0.09359">
        <ele>1739</ele>
        <time>2013-02-09T11:42:52Z</time>
      </trkpt>
      <trkpt lat="43.0106" lon="0.09358">
        <ele>1739</ele>
        <time>2013-02-09T11:42:54Z</time>
      </trkpt>
      <trkpt lat="43.01059" lon="0.09356">
        <ele>1739</ele>
        <time>2013-02-09T11:42:56Z</time>
      </trkpt>
      <trkpt lat="43.01058" lon="0.09354">
        <ele>1739</ele>
        <time>2013-02-09T11:42:58Z</time>
      </trkpt>
      <trkpt lat="43.01056" lon="0.09353">
        <ele>1739</ele>
        <time>2013-02-09T11:43:00Z</time>
      </trkpt>
      <trkpt lat="43.01055" lon="0.09351">
        <ele>1739</ele>
        <time>2013-02-09T11:43:02Z</time>
      </trkpt>
      <trkpt lat="43.01054" lon="0.0935">
        <ele>1739</ele>
        <time>2013-02-09T11:43:07Z</time>
      </trkpt>
      <trkpt lat="43.01052" lon="0.09348">
        <ele>1739</ele>
        <time>2013-02-09T11:43:09Z</time>
      </trkpt>
      <trkpt lat="43.01051" lon="0.09347">
        <ele>1739</ele>
        <time>2013-02-09T11:43:11Z</time>
      </trkpt>
      <trkpt lat="43.0105" lon="0.09345">
        <ele>1739</ele>
        <time>2013-02-09T11:43:13Z</time>
      </trkpt>
      <trkpt lat="43.01048" lon="0.09343">
        <ele>1739</ele>
        <time>2013-02-09T11:43:15Z</time>
      </trkpt>
      <trkpt lat="43.01047" lon="0.09341">
        <ele>1739</ele>
        <time>2013-02-09T11:43:17Z</time>
      </trkpt>
      <trkpt lat="43.01046" lon="0.09339">
        <ele>1739</ele>
        <time>2013-02-09T11:43:19Z</time>
      </trkpt>
      <trkpt lat="43.01044" lon="0.09337">
        <ele>1739</ele>
        <time>2013-02-09T11:43:21Z</time>
      </trkpt>
      <trkpt lat="43.01043" lon="0.09335">
        <ele>1739</ele>
        <time>2013-02-09T11:43:23Z</time>
      </trkpt>
      <trkpt lat="43.01041" lon="0.09333">
        <ele>1739</ele>
        <time>2013-02-09T11:43:25Z</time>
      </trkpt>
      <trkpt lat="43.0104" lon="0.09331">
        <ele>1739</ele>
        <time>2013-02-09T11:43:27Z</time>
      </trkpt>
      <trkpt lat="43.01038" lon="0.0933">
        <ele>1739</ele>
        <time>2013-02-09T11:43:29Z</time>
      </trkpt>
      <trkpt lat="43.01036" lon="0.09329">
        <ele>1739</ele>
        <time>2013-02-09T11:43:31Z</time>
      </trkpt>
      <trkpt lat="43.01035" lon="0.09327">
        <ele>1739</ele>
        <time>2013-02-09T11:43:33Z</time>
      </trkpt>
      <trkpt lat="43.01033" lon="0.09325">
        <ele>1739</ele>
        <time>2013-02-09T11:43:35Z</time>
      </trkpt>
      <trkpt lat="43.01031" lon="0.09324">
        <ele>1739</ele>
        <time>2013-02-09T11:43:37Z</time>
      </trkpt>
      <trkpt lat="43.0103" lon="0.09322">
        <ele>1739</ele>
        <time>2013-02-09T11:43:39Z</time>
      </trkpt>
      <trkpt lat="43.01029" lon="0.09321">
        <ele>1739</ele>
        <time>2013-02-09T11:43:41Z</time>
      </trkpt>
      <trkpt lat="43.01028" lon="0.09319">
        <ele>1739</ele>
        <time>2013-02-09T11:43:43Z</time>
      </trkpt>
      <trkpt lat="43.01026" lon="0.09319">
        <ele>1739</ele>
        <time>2013-02-09T11:43:45Z</time>
      </trkpt>
      <trkpt lat="43.01025" lon="0.09317">
        <ele>1739</ele>
        <time>2013-02-09T11:43:47Z</time>
      </trkpt>
      <trkpt lat="43.01024" lon="0.09316">
        <ele>1739</ele>
        <time>2013-02-09T11:43:49Z</time>
      </trkpt>
      <trkpt lat="43.01022" lon="0.09314">
        <ele>1739</ele>
        <time>2013-02-09T11:43:51Z</time>
      </trkpt>
      <trkpt lat="43.0102" lon="0.09313">
        <ele>1739</ele>
        <time>2013-02-09T11:43:53Z</time>
      </trkpt>
      <trkpt lat="43.01019" lon="0.09311">
        <ele>1739</ele>
        <time>2013-02-09T11:43:55Z</time>
      </trkpt>
      <trkpt lat="43.01017" lon="0.0931">
        <ele>1739</ele>
        <time>2013-02-09T11:43:57Z</time>
      </trkpt>
      <trkpt lat="43.01016" lon="0.09308">
        <ele>1739</ele>
        <time>2013-02-09T11:43:59Z</time>
      </trkpt>
      <trkpt lat="43.01014" lon="0.09307">
        <ele>1739</ele>
        <time>2013-02-09T11:44:01Z</time>
      </trkpt>
      <trkpt lat="43.01012" lon="0.09306">
        <ele>1739</ele>
        <time>2013-02-09T11:44:03Z</time>
      </trkpt>
      <trkpt lat="43.0101" lon="0.09304">
        <ele>1739</ele>
        <time>2013-02-09T11:44:05Z</time>
      </trkpt>
      <trkpt lat="43.01009" lon="0.09303">
        <ele>1739</ele>
        <time>2013-02-09T11:44:07Z</time>
      </trkpt>
      <trkpt lat="43.01007" lon="0.09302">
        <ele>1739</ele>
        <time>2013-02-09T11:44:09Z</time>
      </trkpt>
      <trkpt lat="43.01006" lon="0.093">
        <ele>1739</ele>
        <time>2013-02-09T11:44:11Z</time>
      </trkpt>
      <trkpt lat="43.01004" lon="0.09299">
        <ele>1739</ele>
        <time>2013-02-09T11:44:13Z</time>
      </trkpt>
      <trkpt lat="43.01002" lon="0.09298">
        <ele>1739</ele>
        <time>2013-02-09T11:44:15Z</time>
      </trkpt>
      <trkpt lat="43.01001" lon="0.09296">
        <ele>1739</ele>
        <time>2013-02-09T11:44:17Z</time>
      </trkpt>
      <trkpt lat="43.00999" lon="0.09295">
        <ele>1739</ele>
        <time>2013-02-09T11:44:19Z</time>
      </trkpt>
      <trkpt lat="43.00997" lon="0.09294">
        <ele>1739</ele>
        <time>2013-02-09T11:44:21Z</time>
      </trkpt>
      <trkpt lat="43.00996" lon="0.09292">
        <ele>1739</ele>
        <time>2013-02-09T11:44:23Z</time>
      </trkpt>
      <trkpt lat="43.00994" lon="0.09291">
        <ele>1739</ele>
        <time>2013-02-09T11:44:25Z</time>
      </trkpt>
      <trkpt lat="43.00993" lon="0.0929">
        <ele>1739</ele>
        <time>2013-02-09T11:44:27Z</time>
      </trkpt>
      <trkpt lat="43.00991" lon="0.09289">
        <ele>1739</ele>
        <time>2013-02-09T11:44:29Z</time>
      </trkpt>
      <trkpt lat="43.0099" lon="0.09288">
        <ele>1739</ele>
        <time>2013-02-09T11:44:31Z</time>
      </trkpt>
      <trkpt lat="43.00988" lon="0.09287">
        <ele>1739</ele>
        <time>2013-02-09T11:44:33Z</time>
      </trkpt>
      <trkpt lat="43.00987" lon="0.09286">
        <ele>1739</ele>
        <time>2013-02-09T11:44:35Z</time>
      </trkpt>
      <trkpt lat="43.00985" lon="0.09285">
        <ele>1739</ele>
        <time>2013-02-09T11:44:37Z</time>
      </trkpt>
      <trkpt lat="43.00984" lon="0.09284">
        <ele>1739</ele>
        <time>2013-02-09T11:44:39Z</time>
      </trkpt>
      <trkpt lat="43.00982" lon="0.09283">
        <ele>1739</ele>
        <time>2013-02-09T11:44:41Z</time>
      </trkpt>
      <trkpt lat="43.00981" lon="0.09281">
        <ele>1739</ele>
        <time>2013-02-09T11:44:43Z</time>
      </trkpt>
      <trkpt lat="43.0098" lon="0.0928">
        <ele>1739</ele>
        <time>2013-02-09T11:44:45Z</time>
      </trkpt>
      <trkpt lat="43.00978" lon="0.09279">
        <ele>1739</ele>
        <time>2013-02-09T11:44:47Z</time>
      </trkpt>
      <trkpt lat="43.00977" lon="0.09278">
        <ele>1739</ele>
        <time>2013-02-09T11:44:49Z</time>
      </trkpt>
      <trkpt lat="43.00976" lon="0.09277">
        <ele>1739</ele>
        <time>2013-02-09T11:44:51Z</time>
      </trkpt>
      <trkpt lat="43.00974" lon="0.09275">
        <ele>1739</ele>
        <time>2013-02-09T11:44:54Z</time>
      </trkpt>
      <trkpt lat="43.00973" lon="0.09274">
        <ele>1740</ele>
        <time>2013-02-09T11:44:56Z</time>
      </trkpt>
      <trkpt lat="43.00972" lon="0.09273">
        <ele>1740</ele>
        <time>2013-02-09T11:44:58Z</time>
      </trkpt>
      <trkpt lat="43.0097" lon="0.09272">
        <ele>1740</ele>
        <time>2013-02-09T11:45:00Z</time>
      </trkpt>
      <trkpt lat="43.00969" lon="0.09271">
        <ele>1740</ele>
        <time>2013-02-09T11:45:03Z</time>
      </trkpt>
      <trkpt lat="43.00968" lon="0.0927">
        <ele>1741</ele>
        <time>2013-02-09T11:45:23Z</time>
      </trkpt>
      <trkpt lat="43.00967" lon="0.09269">
        <ele>1741</ele>
        <time>2013-02-09T11:45:25Z</time>
      </trkpt>
      <trkpt lat="43.00965" lon="0.09268">
        <ele>1741</ele>
        <time>2013-02-09T11:45:27Z</time>
      </trkpt>
      <trkpt lat="43.00964" lon="0.09267">
        <ele>1741</ele>
        <time>2013-02-09T11:45:29Z</time>
      </trkpt>
      <trkpt lat="43.00963" lon="0.09266">
        <ele>1741</ele>
        <time>2013-02-09T11:45:31Z</time>
      </trkpt>
      <trkpt lat="43.00962" lon="0.09264">
        <ele>1741</ele>
        <time>2013-02-09T11:45:33Z</time>
      </trkpt>
      <trkpt lat="43.0096" lon="0.09263">
        <ele>1741</ele>
        <time>2013-02-09T11:45:35Z</time>
      </trkpt>
      <trkpt lat="43.00959" lon="0.09262">
        <ele>1742</ele>
        <time>2013-02-09T11:45:37Z</time>
      </trkpt>
      <trkpt lat="43.00957" lon="0.09261">
        <ele>1742</ele>
        <time>2013-02-09T11:45:41Z</time>
      </trkpt>
      <trkpt lat="43.00956" lon="0.0926">
        <ele>1742</ele>
        <time>2013-02-09T11:45:43Z</time>
      </trkpt>
      <trkpt lat="43.00954" lon="0.09259">
        <ele>1742</ele>
        <time>2013-02-09T11:45:45Z</time>
      </trkpt>
      <trkpt lat="43.00953" lon="0.09258">
        <ele>1742</ele>
        <time>2013-02-09T11:45:47Z</time>
      </trkpt>
      <trkpt lat="43.00951" lon="0.09257">
        <ele>1742</ele>
        <time>2013-02-09T11:45:49Z</time>
      </trkpt>
      <trkpt lat="43.0095" lon="0.09256">
        <ele>1743</ele>
        <time>2013-02-09T11:45:52Z</time>
      </trkpt>
      <trkpt lat="43.00949" lon="0.09256">
        <ele>1743</ele>
        <time>2013-02-09T11:45:54Z</time>
      </trkpt>
      <trkpt lat="43.00947" lon="0.09255">
        <ele>1744</ele>
        <time>2013-02-09T11:45:57Z</time>
      </trkpt>
      <trkpt lat="43.00946" lon="0.09254">
        <ele>1744</ele>
        <time>2013-02-09T11:46:00Z</time>
      </trkpt>
      <trkpt lat="43.00944" lon="0.09253">
        <ele>1745</ele>
        <time>2013-02-09T11:46:03Z</time>
      </trkpt>
      <trkpt lat="43.00943" lon="0.09252">
        <ele>1745</ele>
        <time>2013-02-09T11:46:06Z</time>
      </trkpt>
      <trkpt lat="43.00941" lon="0.09251">
        <ele>1746</ele>
        <time>2013-02-09T11:46:09Z</time>
      </trkpt>
      <trkpt lat="43.0094" lon="0.09251">
        <ele>1746</ele>
        <time>2013-02-09T11:46:12Z</time>
      </trkpt>
      <trkpt lat="43.00938" lon="0.0925">
        <ele>1747</ele>
        <time>2013-02-09T11:46:14Z</time>
      </trkpt>
      <trkpt lat="43.00937" lon="0.09249">
        <ele>1747</ele>
        <time>2013-02-09T11:46:16Z</time>
      </trkpt>
      <trkpt lat="43.00936" lon="0.09248">
        <ele>1747</ele>
        <time>2013-02-09T11:46:19Z</time>
      </trkpt>
      <trkpt lat="43.00935" lon="0.09247">
        <ele>1748</ele>
        <time>2013-02-09T11:46:22Z</time>
      </trkpt>
      <trkpt lat="43.00933" lon="0.09246">
        <ele>1748</ele>
        <time>2013-02-09T11:46:25Z</time>
      </trkpt>
      <trkpt lat="43.00932" lon="0.09245">
        <ele>1749</ele>
        <time>2013-02-09T11:46:28Z</time>
      </trkpt>
      <trkpt lat="43.0093" lon="0.09243">
        <ele>1749</ele>
        <time>2013-02-09T11:46:31Z</time>
      </trkpt>
      <trkpt lat="43.00929" lon="0.09242">
        <ele>1749</ele>
        <time>2013-02-09T11:46:34Z</time>
      </trkpt>
      <trkpt lat="43.00928" lon="0.0924">
        <ele>1750</ele>
        <time>2013-02-09T11:46:36Z</time>
      </trkpt>
      <trkpt lat="43.00927" lon="0.09239">
        <ele>1750</ele>
        <time>2013-02-09T11:46:38Z</time>
      </trkpt>
      <trkpt lat="43.00926" lon="0.09238">
        <ele>1750</ele>
        <time>2013-02-09T11:46:40Z</time>
      </trkpt>
      <trkpt lat="43.00925" lon="0.09237">
        <ele>1750</ele>
        <time>2013-02-09T11:46:42Z</time>
      </trkpt>
      <trkpt lat="43.00923" lon="0.09235">
        <ele>1750</ele>
        <time>2013-02-09T11:46:44Z</time>
      </trkpt>
      <trkpt lat="43.00922" lon="0.09234">
        <ele>1750</ele>
        <time>2013-02-09T11:46:46Z</time>
      </trkpt>
      <trkpt lat="43.00921" lon="0.09233">
        <ele>1750</ele>
        <time>2013-02-09T11:46:49Z</time>
      </trkpt>
      <trkpt lat="43.00919" lon="0.09232">
        <ele>1750</ele>
        <time>2013-02-09T11:46:52Z</time>
      </trkpt>
      <trkpt lat="43.00918" lon="0.09231">
        <ele>1751</ele>
        <time>2013-02-09T11:46:55Z</time>
      </trkpt>
      <trkpt lat="43.00917" lon="0.0923">
        <ele>1751</ele>
        <time>2013-02-09T11:46:57Z</time>
      </trkpt>
      <trkpt lat="43.00915" lon="0.09228">
        <ele>1751</ele>
        <time>2013-02-09T11:47:00Z</time>
      </trkpt>
      <trkpt lat="43.00914" lon="0.09228">
        <ele>1751</ele>
        <time>2013-02-09T11:47:02Z</time>
      </trkpt>
      <trkpt lat="43.00912" lon="0.09227">
        <ele>1751</ele>
        <time>2013-02-09T11:47:05Z</time>
      </trkpt>
      <trkpt lat="43.00911" lon="0.09225">
        <ele>1752</ele>
        <time>2013-02-09T11:47:08Z</time>
      </trkpt>
      <trkpt lat="43.00909" lon="0.09224">
        <ele>1752</ele>
        <time>2013-02-09T11:47:10Z</time>
      </trkpt>
      <trkpt lat="43.00908" lon="0.09224">
        <ele>1752</ele>
        <time>2013-02-09T11:47:12Z</time>
      </trkpt>
      <trkpt lat="43.00907" lon="0.09223">
        <ele>1752</ele>
        <time>2013-02-09T11:47:14Z</time>
      </trkpt>
      <trkpt lat="43.00906" lon="0.09222">
        <ele>1753</ele>
        <time>2013-02-09T11:47:16Z</time>
      </trkpt>
      <trkpt lat="43.00905" lon="0.09221">
        <ele>1753</ele>
        <time>2013-02-09T11:47:18Z</time>
      </trkpt>
      <trkpt lat="43.00903" lon="0.0922">
        <ele>1753</ele>
        <time>2013-02-09T11:47:20Z</time>
      </trkpt>
      <trkpt lat="43.00902" lon="0.09219">
        <ele>1753</ele>
        <time>2013-02-09T11:47:23Z</time>
      </trkpt>
      <trkpt lat="43.009" lon="0.09218">
        <ele>1753</ele>
        <time>2013-02-09T11:47:26Z</time>
      </trkpt>
      <trkpt lat="43.00899" lon="0.09217">
        <ele>1753</ele>
        <time>2013-02-09T11:47:28Z</time>
      </trkpt>
      <trkpt lat="43.00898" lon="0.09216">
        <ele>1754</ele>
        <time>2013-02-09T11:47:30Z</time>
      </trkpt>
      <trkpt lat="43.00897" lon="0.09215">
        <ele>1754</ele>
        <time>2013-02-09T11:47:32Z</time>
      </trkpt>
      <trkpt lat="43.00895" lon="0.09214">
        <ele>1754</ele>
        <time>2013-02-09T11:47:34Z</time>
      </trkpt>
      <trkpt lat="43.00894" lon="0.09213">
        <ele>1754</ele>
        <time>2013-02-09T11:47:36Z</time>
      </trkpt>
      <trkpt lat="43.00893" lon="0.09212">
        <ele>1754</ele>
        <time>2013-02-09T11:47:38Z</time>
      </trkpt>
      <trkpt lat="43.00892" lon="0.09211">
        <ele>1754</ele>
        <time>2013-02-09T11:47:40Z</time>
      </trkpt>
      <trkpt lat="43.00891" lon="0.0921">
        <ele>1754</ele>
        <time>2013-02-09T11:47:42Z</time>
      </trkpt>
      <trkpt lat="43.00889" lon="0.09208">
        <ele>1755</ele>
        <time>2013-02-09T11:47:47Z</time>
      </trkpt>
      <trkpt lat="43.00888" lon="0.09207">
        <ele>1755</ele>
        <time>2013-02-09T11:47:49Z</time>
      </trkpt>
      <trkpt lat="43.00886" lon="0.09206">
        <ele>1755</ele>
        <time>2013-02-09T11:47:51Z</time>
      </trkpt>
      <trkpt lat="43.00885" lon="0.09206">
        <ele>1755</ele>
        <time>2013-02-09T11:48:19Z</time>
      </trkpt>
      <trkpt lat="43.00884" lon="0.09208">
        <ele>1756</ele>
        <time>2013-02-09T11:48:23Z</time>
      </trkpt>
      <trkpt lat="43.00883" lon="0.0921">
        <ele>1756</ele>
        <time>2013-02-09T11:48:46Z</time>
      </trkpt>
      <trkpt lat="43.00882" lon="0.09211">
        <ele>1756</ele>
        <time>2013-02-09T11:48:48Z</time>
      </trkpt>
      <trkpt lat="43.00881" lon="0.09213">
        <ele>1757</ele>
        <time>2013-02-09T11:48:51Z</time>
      </trkpt>
      <trkpt lat="43.0088" lon="0.09214">
        <ele>1758</ele>
        <time>2013-02-09T11:48:53Z</time>
      </trkpt>
      <trkpt lat="43.00878" lon="0.09215">
        <ele>1759</ele>
        <time>2013-02-09T11:48:58Z</time>
      </trkpt>
      <trkpt lat="43.00877" lon="0.09216">
        <ele>1759</ele>
        <time>2013-02-09T11:49:00Z</time>
      </trkpt>
      <trkpt lat="43.00876" lon="0.09217">
        <ele>1760</ele>
        <time>2013-02-09T11:49:03Z</time>
      </trkpt>
      <trkpt lat="43.00877" lon="0.09217">
        <ele>1761</ele>
        <time>2013-02-09T11:49:16Z</time>
      </trkpt>
      <trkpt lat="43.00877" lon="0.09215">
        <ele>1761</ele>
        <time>2013-02-09T11:49:21Z</time>
      </trkpt>
      <trkpt lat="43.00877" lon="0.09213">
        <ele>1761</ele>
        <time>2013-02-09T11:49:24Z</time>
      </trkpt>
      <trkpt lat="43.00877" lon="0.09211">
        <ele>1761</ele>
        <time>2013-02-09T11:49:27Z</time>
      </trkpt>
      <trkpt lat="43.00877" lon="0.0921">
        <ele>1761</ele>
        <time>2013-02-09T11:49:29Z</time>
      </trkpt>
      <trkpt lat="43.00877" lon="0.09208">
        <ele>1761</ele>
        <time>2013-02-09T11:49:32Z</time>
      </trkpt>
      <trkpt lat="43.00877" lon="0.09206">
        <ele>1761</ele>
        <time>2013-02-09T11:49:34Z</time>
      </trkpt>
      <trkpt lat="43.00877" lon="0.09205">
        <ele>1761</ele>
        <time>2013-02-09T11:49:36Z</time>
      </trkpt>
      <trkpt lat="43.00877" lon="0.09203">
        <ele>1761</ele>
        <time>2013-02-09T11:49:38Z</time>
      </trkpt>
      <trkpt lat="43.00877" lon="0.09202">
        <ele>1761</ele>
        <time>2013-02-09T11:49:41Z</time>
      </trkpt>
      <trkpt lat="43.00877" lon="0.092">
        <ele>1761</ele>
        <time>2013-02-09T11:49:44Z</time>
      </trkpt>
      <trkpt lat="43.00876" lon="0.09199">
        <ele>1761</ele>
        <time>2013-02-09T11:49:46Z</time>
      </trkpt>
      <trkpt lat="43.00875" lon="0.09197">
        <ele>1761</ele>
        <time>2013-02-09T11:50:31Z</time>
      </trkpt>
      <trkpt lat="43.00874" lon="0.09196">
        <ele>1761</ele>
        <time>2013-02-09T11:50:33Z</time>
      </trkpt>
      <trkpt lat="43.00872" lon="0.09195">
        <ele>1761</ele>
        <time>2013-02-09T11:50:35Z</time>
      </trkpt>
      <trkpt lat="43.00871" lon="0.09194">
        <ele>1761</ele>
        <time>2013-02-09T11:50:37Z</time>
      </trkpt>
      <trkpt lat="43.00869" lon="0.09193">
        <ele>1761</ele>
        <time>2013-02-09T11:50:39Z</time>
      </trkpt>
      <trkpt lat="43.00868" lon="0.09191">
        <ele>1761</ele>
        <time>2013-02-09T11:50:41Z</time>
      </trkpt>
      <trkpt lat="43.00867" lon="0.0919">
        <ele>1761</ele>
        <time>2013-02-09T11:50:43Z</time>
      </trkpt>
      <trkpt lat="43.00865" lon="0.09189">
        <ele>1761</ele>
        <time>2013-02-09T11:50:45Z</time>
      </trkpt>
      <trkpt lat="43.00864" lon="0.09187">
        <ele>1761</ele>
        <time>2013-02-09T11:50:47Z</time>
      </trkpt>
      <trkpt lat="43.00863" lon="0.09186">
        <ele>1761</ele>
        <time>2013-02-09T11:50:49Z</time>
      </trkpt>
      <trkpt lat="43.00861" lon="0.09184">
        <ele>1761</ele>
        <time>2013-02-09T11:50:51Z</time>
      </trkpt>
      <trkpt lat="43.0086" lon="0.09183">
        <ele>1761</ele>
        <time>2013-02-09T11:50:53Z</time>
      </trkpt>
      <trkpt lat="43.00859" lon="0.09181">
        <ele>1761</ele>
        <time>2013-02-09T11:50:55Z</time>
      </trkpt>
      <trkpt lat="43.00858" lon="0.09179">
        <ele>1761</ele>
        <time>2013-02-09T11:50:57Z</time>
      </trkpt>
      <trkpt lat="43.00856" lon="0.09178">
        <ele>1761</ele>
        <time>2013-02-09T11:50:59Z</time>
      </trkpt>
      <trkpt lat="43.00855" lon="0.09177">
        <ele>1761</ele>
        <time>2013-02-09T11:51:01Z</time>
      </trkpt>
      <trkpt lat="43.00853" lon="0.09175">
        <ele>1761</ele>
        <time>2013-02-09T11:51:03Z</time>
      </trkpt>
      <trkpt lat="43.00852" lon="0.09174">
        <ele>1761</ele>
        <time>2013-02-09T11:51:05Z</time>
      </trkpt>
      <trkpt lat="43.00851" lon="0.09172">
        <ele>1761</ele>
        <time>2013-02-09T11:51:07Z</time>
      </trkpt>
      <trkpt lat="43.00849" lon="0.09171">
        <ele>1761</ele>
        <time>2013-02-09T11:51:09Z</time>
      </trkpt>
      <trkpt lat="43.00848" lon="0.0917">
        <ele>1761</ele>
        <time>2013-02-09T11:51:11Z</time>
      </trkpt>
      <trkpt lat="43.00847" lon="0.09168">
        <ele>1761</ele>
        <time>2013-02-09T11:51:13Z</time>
      </trkpt>
      <trkpt lat="43.00846" lon="0.09167">
        <ele>1761</ele>
        <time>2013-02-09T11:51:15Z</time>
      </trkpt>
      <trkpt lat="43.00845" lon="0.09166">
        <ele>1761</ele>
        <time>2013-02-09T11:51:17Z</time>
      </trkpt>
      <trkpt lat="43.00843" lon="0.09166">
        <ele>1761</ele>
        <time>2013-02-09T11:51:19Z</time>
      </trkpt>
      <trkpt lat="43.00842" lon="0.09165">
        <ele>1761</ele>
        <time>2013-02-09T11:51:21Z</time>
      </trkpt>
      <trkpt lat="43.00841" lon="0.09164">
        <ele>1762</ele>
        <time>2013-02-09T11:51:23Z</time>
      </trkpt>
      <trkpt lat="43.0084" lon="0.09162">
        <ele>1762</ele>
        <time>2013-02-09T11:51:25Z</time>
      </trkpt>
      <trkpt lat="43.00838" lon="0.09161">
        <ele>1762</ele>
        <time>2013-02-09T11:51:28Z</time>
      </trkpt>
      <trkpt lat="43.00837" lon="0.0916">
        <ele>1763</ele>
        <time>2013-02-09T11:51:30Z</time>
      </trkpt>
      <trkpt lat="43.00836" lon="0.09159">
        <ele>1763</ele>
        <time>2013-02-09T11:51:32Z</time>
      </trkpt>
      <trkpt lat="43.00834" lon="0.09156">
        <ele>1763</ele>
        <time>2013-02-09T11:51:35Z</time>
      </trkpt>
      <trkpt lat="43.00833" lon="0.09154">
        <ele>1764</ele>
        <time>2013-02-09T11:51:38Z</time>
      </trkpt>
      <trkpt lat="43.00832" lon="0.09153">
        <ele>1764</ele>
        <time>2013-02-09T11:51:40Z</time>
      </trkpt>
      <trkpt lat="43.0083" lon="0.09151">
        <ele>1764</ele>
        <time>2013-02-09T11:51:42Z</time>
      </trkpt>
      <trkpt lat="43.00829" lon="0.0915">
        <ele>1764</ele>
        <time>2013-02-09T11:51:44Z</time>
      </trkpt>
      <trkpt lat="43.00828" lon="0.09149">
        <ele>1765</ele>
        <time>2013-02-09T11:51:46Z</time>
      </trkpt>
      <trkpt lat="43.00827" lon="0.09147">
        <ele>1765</ele>
        <time>2013-02-09T11:51:48Z</time>
      </trkpt>
      <trkpt lat="43.00825" lon="0.09146">
        <ele>1765</ele>
        <time>2013-02-09T11:51:50Z</time>
      </trkpt>
      <trkpt lat="43.00824" lon="0.09145">
        <ele>1765</ele>
        <time>2013-02-09T11:51:52Z</time>
      </trkpt>
      <trkpt lat="43.00822" lon="0.09144">
        <ele>1766</ele>
        <time>2013-02-09T11:51:54Z</time>
      </trkpt>
      <trkpt lat="43.00821" lon="0.09143">
        <ele>1766</ele>
        <time>2013-02-09T11:51:56Z</time>
      </trkpt>
      <trkpt lat="43.0082" lon="0.09141">
        <ele>1766</ele>
        <time>2013-02-09T11:51:58Z</time>
      </trkpt>
      <trkpt lat="43.00819" lon="0.0914">
        <ele>1766</ele>
        <time>2013-02-09T11:52:00Z</time>
      </trkpt>
      <trkpt lat="43.00817" lon="0.09139">
        <ele>1766</ele>
        <time>2013-02-09T11:52:02Z</time>
      </trkpt>
      <trkpt lat="43.00816" lon="0.09138">
        <ele>1766</ele>
        <time>2013-02-09T11:52:04Z</time>
      </trkpt>
      <trkpt lat="43.00815" lon="0.09137">
        <ele>1767</ele>
        <time>2013-02-09T11:52:06Z</time>
      </trkpt>
      <trkpt lat="43.00814" lon="0.09136">
        <ele>1767</ele>
        <time>2013-02-09T11:52:08Z</time>
      </trkpt>
      <trkpt lat="43.00812" lon="0.09135">
        <ele>1767</ele>
        <time>2013-02-09T11:52:10Z</time>
      </trkpt>
      <trkpt lat="43.00811" lon="0.09134">
        <ele>1767</ele>
        <time>2013-02-09T11:52:12Z</time>
      </trkpt>
      <trkpt lat="43.00809" lon="0.09134">
        <ele>1768</ele>
        <time>2013-02-09T11:52:14Z</time>
      </trkpt>
      <trkpt lat="43.00808" lon="0.09133">
        <ele>1768</ele>
        <time>2013-02-09T11:52:16Z</time>
      </trkpt>
      <trkpt lat="43.00806" lon="0.09132">
        <ele>1768</ele>
        <time>2013-02-09T11:52:18Z</time>
      </trkpt>
      <trkpt lat="43.00805" lon="0.09131">
        <ele>1768</ele>
        <time>2013-02-09T11:52:20Z</time>
      </trkpt>
      <trkpt lat="43.00804" lon="0.0913">
        <ele>1768</ele>
        <time>2013-02-09T11:52:22Z</time>
      </trkpt>
      <trkpt lat="43.00802" lon="0.09129">
        <ele>1768</ele>
        <time>2013-02-09T11:52:24Z</time>
      </trkpt>
      <trkpt lat="43.00801" lon="0.09128">
        <ele>1769</ele>
        <time>2013-02-09T11:52:26Z</time>
      </trkpt>
      <trkpt lat="43.008" lon="0.09128">
        <ele>1769</ele>
        <time>2013-02-09T11:52:28Z</time>
      </trkpt>
      <trkpt lat="43.00798" lon="0.09127">
        <ele>1769</ele>
        <time>2013-02-09T11:52:30Z</time>
      </trkpt>
      <trkpt lat="43.00797" lon="0.09127">
        <ele>1769</ele>
        <time>2013-02-09T11:52:32Z</time>
      </trkpt>
      <trkpt lat="43.00796" lon="0.09126">
        <ele>1770</ele>
        <time>2013-02-09T11:52:34Z</time>
      </trkpt>
      <trkpt lat="43.00795" lon="0.09125">
        <ele>1770</ele>
        <time>2013-02-09T11:52:36Z</time>
      </trkpt>
      <trkpt lat="43.00794" lon="0.09125">
        <ele>1770</ele>
        <time>2013-02-09T11:52:38Z</time>
      </trkpt>
      <trkpt lat="43.00792" lon="0.09124">
        <ele>1770</ele>
        <time>2013-02-09T11:52:40Z</time>
      </trkpt>
      <trkpt lat="43.00791" lon="0.09123">
        <ele>1771</ele>
        <time>2013-02-09T11:52:42Z</time>
      </trkpt>
      <trkpt lat="43.0079" lon="0.09123">
        <ele>1771</ele>
        <time>2013-02-09T11:52:44Z</time>
      </trkpt>
      <trkpt lat="43.00788" lon="0.09122">
        <ele>1771</ele>
        <time>2013-02-09T11:52:46Z</time>
      </trkpt>
      <trkpt lat="43.00787" lon="0.09121">
        <ele>1772</ele>
        <time>2013-02-09T11:52:49Z</time>
      </trkpt>
      <trkpt lat="43.00785" lon="0.0912">
        <ele>1772</ele>
        <time>2013-02-09T11:52:51Z</time>
      </trkpt>
      <trkpt lat="43.00784" lon="0.0912">
        <ele>1772</ele>
        <time>2013-02-09T11:52:53Z</time>
      </trkpt>
      <trkpt lat="43.00783" lon="0.09119">
        <ele>1773</ele>
        <time>2013-02-09T11:52:55Z</time>
      </trkpt>
      <trkpt lat="43.00782" lon="0.09117">
        <ele>1773</ele>
        <time>2013-02-09T11:52:57Z</time>
      </trkpt>
      <trkpt lat="43.00781" lon="0.09117">
        <ele>1773</ele>
        <time>2013-02-09T11:52:59Z</time>
      </trkpt>
      <trkpt lat="43.00779" lon="0.09116">
        <ele>1774</ele>
        <time>2013-02-09T11:53:02Z</time>
      </trkpt>
      <trkpt lat="43.00778" lon="0.09114">
        <ele>1774</ele>
        <time>2013-02-09T11:53:05Z</time>
      </trkpt>
      <trkpt lat="43.00777" lon="0.09112">
        <ele>1775</ele>
        <time>2013-02-09T11:53:12Z</time>
      </trkpt>
      <trkpt lat="43.00776" lon="0.09111">
        <ele>1775</ele>
        <time>2013-02-09T11:53:14Z</time>
      </trkpt>
      <trkpt lat="43.00774" lon="0.0911">
        <ele>1775</ele>
        <time>2013-02-09T11:53:16Z</time>
      </trkpt>
      <trkpt lat="43.00773" lon="0.09108">
        <ele>1775</ele>
        <time>2013-02-09T11:53:18Z</time>
      </trkpt>
      <trkpt lat="43.00772" lon="0.09107">
        <ele>1775</ele>
        <time>2013-02-09T11:53:20Z</time>
      </trkpt>
      <trkpt lat="43.00771" lon="0.09106">
        <ele>1776</ele>
        <time>2013-02-09T11:53:22Z</time>
      </trkpt>
      <trkpt lat="43.00769" lon="0.09105">
        <ele>1776</ele>
        <time>2013-02-09T11:53:24Z</time>
      </trkpt>
      <trkpt lat="43.00768" lon="0.09104">
        <ele>1776</ele>
        <time>2013-02-09T11:53:26Z</time>
      </trkpt>
      <trkpt lat="43.00767" lon="0.09103">
        <ele>1776</ele>
        <time>2013-02-09T11:53:28Z</time>
      </trkpt>
      <trkpt lat="43.00766" lon="0.09101">
        <ele>1776</ele>
        <time>2013-02-09T11:53:30Z</time>
      </trkpt>
      <trkpt lat="43.00764" lon="0.09099">
        <ele>1777</ele>
        <time>2013-02-09T11:53:32Z</time>
      </trkpt>
      <trkpt lat="43.00763" lon="0.09098">
        <ele>1777</ele>
        <time>2013-02-09T11:53:34Z</time>
      </trkpt>
      <trkpt lat="43.00762" lon="0.09096">
        <ele>1778</ele>
        <time>2013-02-09T11:53:36Z</time>
      </trkpt>
      <trkpt lat="43.00761" lon="0.09095">
        <ele>1778</ele>
        <time>2013-02-09T11:53:38Z</time>
      </trkpt>
      <trkpt lat="43.0076" lon="0.09093">
        <ele>1778</ele>
        <time>2013-02-09T11:53:40Z</time>
      </trkpt>
      <trkpt lat="43.00758" lon="0.09092">
        <ele>1778</ele>
        <time>2013-02-09T11:53:43Z</time>
      </trkpt>
      <trkpt lat="43.00757" lon="0.0909">
        <ele>1778</ele>
        <time>2013-02-09T11:53:45Z</time>
      </trkpt>
      <trkpt lat="43.00756" lon="0.09089">
        <ele>1779</ele>
        <time>2013-02-09T11:53:47Z</time>
      </trkpt>
      <trkpt lat="43.00754" lon="0.09088">
        <ele>1779</ele>
        <time>2013-02-09T11:53:50Z</time>
      </trkpt>
      <trkpt lat="43.00753" lon="0.09086">
        <ele>1779</ele>
        <time>2013-02-09T11:53:53Z</time>
      </trkpt>
      <trkpt lat="43.00751" lon="0.09084">
        <ele>1780</ele>
        <time>2013-02-09T11:53:56Z</time>
      </trkpt>
      <trkpt lat="43.0075" lon="0.09083">
        <ele>1780</ele>
        <time>2013-02-09T11:53:58Z</time>
      </trkpt>
      <trkpt lat="43.00749" lon="0.09081">
        <ele>1780</ele>
        <time>2013-02-09T11:54:00Z</time>
      </trkpt>
      <trkpt lat="43.00748" lon="0.0908">
        <ele>1780</ele>
        <time>2013-02-09T11:54:02Z</time>
      </trkpt>
      <trkpt lat="43.00747" lon="0.09078">
        <ele>1781</ele>
        <time>2013-02-09T11:54:04Z</time>
      </trkpt>
      <trkpt lat="43.00746" lon="0.09077">
        <ele>1781</ele>
        <time>2013-02-09T11:54:06Z</time>
      </trkpt>
      <trkpt lat="43.00745" lon="0.09075">
        <ele>1781</ele>
        <time>2013-02-09T11:54:09Z</time>
      </trkpt>
      <trkpt lat="43.00744" lon="0.09073">
        <ele>1781</ele>
        <time>2013-02-09T11:54:11Z</time>
      </trkpt>
      <trkpt lat="43.00742" lon="0.09072">
        <ele>1781</ele>
        <time>2013-02-09T11:54:13Z</time>
      </trkpt>
      <trkpt lat="43.00741" lon="0.0907">
        <ele>1782</ele>
        <time>2013-02-09T11:54:15Z</time>
      </trkpt>
      <trkpt lat="43.0074" lon="0.09069">
        <ele>1782</ele>
        <time>2013-02-09T11:54:17Z</time>
      </trkpt>
      <trkpt lat="43.00739" lon="0.09067">
        <ele>1782</ele>
        <time>2013-02-09T11:54:19Z</time>
      </trkpt>
      <trkpt lat="43.00738" lon="0.09066">
        <ele>1783</ele>
        <time>2013-02-09T11:54:21Z</time>
      </trkpt>
      <trkpt lat="43.00737" lon="0.09064">
        <ele>1783</ele>
        <time>2013-02-09T11:54:25Z</time>
      </trkpt>
      <trkpt lat="43.00735" lon="0.09063">
        <ele>1784</ele>
        <time>2013-02-09T11:54:28Z</time>
      </trkpt>
      <trkpt lat="43.00734" lon="0.09062">
        <ele>1784</ele>
        <time>2013-02-09T11:54:30Z</time>
      </trkpt>
      <trkpt lat="43.00733" lon="0.09061">
        <ele>1784</ele>
        <time>2013-02-09T11:54:32Z</time>
      </trkpt>
      <trkpt lat="43.00732" lon="0.09059">
        <ele>1784</ele>
        <time>2013-02-09T11:54:35Z</time>
      </trkpt>
      <trkpt lat="43.0073" lon="0.09058">
        <ele>1785</ele>
        <time>2013-02-09T11:54:37Z</time>
      </trkpt>
      <trkpt lat="43.00729" lon="0.09057">
        <ele>1785</ele>
        <time>2013-02-09T11:54:40Z</time>
      </trkpt>
      <trkpt lat="43.00727" lon="0.09055">
        <ele>1785</ele>
        <time>2013-02-09T11:54:43Z</time>
      </trkpt>
      <trkpt lat="43.00726" lon="0.09054">
        <ele>1786</ele>
        <time>2013-02-09T11:54:45Z</time>
      </trkpt>
      <trkpt lat="43.00724" lon="0.09053">
        <ele>1786</ele>
        <time>2013-02-09T11:54:48Z</time>
      </trkpt>
      <trkpt lat="43.00723" lon="0.09052">
        <ele>1786</ele>
        <time>2013-02-09T11:54:50Z</time>
      </trkpt>
      <trkpt lat="43.00722" lon="0.09051">
        <ele>1786</ele>
        <time>2013-02-09T11:54:52Z</time>
      </trkpt>
      <trkpt lat="43.00721" lon="0.09049">
        <ele>1787</ele>
        <time>2013-02-09T11:54:54Z</time>
      </trkpt>
      <trkpt lat="43.00719" lon="0.09048">
        <ele>1787</ele>
        <time>2013-02-09T11:54:56Z</time>
      </trkpt>
      <trkpt lat="43.00718" lon="0.09047">
        <ele>1787</ele>
        <time>2013-02-09T11:54:59Z</time>
      </trkpt>
      <trkpt lat="43.00717" lon="0.09046">
        <ele>1789</ele>
        <time>2013-02-09T11:55:30Z</time>
      </trkpt>
      <trkpt lat="43.00716" lon="0.09045">
        <ele>1789</ele>
        <time>2013-02-09T11:55:32Z</time>
      </trkpt>
      <trkpt lat="43.00714" lon="0.09044">
        <ele>1789</ele>
        <time>2013-02-09T11:55:34Z</time>
      </trkpt>
      <trkpt lat="43.00713" lon="0.09042">
        <ele>1789</ele>
        <time>2013-02-09T11:55:37Z</time>
      </trkpt>
      <trkpt lat="43.00711" lon="0.09041">
        <ele>1790</ele>
        <time>2013-02-09T11:55:40Z</time>
      </trkpt>
      <trkpt lat="43.0071" lon="0.0904">
        <ele>1790</ele>
        <time>2013-02-09T11:55:42Z</time>
      </trkpt>
      <trkpt lat="43.00708" lon="0.09039">
        <ele>1791</ele>
        <time>2013-02-09T11:55:45Z</time>
      </trkpt>
      <trkpt lat="43.00707" lon="0.09038">
        <ele>1791</ele>
        <time>2013-02-09T11:55:47Z</time>
      </trkpt>
      <trkpt lat="43.00706" lon="0.09037">
        <ele>1791</ele>
        <time>2013-02-09T11:55:49Z</time>
      </trkpt>
      <trkpt lat="43.00705" lon="0.09036">
        <ele>1792</ele>
        <time>2013-02-09T11:55:51Z</time>
      </trkpt>
      <trkpt lat="43.00703" lon="0.09035">
        <ele>1792</ele>
        <time>2013-02-09T11:55:53Z</time>
      </trkpt>
      <trkpt lat="43.00702" lon="0.09033">
        <ele>1792</ele>
        <time>2013-02-09T11:55:56Z</time>
      </trkpt>
      <trkpt lat="43.00701" lon="0.09035">
        <ele>1793</ele>
        <time>2013-02-09T11:56:01Z</time>
      </trkpt>
      <trkpt lat="43.007" lon="0.09037">
        <ele>1793</ele>
        <time>2013-02-09T11:56:03Z</time>
      </trkpt>
      <trkpt lat="43.007" lon="0.09039">
        <ele>1794</ele>
        <time>2013-02-09T11:56:05Z</time>
      </trkpt>
      <trkpt lat="43.007" lon="0.09041">
        <ele>1794</ele>
        <time>2013-02-09T11:56:08Z</time>
      </trkpt>
      <trkpt lat="43.007" lon="0.09043">
        <ele>1794</ele>
        <time>2013-02-09T11:56:10Z</time>
      </trkpt>
      <trkpt lat="43.00699" lon="0.09045">
        <ele>1795</ele>
        <time>2013-02-09T11:56:12Z</time>
      </trkpt>
      <trkpt lat="43.00699" lon="0.09047">
        <ele>1795</ele>
        <time>2013-02-09T11:56:14Z</time>
      </trkpt>
      <trkpt lat="43.00698" lon="0.09048">
        <ele>1796</ele>
        <time>2013-02-09T11:56:18Z</time>
      </trkpt>
      <trkpt lat="43.00697" lon="0.09047">
        <ele>1797</ele>
        <time>2013-02-09T11:56:20Z</time>
      </trkpt>
      <trkpt lat="43.00695" lon="0.09045">
        <ele>1797</ele>
        <time>2013-02-09T11:56:23Z</time>
      </trkpt>
      <trkpt lat="43.00694" lon="0.09044">
        <ele>1798</ele>
        <time>2013-02-09T11:56:26Z</time>
      </trkpt>
      <trkpt lat="43.00692" lon="0.09042">
        <ele>1798</ele>
        <time>2013-02-09T11:56:29Z</time>
      </trkpt>
      <trkpt lat="43.00691" lon="0.09044">
        <ele>1799</ele>
        <time>2013-02-09T11:56:35Z</time>
      </trkpt>
      <trkpt lat="43.0069" lon="0.09046">
        <ele>1799</ele>
        <time>2013-02-09T11:56:54Z</time>
      </trkpt>
      <trkpt lat="43.00689" lon="0.09048">
        <ele>1799</ele>
        <time>2013-02-09T11:56:57Z</time>
      </trkpt>
      <trkpt lat="43.00688" lon="0.0905">
        <ele>1800</ele>
        <time>2013-02-09T11:57:00Z</time>
      </trkpt>
      <trkpt lat="43.00687" lon="0.09049">
        <ele>1801</ele>
        <time>2013-02-09T11:57:03Z</time>
      </trkpt>
      <trkpt lat="43.00685" lon="0.09048">
        <ele>1801</ele>
        <time>2013-02-09T11:57:06Z</time>
      </trkpt>
      <trkpt lat="43.00684" lon="0.09047">
        <ele>1802</ele>
        <time>2013-02-09T11:57:08Z</time>
      </trkpt>
      <trkpt lat="43.00682" lon="0.09047">
        <ele>1802</ele>
        <time>2013-02-09T11:57:11Z</time>
      </trkpt>
      <trkpt lat="43.00681" lon="0.09046">
        <ele>1803</ele>
        <time>2013-02-09T11:57:14Z</time>
      </trkpt>
      <trkpt lat="43.0068" lon="0.09045">
        <ele>1804</ele>
        <time>2013-02-09T11:57:17Z</time>
      </trkpt>
      <trkpt lat="43.00679" lon="0.09044">
        <ele>1804</ele>
        <time>2013-02-09T11:57:20Z</time>
      </trkpt>
      <trkpt lat="43.00677" lon="0.09043">
        <ele>1805</ele>
        <time>2013-02-09T11:57:23Z</time>
      </trkpt>
      <trkpt lat="43.00676" lon="0.09041">
        <ele>1805</ele>
        <time>2013-02-09T11:57:26Z</time>
      </trkpt>
      <trkpt lat="43.00674" lon="0.0904">
        <ele>1806</ele>
        <time>2013-02-09T11:57:29Z</time>
      </trkpt>
      <trkpt lat="43.00673" lon="0.09039">
        <ele>1806</ele>
        <time>2013-02-09T11:57:31Z</time>
      </trkpt>
      <trkpt lat="43.00671" lon="0.09038">
        <ele>1808</ele>
        <time>2013-02-09T11:57:44Z</time>
      </trkpt>
      <trkpt lat="43.0067" lon="0.09039">
        <ele>1808</ele>
        <time>2013-02-09T11:57:46Z</time>
      </trkpt>
      <trkpt lat="43.00669" lon="0.09039">
        <ele>1808</ele>
        <time>2013-02-09T11:57:48Z</time>
      </trkpt>
      <trkpt lat="43.00668" lon="0.09039">
        <ele>1808</ele>
        <time>2013-02-09T11:57:50Z</time>
      </trkpt>
      <trkpt lat="43.00666" lon="0.09039">
        <ele>1809</ele>
        <time>2013-02-09T11:57:52Z</time>
      </trkpt>
      <trkpt lat="43.00665" lon="0.09038">
        <ele>1809</ele>
        <time>2013-02-09T11:57:54Z</time>
      </trkpt>
      <trkpt lat="43.00663" lon="0.09038">
        <ele>1810</ele>
        <time>2013-02-09T11:57:56Z</time>
      </trkpt>
      <trkpt lat="43.00661" lon="0.09039">
        <ele>1810</ele>
        <time>2013-02-09T11:57:58Z</time>
      </trkpt>
      <trkpt lat="43.0066" lon="0.09038">
        <ele>1811</ele>
        <time>2013-02-09T11:58:00Z</time>
      </trkpt>
      <trkpt lat="43.00658" lon="0.09038">
        <ele>1811</ele>
        <time>2013-02-09T11:58:02Z</time>
      </trkpt>
      <trkpt lat="43.00657" lon="0.09037">
        <ele>1811</ele>
        <time>2013-02-09T11:58:04Z</time>
      </trkpt>
      <trkpt lat="43.00655" lon="0.09036">
        <ele>1812</ele>
        <time>2013-02-09T11:58:06Z</time>
      </trkpt>
      <trkpt lat="43.00653" lon="0.09035">
        <ele>1812</ele>
        <time>2013-02-09T11:58:08Z</time>
      </trkpt>
      <trkpt lat="43.00652" lon="0.09034">
        <ele>1812</ele>
        <time>2013-02-09T11:58:10Z</time>
      </trkpt>
      <trkpt lat="43.0065" lon="0.09033">
        <ele>1812</ele>
        <time>2013-02-09T11:58:12Z</time>
      </trkpt>
      <trkpt lat="43.00648" lon="0.09032">
        <ele>1812</ele>
        <time>2013-02-09T11:58:14Z</time>
      </trkpt>
      <trkpt lat="43.00647" lon="0.09031">
        <ele>1812</ele>
        <time>2013-02-09T11:58:16Z</time>
      </trkpt>
      <trkpt lat="43.00645" lon="0.09031">
        <ele>1812</ele>
        <time>2013-02-09T11:58:18Z</time>
      </trkpt>
      <trkpt lat="43.00643" lon="0.0903">
        <ele>1812</ele>
        <time>2013-02-09T11:58:20Z</time>
      </trkpt>
      <trkpt lat="43.00642" lon="0.09029">
        <ele>1812</ele>
        <time>2013-02-09T11:58:22Z</time>
      </trkpt>
      <trkpt lat="43.0064" lon="0.09029">
        <ele>1812</ele>
        <time>2013-02-09T11:58:24Z</time>
      </trkpt>
      <trkpt lat="43.00639" lon="0.09028">
        <ele>1813</ele>
        <time>2013-02-09T11:58:26Z</time>
      </trkpt>
      <trkpt lat="43.00637" lon="0.09027">
        <ele>1813</ele>
        <time>2013-02-09T11:58:28Z</time>
      </trkpt>
      <trkpt lat="43.00635" lon="0.09026">
        <ele>1813</ele>
        <time>2013-02-09T11:58:30Z</time>
      </trkpt>
      <trkpt lat="43.00634" lon="0.09025">
        <ele>1813</ele>
        <time>2013-02-09T11:58:32Z</time>
      </trkpt>
      <trkpt lat="43.00632" lon="0.09025">
        <ele>1813</ele>
        <time>2013-02-09T11:58:34Z</time>
      </trkpt>
      <trkpt lat="43.0063" lon="0.09024">
        <ele>1813</ele>
        <time>2013-02-09T11:58:36Z</time>
      </trkpt>
      <trkpt lat="43.00629" lon="0.09023">
        <ele>1813</ele>
        <time>2013-02-09T11:58:38Z</time>
      </trkpt>
      <trkpt lat="43.00627" lon="0.09022">
        <ele>1814</ele>
        <time>2013-02-09T11:58:41Z</time>
      </trkpt>
      <trkpt lat="43.00626" lon="0.09022">
        <ele>1814</ele>
        <time>2013-02-09T11:58:43Z</time>
      </trkpt>
      <trkpt lat="43.00625" lon="0.09021">
        <ele>1814</ele>
        <time>2013-02-09T11:58:45Z</time>
      </trkpt>
      <trkpt lat="43.00624" lon="0.0902">
        <ele>1815</ele>
        <time>2013-02-09T11:58:47Z</time>
      </trkpt>
      <trkpt lat="43.00623" lon="0.0902">
        <ele>1815</ele>
        <time>2013-02-09T11:58:49Z</time>
      </trkpt>
      <trkpt lat="43.00621" lon="0.09019">
        <ele>1815</ele>
        <time>2013-02-09T11:58:51Z</time>
      </trkpt>
      <trkpt lat="43.0062" lon="0.09018">
        <ele>1815</ele>
        <time>2013-02-09T11:58:54Z</time>
      </trkpt>
      <trkpt lat="43.00619" lon="0.09017">
        <ele>1815</ele>
        <time>2013-02-09T11:58:56Z</time>
      </trkpt>
      <trkpt lat="43.00617" lon="0.09015">
        <ele>1816</ele>
        <time>2013-02-09T11:58:59Z</time>
      </trkpt>
      <trkpt lat="43.00616" lon="0.09014">
        <ele>1816</ele>
        <time>2013-02-09T11:59:02Z</time>
      </trkpt>
      <trkpt lat="43.00615" lon="0.09013">
        <ele>1816</ele>
        <time>2013-02-09T11:59:04Z</time>
      </trkpt>
      <trkpt lat="43.00613" lon="0.09012">
        <ele>1817</ele>
        <time>2013-02-09T11:59:07Z</time>
      </trkpt>
      <trkpt lat="43.00612" lon="0.09011">
        <ele>1817</ele>
        <time>2013-02-09T11:59:10Z</time>
      </trkpt>
      <trkpt lat="43.0061" lon="0.0901">
        <ele>1817</ele>
        <time>2013-02-09T11:59:13Z</time>
      </trkpt>
      <trkpt lat="43.00609" lon="0.09009">
        <ele>1818</ele>
        <time>2013-02-09T11:59:16Z</time>
      </trkpt>
      <trkpt lat="43.00607" lon="0.09008">
        <ele>1818</ele>
        <time>2013-02-09T11:59:19Z</time>
      </trkpt>
      <trkpt lat="43.00606" lon="0.09007">
        <ele>1818</ele>
        <time>2013-02-09T11:59:22Z</time>
      </trkpt>
      <trkpt lat="43.00604" lon="0.09005">
        <ele>1819</ele>
        <time>2013-02-09T11:59:25Z</time>
      </trkpt>
      <trkpt lat="43.00603" lon="0.09004">
        <ele>1819</ele>
        <time>2013-02-09T11:59:27Z</time>
      </trkpt>
      <trkpt lat="43.00602" lon="0.09004">
        <ele>1819</ele>
        <time>2013-02-09T11:59:29Z</time>
      </trkpt>
      <trkpt lat="43.00601" lon="0.09003">
        <ele>1820</ele>
        <time>2013-02-09T11:59:31Z</time>
      </trkpt>
      <trkpt lat="43.00599" lon="0.09002">
        <ele>1820</ele>
        <time>2013-02-09T11:59:34Z</time>
      </trkpt>
      <trkpt lat="43.00598" lon="0.09001">
        <ele>1820</ele>
        <time>2013-02-09T11:59:36Z</time>
      </trkpt>
      <trkpt lat="43.00597" lon="0.09">
        <ele>1820</ele>
        <time>2013-02-09T11:59:38Z</time>
      </trkpt>
      <trkpt lat="43.00595" lon="0.08999">
        <ele>1821</ele>
        <time>2013-02-09T11:59:40Z</time>
      </trkpt>
      <trkpt lat="43.00594" lon="0.08998">
        <ele>1821</ele>
        <time>2013-02-09T11:59:42Z</time>
      </trkpt>
      <trkpt lat="43.00593" lon="0.08997">
        <ele>1821</ele>
        <time>2013-02-09T11:59:44Z</time>
      </trkpt>
      <trkpt lat="43.00592" lon="0.08997">
        <ele>1821</ele>
        <time>2013-02-09T11:59:46Z</time>
      </trkpt>
      <trkpt lat="43.00591" lon="0.08996">
        <ele>1821</ele>
        <time>2013-02-09T11:59:48Z</time>
      </trkpt>
      <trkpt lat="43.00589" lon="0.08995">
        <ele>1821</ele>
        <time>2013-02-09T11:59:50Z</time>
      </trkpt>
      <trkpt lat="43.00588" lon="0.08994">
        <ele>1821</ele>
        <time>2013-02-09T11:59:52Z</time>
      </trkpt>
      <trkpt lat="43.00587" lon="0.08993">
        <ele>1821</ele>
        <time>2013-02-09T11:59:54Z</time>
      </trkpt>
      <trkpt lat="43.00586" lon="0.08993">
        <ele>1821</ele>
        <time>2013-02-09T11:59:56Z</time>
      </trkpt>
      <trkpt lat="43.00584" lon="0.08992">
        <ele>1821</ele>
        <time>2013-02-09T11:59:58Z</time>
      </trkpt>
      <trkpt lat="43.00583" lon="0.08991">
        <ele>1821</ele>
        <time>2013-02-09T12:00:00Z</time>
      </trkpt>
      <trkpt lat="43.00582" lon="0.0899">
        <ele>1821</ele>
        <time>2013-02-09T12:00:02Z</time>
      </trkpt>
      <trkpt lat="43.00581" lon="0.08989">
        <ele>1821</ele>
        <time>2013-02-09T12:00:04Z</time>
      </trkpt>
      <trkpt lat="43.0058" lon="0.08988">
        <ele>1822</ele>
        <time>2013-02-09T12:00:06Z</time>
      </trkpt>
      <trkpt lat="43.00578" lon="0.08986">
        <ele>1822</ele>
        <time>2013-02-09T12:00:09Z</time>
      </trkpt>
      <trkpt lat="43.00576" lon="0.08985">
        <ele>1822</ele>
        <time>2013-02-09T12:00:11Z</time>
      </trkpt>
      <trkpt lat="43.00575" lon="0.08984">
        <ele>1822</ele>
        <time>2013-02-09T12:00:13Z</time>
      </trkpt>
      <trkpt lat="43.00573" lon="0.08983">
        <ele>1822</ele>
        <time>2013-02-09T12:00:15Z</time>
      </trkpt>
      <trkpt lat="43.00572" lon="0.08982">
        <ele>1822</ele>
        <time>2013-02-09T12:00:17Z</time>
      </trkpt>
      <trkpt lat="43.0057" lon="0.08981">
        <ele>1822</ele>
        <time>2013-02-09T12:00:19Z</time>
      </trkpt>
      <trkpt lat="43.00569" lon="0.08981">
        <ele>1822</ele>
        <time>2013-02-09T12:01:16Z</time>
      </trkpt>
      <trkpt lat="43.0057" lon="0.08982">
        <ele>1822</ele>
        <time>2013-02-09T12:01:42Z</time>
      </trkpt>
      <trkpt lat="43.0057" lon="0.08983">
        <ele>1822</ele>
        <time>2013-02-09T12:01:47Z</time>
      </trkpt>
    </trkseg>
  </trk>
</gpx>